<?xml version="1.0" encoding="UTF-8" standalone="no" ?>
<gpx xmlns="http://www.topografix.com/GPX/1/1" xmlns:xsi="http://www.w3.org/2001/XMLSchema-instance" xsi:schemaLocation="http://www.topografix.com/GPX/1/1 http://www.topografix.com/GPX/1/1/gpx.xsd" version="1.1" creator="VisuGPX - https://www.visugpx.com">
  <metadata>
    <name>Etale, tour et sommet au départ de la Fontaine Bartoud  !</name>
    <desc><![CDATA[Itinéraire majeure et de grande ampleur !
]]></desc>
  </metadata>
  <trk>
    <name><![CDATA[2015-03-12 17:21:57]]></name>
    <trkseg>
      <trkpt lat="45.86654" lon="6.49026">
        <ele>1196.98</ele>
        <time>2015-03-12T06:31:53Z</time>
      </trkpt>
      <trkpt lat="45.86654" lon="6.49026">
        <ele>1196.98</ele>
        <time>2015-03-12T06:31:54Z</time>
      </trkpt>
      <trkpt lat="45.86654" lon="6.49026">
        <ele>1196.98</ele>
        <time>2015-03-12T06:31:55Z</time>
      </trkpt>
      <trkpt lat="45.86654" lon="6.49027">
        <ele>1196.5</ele>
        <time>2015-03-12T06:32:10Z</time>
      </trkpt>
      <trkpt lat="45.86653" lon="6.49026">
        <ele>1197.46</ele>
        <time>2015-03-12T06:32:30Z</time>
      </trkpt>
      <trkpt lat="45.86651" lon="6.49026">
        <ele>1197.46</ele>
        <time>2015-03-12T06:32:47Z</time>
      </trkpt>
      <trkpt lat="45.86651" lon="6.49027">
        <ele>1197.46</ele>
        <time>2015-03-12T06:33:12Z</time>
      </trkpt>
      <trkpt lat="45.86645" lon="6.49025">
        <ele>1196.02</ele>
        <time>2015-03-12T06:33:24Z</time>
      </trkpt>
      <trkpt lat="45.8664" lon="6.49024">
        <ele>1195.54</ele>
        <time>2015-03-12T06:33:30Z</time>
      </trkpt>
      <trkpt lat="45.86628" lon="6.49017">
        <ele>1194.58</ele>
        <time>2015-03-12T06:33:44Z</time>
      </trkpt>
      <trkpt lat="45.86617" lon="6.49004">
        <ele>1193.61</ele>
        <time>2015-03-12T06:33:58Z</time>
      </trkpt>
      <trkpt lat="45.86615" lon="6.48999">
        <ele>1193.13</ele>
        <time>2015-03-12T06:34:05Z</time>
      </trkpt>
      <trkpt lat="45.86601" lon="6.48982">
        <ele>1191.69</ele>
        <time>2015-03-12T06:34:21Z</time>
      </trkpt>
      <trkpt lat="45.86596" lon="6.48976">
        <ele>1191.21</ele>
        <time>2015-03-12T06:34:27Z</time>
      </trkpt>
      <trkpt lat="45.86578" lon="6.48953">
        <ele>1190.25</ele>
        <time>2015-03-12T06:34:46Z</time>
      </trkpt>
      <trkpt lat="45.86563" lon="6.48936">
        <ele>1188.33</ele>
        <time>2015-03-12T06:35:03Z</time>
      </trkpt>
      <trkpt lat="45.86553" lon="6.48925">
        <ele>1187.85</ele>
        <time>2015-03-12T06:35:14Z</time>
      </trkpt>
      <trkpt lat="45.86553" lon="6.48909">
        <ele>1187.37</ele>
        <time>2015-03-12T06:35:25Z</time>
      </trkpt>
      <trkpt lat="45.86554" lon="6.48906">
        <ele>1187.37</ele>
        <time>2015-03-12T06:35:27Z</time>
      </trkpt>
      <trkpt lat="45.86551" lon="6.48889">
        <ele>1185.44</ele>
        <time>2015-03-12T06:35:39Z</time>
      </trkpt>
      <trkpt lat="45.86546" lon="6.48881">
        <ele>1184.48</ele>
        <time>2015-03-12T06:35:52Z</time>
      </trkpt>
      <trkpt lat="45.86544" lon="6.4888">
        <ele>1183.52</ele>
        <time>2015-03-12T06:35:55Z</time>
      </trkpt>
      <trkpt lat="45.86538" lon="6.48874">
        <ele>1181.6</ele>
        <time>2015-03-12T06:36:03Z</time>
      </trkpt>
      <trkpt lat="45.86529" lon="6.48861">
        <ele>1177.75</ele>
        <time>2015-03-12T06:36:16Z</time>
      </trkpt>
      <trkpt lat="45.86528" lon="6.48861">
        <ele>1177.27</ele>
        <time>2015-03-12T06:36:17Z</time>
      </trkpt>
      <trkpt lat="45.86525" lon="6.48862">
        <ele>1175.83</ele>
        <time>2015-03-12T06:36:20Z</time>
      </trkpt>
      <trkpt lat="45.86516" lon="6.48859">
        <ele>1173.91</ele>
        <time>2015-03-12T06:36:28Z</time>
      </trkpt>
      <trkpt lat="45.86503" lon="6.48851">
        <ele>1171.5</ele>
        <time>2015-03-12T06:36:39Z</time>
      </trkpt>
      <trkpt lat="45.86493" lon="6.48833">
        <ele>1169.58</ele>
        <time>2015-03-12T06:36:54Z</time>
      </trkpt>
      <trkpt lat="45.86479" lon="6.48821">
        <ele>1168.14</ele>
        <time>2015-03-12T06:37:10Z</time>
      </trkpt>
      <trkpt lat="45.86475" lon="6.48816">
        <ele>1168.14</ele>
        <time>2015-03-12T06:37:23Z</time>
      </trkpt>
      <trkpt lat="45.86475" lon="6.48816">
        <ele>1171.5</ele>
        <time>2015-03-12T06:37:27Z</time>
      </trkpt>
      <trkpt lat="45.86475" lon="6.48816">
        <ele>1168.14</ele>
        <time>2015-03-12T06:37:28Z</time>
      </trkpt>
      <trkpt lat="45.86476" lon="6.48818">
        <ele>1164.29</ele>
        <time>2015-03-12T06:37:36Z</time>
      </trkpt>
      <trkpt lat="45.86476" lon="6.48818">
        <ele>1168.14</ele>
        <time>2015-03-12T06:37:37Z</time>
      </trkpt>
      <trkpt lat="45.86475" lon="6.48819">
        <ele>1173.91</ele>
        <time>2015-03-12T06:37:41Z</time>
      </trkpt>
      <trkpt lat="45.86475" lon="6.48818">
        <ele>1168.62</ele>
        <time>2015-03-12T06:37:42Z</time>
      </trkpt>
      <trkpt lat="45.86475" lon="6.48814">
        <ele>1168.62</ele>
        <time>2015-03-12T06:38:01Z</time>
      </trkpt>
      <trkpt lat="45.86472" lon="6.48811">
        <ele>1167.66</ele>
        <time>2015-03-12T06:38:21Z</time>
      </trkpt>
      <trkpt lat="45.8646" lon="6.48803">
        <ele>1166.7</ele>
        <time>2015-03-12T06:38:36Z</time>
      </trkpt>
      <trkpt lat="45.86448" lon="6.48788">
        <ele>1165.26</ele>
        <time>2015-03-12T06:38:48Z</time>
      </trkpt>
      <trkpt lat="45.86444" lon="6.4878">
        <ele>1164.77</ele>
        <time>2015-03-12T06:38:53Z</time>
      </trkpt>
      <trkpt lat="45.86439" lon="6.48752">
        <ele>1163.33</ele>
        <time>2015-03-12T06:39:09Z</time>
      </trkpt>
      <trkpt lat="45.86438" lon="6.4873">
        <ele>1162.85</ele>
        <time>2015-03-12T06:39:24Z</time>
      </trkpt>
      <trkpt lat="45.86435" lon="6.48711">
        <ele>1161.41</ele>
        <time>2015-03-12T06:39:38Z</time>
      </trkpt>
      <trkpt lat="45.86436" lon="6.48699">
        <ele>1161.41</ele>
        <time>2015-03-12T06:39:49Z</time>
      </trkpt>
      <trkpt lat="45.86442" lon="6.48681">
        <ele>1160.93</ele>
        <time>2015-03-12T06:40:04Z</time>
      </trkpt>
      <trkpt lat="45.86447" lon="6.48673">
        <ele>1160.45</ele>
        <time>2015-03-12T06:40:11Z</time>
      </trkpt>
      <trkpt lat="45.86455" lon="6.48659">
        <ele>1159.01</ele>
        <time>2015-03-12T06:40:20Z</time>
      </trkpt>
      <trkpt lat="45.8645" lon="6.48633">
        <ele>1158.05</ele>
        <time>2015-03-12T06:40:35Z</time>
      </trkpt>
      <trkpt lat="45.86444" lon="6.4862">
        <ele>1158.05</ele>
        <time>2015-03-12T06:40:49Z</time>
      </trkpt>
      <trkpt lat="45.86444" lon="6.48618">
        <ele>1157.56</ele>
        <time>2015-03-12T06:41:07Z</time>
      </trkpt>
      <trkpt lat="45.86441" lon="6.48615">
        <ele>1159.01</ele>
        <time>2015-03-12T06:41:22Z</time>
      </trkpt>
      <trkpt lat="45.86437" lon="6.48616">
        <ele>1160.45</ele>
        <time>2015-03-12T06:41:36Z</time>
      </trkpt>
      <trkpt lat="45.86435" lon="6.48615">
        <ele>1160.45</ele>
        <time>2015-03-12T06:41:54Z</time>
      </trkpt>
      <trkpt lat="45.86433" lon="6.48617">
        <ele>1162.37</ele>
        <time>2015-03-12T06:42:07Z</time>
      </trkpt>
      <trkpt lat="45.86424" lon="6.48617">
        <ele>1165.26</ele>
        <time>2015-03-12T06:42:22Z</time>
      </trkpt>
      <trkpt lat="45.86416" lon="6.48614">
        <ele>1168.14</ele>
        <time>2015-03-12T06:42:38Z</time>
      </trkpt>
      <trkpt lat="45.86422" lon="6.48604">
        <ele>1170.54</ele>
        <time>2015-03-12T06:42:53Z</time>
      </trkpt>
      <trkpt lat="45.86432" lon="6.4859">
        <ele>1173.91</ele>
        <time>2015-03-12T06:43:11Z</time>
      </trkpt>
      <trkpt lat="45.86433" lon="6.48582">
        <ele>1176.31</ele>
        <time>2015-03-12T06:43:27Z</time>
      </trkpt>
      <trkpt lat="45.86434" lon="6.4857">
        <ele>1177.75</ele>
        <time>2015-03-12T06:43:41Z</time>
      </trkpt>
      <trkpt lat="45.86433" lon="6.48562">
        <ele>1180.16</ele>
        <time>2015-03-12T06:43:56Z</time>
      </trkpt>
      <trkpt lat="45.86429" lon="6.48556">
        <ele>1183.52</ele>
        <time>2015-03-12T06:44:07Z</time>
      </trkpt>
      <trkpt lat="45.86425" lon="6.48547">
        <ele>1185.92</ele>
        <time>2015-03-12T06:44:21Z</time>
      </trkpt>
      <trkpt lat="45.86429" lon="6.48535">
        <ele>1187.85</ele>
        <time>2015-03-12T06:44:35Z</time>
      </trkpt>
      <trkpt lat="45.86433" lon="6.48523">
        <ele>1191.21</ele>
        <time>2015-03-12T06:44:47Z</time>
      </trkpt>
      <trkpt lat="45.8643" lon="6.48507">
        <ele>1194.09</ele>
        <time>2015-03-12T06:45:01Z</time>
      </trkpt>
      <trkpt lat="45.86422" lon="6.48503">
        <ele>1197.46</ele>
        <time>2015-03-12T06:45:14Z</time>
      </trkpt>
      <trkpt lat="45.86411" lon="6.48501">
        <ele>1200.82</ele>
        <time>2015-03-12T06:45:29Z</time>
      </trkpt>
      <trkpt lat="45.86407" lon="6.48506">
        <ele>1202.27</ele>
        <time>2015-03-12T06:45:42Z</time>
      </trkpt>
      <trkpt lat="45.86398" lon="6.48506">
        <ele>1204.19</ele>
        <time>2015-03-12T06:45:55Z</time>
      </trkpt>
      <trkpt lat="45.86392" lon="6.48497">
        <ele>1207.07</ele>
        <time>2015-03-12T06:46:11Z</time>
      </trkpt>
      <trkpt lat="45.86386" lon="6.48486">
        <ele>1209.96</ele>
        <time>2015-03-12T06:46:28Z</time>
      </trkpt>
      <trkpt lat="45.86385" lon="6.48475">
        <ele>1211.88</ele>
        <time>2015-03-12T06:46:45Z</time>
      </trkpt>
      <trkpt lat="45.86382" lon="6.48466">
        <ele>1214.28</ele>
        <time>2015-03-12T06:46:59Z</time>
      </trkpt>
      <trkpt lat="45.86378" lon="6.48457">
        <ele>1216.21</ele>
        <time>2015-03-12T06:47:17Z</time>
      </trkpt>
      <trkpt lat="45.86375" lon="6.48447">
        <ele>1219.09</ele>
        <time>2015-03-12T06:47:31Z</time>
      </trkpt>
      <trkpt lat="45.86375" lon="6.48435">
        <ele>1221.49</ele>
        <time>2015-03-12T06:47:44Z</time>
      </trkpt>
      <trkpt lat="45.86371" lon="6.48425">
        <ele>1223.42</ele>
        <time>2015-03-12T06:47:58Z</time>
      </trkpt>
      <trkpt lat="45.86367" lon="6.48418">
        <ele>1226.78</ele>
        <time>2015-03-12T06:48:10Z</time>
      </trkpt>
      <trkpt lat="45.86364" lon="6.48408">
        <ele>1229.66</ele>
        <time>2015-03-12T06:48:23Z</time>
      </trkpt>
      <trkpt lat="45.8636" lon="6.48397">
        <ele>1232.55</ele>
        <time>2015-03-12T06:48:37Z</time>
      </trkpt>
      <trkpt lat="45.86357" lon="6.48384">
        <ele>1235.43</ele>
        <time>2015-03-12T06:48:53Z</time>
      </trkpt>
      <trkpt lat="45.86356" lon="6.48373">
        <ele>1238.8</ele>
        <time>2015-03-12T06:49:06Z</time>
      </trkpt>
      <trkpt lat="45.86357" lon="6.4836">
        <ele>1240.72</ele>
        <time>2015-03-12T06:49:21Z</time>
      </trkpt>
      <trkpt lat="45.86354" lon="6.48348">
        <ele>1243.6</ele>
        <time>2015-03-12T06:49:37Z</time>
      </trkpt>
      <trkpt lat="45.86356" lon="6.48334">
        <ele>1244.56</ele>
        <time>2015-03-12T06:49:51Z</time>
      </trkpt>
      <trkpt lat="45.86361" lon="6.48326">
        <ele>1246.97</ele>
        <time>2015-03-12T06:50:05Z</time>
      </trkpt>
      <trkpt lat="45.86358" lon="6.48313">
        <ele>1249.85</ele>
        <time>2015-03-12T06:50:21Z</time>
      </trkpt>
      <trkpt lat="45.86356" lon="6.48306">
        <ele>1252.25</ele>
        <time>2015-03-12T06:50:34Z</time>
      </trkpt>
      <trkpt lat="45.86349" lon="6.48294">
        <ele>1254.66</ele>
        <time>2015-03-12T06:50:50Z</time>
      </trkpt>
      <trkpt lat="45.86341" lon="6.48283">
        <ele>1256.58</ele>
        <time>2015-03-12T06:51:06Z</time>
      </trkpt>
      <trkpt lat="45.86337" lon="6.48274">
        <ele>1258.5</ele>
        <time>2015-03-12T06:51:18Z</time>
      </trkpt>
      <trkpt lat="45.8634" lon="6.48263">
        <ele>1260.91</ele>
        <time>2015-03-12T06:51:32Z</time>
      </trkpt>
      <trkpt lat="45.86347" lon="6.48254">
        <ele>1264.27</ele>
        <time>2015-03-12T06:51:49Z</time>
      </trkpt>
      <trkpt lat="45.86346" lon="6.48252">
        <ele>1264.27</ele>
        <time>2015-03-12T06:51:51Z</time>
      </trkpt>
      <trkpt lat="45.86348" lon="6.48238">
        <ele>1267.64</ele>
        <time>2015-03-12T06:52:06Z</time>
      </trkpt>
      <trkpt lat="45.86345" lon="6.4823">
        <ele>1270.04</ele>
        <time>2015-03-12T06:52:21Z</time>
      </trkpt>
      <trkpt lat="45.86342" lon="6.48219">
        <ele>1272.92</ele>
        <time>2015-03-12T06:52:35Z</time>
      </trkpt>
      <trkpt lat="45.86342" lon="6.48207">
        <ele>1275.33</ele>
        <time>2015-03-12T06:52:49Z</time>
      </trkpt>
      <trkpt lat="45.8634" lon="6.48196">
        <ele>1277.73</ele>
        <time>2015-03-12T06:53:05Z</time>
      </trkpt>
      <trkpt lat="45.86338" lon="6.48187">
        <ele>1281.09</ele>
        <time>2015-03-12T06:53:19Z</time>
      </trkpt>
      <trkpt lat="45.86336" lon="6.48175">
        <ele>1283.5</ele>
        <time>2015-03-12T06:53:34Z</time>
      </trkpt>
      <trkpt lat="45.86335" lon="6.48161">
        <ele>1286.38</ele>
        <time>2015-03-12T06:53:50Z</time>
      </trkpt>
      <trkpt lat="45.86333" lon="6.48147">
        <ele>1289.75</ele>
        <time>2015-03-12T06:54:07Z</time>
      </trkpt>
      <trkpt lat="45.86329" lon="6.48138">
        <ele>1292.63</ele>
        <time>2015-03-12T06:54:22Z</time>
      </trkpt>
      <trkpt lat="45.86323" lon="6.48132">
        <ele>1295.99</ele>
        <time>2015-03-12T06:54:37Z</time>
      </trkpt>
      <trkpt lat="45.86318" lon="6.48122">
        <ele>1298.4</ele>
        <time>2015-03-12T06:54:54Z</time>
      </trkpt>
      <trkpt lat="45.86313" lon="6.48109">
        <ele>1301.76</ele>
        <time>2015-03-12T06:55:12Z</time>
      </trkpt>
      <trkpt lat="45.8631" lon="6.48109">
        <ele>1302.24</ele>
        <time>2015-03-12T06:55:28Z</time>
      </trkpt>
      <trkpt lat="45.86305" lon="6.48113">
        <ele>1303.69</ele>
        <time>2015-03-12T06:55:42Z</time>
      </trkpt>
      <trkpt lat="45.86299" lon="6.48105">
        <ele>1306.09</ele>
        <time>2015-03-12T06:55:57Z</time>
      </trkpt>
      <trkpt lat="45.86291" lon="6.48093">
        <ele>1308.49</ele>
        <time>2015-03-12T06:56:14Z</time>
      </trkpt>
      <trkpt lat="45.86282" lon="6.48081">
        <ele>1310.9</ele>
        <time>2015-03-12T06:56:29Z</time>
      </trkpt>
      <trkpt lat="45.86279" lon="6.48069">
        <ele>1311.86</ele>
        <time>2015-03-12T06:56:41Z</time>
      </trkpt>
      <trkpt lat="45.86268" lon="6.48063">
        <ele>1313.78</ele>
        <time>2015-03-12T06:56:56Z</time>
      </trkpt>
      <trkpt lat="45.86259" lon="6.48055">
        <ele>1316.18</ele>
        <time>2015-03-12T06:57:11Z</time>
      </trkpt>
      <trkpt lat="45.86251" lon="6.48044">
        <ele>1318.59</ele>
        <time>2015-03-12T06:57:28Z</time>
      </trkpt>
      <trkpt lat="45.86243" lon="6.48038">
        <ele>1321.47</ele>
        <time>2015-03-12T06:57:43Z</time>
      </trkpt>
      <trkpt lat="45.86236" lon="6.48047">
        <ele>1324.83</ele>
        <time>2015-03-12T06:57:57Z</time>
      </trkpt>
      <trkpt lat="45.86226" lon="6.4806">
        <ele>1325.8</ele>
        <time>2015-03-12T06:58:14Z</time>
      </trkpt>
      <trkpt lat="45.86219" lon="6.48068">
        <ele>1328.2</ele>
        <time>2015-03-12T06:58:31Z</time>
      </trkpt>
      <trkpt lat="45.8621" lon="6.48072">
        <ele>1331.56</ele>
        <time>2015-03-12T06:58:47Z</time>
      </trkpt>
      <trkpt lat="45.86202" lon="6.48083">
        <ele>1333.97</ele>
        <time>2015-03-12T06:59:03Z</time>
      </trkpt>
      <trkpt lat="45.86194" lon="6.48082">
        <ele>1335.41</ele>
        <time>2015-03-12T06:59:18Z</time>
      </trkpt>
      <trkpt lat="45.86188" lon="6.48073">
        <ele>1337.81</ele>
        <time>2015-03-12T06:59:34Z</time>
      </trkpt>
      <trkpt lat="45.86187" lon="6.48074">
        <ele>1327.72</ele>
        <time>2015-03-12T06:59:49Z</time>
      </trkpt>
      <trkpt lat="45.86187" lon="6.48075">
        <ele>1337.81</ele>
        <time>2015-03-12T06:59:50Z</time>
      </trkpt>
      <trkpt lat="45.86186" lon="6.48073">
        <ele>1333.01</ele>
        <time>2015-03-12T07:00:03Z</time>
      </trkpt>
      <trkpt lat="45.86185" lon="6.48073">
        <ele>1341.66</ele>
        <time>2015-03-12T07:00:04Z</time>
      </trkpt>
      <trkpt lat="45.86185" lon="6.48073">
        <ele>1337.81</ele>
        <time>2015-03-12T07:00:05Z</time>
      </trkpt>
      <trkpt lat="45.86185" lon="6.48073">
        <ele>1334.45</ele>
        <time>2015-03-12T07:00:06Z</time>
      </trkpt>
      <trkpt lat="45.86185" lon="6.48073">
        <ele>1340.7</ele>
        <time>2015-03-12T07:00:07Z</time>
      </trkpt>
      <trkpt lat="45.86187" lon="6.48073">
        <ele>1337.33</ele>
        <time>2015-03-12T07:00:16Z</time>
      </trkpt>
      <trkpt lat="45.86187" lon="6.48074">
        <ele>1336.85</ele>
        <time>2015-03-12T07:00:25Z</time>
      </trkpt>
      <trkpt lat="45.86186" lon="6.48073">
        <ele>1336.85</ele>
        <time>2015-03-12T07:00:45Z</time>
      </trkpt>
      <trkpt lat="45.86189" lon="6.4807">
        <ele>1336.85</ele>
        <time>2015-03-12T07:01:19Z</time>
      </trkpt>
      <trkpt lat="45.86189" lon="6.48072">
        <ele>1337.81</ele>
        <time>2015-03-12T07:01:21Z</time>
      </trkpt>
      <trkpt lat="45.86188" lon="6.48076">
        <ele>1337.81</ele>
        <time>2015-03-12T07:01:42Z</time>
      </trkpt>
      <trkpt lat="45.86189" lon="6.48078">
        <ele>1337.81</ele>
        <time>2015-03-12T07:02:07Z</time>
      </trkpt>
      <trkpt lat="45.86186" lon="6.48068">
        <ele>1339.73</ele>
        <time>2015-03-12T07:02:23Z</time>
      </trkpt>
      <trkpt lat="45.8618" lon="6.48061">
        <ele>1342.14</ele>
        <time>2015-03-12T07:02:37Z</time>
      </trkpt>
      <trkpt lat="45.86174" lon="6.48055">
        <ele>1344.54</ele>
        <time>2015-03-12T07:02:52Z</time>
      </trkpt>
      <trkpt lat="45.86175" lon="6.48049">
        <ele>1346.46</ele>
        <time>2015-03-12T07:03:03Z</time>
      </trkpt>
      <trkpt lat="45.86176" lon="6.48044">
        <ele>1347.91</ele>
        <time>2015-03-12T07:03:16Z</time>
      </trkpt>
      <trkpt lat="45.86169" lon="6.48038">
        <ele>1349.35</ele>
        <time>2015-03-12T07:03:31Z</time>
      </trkpt>
      <trkpt lat="45.86163" lon="6.4803">
        <ele>1351.27</ele>
        <time>2015-03-12T07:03:45Z</time>
      </trkpt>
      <trkpt lat="45.86155" lon="6.48024">
        <ele>1353.19</ele>
        <time>2015-03-12T07:04:00Z</time>
      </trkpt>
      <trkpt lat="45.86149" lon="6.48017">
        <ele>1355.6</ele>
        <time>2015-03-12T07:04:14Z</time>
      </trkpt>
      <trkpt lat="45.86148" lon="6.48012">
        <ele>1356.56</ele>
        <time>2015-03-12T07:04:24Z</time>
      </trkpt>
      <trkpt lat="45.86158" lon="6.48009">
        <ele>1358</ele>
        <time>2015-03-12T07:04:38Z</time>
      </trkpt>
      <trkpt lat="45.86165" lon="6.48006">
        <ele>1359.44</ele>
        <time>2015-03-12T07:04:50Z</time>
      </trkpt>
      <trkpt lat="45.8617" lon="6.47999">
        <ele>1361.36</ele>
        <time>2015-03-12T07:05:05Z</time>
      </trkpt>
      <trkpt lat="45.86172" lon="6.4799">
        <ele>1363.29</ele>
        <time>2015-03-12T07:05:18Z</time>
      </trkpt>
      <trkpt lat="45.86175" lon="6.47985">
        <ele>1364.73</ele>
        <time>2015-03-12T07:05:27Z</time>
      </trkpt>
      <trkpt lat="45.86179" lon="6.47974">
        <ele>1366.65</ele>
        <time>2015-03-12T07:05:41Z</time>
      </trkpt>
      <trkpt lat="45.86181" lon="6.47965">
        <ele>1369.54</ele>
        <time>2015-03-12T07:05:55Z</time>
      </trkpt>
      <trkpt lat="45.86184" lon="6.47957">
        <ele>1371.46</ele>
        <time>2015-03-12T07:06:09Z</time>
      </trkpt>
      <trkpt lat="45.86184" lon="6.4795">
        <ele>1373.86</ele>
        <time>2015-03-12T07:06:21Z</time>
      </trkpt>
      <trkpt lat="45.8618" lon="6.47945">
        <ele>1375.78</ele>
        <time>2015-03-12T07:06:35Z</time>
      </trkpt>
      <trkpt lat="45.86176" lon="6.47936">
        <ele>1378.19</ele>
        <time>2015-03-12T07:06:47Z</time>
      </trkpt>
      <trkpt lat="45.86174" lon="6.47929">
        <ele>1380.59</ele>
        <time>2015-03-12T07:06:59Z</time>
      </trkpt>
      <trkpt lat="45.86167" lon="6.47923">
        <ele>1382.03</ele>
        <time>2015-03-12T07:07:13Z</time>
      </trkpt>
      <trkpt lat="45.86163" lon="6.47911">
        <ele>1384.44</ele>
        <time>2015-03-12T07:07:27Z</time>
      </trkpt>
      <trkpt lat="45.86161" lon="6.479">
        <ele>1386.36</ele>
        <time>2015-03-12T07:07:40Z</time>
      </trkpt>
      <trkpt lat="45.8616" lon="6.47892">
        <ele>1388.28</ele>
        <time>2015-03-12T07:07:53Z</time>
      </trkpt>
      <trkpt lat="45.8616" lon="6.4788">
        <ele>1390.2</ele>
        <time>2015-03-12T07:08:07Z</time>
      </trkpt>
      <trkpt lat="45.86154" lon="6.47875">
        <ele>1392.61</ele>
        <time>2015-03-12T07:08:21Z</time>
      </trkpt>
      <trkpt lat="45.86145" lon="6.47876">
        <ele>1395.01</ele>
        <time>2015-03-12T07:08:36Z</time>
      </trkpt>
      <trkpt lat="45.86137" lon="6.47875">
        <ele>1396.93</ele>
        <time>2015-03-12T07:08:50Z</time>
      </trkpt>
      <trkpt lat="45.86131" lon="6.47873">
        <ele>1397.89</ele>
        <time>2015-03-12T07:09:01Z</time>
      </trkpt>
      <trkpt lat="45.8613" lon="6.47862">
        <ele>1399.82</ele>
        <time>2015-03-12T07:09:13Z</time>
      </trkpt>
      <trkpt lat="45.86127" lon="6.47847">
        <ele>1401.74</ele>
        <time>2015-03-12T07:09:28Z</time>
      </trkpt>
      <trkpt lat="45.86125" lon="6.47839">
        <ele>1403.18</ele>
        <time>2015-03-12T07:09:40Z</time>
      </trkpt>
      <trkpt lat="45.86124" lon="6.47829">
        <ele>1405.1</ele>
        <time>2015-03-12T07:09:52Z</time>
      </trkpt>
      <trkpt lat="45.86124" lon="6.47823">
        <ele>1407.03</ele>
        <time>2015-03-12T07:10:04Z</time>
      </trkpt>
      <trkpt lat="45.86127" lon="6.47817">
        <ele>1408.95</ele>
        <time>2015-03-12T07:10:17Z</time>
      </trkpt>
      <trkpt lat="45.86126" lon="6.47809">
        <ele>1410.87</ele>
        <time>2015-03-12T07:10:28Z</time>
      </trkpt>
      <trkpt lat="45.86117" lon="6.47805">
        <ele>1413.28</ele>
        <time>2015-03-12T07:10:43Z</time>
      </trkpt>
      <trkpt lat="45.86115" lon="6.47802">
        <ele>1415.2</ele>
        <time>2015-03-12T07:10:55Z</time>
      </trkpt>
      <trkpt lat="45.86118" lon="6.47795">
        <ele>1417.12</ele>
        <time>2015-03-12T07:11:07Z</time>
      </trkpt>
      <trkpt lat="45.86118" lon="6.47786">
        <ele>1419.52</ele>
        <time>2015-03-12T07:11:19Z</time>
      </trkpt>
      <trkpt lat="45.86114" lon="6.4778">
        <ele>1420.49</ele>
        <time>2015-03-12T07:11:31Z</time>
      </trkpt>
      <trkpt lat="45.86115" lon="6.47776">
        <ele>1422.89</ele>
        <time>2015-03-12T07:11:43Z</time>
      </trkpt>
      <trkpt lat="45.86112" lon="6.47766">
        <ele>1424.33</ele>
        <time>2015-03-12T07:11:56Z</time>
      </trkpt>
      <trkpt lat="45.86109" lon="6.4776">
        <ele>1426.25</ele>
        <time>2015-03-12T07:12:09Z</time>
      </trkpt>
      <trkpt lat="45.86108" lon="6.47755">
        <ele>1428.18</ele>
        <time>2015-03-12T07:12:23Z</time>
      </trkpt>
      <trkpt lat="45.86108" lon="6.47747">
        <ele>1430.1</ele>
        <time>2015-03-12T07:12:36Z</time>
      </trkpt>
      <trkpt lat="45.86108" lon="6.47746">
        <ele>1430.1</ele>
        <time>2015-03-12T07:12:53Z</time>
      </trkpt>
      <trkpt lat="45.86107" lon="6.47742">
        <ele>1431.06</ele>
        <time>2015-03-12T07:13:04Z</time>
      </trkpt>
      <trkpt lat="45.8611" lon="6.47736">
        <ele>1431.54</ele>
        <time>2015-03-12T07:13:18Z</time>
      </trkpt>
      <trkpt lat="45.86112" lon="6.47733">
        <ele>1432.5</ele>
        <time>2015-03-12T07:13:36Z</time>
      </trkpt>
      <trkpt lat="45.86114" lon="6.47732">
        <ele>1432.5</ele>
        <time>2015-03-12T07:13:49Z</time>
      </trkpt>
      <trkpt lat="45.86114" lon="6.47733">
        <ele>1432.98</ele>
        <time>2015-03-12T07:13:56Z</time>
      </trkpt>
      <trkpt lat="45.86111" lon="6.47734">
        <ele>1432.02</ele>
        <time>2015-03-12T07:14:10Z</time>
      </trkpt>
      <trkpt lat="45.86111" lon="6.47728">
        <ele>1431.06</ele>
        <time>2015-03-12T07:14:30Z</time>
      </trkpt>
      <trkpt lat="45.86112" lon="6.4773">
        <ele>1432.5</ele>
        <time>2015-03-12T07:14:41Z</time>
      </trkpt>
      <trkpt lat="45.86114" lon="6.47729">
        <ele>1434.42</ele>
        <time>2015-03-12T07:14:52Z</time>
      </trkpt>
      <trkpt lat="45.86118" lon="6.47723">
        <ele>1436.35</ele>
        <time>2015-03-12T07:15:05Z</time>
      </trkpt>
      <trkpt lat="45.8612" lon="6.4771">
        <ele>1438.75</ele>
        <time>2015-03-12T07:15:18Z</time>
      </trkpt>
      <trkpt lat="45.86123" lon="6.477">
        <ele>1440.67</ele>
        <time>2015-03-12T07:15:29Z</time>
      </trkpt>
      <trkpt lat="45.86117" lon="6.47688">
        <ele>1443.56</ele>
        <time>2015-03-12T07:15:43Z</time>
      </trkpt>
      <trkpt lat="45.86113" lon="6.47676">
        <ele>1446.44</ele>
        <time>2015-03-12T07:15:57Z</time>
      </trkpt>
      <trkpt lat="45.86111" lon="6.47661">
        <ele>1449.81</ele>
        <time>2015-03-12T07:16:12Z</time>
      </trkpt>
      <trkpt lat="45.86111" lon="6.47651">
        <ele>1450.77</ele>
        <time>2015-03-12T07:16:20Z</time>
      </trkpt>
      <trkpt lat="45.86112" lon="6.47628">
        <ele>1452.69</ele>
        <time>2015-03-12T07:16:36Z</time>
      </trkpt>
      <trkpt lat="45.86117" lon="6.47605">
        <ele>1455.09</ele>
        <time>2015-03-12T07:16:52Z</time>
      </trkpt>
      <trkpt lat="45.8612" lon="6.47584">
        <ele>1456.53</ele>
        <time>2015-03-12T07:17:09Z</time>
      </trkpt>
      <trkpt lat="45.86122" lon="6.47579">
        <ele>1457.02</ele>
        <time>2015-03-12T07:17:29Z</time>
      </trkpt>
      <trkpt lat="45.8612" lon="6.47574">
        <ele>1457.5</ele>
        <time>2015-03-12T07:17:55Z</time>
      </trkpt>
      <trkpt lat="45.86116" lon="6.47561">
        <ele>1458.94</ele>
        <time>2015-03-12T07:18:07Z</time>
      </trkpt>
      <trkpt lat="45.86109" lon="6.47546">
        <ele>1459.9</ele>
        <time>2015-03-12T07:18:21Z</time>
      </trkpt>
      <trkpt lat="45.86105" lon="6.47541">
        <ele>1460.86</ele>
        <time>2015-03-12T07:18:34Z</time>
      </trkpt>
      <trkpt lat="45.86103" lon="6.4754">
        <ele>1461.34</ele>
        <time>2015-03-12T07:18:52Z</time>
      </trkpt>
      <trkpt lat="45.86099" lon="6.47537">
        <ele>1463.26</ele>
        <time>2015-03-12T07:19:03Z</time>
      </trkpt>
      <trkpt lat="45.86091" lon="6.47531">
        <ele>1465.19</ele>
        <time>2015-03-12T07:19:16Z</time>
      </trkpt>
      <trkpt lat="45.86087" lon="6.47524">
        <ele>1466.63</ele>
        <time>2015-03-12T07:19:25Z</time>
      </trkpt>
      <trkpt lat="45.8608" lon="6.4751">
        <ele>1468.07</ele>
        <time>2015-03-12T07:19:40Z</time>
      </trkpt>
      <trkpt lat="45.86071" lon="6.475">
        <ele>1469.03</ele>
        <time>2015-03-12T07:19:54Z</time>
      </trkpt>
      <trkpt lat="45.86056" lon="6.47497">
        <ele>1469.51</ele>
        <time>2015-03-12T07:20:09Z</time>
      </trkpt>
      <trkpt lat="45.86055" lon="6.47497">
        <ele>1469.51</ele>
        <time>2015-03-12T07:20:10Z</time>
      </trkpt>
      <trkpt lat="45.86047" lon="6.47497">
        <ele>1470.95</ele>
        <time>2015-03-12T07:20:22Z</time>
      </trkpt>
      <trkpt lat="45.86037" lon="6.47479">
        <ele>1471.92</ele>
        <time>2015-03-12T07:20:40Z</time>
      </trkpt>
      <trkpt lat="45.86032" lon="6.47468">
        <ele>1473.84</ele>
        <time>2015-03-12T07:20:53Z</time>
      </trkpt>
      <trkpt lat="45.8603" lon="6.47468">
        <ele>1473.84</ele>
        <time>2015-03-12T07:21:03Z</time>
      </trkpt>
      <trkpt lat="45.86029" lon="6.47467">
        <ele>1473.36</ele>
        <time>2015-03-12T07:21:29Z</time>
      </trkpt>
      <trkpt lat="45.86031" lon="6.47462">
        <ele>1473.36</ele>
        <time>2015-03-12T07:21:59Z</time>
      </trkpt>
      <trkpt lat="45.86029" lon="6.47458">
        <ele>1475.76</ele>
        <time>2015-03-12T07:22:11Z</time>
      </trkpt>
      <trkpt lat="45.86027" lon="6.47456">
        <ele>1476.24</ele>
        <time>2015-03-12T07:22:14Z</time>
      </trkpt>
      <trkpt lat="45.86022" lon="6.47451">
        <ele>1477.68</ele>
        <time>2015-03-12T07:22:26Z</time>
      </trkpt>
      <trkpt lat="45.86016" lon="6.47448">
        <ele>1479.61</ele>
        <time>2015-03-12T07:22:38Z</time>
      </trkpt>
      <trkpt lat="45.86016" lon="6.47446">
        <ele>1481.53</ele>
        <time>2015-03-12T07:22:52Z</time>
      </trkpt>
      <trkpt lat="45.86018" lon="6.47439">
        <ele>1484.89</ele>
        <time>2015-03-12T07:23:04Z</time>
      </trkpt>
      <trkpt lat="45.86014" lon="6.4743">
        <ele>1487.78</ele>
        <time>2015-03-12T07:23:17Z</time>
      </trkpt>
      <trkpt lat="45.86006" lon="6.47427">
        <ele>1490.18</ele>
        <time>2015-03-12T07:23:29Z</time>
      </trkpt>
      <trkpt lat="45.86002" lon="6.47415">
        <ele>1493.06</ele>
        <time>2015-03-12T07:23:43Z</time>
      </trkpt>
      <trkpt lat="45.86005" lon="6.47404">
        <ele>1495.95</ele>
        <time>2015-03-12T07:23:56Z</time>
      </trkpt>
      <trkpt lat="45.86001" lon="6.47393">
        <ele>1498.35</ele>
        <time>2015-03-12T07:24:09Z</time>
      </trkpt>
      <trkpt lat="45.85991" lon="6.47388">
        <ele>1500.27</ele>
        <time>2015-03-12T07:24:23Z</time>
      </trkpt>
      <trkpt lat="45.8598" lon="6.47391">
        <ele>1503.16</ele>
        <time>2015-03-12T07:24:39Z</time>
      </trkpt>
      <trkpt lat="45.85967" lon="6.47397">
        <ele>1505.56</ele>
        <time>2015-03-12T07:24:55Z</time>
      </trkpt>
      <trkpt lat="45.85961" lon="6.474">
        <ele>1507.97</ele>
        <time>2015-03-12T07:25:08Z</time>
      </trkpt>
      <trkpt lat="45.85957" lon="6.47391">
        <ele>1509.41</ele>
        <time>2015-03-12T07:25:20Z</time>
      </trkpt>
      <trkpt lat="45.85957" lon="6.47389">
        <ele>1509.89</ele>
        <time>2015-03-12T07:25:21Z</time>
      </trkpt>
      <trkpt lat="45.85951" lon="6.47376">
        <ele>1511.33</ele>
        <time>2015-03-12T07:25:35Z</time>
      </trkpt>
      <trkpt lat="45.85946" lon="6.47362">
        <ele>1513.25</ele>
        <time>2015-03-12T07:25:48Z</time>
      </trkpt>
      <trkpt lat="45.85939" lon="6.47348">
        <ele>1516.14</ele>
        <time>2015-03-12T07:26:03Z</time>
      </trkpt>
      <trkpt lat="45.85937" lon="6.47338">
        <ele>1518.54</ele>
        <time>2015-03-12T07:26:16Z</time>
      </trkpt>
      <trkpt lat="45.85939" lon="6.47327">
        <ele>1521.42</ele>
        <time>2015-03-12T07:26:30Z</time>
      </trkpt>
      <trkpt lat="45.8594" lon="6.47314">
        <ele>1523.83</ele>
        <time>2015-03-12T07:26:44Z</time>
      </trkpt>
      <trkpt lat="45.85938" lon="6.47304">
        <ele>1524.31</ele>
        <time>2015-03-12T07:26:58Z</time>
      </trkpt>
      <trkpt lat="45.85939" lon="6.47301">
        <ele>1524.31</ele>
        <time>2015-03-12T07:27:21Z</time>
      </trkpt>
      <trkpt lat="45.85939" lon="6.47288">
        <ele>1526.23</ele>
        <time>2015-03-12T07:27:36Z</time>
      </trkpt>
      <trkpt lat="45.85939" lon="6.47283">
        <ele>1526.71</ele>
        <time>2015-03-12T07:28:02Z</time>
      </trkpt>
      <trkpt lat="45.8594" lon="6.47265">
        <ele>1527.67</ele>
        <time>2015-03-12T07:28:17Z</time>
      </trkpt>
      <trkpt lat="45.85939" lon="6.4725">
        <ele>1530.08</ele>
        <time>2015-03-12T07:28:30Z</time>
      </trkpt>
      <trkpt lat="45.85937" lon="6.47233">
        <ele>1531.52</ele>
        <time>2015-03-12T07:28:45Z</time>
      </trkpt>
      <trkpt lat="45.85934" lon="6.47219">
        <ele>1532</ele>
        <time>2015-03-12T07:28:58Z</time>
      </trkpt>
      <trkpt lat="45.85932" lon="6.47212">
        <ele>1532.48</ele>
        <time>2015-03-12T07:29:10Z</time>
      </trkpt>
      <trkpt lat="45.8593" lon="6.47207">
        <ele>1532.96</ele>
        <time>2015-03-12T07:29:15Z</time>
      </trkpt>
      <trkpt lat="45.85922" lon="6.47192">
        <ele>1534.4</ele>
        <time>2015-03-12T07:29:30Z</time>
      </trkpt>
      <trkpt lat="45.85915" lon="6.4718">
        <ele>1535.84</ele>
        <time>2015-03-12T07:29:44Z</time>
      </trkpt>
      <trkpt lat="45.85912" lon="6.4717">
        <ele>1537.77</ele>
        <time>2015-03-12T07:29:58Z</time>
      </trkpt>
      <trkpt lat="45.85914" lon="6.47156">
        <ele>1540.65</ele>
        <time>2015-03-12T07:30:13Z</time>
      </trkpt>
      <trkpt lat="45.85907" lon="6.47137">
        <ele>1542.57</ele>
        <time>2015-03-12T07:30:29Z</time>
      </trkpt>
      <trkpt lat="45.85906" lon="6.47123">
        <ele>1544.5</ele>
        <time>2015-03-12T07:30:43Z</time>
      </trkpt>
      <trkpt lat="45.85906" lon="6.47121">
        <ele>1544.98</ele>
        <time>2015-03-12T07:30:45Z</time>
      </trkpt>
      <trkpt lat="45.85906" lon="6.47112">
        <ele>1544.98</ele>
        <time>2015-03-12T07:30:49Z</time>
      </trkpt>
      <trkpt lat="45.85905" lon="6.47094">
        <ele>1545.94</ele>
        <time>2015-03-12T07:31:03Z</time>
      </trkpt>
      <trkpt lat="45.85906" lon="6.47081">
        <ele>1548.82</ele>
        <time>2015-03-12T07:31:16Z</time>
      </trkpt>
      <trkpt lat="45.85905" lon="6.47063">
        <ele>1551.71</ele>
        <time>2015-03-12T07:31:33Z</time>
      </trkpt>
      <trkpt lat="45.85906" lon="6.47047">
        <ele>1553.15</ele>
        <time>2015-03-12T07:31:47Z</time>
      </trkpt>
      <trkpt lat="45.85907" lon="6.47033">
        <ele>1556.03</ele>
        <time>2015-03-12T07:32:01Z</time>
      </trkpt>
      <trkpt lat="45.85908" lon="6.47015">
        <ele>1558.92</ele>
        <time>2015-03-12T07:32:17Z</time>
      </trkpt>
      <trkpt lat="45.85909" lon="6.47004">
        <ele>1561.8</ele>
        <time>2015-03-12T07:32:29Z</time>
      </trkpt>
      <trkpt lat="45.85903" lon="6.46994">
        <ele>1564.2</ele>
        <time>2015-03-12T07:32:42Z</time>
      </trkpt>
      <trkpt lat="45.85897" lon="6.46992">
        <ele>1565.64</ele>
        <time>2015-03-12T07:32:53Z</time>
      </trkpt>
      <trkpt lat="45.8589" lon="6.46987">
        <ele>1568.05</ele>
        <time>2015-03-12T07:33:07Z</time>
      </trkpt>
      <trkpt lat="45.85883" lon="6.4698">
        <ele>1569.49</ele>
        <time>2015-03-12T07:33:21Z</time>
      </trkpt>
      <trkpt lat="45.85877" lon="6.46978">
        <ele>1570.93</ele>
        <time>2015-03-12T07:33:29Z</time>
      </trkpt>
      <trkpt lat="45.85861" lon="6.46977">
        <ele>1571.41</ele>
        <time>2015-03-12T07:33:45Z</time>
      </trkpt>
      <trkpt lat="45.85857" lon="6.46979">
        <ele>1570.93</ele>
        <time>2015-03-12T07:33:51Z</time>
      </trkpt>
      <trkpt lat="45.85846" lon="6.4698">
        <ele>1571.41</ele>
        <time>2015-03-12T07:34:03Z</time>
      </trkpt>
      <trkpt lat="45.85833" lon="6.46971">
        <ele>1571.41</ele>
        <time>2015-03-12T07:34:17Z</time>
      </trkpt>
      <trkpt lat="45.85822" lon="6.46958">
        <ele>1571.41</ele>
        <time>2015-03-12T07:34:33Z</time>
      </trkpt>
      <trkpt lat="45.85813" lon="6.46947">
        <ele>1569.97</ele>
        <time>2015-03-12T07:34:46Z</time>
      </trkpt>
      <trkpt lat="45.85798" lon="6.46934">
        <ele>1569.97</ele>
        <time>2015-03-12T07:35:04Z</time>
      </trkpt>
      <trkpt lat="45.85785" lon="6.46922">
        <ele>1569.97</ele>
        <time>2015-03-12T07:35:19Z</time>
      </trkpt>
      <trkpt lat="45.85773" lon="6.46906">
        <ele>1569.97</ele>
        <time>2015-03-12T07:35:35Z</time>
      </trkpt>
      <trkpt lat="45.85762" lon="6.46893">
        <ele>1569.97</ele>
        <time>2015-03-12T07:35:50Z</time>
      </trkpt>
      <trkpt lat="45.85747" lon="6.46875">
        <ele>1569.97</ele>
        <time>2015-03-12T07:36:08Z</time>
      </trkpt>
      <trkpt lat="45.85745" lon="6.46874">
        <ele>1569.97</ele>
        <time>2015-03-12T07:36:10Z</time>
      </trkpt>
      <trkpt lat="45.85729" lon="6.46877">
        <ele>1569.49</ele>
        <time>2015-03-12T07:36:23Z</time>
      </trkpt>
      <trkpt lat="45.85724" lon="6.46882">
        <ele>1569.49</ele>
        <time>2015-03-12T07:36:28Z</time>
      </trkpt>
      <trkpt lat="45.85707" lon="6.46888">
        <ele>1569.49</ele>
        <time>2015-03-12T07:36:47Z</time>
      </trkpt>
      <trkpt lat="45.85697" lon="6.46875">
        <ele>1569.49</ele>
        <time>2015-03-12T07:37:01Z</time>
      </trkpt>
      <trkpt lat="45.85692" lon="6.46864">
        <ele>1569.49</ele>
        <time>2015-03-12T07:37:14Z</time>
      </trkpt>
      <trkpt lat="45.85687" lon="6.46853">
        <ele>1569.49</ele>
        <time>2015-03-12T07:37:23Z</time>
      </trkpt>
      <trkpt lat="45.85682" lon="6.46845">
        <ele>1570.45</ele>
        <time>2015-03-12T07:37:32Z</time>
      </trkpt>
      <trkpt lat="45.85679" lon="6.46841">
        <ele>1570.93</ele>
        <time>2015-03-12T07:37:37Z</time>
      </trkpt>
      <trkpt lat="45.85675" lon="6.46825">
        <ele>1571.41</ele>
        <time>2015-03-12T07:37:51Z</time>
      </trkpt>
      <trkpt lat="45.85675" lon="6.46818">
        <ele>1571.89</ele>
        <time>2015-03-12T07:37:57Z</time>
      </trkpt>
      <trkpt lat="45.85674" lon="6.46801">
        <ele>1572.37</ele>
        <time>2015-03-12T07:38:11Z</time>
      </trkpt>
      <trkpt lat="45.85669" lon="6.46781">
        <ele>1574.78</ele>
        <time>2015-03-12T07:38:28Z</time>
      </trkpt>
      <trkpt lat="45.85664" lon="6.4676">
        <ele>1576.22</ele>
        <time>2015-03-12T07:38:44Z</time>
      </trkpt>
      <trkpt lat="45.8566" lon="6.46747">
        <ele>1577.18</ele>
        <time>2015-03-12T07:38:57Z</time>
      </trkpt>
      <trkpt lat="45.85652" lon="6.46731">
        <ele>1578.14</ele>
        <time>2015-03-12T07:39:13Z</time>
      </trkpt>
      <trkpt lat="45.8564" lon="6.46724">
        <ele>1579.1</ele>
        <time>2015-03-12T07:39:29Z</time>
      </trkpt>
      <trkpt lat="45.85629" lon="6.46716">
        <ele>1580.54</ele>
        <time>2015-03-12T07:39:43Z</time>
      </trkpt>
      <trkpt lat="45.85618" lon="6.46709">
        <ele>1581.99</ele>
        <time>2015-03-12T07:39:56Z</time>
      </trkpt>
      <trkpt lat="45.85608" lon="6.46709">
        <ele>1583.91</ele>
        <time>2015-03-12T07:40:11Z</time>
      </trkpt>
      <trkpt lat="45.85596" lon="6.46699">
        <ele>1584.39</ele>
        <time>2015-03-12T07:40:25Z</time>
      </trkpt>
      <trkpt lat="45.85586" lon="6.46683">
        <ele>1585.35</ele>
        <time>2015-03-12T07:40:40Z</time>
      </trkpt>
      <trkpt lat="45.8558" lon="6.46673">
        <ele>1587.27</ele>
        <time>2015-03-12T07:40:53Z</time>
      </trkpt>
      <trkpt lat="45.85568" lon="6.46667">
        <ele>1589.2</ele>
        <time>2015-03-12T07:41:07Z</time>
      </trkpt>
      <trkpt lat="45.85555" lon="6.46661">
        <ele>1590.16</ele>
        <time>2015-03-12T07:41:22Z</time>
      </trkpt>
      <trkpt lat="45.85543" lon="6.46657">
        <ele>1591.6</ele>
        <time>2015-03-12T07:41:37Z</time>
      </trkpt>
      <trkpt lat="45.85536" lon="6.46655">
        <ele>1592.08</ele>
        <time>2015-03-12T07:41:49Z</time>
      </trkpt>
      <trkpt lat="45.85526" lon="6.46647">
        <ele>1593.52</ele>
        <time>2015-03-12T07:42:03Z</time>
      </trkpt>
      <trkpt lat="45.85515" lon="6.46644">
        <ele>1594.96</ele>
        <time>2015-03-12T07:42:18Z</time>
      </trkpt>
      <trkpt lat="45.85504" lon="6.46637">
        <ele>1595.93</ele>
        <time>2015-03-12T07:42:32Z</time>
      </trkpt>
      <trkpt lat="45.85489" lon="6.46632">
        <ele>1597.37</ele>
        <time>2015-03-12T07:42:47Z</time>
      </trkpt>
      <trkpt lat="45.85478" lon="6.46623">
        <ele>1598.81</ele>
        <time>2015-03-12T07:43:02Z</time>
      </trkpt>
      <trkpt lat="45.85468" lon="6.46618">
        <ele>1599.29</ele>
        <time>2015-03-12T07:43:16Z</time>
      </trkpt>
      <trkpt lat="45.85457" lon="6.46612">
        <ele>1600.73</ele>
        <time>2015-03-12T07:43:30Z</time>
      </trkpt>
      <trkpt lat="45.85448" lon="6.46606">
        <ele>1602.17</ele>
        <time>2015-03-12T07:43:42Z</time>
      </trkpt>
      <trkpt lat="45.85434" lon="6.466">
        <ele>1604.1</ele>
        <time>2015-03-12T07:43:59Z</time>
      </trkpt>
      <trkpt lat="45.85423" lon="6.46591">
        <ele>1605.54</ele>
        <time>2015-03-12T07:44:14Z</time>
      </trkpt>
      <trkpt lat="45.85418" lon="6.46585">
        <ele>1607.94</ele>
        <time>2015-03-12T07:44:26Z</time>
      </trkpt>
      <trkpt lat="45.85415" lon="6.46581">
        <ele>1608.9</ele>
        <time>2015-03-12T07:44:40Z</time>
      </trkpt>
      <trkpt lat="45.85411" lon="6.46576">
        <ele>1610.83</ele>
        <time>2015-03-12T07:44:52Z</time>
      </trkpt>
      <trkpt lat="45.85405" lon="6.46566">
        <ele>1613.23</ele>
        <time>2015-03-12T07:45:06Z</time>
      </trkpt>
      <trkpt lat="45.85399" lon="6.46558">
        <ele>1616.11</ele>
        <time>2015-03-12T07:45:19Z</time>
      </trkpt>
      <trkpt lat="45.85393" lon="6.4655">
        <ele>1618.04</ele>
        <time>2015-03-12T07:45:32Z</time>
      </trkpt>
      <trkpt lat="45.85387" lon="6.46547">
        <ele>1620.44</ele>
        <time>2015-03-12T07:45:45Z</time>
      </trkpt>
      <trkpt lat="45.85381" lon="6.4654">
        <ele>1622.84</ele>
        <time>2015-03-12T07:45:59Z</time>
      </trkpt>
      <trkpt lat="45.85377" lon="6.46532">
        <ele>1625.25</ele>
        <time>2015-03-12T07:46:12Z</time>
      </trkpt>
      <trkpt lat="45.85377" lon="6.46523">
        <ele>1627.17</ele>
        <time>2015-03-12T07:46:25Z</time>
      </trkpt>
      <trkpt lat="45.85379" lon="6.46514">
        <ele>1630.53</ele>
        <time>2015-03-12T07:46:39Z</time>
      </trkpt>
      <trkpt lat="45.85379" lon="6.46505">
        <ele>1632.94</ele>
        <time>2015-03-12T07:46:52Z</time>
      </trkpt>
      <trkpt lat="45.85379" lon="6.46496">
        <ele>1635.34</ele>
        <time>2015-03-12T07:47:04Z</time>
      </trkpt>
      <trkpt lat="45.85378" lon="6.46486">
        <ele>1637.26</ele>
        <time>2015-03-12T07:47:15Z</time>
      </trkpt>
      <trkpt lat="45.85378" lon="6.46477">
        <ele>1639.19</ele>
        <time>2015-03-12T07:47:26Z</time>
      </trkpt>
      <trkpt lat="45.85378" lon="6.46466">
        <ele>1641.59</ele>
        <time>2015-03-12T07:47:38Z</time>
      </trkpt>
      <trkpt lat="45.85377" lon="6.46456">
        <ele>1643.51</ele>
        <time>2015-03-12T07:47:50Z</time>
      </trkpt>
      <trkpt lat="45.85378" lon="6.46448">
        <ele>1645.43</ele>
        <time>2015-03-12T07:48:01Z</time>
      </trkpt>
      <trkpt lat="45.85378" lon="6.46438">
        <ele>1647.84</ele>
        <time>2015-03-12T07:48:14Z</time>
      </trkpt>
      <trkpt lat="45.85379" lon="6.46428">
        <ele>1649.76</ele>
        <time>2015-03-12T07:48:27Z</time>
      </trkpt>
      <trkpt lat="45.85381" lon="6.46418">
        <ele>1652.64</ele>
        <time>2015-03-12T07:48:41Z</time>
      </trkpt>
      <trkpt lat="45.85382" lon="6.46411">
        <ele>1655.05</ele>
        <time>2015-03-12T07:48:55Z</time>
      </trkpt>
      <trkpt lat="45.85381" lon="6.464">
        <ele>1657.45</ele>
        <time>2015-03-12T07:49:08Z</time>
      </trkpt>
      <trkpt lat="45.85379" lon="6.46391">
        <ele>1659.37</ele>
        <time>2015-03-12T07:49:20Z</time>
      </trkpt>
      <trkpt lat="45.85374" lon="6.46382">
        <ele>1661.78</ele>
        <time>2015-03-12T07:49:32Z</time>
      </trkpt>
      <trkpt lat="45.85369" lon="6.46376">
        <ele>1664.18</ele>
        <time>2015-03-12T07:49:45Z</time>
      </trkpt>
      <trkpt lat="45.85363" lon="6.46369">
        <ele>1666.1</ele>
        <time>2015-03-12T07:49:59Z</time>
      </trkpt>
      <trkpt lat="45.85357" lon="6.46365">
        <ele>1668.51</ele>
        <time>2015-03-12T07:50:13Z</time>
      </trkpt>
      <trkpt lat="45.85351" lon="6.46363">
        <ele>1670.43</ele>
        <time>2015-03-12T07:50:27Z</time>
      </trkpt>
      <trkpt lat="45.85344" lon="6.46361">
        <ele>1672.83</ele>
        <time>2015-03-12T07:50:39Z</time>
      </trkpt>
      <trkpt lat="45.8534" lon="6.46361">
        <ele>1673.79</ele>
        <time>2015-03-12T07:50:53Z</time>
      </trkpt>
      <trkpt lat="45.85338" lon="6.46358">
        <ele>1676.2</ele>
        <time>2015-03-12T07:51:05Z</time>
      </trkpt>
      <trkpt lat="45.85338" lon="6.46347">
        <ele>1678.6</ele>
        <time>2015-03-12T07:51:20Z</time>
      </trkpt>
      <trkpt lat="45.85332" lon="6.46342">
        <ele>1680.52</ele>
        <time>2015-03-12T07:51:30Z</time>
      </trkpt>
      <trkpt lat="45.85326" lon="6.46346">
        <ele>1682.44</ele>
        <time>2015-03-12T07:51:43Z</time>
      </trkpt>
      <trkpt lat="45.85323" lon="6.46347">
        <ele>1683.89</ele>
        <time>2015-03-12T07:51:56Z</time>
      </trkpt>
      <trkpt lat="45.85321" lon="6.46339">
        <ele>1686.77</ele>
        <time>2015-03-12T07:52:09Z</time>
      </trkpt>
      <trkpt lat="45.8532" lon="6.46331">
        <ele>1688.21</ele>
        <time>2015-03-12T07:52:21Z</time>
      </trkpt>
      <trkpt lat="45.85323" lon="6.46324">
        <ele>1690.62</ele>
        <time>2015-03-12T07:52:35Z</time>
      </trkpt>
      <trkpt lat="45.85322" lon="6.46313">
        <ele>1692.06</ele>
        <time>2015-03-12T07:52:47Z</time>
      </trkpt>
      <trkpt lat="45.85322" lon="6.46307">
        <ele>1693.5</ele>
        <time>2015-03-12T07:52:58Z</time>
      </trkpt>
      <trkpt lat="45.85323" lon="6.46308">
        <ele>1693.5</ele>
        <time>2015-03-12T07:53:02Z</time>
      </trkpt>
      <trkpt lat="45.85318" lon="6.46305">
        <ele>1695.42</ele>
        <time>2015-03-12T07:53:12Z</time>
      </trkpt>
      <trkpt lat="45.85311" lon="6.46307">
        <ele>1697.83</ele>
        <time>2015-03-12T07:53:26Z</time>
      </trkpt>
      <trkpt lat="45.85305" lon="6.46308">
        <ele>1700.71</ele>
        <time>2015-03-12T07:53:39Z</time>
      </trkpt>
      <trkpt lat="45.85301" lon="6.46304">
        <ele>1703.11</ele>
        <time>2015-03-12T07:53:49Z</time>
      </trkpt>
      <trkpt lat="45.85297" lon="6.46298">
        <ele>1705.04</ele>
        <time>2015-03-12T07:54:01Z</time>
      </trkpt>
      <trkpt lat="45.85293" lon="6.46291">
        <ele>1707.92</ele>
        <time>2015-03-12T07:54:14Z</time>
      </trkpt>
      <trkpt lat="45.85289" lon="6.46284">
        <ele>1710.8</ele>
        <time>2015-03-12T07:54:28Z</time>
      </trkpt>
      <trkpt lat="45.85286" lon="6.46276">
        <ele>1712.73</ele>
        <time>2015-03-12T07:54:42Z</time>
      </trkpt>
      <trkpt lat="45.85283" lon="6.4627">
        <ele>1715.13</ele>
        <time>2015-03-12T07:54:54Z</time>
      </trkpt>
      <trkpt lat="45.8528" lon="6.46265">
        <ele>1717.53</ele>
        <time>2015-03-12T07:55:06Z</time>
      </trkpt>
      <trkpt lat="45.85273" lon="6.46263">
        <ele>1719.94</ele>
        <time>2015-03-12T07:55:20Z</time>
      </trkpt>
      <trkpt lat="45.85271" lon="6.46261">
        <ele>1720.9</ele>
        <time>2015-03-12T07:55:30Z</time>
      </trkpt>
      <trkpt lat="45.85267" lon="6.46258">
        <ele>1723.3</ele>
        <time>2015-03-12T07:55:42Z</time>
      </trkpt>
      <trkpt lat="45.85265" lon="6.46258">
        <ele>1724.26</ele>
        <time>2015-03-12T07:55:54Z</time>
      </trkpt>
      <trkpt lat="45.85261" lon="6.46251">
        <ele>1726.67</ele>
        <time>2015-03-12T07:56:06Z</time>
      </trkpt>
      <trkpt lat="45.85261" lon="6.46243">
        <ele>1729.07</ele>
        <time>2015-03-12T07:56:19Z</time>
      </trkpt>
      <trkpt lat="45.85263" lon="6.46237">
        <ele>1730.99</ele>
        <time>2015-03-12T07:56:30Z</time>
      </trkpt>
      <trkpt lat="45.85267" lon="6.46228">
        <ele>1733.39</ele>
        <time>2015-03-12T07:56:44Z</time>
      </trkpt>
      <trkpt lat="45.85265" lon="6.46221">
        <ele>1735.32</ele>
        <time>2015-03-12T07:56:55Z</time>
      </trkpt>
      <trkpt lat="45.85256" lon="6.46217">
        <ele>1738.2</ele>
        <time>2015-03-12T07:57:10Z</time>
      </trkpt>
      <trkpt lat="45.8525" lon="6.46218">
        <ele>1739.64</ele>
        <time>2015-03-12T07:57:23Z</time>
      </trkpt>
      <trkpt lat="45.85244" lon="6.4622">
        <ele>1741.57</ele>
        <time>2015-03-12T07:57:37Z</time>
      </trkpt>
      <trkpt lat="45.85238" lon="6.4622">
        <ele>1743.01</ele>
        <time>2015-03-12T07:57:50Z</time>
      </trkpt>
      <trkpt lat="45.85239" lon="6.46212">
        <ele>1745.41</ele>
        <time>2015-03-12T07:58:02Z</time>
      </trkpt>
      <trkpt lat="45.8524" lon="6.46216">
        <ele>1745.41</ele>
        <time>2015-03-12T07:58:23Z</time>
      </trkpt>
      <trkpt lat="45.8524" lon="6.46214">
        <ele>1745.41</ele>
        <time>2015-03-12T07:58:49Z</time>
      </trkpt>
      <trkpt lat="45.85237" lon="6.46211">
        <ele>1745.89</ele>
        <time>2015-03-12T07:59:11Z</time>
      </trkpt>
      <trkpt lat="45.85229" lon="6.4621">
        <ele>1747.81</ele>
        <time>2015-03-12T07:59:24Z</time>
      </trkpt>
      <trkpt lat="45.85226" lon="6.46206">
        <ele>1749.26</ele>
        <time>2015-03-12T07:59:38Z</time>
      </trkpt>
      <trkpt lat="45.85231" lon="6.46197">
        <ele>1750.7</ele>
        <time>2015-03-12T07:59:52Z</time>
      </trkpt>
      <trkpt lat="45.85236" lon="6.46188">
        <ele>1752.14</ele>
        <time>2015-03-12T08:00:08Z</time>
      </trkpt>
      <trkpt lat="45.85234" lon="6.46186">
        <ele>1753.58</ele>
        <time>2015-03-12T08:00:21Z</time>
      </trkpt>
      <trkpt lat="45.85227" lon="6.46186">
        <ele>1755.02</ele>
        <time>2015-03-12T08:00:36Z</time>
      </trkpt>
      <trkpt lat="45.85218" lon="6.46188">
        <ele>1756.47</ele>
        <time>2015-03-12T08:00:51Z</time>
      </trkpt>
      <trkpt lat="45.85219" lon="6.46184">
        <ele>1757.43</ele>
        <time>2015-03-12T08:01:01Z</time>
      </trkpt>
      <trkpt lat="45.85224" lon="6.46174">
        <ele>1759.83</ele>
        <time>2015-03-12T08:01:17Z</time>
      </trkpt>
      <trkpt lat="45.85219" lon="6.46176">
        <ele>1761.27</ele>
        <time>2015-03-12T08:01:30Z</time>
      </trkpt>
      <trkpt lat="45.85218" lon="6.46174">
        <ele>1763.2</ele>
        <time>2015-03-12T08:01:43Z</time>
      </trkpt>
      <trkpt lat="45.85216" lon="6.46168">
        <ele>1764.16</ele>
        <time>2015-03-12T08:01:54Z</time>
      </trkpt>
      <trkpt lat="45.85209" lon="6.46171">
        <ele>1765.6</ele>
        <time>2015-03-12T08:02:07Z</time>
      </trkpt>
      <trkpt lat="45.85205" lon="6.46173">
        <ele>1767.52</ele>
        <time>2015-03-12T08:02:19Z</time>
      </trkpt>
      <trkpt lat="45.85205" lon="6.46167">
        <ele>1768.48</ele>
        <time>2015-03-12T08:02:33Z</time>
      </trkpt>
      <trkpt lat="45.85198" lon="6.46174">
        <ele>1769.92</ele>
        <time>2015-03-12T08:02:47Z</time>
      </trkpt>
      <trkpt lat="45.85193" lon="6.46181">
        <ele>1771.85</ele>
        <time>2015-03-12T08:03:02Z</time>
      </trkpt>
      <trkpt lat="45.85193" lon="6.4618">
        <ele>1772.33</ele>
        <time>2015-03-12T08:03:14Z</time>
      </trkpt>
      <trkpt lat="45.85196" lon="6.46169">
        <ele>1773.29</ele>
        <time>2015-03-12T08:03:28Z</time>
      </trkpt>
      <trkpt lat="45.85198" lon="6.46161">
        <ele>1774.73</ele>
        <time>2015-03-12T08:03:40Z</time>
      </trkpt>
      <trkpt lat="45.85201" lon="6.46153">
        <ele>1776.65</ele>
        <time>2015-03-12T08:03:52Z</time>
      </trkpt>
      <trkpt lat="45.85198" lon="6.46146">
        <ele>1778.58</ele>
        <time>2015-03-12T08:04:03Z</time>
      </trkpt>
      <trkpt lat="45.85197" lon="6.46137">
        <ele>1780.5</ele>
        <time>2015-03-12T08:04:18Z</time>
      </trkpt>
      <trkpt lat="45.852" lon="6.46126">
        <ele>1782.9</ele>
        <time>2015-03-12T08:04:34Z</time>
      </trkpt>
      <trkpt lat="45.85204" lon="6.46118">
        <ele>1785.31</ele>
        <time>2015-03-12T08:04:48Z</time>
      </trkpt>
      <trkpt lat="45.85199" lon="6.46117">
        <ele>1786.75</ele>
        <time>2015-03-12T08:05:01Z</time>
      </trkpt>
      <trkpt lat="45.85191" lon="6.46119">
        <ele>1788.67</ele>
        <time>2015-03-12T08:05:16Z</time>
      </trkpt>
      <trkpt lat="45.85191" lon="6.46118">
        <ele>1788.67</ele>
        <time>2015-03-12T08:05:31Z</time>
      </trkpt>
      <trkpt lat="45.8519" lon="6.46118">
        <ele>1788.67</ele>
        <time>2015-03-12T08:05:52Z</time>
      </trkpt>
      <trkpt lat="45.85191" lon="6.46117">
        <ele>1787.23</ele>
        <time>2015-03-12T08:06:20Z</time>
      </trkpt>
      <trkpt lat="45.85192" lon="6.46121">
        <ele>1787.23</ele>
        <time>2015-03-12T08:06:58Z</time>
      </trkpt>
      <trkpt lat="45.85193" lon="6.4612">
        <ele>1788.67</ele>
        <time>2015-03-12T08:07:08Z</time>
      </trkpt>
      <trkpt lat="45.8519" lon="6.46121">
        <ele>1789.15</ele>
        <time>2015-03-12T08:07:28Z</time>
      </trkpt>
      <trkpt lat="45.85189" lon="6.4612">
        <ele>1789.15</ele>
        <time>2015-03-12T08:07:48Z</time>
      </trkpt>
      <trkpt lat="45.8519" lon="6.4612">
        <ele>1789.15</ele>
        <time>2015-03-12T08:08:12Z</time>
      </trkpt>
      <trkpt lat="45.85193" lon="6.46119">
        <ele>1788.67</ele>
        <time>2015-03-12T08:08:41Z</time>
      </trkpt>
      <trkpt lat="45.85197" lon="6.46121">
        <ele>1787.71</ele>
        <time>2015-03-12T08:09:11Z</time>
      </trkpt>
      <trkpt lat="45.85194" lon="6.46118">
        <ele>1787.71</ele>
        <time>2015-03-12T08:09:39Z</time>
      </trkpt>
      <trkpt lat="45.8519" lon="6.46119">
        <ele>1787.23</ele>
        <time>2015-03-12T08:10:05Z</time>
      </trkpt>
      <trkpt lat="45.85192" lon="6.46117">
        <ele>1787.23</ele>
        <time>2015-03-12T08:10:36Z</time>
      </trkpt>
      <trkpt lat="45.8519" lon="6.46119">
        <ele>1787.23</ele>
        <time>2015-03-12T08:10:54Z</time>
      </trkpt>
      <trkpt lat="45.85193" lon="6.46116">
        <ele>1788.67</ele>
        <time>2015-03-12T08:11:11Z</time>
      </trkpt>
      <trkpt lat="45.85193" lon="6.46108">
        <ele>1791.55</ele>
        <time>2015-03-12T08:11:24Z</time>
      </trkpt>
      <trkpt lat="45.85196" lon="6.46099">
        <ele>1792.52</ele>
        <time>2015-03-12T08:11:38Z</time>
      </trkpt>
      <trkpt lat="45.85199" lon="6.46095">
        <ele>1792.03</ele>
        <time>2015-03-12T08:11:56Z</time>
      </trkpt>
      <trkpt lat="45.852" lon="6.46092">
        <ele>1792.03</ele>
        <time>2015-03-12T08:12:12Z</time>
      </trkpt>
      <trkpt lat="45.852" lon="6.4609">
        <ele>1791.07</ele>
        <time>2015-03-12T08:12:16Z</time>
      </trkpt>
      <trkpt lat="45.852" lon="6.46086">
        <ele>1790.11</ele>
        <time>2015-03-12T08:12:29Z</time>
      </trkpt>
      <trkpt lat="45.85199" lon="6.46083">
        <ele>1789.15</ele>
        <time>2015-03-12T08:12:42Z</time>
      </trkpt>
      <trkpt lat="45.85197" lon="6.46075">
        <ele>1789.15</ele>
        <time>2015-03-12T08:12:57Z</time>
      </trkpt>
      <trkpt lat="45.85198" lon="6.46069">
        <ele>1789.15</ele>
        <time>2015-03-12T08:13:13Z</time>
      </trkpt>
      <trkpt lat="45.85198" lon="6.46067">
        <ele>1788.67</ele>
        <time>2015-03-12T08:13:27Z</time>
      </trkpt>
      <trkpt lat="45.85197" lon="6.46062">
        <ele>1788.19</ele>
        <time>2015-03-12T08:13:45Z</time>
      </trkpt>
      <trkpt lat="45.85195" lon="6.46053">
        <ele>1788.19</ele>
        <time>2015-03-12T08:13:58Z</time>
      </trkpt>
      <trkpt lat="45.85194" lon="6.46051">
        <ele>1789.63</ele>
        <time>2015-03-12T08:14:04Z</time>
      </trkpt>
      <trkpt lat="45.85193" lon="6.46048">
        <ele>1791.07</ele>
        <time>2015-03-12T08:14:21Z</time>
      </trkpt>
      <trkpt lat="45.85188" lon="6.4604">
        <ele>1791.55</ele>
        <time>2015-03-12T08:14:37Z</time>
      </trkpt>
      <trkpt lat="45.85187" lon="6.46028">
        <ele>1792.03</ele>
        <time>2015-03-12T08:14:52Z</time>
      </trkpt>
      <trkpt lat="45.85184" lon="6.46018">
        <ele>1792.03</ele>
        <time>2015-03-12T08:15:08Z</time>
      </trkpt>
      <trkpt lat="45.85184" lon="6.4601">
        <ele>1792.03</ele>
        <time>2015-03-12T08:15:26Z</time>
      </trkpt>
      <trkpt lat="45.85182" lon="6.45998">
        <ele>1792.03</ele>
        <time>2015-03-12T08:15:40Z</time>
      </trkpt>
      <trkpt lat="45.85182" lon="6.45993">
        <ele>1790.59</ele>
        <time>2015-03-12T08:15:48Z</time>
      </trkpt>
      <trkpt lat="45.85181" lon="6.45982">
        <ele>1790.59</ele>
        <time>2015-03-12T08:16:03Z</time>
      </trkpt>
      <trkpt lat="45.85178" lon="6.45969">
        <ele>1790.59</ele>
        <time>2015-03-12T08:16:19Z</time>
      </trkpt>
      <trkpt lat="45.85174" lon="6.4596">
        <ele>1791.55</ele>
        <time>2015-03-12T08:16:32Z</time>
      </trkpt>
      <trkpt lat="45.8517" lon="6.45947">
        <ele>1790.59</ele>
        <time>2015-03-12T08:16:46Z</time>
      </trkpt>
      <trkpt lat="45.85166" lon="6.45936">
        <ele>1789.63</ele>
        <time>2015-03-12T08:17:02Z</time>
      </trkpt>
      <trkpt lat="45.85161" lon="6.4593">
        <ele>1787.71</ele>
        <time>2015-03-12T08:17:17Z</time>
      </trkpt>
      <trkpt lat="45.85155" lon="6.45927">
        <ele>1787.23</ele>
        <time>2015-03-12T08:17:30Z</time>
      </trkpt>
      <trkpt lat="45.85151" lon="6.45926">
        <ele>1785.31</ele>
        <time>2015-03-12T08:17:44Z</time>
      </trkpt>
      <trkpt lat="45.85146" lon="6.45922">
        <ele>1784.34</ele>
        <time>2015-03-12T08:17:56Z</time>
      </trkpt>
      <trkpt lat="45.85142" lon="6.45921">
        <ele>1783.38</ele>
        <time>2015-03-12T08:18:11Z</time>
      </trkpt>
      <trkpt lat="45.85138" lon="6.4592">
        <ele>1782.9</ele>
        <time>2015-03-12T08:18:24Z</time>
      </trkpt>
      <trkpt lat="45.85136" lon="6.45917">
        <ele>1782.9</ele>
        <time>2015-03-12T08:18:34Z</time>
      </trkpt>
      <trkpt lat="45.8513" lon="6.4591">
        <ele>1781.46</ele>
        <time>2015-03-12T08:18:49Z</time>
      </trkpt>
      <trkpt lat="45.85127" lon="6.45899">
        <ele>1780.98</ele>
        <time>2015-03-12T08:19:05Z</time>
      </trkpt>
      <trkpt lat="45.85123" lon="6.45887">
        <ele>1779.54</ele>
        <time>2015-03-12T08:19:21Z</time>
      </trkpt>
      <trkpt lat="45.85121" lon="6.4588">
        <ele>1779.54</ele>
        <time>2015-03-12T08:19:38Z</time>
      </trkpt>
      <trkpt lat="45.8512" lon="6.45874">
        <ele>1779.06</ele>
        <time>2015-03-12T08:19:57Z</time>
      </trkpt>
      <trkpt lat="45.85115" lon="6.45865">
        <ele>1778.58</ele>
        <time>2015-03-12T08:20:11Z</time>
      </trkpt>
      <trkpt lat="45.85106" lon="6.45856">
        <ele>1777.61</ele>
        <time>2015-03-12T08:20:26Z</time>
      </trkpt>
      <trkpt lat="45.85098" lon="6.45854">
        <ele>1776.65</ele>
        <time>2015-03-12T08:20:40Z</time>
      </trkpt>
      <trkpt lat="45.85094" lon="6.45853">
        <ele>1775.69</ele>
        <time>2015-03-12T08:20:54Z</time>
      </trkpt>
      <trkpt lat="45.85088" lon="6.45853">
        <ele>1773.77</ele>
        <time>2015-03-12T08:21:04Z</time>
      </trkpt>
      <trkpt lat="45.85083" lon="6.45849">
        <ele>1775.21</ele>
        <time>2015-03-12T08:21:16Z</time>
      </trkpt>
      <trkpt lat="45.8508" lon="6.45848">
        <ele>1775.21</ele>
        <time>2015-03-12T08:21:30Z</time>
      </trkpt>
      <trkpt lat="45.85077" lon="6.45843">
        <ele>1776.65</ele>
        <time>2015-03-12T08:21:46Z</time>
      </trkpt>
      <trkpt lat="45.85079" lon="6.45841">
        <ele>1777.13</ele>
        <time>2015-03-12T08:22:03Z</time>
      </trkpt>
      <trkpt lat="45.85078" lon="6.45833">
        <ele>1777.61</ele>
        <time>2015-03-12T08:22:20Z</time>
      </trkpt>
      <trkpt lat="45.85078" lon="6.45827">
        <ele>1777.61</ele>
        <time>2015-03-12T08:22:32Z</time>
      </trkpt>
      <trkpt lat="45.85073" lon="6.45822">
        <ele>1778.1</ele>
        <time>2015-03-12T08:22:44Z</time>
      </trkpt>
      <trkpt lat="45.85071" lon="6.4582">
        <ele>1778.1</ele>
        <time>2015-03-12T08:22:51Z</time>
      </trkpt>
      <trkpt lat="45.85066" lon="6.45818">
        <ele>1776.17</ele>
        <time>2015-03-12T08:23:00Z</time>
      </trkpt>
      <trkpt lat="45.85064" lon="6.45817">
        <ele>1776.17</ele>
        <time>2015-03-12T08:23:03Z</time>
      </trkpt>
      <trkpt lat="45.85055" lon="6.45817">
        <ele>1774.25</ele>
        <time>2015-03-12T08:23:17Z</time>
      </trkpt>
      <trkpt lat="45.8505" lon="6.4582">
        <ele>1772.33</ele>
        <time>2015-03-12T08:23:28Z</time>
      </trkpt>
      <trkpt lat="45.85043" lon="6.45821">
        <ele>1772.33</ele>
        <time>2015-03-12T08:23:42Z</time>
      </trkpt>
      <trkpt lat="45.85039" lon="6.45823">
        <ele>1772.33</ele>
        <time>2015-03-12T08:23:56Z</time>
      </trkpt>
      <trkpt lat="45.85034" lon="6.45814">
        <ele>1773.29</ele>
        <time>2015-03-12T08:24:11Z</time>
      </trkpt>
      <trkpt lat="45.85029" lon="6.45804">
        <ele>1774.73</ele>
        <time>2015-03-12T08:24:28Z</time>
      </trkpt>
      <trkpt lat="45.85022" lon="6.4579">
        <ele>1776.17</ele>
        <time>2015-03-12T08:24:43Z</time>
      </trkpt>
      <trkpt lat="45.85019" lon="6.45778">
        <ele>1778.1</ele>
        <time>2015-03-12T08:25:01Z</time>
      </trkpt>
      <trkpt lat="45.85018" lon="6.45767">
        <ele>1777.61</ele>
        <time>2015-03-12T08:25:17Z</time>
      </trkpt>
      <trkpt lat="45.85017" lon="6.45755">
        <ele>1779.54</ele>
        <time>2015-03-12T08:25:32Z</time>
      </trkpt>
      <trkpt lat="45.85017" lon="6.45745">
        <ele>1780.98</ele>
        <time>2015-03-12T08:25:47Z</time>
      </trkpt>
      <trkpt lat="45.85011" lon="6.45737">
        <ele>1780.98</ele>
        <time>2015-03-12T08:26:02Z</time>
      </trkpt>
      <trkpt lat="45.85009" lon="6.45732">
        <ele>1778.58</ele>
        <time>2015-03-12T08:26:16Z</time>
      </trkpt>
      <trkpt lat="45.85006" lon="6.45725">
        <ele>1776.65</ele>
        <time>2015-03-12T08:26:28Z</time>
      </trkpt>
      <trkpt lat="45.85005" lon="6.45718">
        <ele>1776.17</ele>
        <time>2015-03-12T08:26:42Z</time>
      </trkpt>
      <trkpt lat="45.85004" lon="6.45713">
        <ele>1775.69</ele>
        <time>2015-03-12T08:26:54Z</time>
      </trkpt>
      <trkpt lat="45.85004" lon="6.45708">
        <ele>1775.69</ele>
        <time>2015-03-12T08:27:04Z</time>
      </trkpt>
      <trkpt lat="45.85004" lon="6.45706">
        <ele>1775.69</ele>
        <time>2015-03-12T08:27:06Z</time>
      </trkpt>
      <trkpt lat="45.85002" lon="6.45694">
        <ele>1775.69</ele>
        <time>2015-03-12T08:27:19Z</time>
      </trkpt>
      <trkpt lat="45.84998" lon="6.45686">
        <ele>1776.65</ele>
        <time>2015-03-12T08:27:31Z</time>
      </trkpt>
      <trkpt lat="45.84995" lon="6.45683">
        <ele>1776.65</ele>
        <time>2015-03-12T08:27:46Z</time>
      </trkpt>
      <trkpt lat="45.84992" lon="6.45682">
        <ele>1776.65</ele>
        <time>2015-03-12T08:28:07Z</time>
      </trkpt>
      <trkpt lat="45.84991" lon="6.45681">
        <ele>1775.21</ele>
        <time>2015-03-12T08:28:22Z</time>
      </trkpt>
      <trkpt lat="45.84992" lon="6.45681">
        <ele>1775.21</ele>
        <time>2015-03-12T08:28:50Z</time>
      </trkpt>
      <trkpt lat="45.84994" lon="6.4568">
        <ele>1777.13</ele>
        <time>2015-03-12T08:29:10Z</time>
      </trkpt>
      <trkpt lat="45.84994" lon="6.4568">
        <ele>1775.21</ele>
        <time>2015-03-12T08:29:12Z</time>
      </trkpt>
      <trkpt lat="45.84994" lon="6.4568">
        <ele>1776.17</ele>
        <time>2015-03-12T08:29:16Z</time>
      </trkpt>
      <trkpt lat="45.84996" lon="6.45681">
        <ele>1776.17</ele>
        <time>2015-03-12T08:29:40Z</time>
      </trkpt>
      <trkpt lat="45.84997" lon="6.45682">
        <ele>1776.17</ele>
        <time>2015-03-12T08:30:16Z</time>
      </trkpt>
      <trkpt lat="45.85" lon="6.45683">
        <ele>1774.73</ele>
        <time>2015-03-12T08:30:44Z</time>
      </trkpt>
      <trkpt lat="45.84995" lon="6.45685">
        <ele>1774.25</ele>
        <time>2015-03-12T08:31:15Z</time>
      </trkpt>
      <trkpt lat="45.85" lon="6.45682">
        <ele>1774.25</ele>
        <time>2015-03-12T08:31:36Z</time>
      </trkpt>
      <trkpt lat="45.85004" lon="6.45677">
        <ele>1773.77</ele>
        <time>2015-03-12T08:31:54Z</time>
      </trkpt>
      <trkpt lat="45.84995" lon="6.45681">
        <ele>1775.21</ele>
        <time>2015-03-12T08:32:11Z</time>
      </trkpt>
      <trkpt lat="45.84992" lon="6.45682">
        <ele>1775.21</ele>
        <time>2015-03-12T08:32:26Z</time>
      </trkpt>
      <trkpt lat="45.84993" lon="6.4568">
        <ele>1775.21</ele>
        <time>2015-03-12T08:32:39Z</time>
      </trkpt>
      <trkpt lat="45.84993" lon="6.4568">
        <ele>1775.21</ele>
        <time>2015-03-12T08:32:58Z</time>
      </trkpt>
      <trkpt lat="45.84991" lon="6.45676">
        <ele>1775.21</ele>
        <time>2015-03-12T08:33:11Z</time>
      </trkpt>
      <trkpt lat="45.84991" lon="6.45679">
        <ele>1775.21</ele>
        <time>2015-03-12T08:33:39Z</time>
      </trkpt>
      <trkpt lat="45.84987" lon="6.45673">
        <ele>1775.21</ele>
        <time>2015-03-12T08:34:05Z</time>
      </trkpt>
      <trkpt lat="45.84978" lon="6.45656">
        <ele>1772.33</ele>
        <time>2015-03-12T08:34:16Z</time>
      </trkpt>
      <trkpt lat="45.84977" lon="6.45649">
        <ele>1771.85</ele>
        <time>2015-03-12T08:34:24Z</time>
      </trkpt>
      <trkpt lat="45.84971" lon="6.45635">
        <ele>1770.41</ele>
        <time>2015-03-12T08:34:35Z</time>
      </trkpt>
      <trkpt lat="45.84969" lon="6.45634">
        <ele>1770.41</ele>
        <time>2015-03-12T08:34:37Z</time>
      </trkpt>
      <trkpt lat="45.84962" lon="6.45626">
        <ele>1769.44</ele>
        <time>2015-03-12T08:34:46Z</time>
      </trkpt>
      <trkpt lat="45.84961" lon="6.45625">
        <ele>1769.44</ele>
        <time>2015-03-12T08:34:47Z</time>
      </trkpt>
      <trkpt lat="45.84953" lon="6.45619">
        <ele>1769.44</ele>
        <time>2015-03-12T08:34:59Z</time>
      </trkpt>
      <trkpt lat="45.84952" lon="6.45618">
        <ele>1770.89</ele>
        <time>2015-03-12T08:35:01Z</time>
      </trkpt>
      <trkpt lat="45.84947" lon="6.45616">
        <ele>1772.33</ele>
        <time>2015-03-12T08:35:11Z</time>
      </trkpt>
      <trkpt lat="45.84945" lon="6.45615">
        <ele>1772.81</ele>
        <time>2015-03-12T08:35:15Z</time>
      </trkpt>
      <trkpt lat="45.84939" lon="6.45613">
        <ele>1773.29</ele>
        <time>2015-03-12T08:35:27Z</time>
      </trkpt>
      <trkpt lat="45.84932" lon="6.45611">
        <ele>1774.25</ele>
        <time>2015-03-12T08:35:37Z</time>
      </trkpt>
      <trkpt lat="45.84922" lon="6.45606">
        <ele>1773.77</ele>
        <time>2015-03-12T08:35:50Z</time>
      </trkpt>
      <trkpt lat="45.84918" lon="6.45603">
        <ele>1773.77</ele>
        <time>2015-03-12T08:35:58Z</time>
      </trkpt>
      <trkpt lat="45.84916" lon="6.45602">
        <ele>1773.77</ele>
        <time>2015-03-12T08:36:00Z</time>
      </trkpt>
      <trkpt lat="45.84901" lon="6.45596">
        <ele>1773.77</ele>
        <time>2015-03-12T08:36:16Z</time>
      </trkpt>
      <trkpt lat="45.849" lon="6.45596">
        <ele>1773.77</ele>
        <time>2015-03-12T08:36:17Z</time>
      </trkpt>
      <trkpt lat="45.84893" lon="6.45597">
        <ele>1774.25</ele>
        <time>2015-03-12T08:36:25Z</time>
      </trkpt>
      <trkpt lat="45.84881" lon="6.45596">
        <ele>1774.73</ele>
        <time>2015-03-12T08:36:39Z</time>
      </trkpt>
      <trkpt lat="45.8487" lon="6.45597">
        <ele>1775.69</ele>
        <time>2015-03-12T08:36:52Z</time>
      </trkpt>
      <trkpt lat="45.84865" lon="6.456">
        <ele>1777.13</ele>
        <time>2015-03-12T08:37:01Z</time>
      </trkpt>
      <trkpt lat="45.84856" lon="6.45603">
        <ele>1778.58</ele>
        <time>2015-03-12T08:37:14Z</time>
      </trkpt>
      <trkpt lat="45.84848" lon="6.45603">
        <ele>1780.02</ele>
        <time>2015-03-12T08:37:28Z</time>
      </trkpt>
      <trkpt lat="45.84846" lon="6.45602">
        <ele>1780.5</ele>
        <time>2015-03-12T08:37:32Z</time>
      </trkpt>
      <trkpt lat="45.84839" lon="6.456">
        <ele>1780.5</ele>
        <time>2015-03-12T08:37:41Z</time>
      </trkpt>
      <trkpt lat="45.84831" lon="6.45601">
        <ele>1781.46</ele>
        <time>2015-03-12T08:37:54Z</time>
      </trkpt>
      <trkpt lat="45.84823" lon="6.45602">
        <ele>1781.94</ele>
        <time>2015-03-12T08:38:06Z</time>
      </trkpt>
      <trkpt lat="45.84818" lon="6.45609">
        <ele>1783.86</ele>
        <time>2015-03-12T08:38:17Z</time>
      </trkpt>
      <trkpt lat="45.84813" lon="6.4561">
        <ele>1784.82</ele>
        <time>2015-03-12T08:38:27Z</time>
      </trkpt>
      <trkpt lat="45.84807" lon="6.45608">
        <ele>1786.75</ele>
        <time>2015-03-12T08:38:38Z</time>
      </trkpt>
      <trkpt lat="45.84806" lon="6.45606">
        <ele>1787.23</ele>
        <time>2015-03-12T08:38:50Z</time>
      </trkpt>
      <trkpt lat="45.84805" lon="6.45604">
        <ele>1787.23</ele>
        <time>2015-03-12T08:39:26Z</time>
      </trkpt>
      <trkpt lat="45.84805" lon="6.45602">
        <ele>1787.23</ele>
        <time>2015-03-12T08:39:51Z</time>
      </trkpt>
      <trkpt lat="45.84805" lon="6.45602">
        <ele>1787.23</ele>
        <time>2015-03-12T08:40:32Z</time>
      </trkpt>
      <trkpt lat="45.84806" lon="6.45603">
        <ele>1787.23</ele>
        <time>2015-03-12T08:40:58Z</time>
      </trkpt>
      <trkpt lat="45.84806" lon="6.45607">
        <ele>1787.71</ele>
        <time>2015-03-12T08:41:28Z</time>
      </trkpt>
      <trkpt lat="45.84805" lon="6.45604">
        <ele>1787.71</ele>
        <time>2015-03-12T08:41:57Z</time>
      </trkpt>
      <trkpt lat="45.84805" lon="6.45604">
        <ele>1787.71</ele>
        <time>2015-03-12T08:42:30Z</time>
      </trkpt>
      <trkpt lat="45.84807" lon="6.45605">
        <ele>1787.71</ele>
        <time>2015-03-12T08:42:58Z</time>
      </trkpt>
      <trkpt lat="45.84807" lon="6.45607">
        <ele>1787.71</ele>
        <time>2015-03-12T08:43:20Z</time>
      </trkpt>
      <trkpt lat="45.84805" lon="6.45605">
        <ele>1787.71</ele>
        <time>2015-03-12T08:43:51Z</time>
      </trkpt>
      <trkpt lat="45.84805" lon="6.45606">
        <ele>1787.71</ele>
        <time>2015-03-12T08:44:16Z</time>
      </trkpt>
      <trkpt lat="45.84804" lon="6.45607">
        <ele>1787.71</ele>
        <time>2015-03-12T08:44:52Z</time>
      </trkpt>
      <trkpt lat="45.84804" lon="6.45603">
        <ele>1788.67</ele>
        <time>2015-03-12T08:45:06Z</time>
      </trkpt>
      <trkpt lat="45.84794" lon="6.45601">
        <ele>1790.59</ele>
        <time>2015-03-12T08:45:21Z</time>
      </trkpt>
      <trkpt lat="45.84786" lon="6.45601">
        <ele>1792.52</ele>
        <time>2015-03-12T08:45:34Z</time>
      </trkpt>
      <trkpt lat="45.84785" lon="6.45597">
        <ele>1793.96</ele>
        <time>2015-03-12T08:45:48Z</time>
      </trkpt>
      <trkpt lat="45.84791" lon="6.45592">
        <ele>1795.88</ele>
        <time>2015-03-12T08:46:04Z</time>
      </trkpt>
      <trkpt lat="45.84793" lon="6.45583">
        <ele>1797.8</ele>
        <time>2015-03-12T08:46:15Z</time>
      </trkpt>
      <trkpt lat="45.84786" lon="6.4558">
        <ele>1799.73</ele>
        <time>2015-03-12T08:46:28Z</time>
      </trkpt>
      <trkpt lat="45.84778" lon="6.45578">
        <ele>1802.13</ele>
        <time>2015-03-12T08:46:42Z</time>
      </trkpt>
      <trkpt lat="45.84773" lon="6.45577">
        <ele>1803.57</ele>
        <time>2015-03-12T08:46:54Z</time>
      </trkpt>
      <trkpt lat="45.84766" lon="6.45572">
        <ele>1805.49</ele>
        <time>2015-03-12T08:47:07Z</time>
      </trkpt>
      <trkpt lat="45.8476" lon="6.4557">
        <ele>1806.94</ele>
        <time>2015-03-12T08:47:20Z</time>
      </trkpt>
      <trkpt lat="45.84756" lon="6.45568">
        <ele>1808.38</ele>
        <time>2015-03-12T08:47:32Z</time>
      </trkpt>
      <trkpt lat="45.84759" lon="6.45562">
        <ele>1809.82</ele>
        <time>2015-03-12T08:47:43Z</time>
      </trkpt>
      <trkpt lat="45.84765" lon="6.45556">
        <ele>1812.22</ele>
        <time>2015-03-12T08:47:56Z</time>
      </trkpt>
      <trkpt lat="45.84771" lon="6.45549">
        <ele>1814.15</ele>
        <time>2015-03-12T08:48:10Z</time>
      </trkpt>
      <trkpt lat="45.84776" lon="6.45543">
        <ele>1816.07</ele>
        <time>2015-03-12T08:48:24Z</time>
      </trkpt>
      <trkpt lat="45.8478" lon="6.45537">
        <ele>1818.47</ele>
        <time>2015-03-12T08:48:38Z</time>
      </trkpt>
      <trkpt lat="45.84783" lon="6.45531">
        <ele>1820.39</ele>
        <time>2015-03-12T08:48:50Z</time>
      </trkpt>
      <trkpt lat="45.84778" lon="6.45528">
        <ele>1822.32</ele>
        <time>2015-03-12T08:49:01Z</time>
      </trkpt>
      <trkpt lat="45.84771" lon="6.45524">
        <ele>1823.76</ele>
        <time>2015-03-12T08:49:14Z</time>
      </trkpt>
      <trkpt lat="45.84763" lon="6.45518">
        <ele>1826.16</ele>
        <time>2015-03-12T08:49:28Z</time>
      </trkpt>
      <trkpt lat="45.84756" lon="6.45513">
        <ele>1828.08</ele>
        <time>2015-03-12T08:49:40Z</time>
      </trkpt>
      <trkpt lat="45.84751" lon="6.45508">
        <ele>1829.53</ele>
        <time>2015-03-12T08:49:54Z</time>
      </trkpt>
      <trkpt lat="45.84745" lon="6.45502">
        <ele>1830.97</ele>
        <time>2015-03-12T08:50:08Z</time>
      </trkpt>
      <trkpt lat="45.84749" lon="6.45499">
        <ele>1832.89</ele>
        <time>2015-03-12T08:50:17Z</time>
      </trkpt>
      <trkpt lat="45.84752" lon="6.45497">
        <ele>1833.85</ele>
        <time>2015-03-12T08:50:24Z</time>
      </trkpt>
      <trkpt lat="45.84758" lon="6.45491">
        <ele>1835.77</ele>
        <time>2015-03-12T08:50:36Z</time>
      </trkpt>
      <trkpt lat="45.84763" lon="6.45486">
        <ele>1837.22</ele>
        <time>2015-03-12T08:50:47Z</time>
      </trkpt>
      <trkpt lat="45.84766" lon="6.45479">
        <ele>1838.66</ele>
        <time>2015-03-12T08:50:58Z</time>
      </trkpt>
      <trkpt lat="45.84764" lon="6.45473">
        <ele>1840.58</ele>
        <time>2015-03-12T08:51:10Z</time>
      </trkpt>
      <trkpt lat="45.84757" lon="6.45469">
        <ele>1842.5</ele>
        <time>2015-03-12T08:51:23Z</time>
      </trkpt>
      <trkpt lat="45.84757" lon="6.45463">
        <ele>1844.43</ele>
        <time>2015-03-12T08:51:37Z</time>
      </trkpt>
      <trkpt lat="45.84764" lon="6.45456">
        <ele>1845.87</ele>
        <time>2015-03-12T08:51:50Z</time>
      </trkpt>
      <trkpt lat="45.84758" lon="6.45451">
        <ele>1848.27</ele>
        <time>2015-03-12T08:52:06Z</time>
      </trkpt>
      <trkpt lat="45.84751" lon="6.45448">
        <ele>1850.19</ele>
        <time>2015-03-12T08:52:19Z</time>
      </trkpt>
      <trkpt lat="45.84742" lon="6.45447">
        <ele>1852.12</ele>
        <time>2015-03-12T08:52:32Z</time>
      </trkpt>
      <trkpt lat="45.84734" lon="6.45444">
        <ele>1853.56</ele>
        <time>2015-03-12T08:52:46Z</time>
      </trkpt>
      <trkpt lat="45.84725" lon="6.45443">
        <ele>1855.96</ele>
        <time>2015-03-12T08:53:00Z</time>
      </trkpt>
      <trkpt lat="45.84719" lon="6.45441">
        <ele>1857.89</ele>
        <time>2015-03-12T08:53:13Z</time>
      </trkpt>
      <trkpt lat="45.84714" lon="6.45441">
        <ele>1859.81</ele>
        <time>2015-03-12T08:53:26Z</time>
      </trkpt>
      <trkpt lat="45.84704" lon="6.45435">
        <ele>1861.25</ele>
        <time>2015-03-12T08:53:42Z</time>
      </trkpt>
      <trkpt lat="45.84698" lon="6.45433">
        <ele>1863.17</ele>
        <time>2015-03-12T08:53:54Z</time>
      </trkpt>
      <trkpt lat="45.84691" lon="6.45432">
        <ele>1865.09</ele>
        <time>2015-03-12T08:54:06Z</time>
      </trkpt>
      <trkpt lat="45.84685" lon="6.4543">
        <ele>1866.54</ele>
        <time>2015-03-12T08:54:17Z</time>
      </trkpt>
      <trkpt lat="45.84679" lon="6.45427">
        <ele>1869.42</ele>
        <time>2015-03-12T08:54:29Z</time>
      </trkpt>
      <trkpt lat="45.8467" lon="6.45424">
        <ele>1871.82</ele>
        <time>2015-03-12T08:54:44Z</time>
      </trkpt>
      <trkpt lat="45.84663" lon="6.45421">
        <ele>1873.75</ele>
        <time>2015-03-12T08:54:58Z</time>
      </trkpt>
      <trkpt lat="45.84658" lon="6.45417">
        <ele>1875.67</ele>
        <time>2015-03-12T08:55:10Z</time>
      </trkpt>
      <trkpt lat="45.84651" lon="6.45412">
        <ele>1877.59</ele>
        <time>2015-03-12T08:55:22Z</time>
      </trkpt>
      <trkpt lat="45.84646" lon="6.45409">
        <ele>1879.03</ele>
        <time>2015-03-12T08:55:34Z</time>
      </trkpt>
      <trkpt lat="45.84637" lon="6.45403">
        <ele>1881.44</ele>
        <time>2015-03-12T08:55:49Z</time>
      </trkpt>
      <trkpt lat="45.8463" lon="6.45398">
        <ele>1883.36</ele>
        <time>2015-03-12T08:56:02Z</time>
      </trkpt>
      <trkpt lat="45.84624" lon="6.45392">
        <ele>1885.76</ele>
        <time>2015-03-12T08:56:16Z</time>
      </trkpt>
      <trkpt lat="45.84616" lon="6.45386">
        <ele>1887.69</ele>
        <time>2015-03-12T08:56:31Z</time>
      </trkpt>
      <trkpt lat="45.84609" lon="6.4538">
        <ele>1890.09</ele>
        <time>2015-03-12T08:56:44Z</time>
      </trkpt>
      <trkpt lat="45.84603" lon="6.45376">
        <ele>1892.01</ele>
        <time>2015-03-12T08:56:57Z</time>
      </trkpt>
      <trkpt lat="45.84595" lon="6.45369">
        <ele>1893.93</ele>
        <time>2015-03-12T08:57:12Z</time>
      </trkpt>
      <trkpt lat="45.8459" lon="6.45366">
        <ele>1895.38</ele>
        <time>2015-03-12T08:57:20Z</time>
      </trkpt>
      <trkpt lat="45.84579" lon="6.45355">
        <ele>1896.34</ele>
        <time>2015-03-12T08:57:37Z</time>
      </trkpt>
      <trkpt lat="45.8457" lon="6.45345">
        <ele>1898.74</ele>
        <time>2015-03-12T08:57:52Z</time>
      </trkpt>
      <trkpt lat="45.84562" lon="6.45338">
        <ele>1900.18</ele>
        <time>2015-03-12T08:58:07Z</time>
      </trkpt>
      <trkpt lat="45.84557" lon="6.45332">
        <ele>1901.63</ele>
        <time>2015-03-12T08:58:19Z</time>
      </trkpt>
      <trkpt lat="45.8455" lon="6.45324">
        <ele>1904.03</ele>
        <time>2015-03-12T08:58:33Z</time>
      </trkpt>
      <trkpt lat="45.84542" lon="6.45314">
        <ele>1905.95</ele>
        <time>2015-03-12T08:58:48Z</time>
      </trkpt>
      <trkpt lat="45.84535" lon="6.45306">
        <ele>1907.39</ele>
        <time>2015-03-12T08:59:02Z</time>
      </trkpt>
      <trkpt lat="45.84528" lon="6.45296">
        <ele>1909.32</ele>
        <time>2015-03-12T08:59:17Z</time>
      </trkpt>
      <trkpt lat="45.84521" lon="6.45286">
        <ele>1911.24</ele>
        <time>2015-03-12T08:59:29Z</time>
      </trkpt>
      <trkpt lat="45.84516" lon="6.45273">
        <ele>1912.68</ele>
        <time>2015-03-12T08:59:44Z</time>
      </trkpt>
      <trkpt lat="45.84511" lon="6.45264">
        <ele>1914.6</ele>
        <time>2015-03-12T08:59:57Z</time>
      </trkpt>
      <trkpt lat="45.84509" lon="6.45261">
        <ele>1915.08</ele>
        <time>2015-03-12T09:00:01Z</time>
      </trkpt>
      <trkpt lat="45.84502" lon="6.45248">
        <ele>1917.01</ele>
        <time>2015-03-12T09:00:16Z</time>
      </trkpt>
      <trkpt lat="45.84497" lon="6.45243">
        <ele>1919.41</ele>
        <time>2015-03-12T09:00:29Z</time>
      </trkpt>
      <trkpt lat="45.84489" lon="6.45238">
        <ele>1921.81</ele>
        <time>2015-03-12T09:00:43Z</time>
      </trkpt>
      <trkpt lat="45.84483" lon="6.45236">
        <ele>1923.25</ele>
        <time>2015-03-12T09:00:55Z</time>
      </trkpt>
      <trkpt lat="45.8448" lon="6.45233">
        <ele>1924.7</ele>
        <time>2015-03-12T09:01:05Z</time>
      </trkpt>
      <trkpt lat="45.84477" lon="6.45233">
        <ele>1925.18</ele>
        <time>2015-03-12T09:01:17Z</time>
      </trkpt>
      <trkpt lat="45.84478" lon="6.45233">
        <ele>1925.66</ele>
        <time>2015-03-12T09:01:34Z</time>
      </trkpt>
      <trkpt lat="45.84475" lon="6.45231">
        <ele>1926.62</ele>
        <time>2015-03-12T09:01:47Z</time>
      </trkpt>
      <trkpt lat="45.84469" lon="6.45226">
        <ele>1928.06</ele>
        <time>2015-03-12T09:01:58Z</time>
      </trkpt>
      <trkpt lat="45.84464" lon="6.45223">
        <ele>1929.98</ele>
        <time>2015-03-12T09:02:10Z</time>
      </trkpt>
      <trkpt lat="45.84456" lon="6.45218">
        <ele>1931.91</ele>
        <time>2015-03-12T09:02:23Z</time>
      </trkpt>
      <trkpt lat="45.8445" lon="6.45215">
        <ele>1934.31</ele>
        <time>2015-03-12T09:02:36Z</time>
      </trkpt>
      <trkpt lat="45.84442" lon="6.45212">
        <ele>1937.19</ele>
        <time>2015-03-12T09:02:54Z</time>
      </trkpt>
      <trkpt lat="45.84437" lon="6.4521">
        <ele>1939.6</ele>
        <time>2015-03-12T09:03:07Z</time>
      </trkpt>
      <trkpt lat="45.84431" lon="6.45209">
        <ele>1941.04</ele>
        <time>2015-03-12T09:03:19Z</time>
      </trkpt>
      <trkpt lat="45.84423" lon="6.45208">
        <ele>1943.44</ele>
        <time>2015-03-12T09:03:35Z</time>
      </trkpt>
      <trkpt lat="45.84418" lon="6.45207">
        <ele>1945.85</ele>
        <time>2015-03-12T09:03:46Z</time>
      </trkpt>
      <trkpt lat="45.8441" lon="6.45206">
        <ele>1948.25</ele>
        <time>2015-03-12T09:04:02Z</time>
      </trkpt>
      <trkpt lat="45.84404" lon="6.45203">
        <ele>1950.17</ele>
        <time>2015-03-12T09:04:15Z</time>
      </trkpt>
      <trkpt lat="45.84399" lon="6.45202">
        <ele>1952.09</ele>
        <time>2015-03-12T09:04:25Z</time>
      </trkpt>
      <trkpt lat="45.84392" lon="6.45201">
        <ele>1954.5</ele>
        <time>2015-03-12T09:04:40Z</time>
      </trkpt>
      <trkpt lat="45.84386" lon="6.45199">
        <ele>1956.42</ele>
        <time>2015-03-12T09:04:53Z</time>
      </trkpt>
      <trkpt lat="45.84379" lon="6.45196">
        <ele>1959.3</ele>
        <time>2015-03-12T09:05:07Z</time>
      </trkpt>
      <trkpt lat="45.84372" lon="6.45193">
        <ele>1961.71</ele>
        <time>2015-03-12T09:05:20Z</time>
      </trkpt>
      <trkpt lat="45.84365" lon="6.45187">
        <ele>1964.11</ele>
        <time>2015-03-12T09:05:38Z</time>
      </trkpt>
      <trkpt lat="45.84357" lon="6.45184">
        <ele>1966.03</ele>
        <time>2015-03-12T09:05:51Z</time>
      </trkpt>
      <trkpt lat="45.84347" lon="6.45178">
        <ele>1967.96</ele>
        <time>2015-03-12T09:06:05Z</time>
      </trkpt>
      <trkpt lat="45.84341" lon="6.45174">
        <ele>1969.88</ele>
        <time>2015-03-12T09:06:17Z</time>
      </trkpt>
      <trkpt lat="45.84334" lon="6.45168">
        <ele>1972.28</ele>
        <time>2015-03-12T09:06:31Z</time>
      </trkpt>
      <trkpt lat="45.84331" lon="6.45167">
        <ele>1973.24</ele>
        <time>2015-03-12T09:06:36Z</time>
      </trkpt>
      <trkpt lat="45.84325" lon="6.45162">
        <ele>1975.17</ele>
        <time>2015-03-12T09:06:50Z</time>
      </trkpt>
      <trkpt lat="45.84317" lon="6.45159">
        <ele>1978.05</ele>
        <time>2015-03-12T09:07:05Z</time>
      </trkpt>
      <trkpt lat="45.84312" lon="6.45156">
        <ele>1979.49</ele>
        <time>2015-03-12T09:07:17Z</time>
      </trkpt>
      <trkpt lat="45.84305" lon="6.45153">
        <ele>1981.41</ele>
        <time>2015-03-12T09:07:29Z</time>
      </trkpt>
      <trkpt lat="45.84299" lon="6.4515">
        <ele>1984.3</ele>
        <time>2015-03-12T09:07:43Z</time>
      </trkpt>
      <trkpt lat="45.84291" lon="6.45148">
        <ele>1985.74</ele>
        <time>2015-03-12T09:07:56Z</time>
      </trkpt>
      <trkpt lat="45.84283" lon="6.45145">
        <ele>1988.14</ele>
        <time>2015-03-12T09:08:14Z</time>
      </trkpt>
      <trkpt lat="45.84278" lon="6.45144">
        <ele>1990.55</ele>
        <time>2015-03-12T09:08:25Z</time>
      </trkpt>
      <trkpt lat="45.84272" lon="6.45145">
        <ele>1992.95</ele>
        <time>2015-03-12T09:08:41Z</time>
      </trkpt>
      <trkpt lat="45.84267" lon="6.45145">
        <ele>1994.39</ele>
        <time>2015-03-12T09:08:53Z</time>
      </trkpt>
      <trkpt lat="45.84262" lon="6.45146">
        <ele>1996.32</ele>
        <time>2015-03-12T09:09:06Z</time>
      </trkpt>
      <trkpt lat="45.84261" lon="6.45146">
        <ele>1997.28</ele>
        <time>2015-03-12T09:09:19Z</time>
      </trkpt>
      <trkpt lat="45.84257" lon="6.45147">
        <ele>1998.72</ele>
        <time>2015-03-12T09:09:31Z</time>
      </trkpt>
      <trkpt lat="45.84252" lon="6.45148">
        <ele>2001.12</ele>
        <time>2015-03-12T09:09:46Z</time>
      </trkpt>
      <trkpt lat="45.84246" lon="6.45148">
        <ele>2002.56</ele>
        <time>2015-03-12T09:10:00Z</time>
      </trkpt>
      <trkpt lat="45.84245" lon="6.4515">
        <ele>2002.56</ele>
        <time>2015-03-12T09:10:17Z</time>
      </trkpt>
      <trkpt lat="45.84244" lon="6.45149">
        <ele>2003.04</ele>
        <time>2015-03-12T09:10:34Z</time>
      </trkpt>
      <trkpt lat="45.84244" lon="6.45147">
        <ele>2003.04</ele>
        <time>2015-03-12T09:10:53Z</time>
      </trkpt>
      <trkpt lat="45.84242" lon="6.45144">
        <ele>2001.6</ele>
        <time>2015-03-12T09:11:13Z</time>
      </trkpt>
      <trkpt lat="45.84244" lon="6.45147">
        <ele>2002.56</ele>
        <time>2015-03-12T09:11:42Z</time>
      </trkpt>
      <trkpt lat="45.8424" lon="6.45148">
        <ele>2001.12</ele>
        <time>2015-03-12T09:12:19Z</time>
      </trkpt>
      <trkpt lat="45.84241" lon="6.45151">
        <ele>2001.6</ele>
        <time>2015-03-12T09:12:53Z</time>
      </trkpt>
      <trkpt lat="45.8424" lon="6.45152">
        <ele>2002.56</ele>
        <time>2015-03-12T09:13:23Z</time>
      </trkpt>
      <trkpt lat="45.84239" lon="6.45153">
        <ele>2003.04</ele>
        <time>2015-03-12T09:14:05Z</time>
      </trkpt>
      <trkpt lat="45.84243" lon="6.45155">
        <ele>2003.04</ele>
        <time>2015-03-12T09:14:49Z</time>
      </trkpt>
      <trkpt lat="45.84242" lon="6.45154">
        <ele>2004.01</ele>
        <time>2015-03-12T09:15:28Z</time>
      </trkpt>
      <trkpt lat="45.84239" lon="6.45151">
        <ele>2004.01</ele>
        <time>2015-03-12T09:16:14Z</time>
      </trkpt>
      <trkpt lat="45.84242" lon="6.45151">
        <ele>2004.49</ele>
        <time>2015-03-12T09:16:29Z</time>
      </trkpt>
      <trkpt lat="45.84242" lon="6.4515">
        <ele>2002.56</ele>
        <time>2015-03-12T09:16:39Z</time>
      </trkpt>
      <trkpt lat="45.84244" lon="6.45149">
        <ele>2004.97</ele>
        <time>2015-03-12T09:17:03Z</time>
      </trkpt>
      <trkpt lat="45.84244" lon="6.45145">
        <ele>2004.97</ele>
        <time>2015-03-12T09:17:39Z</time>
      </trkpt>
      <trkpt lat="45.84241" lon="6.45145">
        <ele>2004.49</ele>
        <time>2015-03-12T09:18:15Z</time>
      </trkpt>
      <trkpt lat="45.84242" lon="6.45141">
        <ele>2004.49</ele>
        <time>2015-03-12T09:18:50Z</time>
      </trkpt>
      <trkpt lat="45.84243" lon="6.45142">
        <ele>2004.01</ele>
        <time>2015-03-12T09:19:17Z</time>
      </trkpt>
      <trkpt lat="45.84243" lon="6.45144">
        <ele>2004.01</ele>
        <time>2015-03-12T09:19:47Z</time>
      </trkpt>
      <trkpt lat="45.84244" lon="6.45143">
        <ele>2002.56</ele>
        <time>2015-03-12T09:20:04Z</time>
      </trkpt>
      <trkpt lat="45.84243" lon="6.45142">
        <ele>2004.49</ele>
        <time>2015-03-12T09:20:06Z</time>
      </trkpt>
      <trkpt lat="45.84243" lon="6.45143">
        <ele>2003.04</ele>
        <time>2015-03-12T09:20:11Z</time>
      </trkpt>
      <trkpt lat="45.84239" lon="6.4514">
        <ele>2003.04</ele>
        <time>2015-03-12T09:20:47Z</time>
      </trkpt>
      <trkpt lat="45.84241" lon="6.4514">
        <ele>2002.56</ele>
        <time>2015-03-12T09:21:23Z</time>
      </trkpt>
      <trkpt lat="45.84245" lon="6.45141">
        <ele>2004.49</ele>
        <time>2015-03-12T09:21:39Z</time>
      </trkpt>
      <trkpt lat="45.84248" lon="6.45141">
        <ele>2003.04</ele>
        <time>2015-03-12T09:21:58Z</time>
      </trkpt>
      <trkpt lat="45.84247" lon="6.45142">
        <ele>2004.97</ele>
        <time>2015-03-12T09:22:00Z</time>
      </trkpt>
      <trkpt lat="45.84247" lon="6.45141">
        <ele>2003.52</ele>
        <time>2015-03-12T09:22:02Z</time>
      </trkpt>
      <trkpt lat="45.84248" lon="6.45142">
        <ele>2003.52</ele>
        <time>2015-03-12T09:22:21Z</time>
      </trkpt>
      <trkpt lat="45.84245" lon="6.45143">
        <ele>2003.04</ele>
        <time>2015-03-12T09:22:47Z</time>
      </trkpt>
      <trkpt lat="45.84244" lon="6.45143">
        <ele>2004.49</ele>
        <time>2015-03-12T09:23:09Z</time>
      </trkpt>
      <trkpt lat="45.84242" lon="6.45143">
        <ele>2006.41</ele>
        <time>2015-03-12T09:23:22Z</time>
      </trkpt>
      <trkpt lat="45.84237" lon="6.45145">
        <ele>2008.33</ele>
        <time>2015-03-12T09:23:37Z</time>
      </trkpt>
      <trkpt lat="45.84234" lon="6.45142">
        <ele>2009.77</ele>
        <time>2015-03-12T09:23:49Z</time>
      </trkpt>
      <trkpt lat="45.84232" lon="6.45142">
        <ele>2011.22</ele>
        <time>2015-03-12T09:24:02Z</time>
      </trkpt>
      <trkpt lat="45.8423" lon="6.4514">
        <ele>2014.1</ele>
        <time>2015-03-12T09:24:16Z</time>
      </trkpt>
      <trkpt lat="45.84231" lon="6.45134">
        <ele>2015.06</ele>
        <time>2015-03-12T09:24:29Z</time>
      </trkpt>
      <trkpt lat="45.84227" lon="6.45133">
        <ele>2016.98</ele>
        <time>2015-03-12T09:24:42Z</time>
      </trkpt>
      <trkpt lat="45.84223" lon="6.45135">
        <ele>2017.94</ele>
        <time>2015-03-12T09:24:57Z</time>
      </trkpt>
      <trkpt lat="45.84219" lon="6.45136">
        <ele>2019.87</ele>
        <time>2015-03-12T09:25:11Z</time>
      </trkpt>
      <trkpt lat="45.84219" lon="6.45131">
        <ele>2020.83</ele>
        <time>2015-03-12T09:25:24Z</time>
      </trkpt>
      <trkpt lat="45.8422" lon="6.45126">
        <ele>2022.75</ele>
        <time>2015-03-12T09:25:41Z</time>
      </trkpt>
      <trkpt lat="45.84217" lon="6.45128">
        <ele>2024.19</ele>
        <time>2015-03-12T09:25:54Z</time>
      </trkpt>
      <trkpt lat="45.84214" lon="6.45125">
        <ele>2026.6</ele>
        <time>2015-03-12T09:26:09Z</time>
      </trkpt>
      <trkpt lat="45.84214" lon="6.45118">
        <ele>2029.48</ele>
        <time>2015-03-12T09:26:26Z</time>
      </trkpt>
      <trkpt lat="45.84214" lon="6.45114">
        <ele>2030.92</ele>
        <time>2015-03-12T09:26:43Z</time>
      </trkpt>
      <trkpt lat="45.84211" lon="6.45114">
        <ele>2032.84</ele>
        <time>2015-03-12T09:26:54Z</time>
      </trkpt>
      <trkpt lat="45.84207" lon="6.45113">
        <ele>2034.29</ele>
        <time>2015-03-12T09:27:08Z</time>
      </trkpt>
      <trkpt lat="45.84203" lon="6.45113">
        <ele>2036.21</ele>
        <time>2015-03-12T09:27:23Z</time>
      </trkpt>
      <trkpt lat="45.842" lon="6.45112">
        <ele>2037.17</ele>
        <time>2015-03-12T09:27:37Z</time>
      </trkpt>
      <trkpt lat="45.84201" lon="6.45105">
        <ele>2039.09</ele>
        <time>2015-03-12T09:27:54Z</time>
      </trkpt>
      <trkpt lat="45.84199" lon="6.45102">
        <ele>2041.02</ele>
        <time>2015-03-12T09:28:09Z</time>
      </trkpt>
      <trkpt lat="45.84198" lon="6.45101">
        <ele>2042.46</ele>
        <time>2015-03-12T09:28:23Z</time>
      </trkpt>
      <trkpt lat="45.84196" lon="6.45097">
        <ele>2044.38</ele>
        <time>2015-03-12T09:28:41Z</time>
      </trkpt>
      <trkpt lat="45.84199" lon="6.45091">
        <ele>2045.34</ele>
        <time>2015-03-12T09:28:59Z</time>
      </trkpt>
      <trkpt lat="45.842" lon="6.45085">
        <ele>2047.26</ele>
        <time>2015-03-12T09:29:14Z</time>
      </trkpt>
      <trkpt lat="45.84197" lon="6.45085">
        <ele>2048.71</ele>
        <time>2015-03-12T09:29:27Z</time>
      </trkpt>
      <trkpt lat="45.84194" lon="6.45085">
        <ele>2050.15</ele>
        <time>2015-03-12T09:29:42Z</time>
      </trkpt>
      <trkpt lat="45.84191" lon="6.45085">
        <ele>2050.63</ele>
        <time>2015-03-12T09:29:54Z</time>
      </trkpt>
      <trkpt lat="45.84192" lon="6.45081">
        <ele>2052.07</ele>
        <time>2015-03-12T09:30:08Z</time>
      </trkpt>
      <trkpt lat="45.84193" lon="6.45077">
        <ele>2053.51</ele>
        <time>2015-03-12T09:30:23Z</time>
      </trkpt>
      <trkpt lat="45.84191" lon="6.45077">
        <ele>2054.96</ele>
        <time>2015-03-12T09:30:36Z</time>
      </trkpt>
      <trkpt lat="45.84188" lon="6.45076">
        <ele>2056.4</ele>
        <time>2015-03-12T09:30:52Z</time>
      </trkpt>
      <trkpt lat="45.84189" lon="6.45069">
        <ele>2058.32</ele>
        <time>2015-03-12T09:31:08Z</time>
      </trkpt>
      <trkpt lat="45.8419" lon="6.45062">
        <ele>2060.72</ele>
        <time>2015-03-12T09:31:23Z</time>
      </trkpt>
      <trkpt lat="45.84193" lon="6.45055">
        <ele>2063.13</ele>
        <time>2015-03-12T09:31:39Z</time>
      </trkpt>
      <trkpt lat="45.84194" lon="6.4505">
        <ele>2064.57</ele>
        <time>2015-03-12T09:31:54Z</time>
      </trkpt>
      <trkpt lat="45.84191" lon="6.45051">
        <ele>2066.01</ele>
        <time>2015-03-12T09:32:05Z</time>
      </trkpt>
      <trkpt lat="45.84186" lon="6.45053">
        <ele>2067.93</ele>
        <time>2015-03-12T09:32:20Z</time>
      </trkpt>
      <trkpt lat="45.84182" lon="6.45054">
        <ele>2068.89</ele>
        <time>2015-03-12T09:32:33Z</time>
      </trkpt>
      <trkpt lat="45.84178" lon="6.45053">
        <ele>2070.82</ele>
        <time>2015-03-12T09:32:45Z</time>
      </trkpt>
      <trkpt lat="45.84173" lon="6.45054">
        <ele>2072.74</ele>
        <time>2015-03-12T09:33:04Z</time>
      </trkpt>
      <trkpt lat="45.84169" lon="6.45059">
        <ele>2074.66</ele>
        <time>2015-03-12T09:33:18Z</time>
      </trkpt>
      <trkpt lat="45.84169" lon="6.45053">
        <ele>2076.1</ele>
        <time>2015-03-12T09:33:31Z</time>
      </trkpt>
      <trkpt lat="45.84167" lon="6.45051">
        <ele>2077.55</ele>
        <time>2015-03-12T09:33:42Z</time>
      </trkpt>
      <trkpt lat="45.84168" lon="6.45047">
        <ele>2079.95</ele>
        <time>2015-03-12T09:34:00Z</time>
      </trkpt>
      <trkpt lat="45.84166" lon="6.45043">
        <ele>2081.87</ele>
        <time>2015-03-12T09:34:15Z</time>
      </trkpt>
      <trkpt lat="45.84164" lon="6.45041">
        <ele>2083.79</ele>
        <time>2015-03-12T09:34:27Z</time>
      </trkpt>
      <trkpt lat="45.84164" lon="6.45038">
        <ele>2086.68</ele>
        <time>2015-03-12T09:34:40Z</time>
      </trkpt>
      <trkpt lat="45.84162" lon="6.45035">
        <ele>2088.12</ele>
        <time>2015-03-12T09:34:52Z</time>
      </trkpt>
      <trkpt lat="45.84161" lon="6.45031">
        <ele>2090.52</ele>
        <time>2015-03-12T09:35:07Z</time>
      </trkpt>
      <trkpt lat="45.84159" lon="6.45027">
        <ele>2092.45</ele>
        <time>2015-03-12T09:35:21Z</time>
      </trkpt>
      <trkpt lat="45.84158" lon="6.45026">
        <ele>2093.41</ele>
        <time>2015-03-12T09:35:23Z</time>
      </trkpt>
      <trkpt lat="45.84156" lon="6.45022">
        <ele>2095.81</ele>
        <time>2015-03-12T09:35:40Z</time>
      </trkpt>
      <trkpt lat="45.84156" lon="6.45022">
        <ele>2097.25</ele>
        <time>2015-03-12T09:35:54Z</time>
      </trkpt>
      <trkpt lat="45.84155" lon="6.45021">
        <ele>2098.21</ele>
        <time>2015-03-12T09:36:14Z</time>
      </trkpt>
      <trkpt lat="45.84153" lon="6.45018">
        <ele>2100.62</ele>
        <time>2015-03-12T09:36:28Z</time>
      </trkpt>
      <trkpt lat="45.84151" lon="6.45013">
        <ele>2103.02</ele>
        <time>2015-03-12T09:36:43Z</time>
      </trkpt>
      <trkpt lat="45.84149" lon="6.45013">
        <ele>2104.94</ele>
        <time>2015-03-12T09:36:54Z</time>
      </trkpt>
      <trkpt lat="45.84147" lon="6.45009">
        <ele>2107.35</ele>
        <time>2015-03-12T09:37:07Z</time>
      </trkpt>
      <trkpt lat="45.84145" lon="6.45005">
        <ele>2109.75</ele>
        <time>2015-03-12T09:37:22Z</time>
      </trkpt>
      <trkpt lat="45.84143" lon="6.45003">
        <ele>2111.67</ele>
        <time>2015-03-12T09:37:35Z</time>
      </trkpt>
      <trkpt lat="45.84142" lon="6.45003">
        <ele>2112.63</ele>
        <time>2015-03-12T09:37:48Z</time>
      </trkpt>
      <trkpt lat="45.84144" lon="6.45002">
        <ele>2113.12</ele>
        <time>2015-03-12T09:38:05Z</time>
      </trkpt>
      <trkpt lat="45.84143" lon="6.45">
        <ele>2114.56</ele>
        <time>2015-03-12T09:38:23Z</time>
      </trkpt>
      <trkpt lat="45.8414" lon="6.44998">
        <ele>2116.96</ele>
        <time>2015-03-12T09:38:39Z</time>
      </trkpt>
      <trkpt lat="45.84139" lon="6.44996">
        <ele>2118.88</ele>
        <time>2015-03-12T09:38:53Z</time>
      </trkpt>
      <trkpt lat="45.84137" lon="6.44993">
        <ele>2121.29</ele>
        <time>2015-03-12T09:39:10Z</time>
      </trkpt>
      <trkpt lat="45.84134" lon="6.44991">
        <ele>2123.69</ele>
        <time>2015-03-12T09:39:25Z</time>
      </trkpt>
      <trkpt lat="45.8413" lon="6.4499">
        <ele>2126.57</ele>
        <time>2015-03-12T09:39:40Z</time>
      </trkpt>
      <trkpt lat="45.84127" lon="6.44989">
        <ele>2128.5</ele>
        <time>2015-03-12T09:39:55Z</time>
      </trkpt>
      <trkpt lat="45.84126" lon="6.44988">
        <ele>2129.46</ele>
        <time>2015-03-12T09:40:08Z</time>
      </trkpt>
      <trkpt lat="45.84125" lon="6.44989">
        <ele>2130.42</ele>
        <time>2015-03-12T09:40:26Z</time>
      </trkpt>
      <trkpt lat="45.84122" lon="6.44988">
        <ele>2133.3</ele>
        <time>2015-03-12T09:40:43Z</time>
      </trkpt>
      <trkpt lat="45.84122" lon="6.44987">
        <ele>2133.3</ele>
        <time>2015-03-12T09:40:44Z</time>
      </trkpt>
      <trkpt lat="45.8412" lon="6.44985">
        <ele>2135.23</ele>
        <time>2015-03-12T09:40:56Z</time>
      </trkpt>
      <trkpt lat="45.84118" lon="6.44984">
        <ele>2137.63</ele>
        <time>2015-03-12T09:41:11Z</time>
      </trkpt>
      <trkpt lat="45.84115" lon="6.44982">
        <ele>2139.55</ele>
        <time>2015-03-12T09:41:22Z</time>
      </trkpt>
      <trkpt lat="45.84113" lon="6.44982">
        <ele>2143.4</ele>
        <time>2015-03-12T09:41:40Z</time>
      </trkpt>
      <trkpt lat="45.84111" lon="6.44981">
        <ele>2144.84</ele>
        <time>2015-03-12T09:41:52Z</time>
      </trkpt>
      <trkpt lat="45.84111" lon="6.4498">
        <ele>2145.8</ele>
        <time>2015-03-12T09:42:08Z</time>
      </trkpt>
      <trkpt lat="45.84109" lon="6.44977">
        <ele>2146.76</ele>
        <time>2015-03-12T09:42:22Z</time>
      </trkpt>
      <trkpt lat="45.84107" lon="6.44974">
        <ele>2149.65</ele>
        <time>2015-03-12T09:42:37Z</time>
      </trkpt>
      <trkpt lat="45.84104" lon="6.44972">
        <ele>2152.05</ele>
        <time>2015-03-12T09:42:51Z</time>
      </trkpt>
      <trkpt lat="45.84102" lon="6.4497">
        <ele>2153.97</ele>
        <time>2015-03-12T09:43:03Z</time>
      </trkpt>
      <trkpt lat="45.84098" lon="6.44969">
        <ele>2155.41</ele>
        <time>2015-03-12T09:43:19Z</time>
      </trkpt>
      <trkpt lat="45.84095" lon="6.44966">
        <ele>2158.3</ele>
        <time>2015-03-12T09:43:33Z</time>
      </trkpt>
      <trkpt lat="45.84094" lon="6.44964">
        <ele>2159.74</ele>
        <time>2015-03-12T09:43:45Z</time>
      </trkpt>
      <trkpt lat="45.84092" lon="6.44963">
        <ele>2161.66</ele>
        <time>2015-03-12T09:43:56Z</time>
      </trkpt>
      <trkpt lat="45.8409" lon="6.44961">
        <ele>2163.58</ele>
        <time>2015-03-12T09:44:10Z</time>
      </trkpt>
      <trkpt lat="45.84088" lon="6.4496">
        <ele>2165.99</ele>
        <time>2015-03-12T09:44:21Z</time>
      </trkpt>
      <trkpt lat="45.84086" lon="6.4496">
        <ele>2167.43</ele>
        <time>2015-03-12T09:44:33Z</time>
      </trkpt>
      <trkpt lat="45.84084" lon="6.4496">
        <ele>2169.35</ele>
        <time>2015-03-12T09:44:48Z</time>
      </trkpt>
      <trkpt lat="45.84082" lon="6.44957">
        <ele>2171.76</ele>
        <time>2015-03-12T09:45:03Z</time>
      </trkpt>
      <trkpt lat="45.84079" lon="6.44955">
        <ele>2173.68</ele>
        <time>2015-03-12T09:45:16Z</time>
      </trkpt>
      <trkpt lat="45.84078" lon="6.44953">
        <ele>2175.6</ele>
        <time>2015-03-12T09:45:28Z</time>
      </trkpt>
      <trkpt lat="45.84077" lon="6.44951">
        <ele>2178</ele>
        <time>2015-03-12T09:45:41Z</time>
      </trkpt>
      <trkpt lat="45.84075" lon="6.4495">
        <ele>2179.45</ele>
        <time>2015-03-12T09:45:54Z</time>
      </trkpt>
      <trkpt lat="45.84074" lon="6.44949">
        <ele>2181.85</ele>
        <time>2015-03-12T09:46:09Z</time>
      </trkpt>
      <trkpt lat="45.84072" lon="6.44946">
        <ele>2184.73</ele>
        <time>2015-03-12T09:46:26Z</time>
      </trkpt>
      <trkpt lat="45.84071" lon="6.44942">
        <ele>2187.14</ele>
        <time>2015-03-12T09:46:39Z</time>
      </trkpt>
      <trkpt lat="45.84069" lon="6.44942">
        <ele>2190.5</ele>
        <time>2015-03-12T09:46:53Z</time>
      </trkpt>
      <trkpt lat="45.84068" lon="6.44939">
        <ele>2191.94</ele>
        <time>2015-03-12T09:47:06Z</time>
      </trkpt>
      <trkpt lat="45.84067" lon="6.44935">
        <ele>2194.35</ele>
        <time>2015-03-12T09:47:23Z</time>
      </trkpt>
      <trkpt lat="45.84066" lon="6.44932">
        <ele>2197.71</ele>
        <time>2015-03-12T09:47:36Z</time>
      </trkpt>
      <trkpt lat="45.84066" lon="6.4493">
        <ele>2199.63</ele>
        <time>2015-03-12T09:47:49Z</time>
      </trkpt>
      <trkpt lat="45.84065" lon="6.44929">
        <ele>2202.04</ele>
        <time>2015-03-12T09:48:04Z</time>
      </trkpt>
      <trkpt lat="45.84064" lon="6.44931">
        <ele>2200.59</ele>
        <time>2015-03-12T09:48:18Z</time>
      </trkpt>
      <trkpt lat="45.84064" lon="6.44928">
        <ele>2200.59</ele>
        <time>2015-03-12T09:48:36Z</time>
      </trkpt>
      <trkpt lat="45.84064" lon="6.4493">
        <ele>2202.04</ele>
        <time>2015-03-12T09:49:03Z</time>
      </trkpt>
      <trkpt lat="45.84064" lon="6.4493">
        <ele>2202.04</ele>
        <time>2015-03-12T09:49:30Z</time>
      </trkpt>
      <trkpt lat="45.84064" lon="6.4493">
        <ele>2201.08</ele>
        <time>2015-03-12T09:50:05Z</time>
      </trkpt>
      <trkpt lat="45.84065" lon="6.44928">
        <ele>2201.08</ele>
        <time>2015-03-12T09:50:34Z</time>
      </trkpt>
      <trkpt lat="45.84066" lon="6.44927">
        <ele>2200.59</ele>
        <time>2015-03-12T09:50:55Z</time>
      </trkpt>
      <trkpt lat="45.84066" lon="6.44926">
        <ele>2200.59</ele>
        <time>2015-03-12T09:51:21Z</time>
      </trkpt>
      <trkpt lat="45.84066" lon="6.44924">
        <ele>2200.59</ele>
        <time>2015-03-12T09:51:46Z</time>
      </trkpt>
      <trkpt lat="45.84065" lon="6.44923">
        <ele>2200.59</ele>
        <time>2015-03-12T09:52:16Z</time>
      </trkpt>
      <trkpt lat="45.84066" lon="6.44924">
        <ele>2202.04</ele>
        <time>2015-03-12T09:52:29Z</time>
      </trkpt>
      <trkpt lat="45.84065" lon="6.44923">
        <ele>2202.52</ele>
        <time>2015-03-12T09:52:55Z</time>
      </trkpt>
      <trkpt lat="45.84065" lon="6.44923">
        <ele>2202.04</ele>
        <time>2015-03-12T09:53:27Z</time>
      </trkpt>
      <trkpt lat="45.84064" lon="6.44925">
        <ele>2201.08</ele>
        <time>2015-03-12T09:53:54Z</time>
      </trkpt>
      <trkpt lat="45.84067" lon="6.44924">
        <ele>2200.59</ele>
        <time>2015-03-12T09:54:21Z</time>
      </trkpt>
      <trkpt lat="45.84066" lon="6.44925">
        <ele>2200.59</ele>
        <time>2015-03-12T09:54:49Z</time>
      </trkpt>
      <trkpt lat="45.84066" lon="6.44926">
        <ele>2202.04</ele>
        <time>2015-03-12T09:54:58Z</time>
      </trkpt>
      <trkpt lat="45.84067" lon="6.44924">
        <ele>2202.04</ele>
        <time>2015-03-12T09:55:30Z</time>
      </trkpt>
      <trkpt lat="45.84067" lon="6.44924">
        <ele>2202.04</ele>
        <time>2015-03-12T09:55:56Z</time>
      </trkpt>
      <trkpt lat="45.84068" lon="6.44923">
        <ele>2201.08</ele>
        <time>2015-03-12T09:56:28Z</time>
      </trkpt>
      <trkpt lat="45.84068" lon="6.44925">
        <ele>2202.52</ele>
        <time>2015-03-12T09:56:46Z</time>
      </trkpt>
      <trkpt lat="45.8407" lon="6.44922">
        <ele>2201.08</ele>
        <time>2015-03-12T09:57:13Z</time>
      </trkpt>
      <trkpt lat="45.84071" lon="6.44924">
        <ele>2201.08</ele>
        <time>2015-03-12T09:57:43Z</time>
      </trkpt>
      <trkpt lat="45.84072" lon="6.44926">
        <ele>2201.08</ele>
        <time>2015-03-12T09:58:11Z</time>
      </trkpt>
      <trkpt lat="45.84073" lon="6.44925">
        <ele>2201.08</ele>
        <time>2015-03-12T09:58:39Z</time>
      </trkpt>
      <trkpt lat="45.84071" lon="6.44923">
        <ele>2201.08</ele>
        <time>2015-03-12T09:58:53Z</time>
      </trkpt>
      <trkpt lat="45.84067" lon="6.44923">
        <ele>2202.52</ele>
        <time>2015-03-12T09:59:12Z</time>
      </trkpt>
      <trkpt lat="45.84068" lon="6.44924">
        <ele>2201.56</ele>
        <time>2015-03-12T09:59:19Z</time>
      </trkpt>
      <trkpt lat="45.84066" lon="6.44927">
        <ele>2201.56</ele>
        <time>2015-03-12T09:59:41Z</time>
      </trkpt>
      <trkpt lat="45.84066" lon="6.44927">
        <ele>2201.56</ele>
        <time>2015-03-12T10:00:04Z</time>
      </trkpt>
      <trkpt lat="45.84067" lon="6.44926">
        <ele>2201.56</ele>
        <time>2015-03-12T10:00:25Z</time>
      </trkpt>
      <trkpt lat="45.84067" lon="6.44926">
        <ele>2203</ele>
        <time>2015-03-12T10:00:31Z</time>
      </trkpt>
      <trkpt lat="45.8407" lon="6.44924">
        <ele>2204.44</ele>
        <time>2015-03-12T10:00:51Z</time>
      </trkpt>
      <trkpt lat="45.84071" lon="6.44919">
        <ele>2207.32</ele>
        <time>2015-03-12T10:01:09Z</time>
      </trkpt>
      <trkpt lat="45.84075" lon="6.44921">
        <ele>2210.21</ele>
        <time>2015-03-12T10:01:26Z</time>
      </trkpt>
      <trkpt lat="45.84077" lon="6.44921">
        <ele>2211.65</ele>
        <time>2015-03-12T10:01:39Z</time>
      </trkpt>
      <trkpt lat="45.84079" lon="6.4492">
        <ele>2212.61</ele>
        <time>2015-03-12T10:01:53Z</time>
      </trkpt>
      <trkpt lat="45.84082" lon="6.44916">
        <ele>2214.53</ele>
        <time>2015-03-12T10:02:07Z</time>
      </trkpt>
      <trkpt lat="45.84086" lon="6.44914">
        <ele>2215.5</ele>
        <time>2015-03-12T10:02:21Z</time>
      </trkpt>
      <trkpt lat="45.8409" lon="6.4491">
        <ele>2217.42</ele>
        <time>2015-03-12T10:02:35Z</time>
      </trkpt>
      <trkpt lat="45.84096" lon="6.44906">
        <ele>2219.82</ele>
        <time>2015-03-12T10:02:51Z</time>
      </trkpt>
      <trkpt lat="45.84101" lon="6.44901">
        <ele>2221.74</ele>
        <time>2015-03-12T10:03:06Z</time>
      </trkpt>
      <trkpt lat="45.84102" lon="6.44899">
        <ele>2223.67</ele>
        <time>2015-03-12T10:03:22Z</time>
      </trkpt>
      <trkpt lat="45.84104" lon="6.44896">
        <ele>2225.11</ele>
        <time>2015-03-12T10:03:36Z</time>
      </trkpt>
      <trkpt lat="45.84108" lon="6.44892">
        <ele>2227.51</ele>
        <time>2015-03-12T10:03:52Z</time>
      </trkpt>
      <trkpt lat="45.84112" lon="6.44889">
        <ele>2228.95</ele>
        <time>2015-03-12T10:04:08Z</time>
      </trkpt>
      <trkpt lat="45.84116" lon="6.44887">
        <ele>2231.36</ele>
        <time>2015-03-12T10:04:24Z</time>
      </trkpt>
      <trkpt lat="45.84119" lon="6.44885">
        <ele>2233.28</ele>
        <time>2015-03-12T10:04:38Z</time>
      </trkpt>
      <trkpt lat="45.84121" lon="6.44883">
        <ele>2235.2</ele>
        <time>2015-03-12T10:04:51Z</time>
      </trkpt>
      <trkpt lat="45.84122" lon="6.44881">
        <ele>2236.64</ele>
        <time>2015-03-12T10:05:03Z</time>
      </trkpt>
      <trkpt lat="45.84124" lon="6.44878">
        <ele>2239.05</ele>
        <time>2015-03-12T10:05:19Z</time>
      </trkpt>
      <trkpt lat="45.84126" lon="6.44874">
        <ele>2240.49</ele>
        <time>2015-03-12T10:05:34Z</time>
      </trkpt>
      <trkpt lat="45.84128" lon="6.44871">
        <ele>2242.89</ele>
        <time>2015-03-12T10:05:48Z</time>
      </trkpt>
      <trkpt lat="45.8413" lon="6.4487">
        <ele>2244.82</ele>
        <time>2015-03-12T10:06:04Z</time>
      </trkpt>
      <trkpt lat="45.84132" lon="6.44868">
        <ele>2246.26</ele>
        <time>2015-03-12T10:06:21Z</time>
      </trkpt>
      <trkpt lat="45.84134" lon="6.44866">
        <ele>2248.66</ele>
        <time>2015-03-12T10:06:35Z</time>
      </trkpt>
      <trkpt lat="45.84137" lon="6.44863">
        <ele>2250.58</ele>
        <time>2015-03-12T10:06:49Z</time>
      </trkpt>
      <trkpt lat="45.84139" lon="6.44861">
        <ele>2252.99</ele>
        <time>2015-03-12T10:07:04Z</time>
      </trkpt>
      <trkpt lat="45.84141" lon="6.44859">
        <ele>2254.91</ele>
        <time>2015-03-12T10:07:20Z</time>
      </trkpt>
      <trkpt lat="45.84143" lon="6.44857">
        <ele>2256.83</ele>
        <time>2015-03-12T10:07:34Z</time>
      </trkpt>
      <trkpt lat="45.84143" lon="6.44858">
        <ele>2258.27</ele>
        <time>2015-03-12T10:07:37Z</time>
      </trkpt>
      <trkpt lat="45.84146" lon="6.44854">
        <ele>2259.72</ele>
        <time>2015-03-12T10:07:55Z</time>
      </trkpt>
      <trkpt lat="45.84148" lon="6.44849">
        <ele>2261.64</ele>
        <time>2015-03-12T10:08:11Z</time>
      </trkpt>
      <trkpt lat="45.84151" lon="6.44845">
        <ele>2263.56</ele>
        <time>2015-03-12T10:08:25Z</time>
      </trkpt>
      <trkpt lat="45.84154" lon="6.44843">
        <ele>2266.45</ele>
        <time>2015-03-12T10:08:39Z</time>
      </trkpt>
      <trkpt lat="45.84157" lon="6.4484">
        <ele>2267.89</ele>
        <time>2015-03-12T10:08:54Z</time>
      </trkpt>
      <trkpt lat="45.8416" lon="6.44837">
        <ele>2269.33</ele>
        <time>2015-03-12T10:09:08Z</time>
      </trkpt>
      <trkpt lat="45.84162" lon="6.44834">
        <ele>2271.25</ele>
        <time>2015-03-12T10:09:21Z</time>
      </trkpt>
      <trkpt lat="45.84165" lon="6.44831">
        <ele>2273.66</ele>
        <time>2015-03-12T10:09:34Z</time>
      </trkpt>
      <trkpt lat="45.84167" lon="6.44828">
        <ele>2275.1</ele>
        <time>2015-03-12T10:09:48Z</time>
      </trkpt>
      <trkpt lat="45.84169" lon="6.44825">
        <ele>2276.54</ele>
        <time>2015-03-12T10:10:00Z</time>
      </trkpt>
      <trkpt lat="45.84171" lon="6.44821">
        <ele>2278.46</ele>
        <time>2015-03-12T10:10:13Z</time>
      </trkpt>
      <trkpt lat="45.84174" lon="6.44817">
        <ele>2280.38</ele>
        <time>2015-03-12T10:10:28Z</time>
      </trkpt>
      <trkpt lat="45.84177" lon="6.44814">
        <ele>2281.83</ele>
        <time>2015-03-12T10:10:43Z</time>
      </trkpt>
      <trkpt lat="45.8418" lon="6.4481">
        <ele>2284.23</ele>
        <time>2015-03-12T10:10:58Z</time>
      </trkpt>
      <trkpt lat="45.84182" lon="6.44806">
        <ele>2285.67</ele>
        <time>2015-03-12T10:11:13Z</time>
      </trkpt>
      <trkpt lat="45.84185" lon="6.44802">
        <ele>2288.08</ele>
        <time>2015-03-12T10:11:29Z</time>
      </trkpt>
      <trkpt lat="45.84187" lon="6.44799">
        <ele>2289.52</ele>
        <time>2015-03-12T10:11:43Z</time>
      </trkpt>
      <trkpt lat="45.8419" lon="6.44796">
        <ele>2291.44</ele>
        <time>2015-03-12T10:11:59Z</time>
      </trkpt>
      <trkpt lat="45.84192" lon="6.44791">
        <ele>2292.88</ele>
        <time>2015-03-12T10:12:14Z</time>
      </trkpt>
      <trkpt lat="45.84194" lon="6.44788">
        <ele>2294.32</ele>
        <time>2015-03-12T10:12:27Z</time>
      </trkpt>
      <trkpt lat="45.84196" lon="6.44785">
        <ele>2296.25</ele>
        <time>2015-03-12T10:12:42Z</time>
      </trkpt>
      <trkpt lat="45.84199" lon="6.44782">
        <ele>2298.65</ele>
        <time>2015-03-12T10:12:57Z</time>
      </trkpt>
      <trkpt lat="45.84202" lon="6.44778">
        <ele>2301.53</ele>
        <time>2015-03-12T10:13:13Z</time>
      </trkpt>
      <trkpt lat="45.84205" lon="6.44772">
        <ele>2302.98</ele>
        <time>2015-03-12T10:13:30Z</time>
      </trkpt>
      <trkpt lat="45.84208" lon="6.44768">
        <ele>2305.86</ele>
        <time>2015-03-12T10:13:45Z</time>
      </trkpt>
      <trkpt lat="45.8421" lon="6.44764">
        <ele>2307.3</ele>
        <time>2015-03-12T10:13:59Z</time>
      </trkpt>
      <trkpt lat="45.84213" lon="6.44764">
        <ele>2309.7</ele>
        <time>2015-03-12T10:14:13Z</time>
      </trkpt>
      <trkpt lat="45.84215" lon="6.4477">
        <ele>2311.63</ele>
        <time>2015-03-12T10:14:30Z</time>
      </trkpt>
      <trkpt lat="45.84216" lon="6.44776">
        <ele>2313.07</ele>
        <time>2015-03-12T10:14:47Z</time>
      </trkpt>
      <trkpt lat="45.84217" lon="6.44779">
        <ele>2315.47</ele>
        <time>2015-03-12T10:14:57Z</time>
      </trkpt>
      <trkpt lat="45.8422" lon="6.44785">
        <ele>2317.4</ele>
        <time>2015-03-12T10:15:14Z</time>
      </trkpt>
      <trkpt lat="45.84223" lon="6.44789">
        <ele>2318.84</ele>
        <time>2015-03-12T10:15:30Z</time>
      </trkpt>
      <trkpt lat="45.84226" lon="6.44791">
        <ele>2321.24</ele>
        <time>2015-03-12T10:15:44Z</time>
      </trkpt>
      <trkpt lat="45.84228" lon="6.44793">
        <ele>2322.68</ele>
        <time>2015-03-12T10:15:58Z</time>
      </trkpt>
      <trkpt lat="45.84231" lon="6.44795">
        <ele>2325.09</ele>
        <time>2015-03-12T10:16:09Z</time>
      </trkpt>
      <trkpt lat="45.84233" lon="6.44797">
        <ele>2326.53</ele>
        <time>2015-03-12T10:16:21Z</time>
      </trkpt>
      <trkpt lat="45.84235" lon="6.44799">
        <ele>2327.97</ele>
        <time>2015-03-12T10:16:31Z</time>
      </trkpt>
      <trkpt lat="45.84237" lon="6.44797">
        <ele>2329.89</ele>
        <time>2015-03-12T10:16:44Z</time>
      </trkpt>
      <trkpt lat="45.8424" lon="6.44797">
        <ele>2332.3</ele>
        <time>2015-03-12T10:16:56Z</time>
      </trkpt>
      <trkpt lat="45.84239" lon="6.4479">
        <ele>2332.3</ele>
        <time>2015-03-12T10:17:12Z</time>
      </trkpt>
      <trkpt lat="45.8424" lon="6.44781">
        <ele>2335.18</ele>
        <time>2015-03-12T10:17:29Z</time>
      </trkpt>
      <trkpt lat="45.84242" lon="6.44772">
        <ele>2336.62</ele>
        <time>2015-03-12T10:17:46Z</time>
      </trkpt>
      <trkpt lat="45.84244" lon="6.44762">
        <ele>2338.06</ele>
        <time>2015-03-12T10:18:04Z</time>
      </trkpt>
      <trkpt lat="45.84254" lon="6.44758">
        <ele>2339.51</ele>
        <time>2015-03-12T10:18:26Z</time>
      </trkpt>
      <trkpt lat="45.8426" lon="6.44758">
        <ele>2341.43</ele>
        <time>2015-03-12T10:18:40Z</time>
      </trkpt>
      <trkpt lat="45.84267" lon="6.44758">
        <ele>2343.35</ele>
        <time>2015-03-12T10:18:56Z</time>
      </trkpt>
      <trkpt lat="45.84274" lon="6.44758">
        <ele>2345.75</ele>
        <time>2015-03-12T10:19:11Z</time>
      </trkpt>
      <trkpt lat="45.84281" lon="6.44758">
        <ele>2346.72</ele>
        <time>2015-03-12T10:19:26Z</time>
      </trkpt>
      <trkpt lat="45.84288" lon="6.44758">
        <ele>2348.16</ele>
        <time>2015-03-12T10:19:41Z</time>
      </trkpt>
      <trkpt lat="45.84296" lon="6.44756">
        <ele>2349.6</ele>
        <time>2015-03-12T10:19:58Z</time>
      </trkpt>
      <trkpt lat="45.84302" lon="6.44755">
        <ele>2352</ele>
        <time>2015-03-12T10:20:13Z</time>
      </trkpt>
      <trkpt lat="45.8431" lon="6.44752">
        <ele>2353.44</ele>
        <time>2015-03-12T10:20:29Z</time>
      </trkpt>
      <trkpt lat="45.84316" lon="6.4475">
        <ele>2355.85</ele>
        <time>2015-03-12T10:20:44Z</time>
      </trkpt>
      <trkpt lat="45.84324" lon="6.44747">
        <ele>2358.25</ele>
        <time>2015-03-12T10:21:02Z</time>
      </trkpt>
      <trkpt lat="45.84331" lon="6.44745">
        <ele>2360.17</ele>
        <time>2015-03-12T10:21:20Z</time>
      </trkpt>
      <trkpt lat="45.84338" lon="6.44745">
        <ele>2362.1</ele>
        <time>2015-03-12T10:21:36Z</time>
      </trkpt>
      <trkpt lat="45.84343" lon="6.44742">
        <ele>2364.5</ele>
        <time>2015-03-12T10:21:51Z</time>
      </trkpt>
      <trkpt lat="45.84348" lon="6.44741">
        <ele>2366.9</ele>
        <time>2015-03-12T10:22:10Z</time>
      </trkpt>
      <trkpt lat="45.84353" lon="6.4474">
        <ele>2368.35</ele>
        <time>2015-03-12T10:22:29Z</time>
      </trkpt>
      <trkpt lat="45.84352" lon="6.44743">
        <ele>2368.35</ele>
        <time>2015-03-12T10:22:35Z</time>
      </trkpt>
      <trkpt lat="45.84353" lon="6.44742">
        <ele>2369.79</ele>
        <time>2015-03-12T10:22:48Z</time>
      </trkpt>
      <trkpt lat="45.84359" lon="6.44736">
        <ele>2371.23</ele>
        <time>2015-03-12T10:23:05Z</time>
      </trkpt>
      <trkpt lat="45.84365" lon="6.4473">
        <ele>2373.15</ele>
        <time>2015-03-12T10:23:21Z</time>
      </trkpt>
      <trkpt lat="45.84373" lon="6.44723">
        <ele>2375.07</ele>
        <time>2015-03-12T10:23:39Z</time>
      </trkpt>
      <trkpt lat="45.84378" lon="6.44718">
        <ele>2376.04</ele>
        <time>2015-03-12T10:23:54Z</time>
      </trkpt>
      <trkpt lat="45.84385" lon="6.44711">
        <ele>2377.96</ele>
        <time>2015-03-12T10:24:11Z</time>
      </trkpt>
      <trkpt lat="45.8439" lon="6.44704">
        <ele>2379.4</ele>
        <time>2015-03-12T10:24:27Z</time>
      </trkpt>
      <trkpt lat="45.84396" lon="6.44697">
        <ele>2380.84</ele>
        <time>2015-03-12T10:24:45Z</time>
      </trkpt>
      <trkpt lat="45.84402" lon="6.44692">
        <ele>2381.8</ele>
        <time>2015-03-12T10:25:02Z</time>
      </trkpt>
      <trkpt lat="45.84408" lon="6.44683">
        <ele>2383.73</ele>
        <time>2015-03-12T10:25:21Z</time>
      </trkpt>
      <trkpt lat="45.84412" lon="6.44676">
        <ele>2386.13</ele>
        <time>2015-03-12T10:25:37Z</time>
      </trkpt>
      <trkpt lat="45.84417" lon="6.44666">
        <ele>2387.09</ele>
        <time>2015-03-12T10:25:56Z</time>
      </trkpt>
      <trkpt lat="45.84423" lon="6.44658">
        <ele>2389.01</ele>
        <time>2015-03-12T10:26:15Z</time>
      </trkpt>
      <trkpt lat="45.84427" lon="6.44653">
        <ele>2389.49</ele>
        <time>2015-03-12T10:26:29Z</time>
      </trkpt>
      <trkpt lat="45.84432" lon="6.44646">
        <ele>2390.94</ele>
        <time>2015-03-12T10:26:43Z</time>
      </trkpt>
      <trkpt lat="45.84439" lon="6.4464">
        <ele>2392.38</ele>
        <time>2015-03-12T10:26:58Z</time>
      </trkpt>
      <trkpt lat="45.84443" lon="6.44635">
        <ele>2393.34</ele>
        <time>2015-03-12T10:27:13Z</time>
      </trkpt>
      <trkpt lat="45.84448" lon="6.44624">
        <ele>2395.26</ele>
        <time>2015-03-12T10:27:31Z</time>
      </trkpt>
      <trkpt lat="45.84452" lon="6.44618">
        <ele>2395.26</ele>
        <time>2015-03-12T10:27:46Z</time>
      </trkpt>
      <trkpt lat="45.84454" lon="6.4461">
        <ele>2395.74</ele>
        <time>2015-03-12T10:28:00Z</time>
      </trkpt>
      <trkpt lat="45.84454" lon="6.44609">
        <ele>2396.22</ele>
        <time>2015-03-12T10:28:06Z</time>
      </trkpt>
      <trkpt lat="45.84456" lon="6.44597">
        <ele>2393.82</ele>
        <time>2015-03-12T10:28:24Z</time>
      </trkpt>
      <trkpt lat="45.84458" lon="6.44584">
        <ele>2393.34</ele>
        <time>2015-03-12T10:28:38Z</time>
      </trkpt>
      <trkpt lat="45.84459" lon="6.44573">
        <ele>2392.38</ele>
        <time>2015-03-12T10:28:53Z</time>
      </trkpt>
      <trkpt lat="45.84461" lon="6.44567">
        <ele>2390.94</ele>
        <time>2015-03-12T10:29:00Z</time>
      </trkpt>
      <trkpt lat="45.84464" lon="6.44552">
        <ele>2389.97</ele>
        <time>2015-03-12T10:29:19Z</time>
      </trkpt>
      <trkpt lat="45.84466" lon="6.44548">
        <ele>2389.97</ele>
        <time>2015-03-12T10:29:36Z</time>
      </trkpt>
      <trkpt lat="45.84466" lon="6.44545">
        <ele>2391.9</ele>
        <time>2015-03-12T10:29:56Z</time>
      </trkpt>
      <trkpt lat="45.84467" lon="6.44544">
        <ele>2391.9</ele>
        <time>2015-03-12T10:29:57Z</time>
      </trkpt>
      <trkpt lat="45.84472" lon="6.44537">
        <ele>2393.34</ele>
        <time>2015-03-12T10:30:14Z</time>
      </trkpt>
      <trkpt lat="45.84476" lon="6.44538">
        <ele>2395.26</ele>
        <time>2015-03-12T10:30:29Z</time>
      </trkpt>
      <trkpt lat="45.84477" lon="6.44536">
        <ele>2396.22</ele>
        <time>2015-03-12T10:30:46Z</time>
      </trkpt>
      <trkpt lat="45.84478" lon="6.44533">
        <ele>2397.18</ele>
        <time>2015-03-12T10:30:58Z</time>
      </trkpt>
      <trkpt lat="45.84481" lon="6.44532">
        <ele>2399.11</ele>
        <time>2015-03-12T10:31:11Z</time>
      </trkpt>
      <trkpt lat="45.84482" lon="6.4453">
        <ele>2401.03</ele>
        <time>2015-03-12T10:31:23Z</time>
      </trkpt>
      <trkpt lat="45.84482" lon="6.44531">
        <ele>2402.47</ele>
        <time>2015-03-12T10:31:44Z</time>
      </trkpt>
      <trkpt lat="45.84482" lon="6.44529">
        <ele>2402.95</ele>
        <time>2015-03-12T10:31:59Z</time>
      </trkpt>
      <trkpt lat="45.84482" lon="6.44527">
        <ele>2403.43</ele>
        <time>2015-03-12T10:32:22Z</time>
      </trkpt>
      <trkpt lat="45.84484" lon="6.44523">
        <ele>2404.88</ele>
        <time>2015-03-12T10:32:45Z</time>
      </trkpt>
      <trkpt lat="45.84485" lon="6.44525">
        <ele>2404.88</ele>
        <time>2015-03-12T10:33:04Z</time>
      </trkpt>
      <trkpt lat="45.84487" lon="6.44529">
        <ele>2404.88</ele>
        <time>2015-03-12T10:33:31Z</time>
      </trkpt>
      <trkpt lat="45.84486" lon="6.44525">
        <ele>2404.88</ele>
        <time>2015-03-12T10:33:48Z</time>
      </trkpt>
      <trkpt lat="45.84486" lon="6.44523">
        <ele>2403.91</ele>
        <time>2015-03-12T10:34:08Z</time>
      </trkpt>
      <trkpt lat="45.84486" lon="6.44523">
        <ele>2405.36</ele>
        <time>2015-03-12T10:34:26Z</time>
      </trkpt>
      <trkpt lat="45.84487" lon="6.4452">
        <ele>2403.91</ele>
        <time>2015-03-12T10:34:41Z</time>
      </trkpt>
      <trkpt lat="45.84488" lon="6.4452">
        <ele>2403.91</ele>
        <time>2015-03-12T10:35:13Z</time>
      </trkpt>
      <trkpt lat="45.84489" lon="6.44521">
        <ele>2405.84</ele>
        <time>2015-03-12T10:35:36Z</time>
      </trkpt>
      <trkpt lat="45.84492" lon="6.44521">
        <ele>2407.28</ele>
        <time>2015-03-12T10:35:47Z</time>
      </trkpt>
      <trkpt lat="45.84493" lon="6.44521">
        <ele>2408.72</ele>
        <time>2015-03-12T10:36:00Z</time>
      </trkpt>
      <trkpt lat="45.84494" lon="6.44521">
        <ele>2410.16</ele>
        <time>2015-03-12T10:36:04Z</time>
      </trkpt>
      <trkpt lat="45.84496" lon="6.4452">
        <ele>2411.6</ele>
        <time>2015-03-12T10:36:17Z</time>
      </trkpt>
      <trkpt lat="45.84497" lon="6.4452">
        <ele>2413.05</ele>
        <time>2015-03-12T10:36:21Z</time>
      </trkpt>
      <trkpt lat="45.84498" lon="6.44519">
        <ele>2414.01</ele>
        <time>2015-03-12T10:36:34Z</time>
      </trkpt>
      <trkpt lat="45.84499" lon="6.44518">
        <ele>2415.93</ele>
        <time>2015-03-12T10:36:46Z</time>
      </trkpt>
      <trkpt lat="45.84502" lon="6.44518">
        <ele>2417.85</ele>
        <time>2015-03-12T10:36:55Z</time>
      </trkpt>
      <trkpt lat="45.84503" lon="6.44519">
        <ele>2419.3</ele>
        <time>2015-03-12T10:37:07Z</time>
      </trkpt>
      <trkpt lat="45.84504" lon="6.44519">
        <ele>2420.74</ele>
        <time>2015-03-12T10:37:17Z</time>
      </trkpt>
      <trkpt lat="45.84504" lon="6.44519">
        <ele>2421.7</ele>
        <time>2015-03-12T10:37:20Z</time>
      </trkpt>
      <trkpt lat="45.84504" lon="6.44518">
        <ele>2423.14</ele>
        <time>2015-03-12T10:37:30Z</time>
      </trkpt>
      <trkpt lat="45.84505" lon="6.44516">
        <ele>2424.58</ele>
        <time>2015-03-12T10:37:43Z</time>
      </trkpt>
      <trkpt lat="45.84505" lon="6.44513">
        <ele>2426.02</ele>
        <time>2015-03-12T10:37:55Z</time>
      </trkpt>
      <trkpt lat="45.84505" lon="6.44512">
        <ele>2426.99</ele>
        <time>2015-03-12T10:38:08Z</time>
      </trkpt>
      <trkpt lat="45.84505" lon="6.4451">
        <ele>2427.47</ele>
        <time>2015-03-12T10:38:19Z</time>
      </trkpt>
      <trkpt lat="45.84505" lon="6.44506">
        <ele>2429.39</ele>
        <time>2015-03-12T10:38:31Z</time>
      </trkpt>
      <trkpt lat="45.84504" lon="6.44502">
        <ele>2433.23</ele>
        <time>2015-03-12T10:38:45Z</time>
      </trkpt>
      <trkpt lat="45.84504" lon="6.445">
        <ele>2432.27</ele>
        <time>2015-03-12T10:38:54Z</time>
      </trkpt>
      <trkpt lat="45.84504" lon="6.44497">
        <ele>2436.12</ele>
        <time>2015-03-12T10:39:04Z</time>
      </trkpt>
      <trkpt lat="45.84504" lon="6.44496">
        <ele>2434.68</ele>
        <time>2015-03-12T10:39:07Z</time>
      </trkpt>
      <trkpt lat="45.84504" lon="6.44496">
        <ele>2436.6</ele>
        <time>2015-03-12T10:39:10Z</time>
      </trkpt>
      <trkpt lat="45.84503" lon="6.44493">
        <ele>2438.04</ele>
        <time>2015-03-12T10:39:19Z</time>
      </trkpt>
      <trkpt lat="45.84503" lon="6.44494">
        <ele>2439.96</ele>
        <time>2015-03-12T10:39:26Z</time>
      </trkpt>
      <trkpt lat="45.84505" lon="6.44491">
        <ele>2439.48</ele>
        <time>2015-03-12T10:39:39Z</time>
      </trkpt>
      <trkpt lat="45.84506" lon="6.4449">
        <ele>2438.04</ele>
        <time>2015-03-12T10:39:42Z</time>
      </trkpt>
      <trkpt lat="45.84506" lon="6.4449">
        <ele>2436.12</ele>
        <time>2015-03-12T10:40:01Z</time>
      </trkpt>
      <trkpt lat="45.84507" lon="6.44491">
        <ele>2435.64</ele>
        <time>2015-03-12T10:40:19Z</time>
      </trkpt>
      <trkpt lat="45.84506" lon="6.4449">
        <ele>2435.64</ele>
        <time>2015-03-12T10:40:27Z</time>
      </trkpt>
      <trkpt lat="45.84506" lon="6.4449">
        <ele>2438.52</ele>
        <time>2015-03-12T10:40:31Z</time>
      </trkpt>
      <trkpt lat="45.84506" lon="6.44489">
        <ele>2435.16</ele>
        <time>2015-03-12T10:40:37Z</time>
      </trkpt>
      <trkpt lat="45.84509" lon="6.44491">
        <ele>2434.68</ele>
        <time>2015-03-12T10:41:10Z</time>
      </trkpt>
      <trkpt lat="45.84508" lon="6.44491">
        <ele>2436.6</ele>
        <time>2015-03-12T10:41:16Z</time>
      </trkpt>
      <trkpt lat="45.84506" lon="6.4449">
        <ele>2434.68</ele>
        <time>2015-03-12T10:41:30Z</time>
      </trkpt>
      <trkpt lat="45.84506" lon="6.4449">
        <ele>2436.12</ele>
        <time>2015-03-12T10:41:32Z</time>
      </trkpt>
      <trkpt lat="45.84506" lon="6.4449">
        <ele>2435.16</ele>
        <time>2015-03-12T10:41:34Z</time>
      </trkpt>
      <trkpt lat="45.84507" lon="6.44491">
        <ele>2435.16</ele>
        <time>2015-03-12T10:41:54Z</time>
      </trkpt>
      <trkpt lat="45.84507" lon="6.44491">
        <ele>2436.6</ele>
        <time>2015-03-12T10:41:59Z</time>
      </trkpt>
      <trkpt lat="45.84506" lon="6.44493">
        <ele>2435.64</ele>
        <time>2015-03-12T10:42:22Z</time>
      </trkpt>
      <trkpt lat="45.84507" lon="6.4449">
        <ele>2435.16</ele>
        <time>2015-03-12T10:42:46Z</time>
      </trkpt>
      <trkpt lat="45.84507" lon="6.44491">
        <ele>2434.68</ele>
        <time>2015-03-12T10:43:13Z</time>
      </trkpt>
      <trkpt lat="45.84506" lon="6.4449">
        <ele>2436.6</ele>
        <time>2015-03-12T10:43:22Z</time>
      </trkpt>
      <trkpt lat="45.84506" lon="6.4449">
        <ele>2435.16</ele>
        <time>2015-03-12T10:43:25Z</time>
      </trkpt>
      <trkpt lat="45.84506" lon="6.4449">
        <ele>2436.6</ele>
        <time>2015-03-12T10:43:35Z</time>
      </trkpt>
      <trkpt lat="45.84506" lon="6.4449">
        <ele>2435.16</ele>
        <time>2015-03-12T10:44:03Z</time>
      </trkpt>
      <trkpt lat="45.84506" lon="6.4449">
        <ele>2434.68</ele>
        <time>2015-03-12T10:44:25Z</time>
      </trkpt>
      <trkpt lat="45.84506" lon="6.4449">
        <ele>2435.16</ele>
        <time>2015-03-12T10:44:55Z</time>
      </trkpt>
      <trkpt lat="45.84506" lon="6.4449">
        <ele>2436.6</ele>
        <time>2015-03-12T10:45:25Z</time>
      </trkpt>
      <trkpt lat="45.84513" lon="6.44488">
        <ele>2439.48</ele>
        <time>2015-03-12T10:45:41Z</time>
      </trkpt>
      <trkpt lat="45.84515" lon="6.44486">
        <ele>2439.48</ele>
        <time>2015-03-12T10:45:54Z</time>
      </trkpt>
      <trkpt lat="45.84524" lon="6.44481">
        <ele>2438.52</ele>
        <time>2015-03-12T10:46:13Z</time>
      </trkpt>
      <trkpt lat="45.84528" lon="6.4448">
        <ele>2441.41</ele>
        <time>2015-03-12T10:46:26Z</time>
      </trkpt>
      <trkpt lat="45.84533" lon="6.44483">
        <ele>2444.29</ele>
        <time>2015-03-12T10:46:46Z</time>
      </trkpt>
      <trkpt lat="45.84539" lon="6.44486">
        <ele>2446.21</ele>
        <time>2015-03-12T10:47:08Z</time>
      </trkpt>
      <trkpt lat="45.84542" lon="6.44488">
        <ele>2449.1</ele>
        <time>2015-03-12T10:47:22Z</time>
      </trkpt>
      <trkpt lat="45.84546" lon="6.44487">
        <ele>2451.5</ele>
        <time>2015-03-12T10:47:41Z</time>
      </trkpt>
      <trkpt lat="45.84546" lon="6.44487">
        <ele>2450.06</ele>
        <time>2015-03-12T10:47:43Z</time>
      </trkpt>
      <trkpt lat="45.84549" lon="6.44487">
        <ele>2450.06</ele>
        <time>2015-03-12T10:47:58Z</time>
      </trkpt>
      <trkpt lat="45.84549" lon="6.44487">
        <ele>2451.5</ele>
        <time>2015-03-12T10:48:00Z</time>
      </trkpt>
      <trkpt lat="45.84552" lon="6.44488">
        <ele>2454.86</ele>
        <time>2015-03-12T10:48:15Z</time>
      </trkpt>
      <trkpt lat="45.84552" lon="6.44488">
        <ele>2455.82</ele>
        <time>2015-03-12T10:48:19Z</time>
      </trkpt>
      <trkpt lat="45.84553" lon="6.44491">
        <ele>2455.34</ele>
        <time>2015-03-12T10:48:38Z</time>
      </trkpt>
      <trkpt lat="45.84553" lon="6.44493">
        <ele>2457.75</ele>
        <time>2015-03-12T10:48:59Z</time>
      </trkpt>
      <trkpt lat="45.84553" lon="6.44493">
        <ele>2457.75</ele>
        <time>2015-03-12T10:49:00Z</time>
      </trkpt>
      <trkpt lat="45.84554" lon="6.44494">
        <ele>2460.15</ele>
        <time>2015-03-12T10:49:14Z</time>
      </trkpt>
      <trkpt lat="45.84554" lon="6.44494">
        <ele>2454.86</ele>
        <time>2015-03-12T10:49:15Z</time>
      </trkpt>
      <trkpt lat="45.84554" lon="6.44494">
        <ele>2464.48</ele>
        <time>2015-03-12T10:49:16Z</time>
      </trkpt>
      <trkpt lat="45.84554" lon="6.44494">
        <ele>2461.11</ele>
        <time>2015-03-12T10:49:17Z</time>
      </trkpt>
      <trkpt lat="45.84554" lon="6.44495">
        <ele>2460.15</ele>
        <time>2015-03-12T10:49:19Z</time>
      </trkpt>
      <trkpt lat="45.84554" lon="6.44495">
        <ele>2461.59</ele>
        <time>2015-03-12T10:49:22Z</time>
      </trkpt>
      <trkpt lat="45.84553" lon="6.44496">
        <ele>2458.71</ele>
        <time>2015-03-12T10:49:26Z</time>
      </trkpt>
      <trkpt lat="45.84552" lon="6.44498">
        <ele>2462.07</ele>
        <time>2015-03-12T10:49:43Z</time>
      </trkpt>
      <trkpt lat="45.84553" lon="6.44501">
        <ele>2463.52</ele>
        <time>2015-03-12T10:49:55Z</time>
      </trkpt>
      <trkpt lat="45.84556" lon="6.44506">
        <ele>2462.07</ele>
        <time>2015-03-12T10:50:13Z</time>
      </trkpt>
      <trkpt lat="45.84556" lon="6.44506">
        <ele>2462.07</ele>
        <time>2015-03-12T10:50:14Z</time>
      </trkpt>
      <trkpt lat="45.84557" lon="6.44511">
        <ele>2461.59</ele>
        <time>2015-03-12T10:50:40Z</time>
      </trkpt>
      <trkpt lat="45.8456" lon="6.44514">
        <ele>2461.11</ele>
        <time>2015-03-12T10:50:57Z</time>
      </trkpt>
      <trkpt lat="45.84566" lon="6.4452">
        <ele>2458.71</ele>
        <time>2015-03-12T10:51:17Z</time>
      </trkpt>
      <trkpt lat="45.84568" lon="6.44523">
        <ele>2458.23</ele>
        <time>2015-03-12T10:51:35Z</time>
      </trkpt>
      <trkpt lat="45.8457" lon="6.44525">
        <ele>2457.75</ele>
        <time>2015-03-12T10:51:57Z</time>
      </trkpt>
      <trkpt lat="45.84571" lon="6.44526">
        <ele>2461.59</ele>
        <time>2015-03-12T10:51:58Z</time>
      </trkpt>
      <trkpt lat="45.84571" lon="6.44525">
        <ele>2460.63</ele>
        <time>2015-03-12T10:51:59Z</time>
      </trkpt>
      <trkpt lat="45.84571" lon="6.44525">
        <ele>2458.71</ele>
        <time>2015-03-12T10:52:02Z</time>
      </trkpt>
      <trkpt lat="45.84571" lon="6.44524">
        <ele>2460.63</ele>
        <time>2015-03-12T10:52:06Z</time>
      </trkpt>
      <trkpt lat="45.84571" lon="6.44525">
        <ele>2459.19</ele>
        <time>2015-03-12T10:52:13Z</time>
      </trkpt>
      <trkpt lat="45.84572" lon="6.44527">
        <ele>2457.27</ele>
        <time>2015-03-12T10:52:36Z</time>
      </trkpt>
      <trkpt lat="45.84575" lon="6.44529">
        <ele>2458.23</ele>
        <time>2015-03-12T10:53:01Z</time>
      </trkpt>
      <trkpt lat="45.84575" lon="6.44529">
        <ele>2458.23</ele>
        <time>2015-03-12T10:53:02Z</time>
      </trkpt>
      <trkpt lat="45.84576" lon="6.44529">
        <ele>2457.75</ele>
        <time>2015-03-12T10:53:18Z</time>
      </trkpt>
      <trkpt lat="45.84577" lon="6.44528">
        <ele>2457.75</ele>
        <time>2015-03-12T10:53:37Z</time>
      </trkpt>
      <trkpt lat="45.84577" lon="6.44528">
        <ele>2455.34</ele>
        <time>2015-03-12T10:53:45Z</time>
      </trkpt>
      <trkpt lat="45.84579" lon="6.44529">
        <ele>2457.27</ele>
        <time>2015-03-12T10:54:08Z</time>
      </trkpt>
      <trkpt lat="45.8458" lon="6.4453">
        <ele>2455.82</ele>
        <time>2015-03-12T10:54:17Z</time>
      </trkpt>
      <trkpt lat="45.84581" lon="6.4453">
        <ele>2454.86</ele>
        <time>2015-03-12T10:54:41Z</time>
      </trkpt>
      <trkpt lat="45.84581" lon="6.44532">
        <ele>2454.38</ele>
        <time>2015-03-12T10:55:01Z</time>
      </trkpt>
      <trkpt lat="45.84582" lon="6.44535">
        <ele>2456.31</ele>
        <time>2015-03-12T10:55:18Z</time>
      </trkpt>
      <trkpt lat="45.84583" lon="6.44534">
        <ele>2454.86</ele>
        <time>2015-03-12T10:55:44Z</time>
      </trkpt>
      <trkpt lat="45.84583" lon="6.44535">
        <ele>2455.34</ele>
        <time>2015-03-12T10:55:46Z</time>
      </trkpt>
      <trkpt lat="45.84583" lon="6.44535">
        <ele>2453.9</ele>
        <time>2015-03-12T10:56:11Z</time>
      </trkpt>
      <trkpt lat="45.84582" lon="6.44535">
        <ele>2453.9</ele>
        <time>2015-03-12T10:56:33Z</time>
      </trkpt>
      <trkpt lat="45.84583" lon="6.44534">
        <ele>2454.86</ele>
        <time>2015-03-12T10:56:48Z</time>
      </trkpt>
      <trkpt lat="45.84585" lon="6.44536">
        <ele>2454.38</ele>
        <time>2015-03-12T10:57:11Z</time>
      </trkpt>
      <trkpt lat="45.84585" lon="6.44535">
        <ele>2449.1</ele>
        <time>2015-03-12T10:57:15Z</time>
      </trkpt>
      <trkpt lat="45.84585" lon="6.44535">
        <ele>2458.23</ele>
        <time>2015-03-12T10:57:16Z</time>
      </trkpt>
      <trkpt lat="45.84585" lon="6.44535">
        <ele>2453.42</ele>
        <time>2015-03-12T10:57:17Z</time>
      </trkpt>
      <trkpt lat="45.84585" lon="6.44535">
        <ele>2452.46</ele>
        <time>2015-03-12T10:57:19Z</time>
      </trkpt>
      <trkpt lat="45.84585" lon="6.44535">
        <ele>2454.86</ele>
        <time>2015-03-12T10:57:26Z</time>
      </trkpt>
      <trkpt lat="45.84585" lon="6.44536">
        <ele>2451.5</ele>
        <time>2015-03-12T10:57:34Z</time>
      </trkpt>
      <trkpt lat="45.84587" lon="6.44539">
        <ele>2452.46</ele>
        <time>2015-03-12T10:57:54Z</time>
      </trkpt>
      <trkpt lat="45.84588" lon="6.44543">
        <ele>2457.27</ele>
        <time>2015-03-12T10:58:04Z</time>
      </trkpt>
      <trkpt lat="45.84593" lon="6.44546">
        <ele>2455.34</ele>
        <time>2015-03-12T10:58:19Z</time>
      </trkpt>
      <trkpt lat="45.84598" lon="6.44554">
        <ele>2459.19</ele>
        <time>2015-03-12T10:58:39Z</time>
      </trkpt>
      <trkpt lat="45.846" lon="6.44557">
        <ele>2457.27</ele>
        <time>2015-03-12T10:58:53Z</time>
      </trkpt>
      <trkpt lat="45.84602" lon="6.44562">
        <ele>2459.19</ele>
        <time>2015-03-12T10:59:14Z</time>
      </trkpt>
      <trkpt lat="45.84602" lon="6.44565">
        <ele>2458.23</ele>
        <time>2015-03-12T10:59:28Z</time>
      </trkpt>
      <trkpt lat="45.84605" lon="6.44566">
        <ele>2458.23</ele>
        <time>2015-03-12T10:59:45Z</time>
      </trkpt>
      <trkpt lat="45.84608" lon="6.44569">
        <ele>2461.11</ele>
        <time>2015-03-12T11:00:00Z</time>
      </trkpt>
      <trkpt lat="45.84609" lon="6.44567">
        <ele>2458.23</ele>
        <time>2015-03-12T11:00:06Z</time>
      </trkpt>
      <trkpt lat="45.84614" lon="6.44571">
        <ele>2458.71</ele>
        <time>2015-03-12T11:00:23Z</time>
      </trkpt>
      <trkpt lat="45.84622" lon="6.44581">
        <ele>2459.19</ele>
        <time>2015-03-12T11:00:41Z</time>
      </trkpt>
      <trkpt lat="45.84626" lon="6.44579">
        <ele>2457.75</ele>
        <time>2015-03-12T11:00:56Z</time>
      </trkpt>
      <trkpt lat="45.84634" lon="6.44583">
        <ele>2457.27</ele>
        <time>2015-03-12T11:01:15Z</time>
      </trkpt>
      <trkpt lat="45.84643" lon="6.44584">
        <ele>2457.27</ele>
        <time>2015-03-12T11:01:36Z</time>
      </trkpt>
      <trkpt lat="45.84653" lon="6.44588">
        <ele>2458.71</ele>
        <time>2015-03-12T11:01:55Z</time>
      </trkpt>
      <trkpt lat="45.84658" lon="6.44591">
        <ele>2461.11</ele>
        <time>2015-03-12T11:02:05Z</time>
      </trkpt>
      <trkpt lat="45.84667" lon="6.44593">
        <ele>2462.55</ele>
        <time>2015-03-12T11:02:21Z</time>
      </trkpt>
      <trkpt lat="45.84672" lon="6.44592">
        <ele>2464</ele>
        <time>2015-03-12T11:02:41Z</time>
      </trkpt>
      <trkpt lat="45.84679" lon="6.44594">
        <ele>2466.88</ele>
        <time>2015-03-12T11:02:57Z</time>
      </trkpt>
      <trkpt lat="45.84682" lon="6.446">
        <ele>2470.24</ele>
        <time>2015-03-12T11:03:15Z</time>
      </trkpt>
      <trkpt lat="45.84687" lon="6.44601">
        <ele>2474.09</ele>
        <time>2015-03-12T11:03:33Z</time>
      </trkpt>
      <trkpt lat="45.8469" lon="6.446">
        <ele>2474.09</ele>
        <time>2015-03-12T11:03:47Z</time>
      </trkpt>
      <trkpt lat="45.84691" lon="6.446">
        <ele>2475.53</ele>
        <time>2015-03-12T11:03:50Z</time>
      </trkpt>
      <trkpt lat="45.84701" lon="6.44595">
        <ele>2476.97</ele>
        <time>2015-03-12T11:04:11Z</time>
      </trkpt>
      <trkpt lat="45.84701" lon="6.44596">
        <ele>2475.53</ele>
        <time>2015-03-12T11:04:32Z</time>
      </trkpt>
      <trkpt lat="45.84701" lon="6.44598">
        <ele>2476.01</ele>
        <time>2015-03-12T11:05:00Z</time>
      </trkpt>
      <trkpt lat="45.84701" lon="6.44599">
        <ele>2477.45</ele>
        <time>2015-03-12T11:05:07Z</time>
      </trkpt>
      <trkpt lat="45.84701" lon="6.44599">
        <ele>2476.97</ele>
        <time>2015-03-12T11:05:17Z</time>
      </trkpt>
      <trkpt lat="45.84701" lon="6.44598">
        <ele>2479.86</ele>
        <time>2015-03-12T11:05:31Z</time>
      </trkpt>
      <trkpt lat="45.84701" lon="6.44598">
        <ele>2479.86</ele>
        <time>2015-03-12T11:05:32Z</time>
      </trkpt>
      <trkpt lat="45.84701" lon="6.44599">
        <ele>2479.38</ele>
        <time>2015-03-12T11:05:37Z</time>
      </trkpt>
      <trkpt lat="45.84702" lon="6.44599">
        <ele>2477.94</ele>
        <time>2015-03-12T11:05:42Z</time>
      </trkpt>
      <trkpt lat="45.84701" lon="6.44597">
        <ele>2477.94</ele>
        <time>2015-03-12T11:06:01Z</time>
      </trkpt>
      <trkpt lat="45.84701" lon="6.44597">
        <ele>2475.53</ele>
        <time>2015-03-12T11:06:03Z</time>
      </trkpt>
      <trkpt lat="45.84702" lon="6.44596">
        <ele>2475.53</ele>
        <time>2015-03-12T11:06:18Z</time>
      </trkpt>
      <trkpt lat="45.84701" lon="6.44598">
        <ele>2476.49</ele>
        <time>2015-03-12T11:06:36Z</time>
      </trkpt>
      <trkpt lat="45.84701" lon="6.44598">
        <ele>2479.38</ele>
        <time>2015-03-12T11:06:37Z</time>
      </trkpt>
      <trkpt lat="45.84701" lon="6.44599">
        <ele>2479.38</ele>
        <time>2015-03-12T11:06:38Z</time>
      </trkpt>
      <trkpt lat="45.84702" lon="6.44599">
        <ele>2476.97</ele>
        <time>2015-03-12T11:06:41Z</time>
      </trkpt>
      <trkpt lat="45.84702" lon="6.44599">
        <ele>2478.42</ele>
        <time>2015-03-12T11:06:45Z</time>
      </trkpt>
      <trkpt lat="45.84701" lon="6.44598">
        <ele>2478.42</ele>
        <time>2015-03-12T11:06:56Z</time>
      </trkpt>
      <trkpt lat="45.84701" lon="6.44597">
        <ele>2477.45</ele>
        <time>2015-03-12T11:07:00Z</time>
      </trkpt>
      <trkpt lat="45.84704" lon="6.44599">
        <ele>2475.05</ele>
        <time>2015-03-12T11:07:24Z</time>
      </trkpt>
      <trkpt lat="45.84704" lon="6.44599">
        <ele>2475.05</ele>
        <time>2015-03-12T11:07:25Z</time>
      </trkpt>
      <trkpt lat="45.84706" lon="6.44601">
        <ele>2476.97</ele>
        <time>2015-03-12T11:07:45Z</time>
      </trkpt>
      <trkpt lat="45.84708" lon="6.44605">
        <ele>2473.61</ele>
        <time>2015-03-12T11:07:59Z</time>
      </trkpt>
      <trkpt lat="45.84711" lon="6.44608">
        <ele>2471.21</ele>
        <time>2015-03-12T11:08:18Z</time>
      </trkpt>
      <trkpt lat="45.84714" lon="6.44613">
        <ele>2470.24</ele>
        <time>2015-03-12T11:08:34Z</time>
      </trkpt>
      <trkpt lat="45.84715" lon="6.44613">
        <ele>2467.36</ele>
        <time>2015-03-12T11:08:46Z</time>
      </trkpt>
      <trkpt lat="45.84715" lon="6.44614">
        <ele>2468.8</ele>
        <time>2015-03-12T11:08:53Z</time>
      </trkpt>
      <trkpt lat="45.84715" lon="6.44614">
        <ele>2471.21</ele>
        <time>2015-03-12T11:09:03Z</time>
      </trkpt>
      <trkpt lat="45.84716" lon="6.44614">
        <ele>2469.28</ele>
        <time>2015-03-12T11:09:07Z</time>
      </trkpt>
      <trkpt lat="45.84716" lon="6.44616">
        <ele>2470.24</ele>
        <time>2015-03-12T11:09:18Z</time>
      </trkpt>
      <trkpt lat="45.84716" lon="6.44617">
        <ele>2472.17</ele>
        <time>2015-03-12T11:09:23Z</time>
      </trkpt>
      <trkpt lat="45.84716" lon="6.44617">
        <ele>2472.65</ele>
        <time>2015-03-12T11:09:30Z</time>
      </trkpt>
      <trkpt lat="45.84716" lon="6.44617">
        <ele>2470.24</ele>
        <time>2015-03-12T11:09:33Z</time>
      </trkpt>
      <trkpt lat="45.84716" lon="6.44615">
        <ele>2470.73</ele>
        <time>2015-03-12T11:09:53Z</time>
      </trkpt>
      <trkpt lat="45.84718" lon="6.44616">
        <ele>2469.28</ele>
        <time>2015-03-12T11:09:59Z</time>
      </trkpt>
      <trkpt lat="45.84722" lon="6.44622">
        <ele>2468.32</ele>
        <time>2015-03-12T11:10:20Z</time>
      </trkpt>
      <trkpt lat="45.84724" lon="6.44622">
        <ele>2464.48</ele>
        <time>2015-03-12T11:10:28Z</time>
      </trkpt>
      <trkpt lat="45.84725" lon="6.44625">
        <ele>2465.92</ele>
        <time>2015-03-12T11:10:39Z</time>
      </trkpt>
      <trkpt lat="45.84727" lon="6.44626">
        <ele>2467.36</ele>
        <time>2015-03-12T11:10:44Z</time>
      </trkpt>
      <trkpt lat="45.84732" lon="6.44628">
        <ele>2470.24</ele>
        <time>2015-03-12T11:11:01Z</time>
      </trkpt>
      <trkpt lat="45.84732" lon="6.44628">
        <ele>2466.4</ele>
        <time>2015-03-12T11:11:05Z</time>
      </trkpt>
      <trkpt lat="45.84734" lon="6.44629">
        <ele>2463.04</ele>
        <time>2015-03-12T11:11:18Z</time>
      </trkpt>
      <trkpt lat="45.84734" lon="6.44629">
        <ele>2466.4</ele>
        <time>2015-03-12T11:11:22Z</time>
      </trkpt>
      <trkpt lat="45.84734" lon="6.44629">
        <ele>2466.4</ele>
        <time>2015-03-12T11:11:23Z</time>
      </trkpt>
      <trkpt lat="45.84734" lon="6.4463">
        <ele>2468.32</ele>
        <time>2015-03-12T11:11:26Z</time>
      </trkpt>
      <trkpt lat="45.84734" lon="6.44631">
        <ele>2463.52</ele>
        <time>2015-03-12T11:11:30Z</time>
      </trkpt>
      <trkpt lat="45.84735" lon="6.44631">
        <ele>2463.52</ele>
        <time>2015-03-12T11:11:31Z</time>
      </trkpt>
      <trkpt lat="45.84735" lon="6.44632">
        <ele>2460.15</ele>
        <time>2015-03-12T11:11:38Z</time>
      </trkpt>
      <trkpt lat="45.84738" lon="6.44635">
        <ele>2460.63</ele>
        <time>2015-03-12T11:11:55Z</time>
      </trkpt>
      <trkpt lat="45.84738" lon="6.44636">
        <ele>2459.67</ele>
        <time>2015-03-12T11:11:58Z</time>
      </trkpt>
      <trkpt lat="45.84739" lon="6.44636">
        <ele>2463.04</ele>
        <time>2015-03-12T11:12:04Z</time>
      </trkpt>
      <trkpt lat="45.84738" lon="6.44636">
        <ele>2463.52</ele>
        <time>2015-03-12T11:12:06Z</time>
      </trkpt>
      <trkpt lat="45.84739" lon="6.44637">
        <ele>2461.59</ele>
        <time>2015-03-12T11:12:10Z</time>
      </trkpt>
      <trkpt lat="45.8474" lon="6.44639">
        <ele>2458.23</ele>
        <time>2015-03-12T11:12:27Z</time>
      </trkpt>
      <trkpt lat="45.84743" lon="6.44639">
        <ele>2459.19</ele>
        <time>2015-03-12T11:12:49Z</time>
      </trkpt>
      <trkpt lat="45.84742" lon="6.44638">
        <ele>2456.31</ele>
        <time>2015-03-12T11:13:11Z</time>
      </trkpt>
      <trkpt lat="45.84742" lon="6.44639">
        <ele>2457.75</ele>
        <time>2015-03-12T11:13:13Z</time>
      </trkpt>
      <trkpt lat="45.84745" lon="6.44641">
        <ele>2455.82</ele>
        <time>2015-03-12T11:13:34Z</time>
      </trkpt>
      <trkpt lat="45.84746" lon="6.4464">
        <ele>2455.34</ele>
        <time>2015-03-12T11:13:55Z</time>
      </trkpt>
      <trkpt lat="45.84749" lon="6.4464">
        <ele>2455.34</ele>
        <time>2015-03-12T11:14:15Z</time>
      </trkpt>
      <trkpt lat="45.84757" lon="6.4464">
        <ele>2453.9</ele>
        <time>2015-03-12T11:14:33Z</time>
      </trkpt>
      <trkpt lat="45.84764" lon="6.44645">
        <ele>2453.42</ele>
        <time>2015-03-12T11:14:50Z</time>
      </trkpt>
      <trkpt lat="45.84767" lon="6.44642">
        <ele>2450.06</ele>
        <time>2015-03-12T11:15:07Z</time>
      </trkpt>
      <trkpt lat="45.84772" lon="6.44646">
        <ele>2450.06</ele>
        <time>2015-03-12T11:15:21Z</time>
      </trkpt>
      <trkpt lat="45.84776" lon="6.44647">
        <ele>2448.62</ele>
        <time>2015-03-12T11:15:36Z</time>
      </trkpt>
      <trkpt lat="45.84778" lon="6.44649">
        <ele>2446.21</ele>
        <time>2015-03-12T11:15:54Z</time>
      </trkpt>
      <trkpt lat="45.84779" lon="6.44648">
        <ele>2444.29</ele>
        <time>2015-03-12T11:16:15Z</time>
      </trkpt>
      <trkpt lat="45.84784" lon="6.4465">
        <ele>2444.29</ele>
        <time>2015-03-12T11:16:34Z</time>
      </trkpt>
      <trkpt lat="45.84792" lon="6.44652">
        <ele>2447.17</ele>
        <time>2015-03-12T11:16:54Z</time>
      </trkpt>
      <trkpt lat="45.84796" lon="6.44652">
        <ele>2447.17</ele>
        <time>2015-03-12T11:17:12Z</time>
      </trkpt>
      <trkpt lat="45.84798" lon="6.44651">
        <ele>2447.17</ele>
        <time>2015-03-12T11:17:32Z</time>
      </trkpt>
      <trkpt lat="45.848" lon="6.44651">
        <ele>2446.69</ele>
        <time>2015-03-12T11:17:55Z</time>
      </trkpt>
      <trkpt lat="45.84802" lon="6.44651">
        <ele>2448.13</ele>
        <time>2015-03-12T11:18:16Z</time>
      </trkpt>
      <trkpt lat="45.84803" lon="6.44651">
        <ele>2449.1</ele>
        <time>2015-03-12T11:18:32Z</time>
      </trkpt>
      <trkpt lat="45.84805" lon="6.44651">
        <ele>2451.02</ele>
        <time>2015-03-12T11:18:44Z</time>
      </trkpt>
      <trkpt lat="45.84806" lon="6.44652">
        <ele>2449.1</ele>
        <time>2015-03-12T11:18:46Z</time>
      </trkpt>
      <trkpt lat="45.84806" lon="6.44651">
        <ele>2452.94</ele>
        <time>2015-03-12T11:18:48Z</time>
      </trkpt>
      <trkpt lat="45.84806" lon="6.44651">
        <ele>2450.54</ele>
        <time>2015-03-12T11:18:49Z</time>
      </trkpt>
      <trkpt lat="45.84807" lon="6.44649">
        <ele>2452.46</ele>
        <time>2015-03-12T11:19:05Z</time>
      </trkpt>
      <trkpt lat="45.84808" lon="6.44652">
        <ele>2453.42</ele>
        <time>2015-03-12T11:19:22Z</time>
      </trkpt>
      <trkpt lat="45.84808" lon="6.44653">
        <ele>2453.42</ele>
        <time>2015-03-12T11:19:32Z</time>
      </trkpt>
      <trkpt lat="45.84809" lon="6.44654">
        <ele>2453.9</ele>
        <time>2015-03-12T11:19:51Z</time>
      </trkpt>
      <trkpt lat="45.84811" lon="6.44659">
        <ele>2454.86</ele>
        <time>2015-03-12T11:20:09Z</time>
      </trkpt>
      <trkpt lat="45.84814" lon="6.44661">
        <ele>2458.23</ele>
        <time>2015-03-12T11:20:22Z</time>
      </trkpt>
      <trkpt lat="45.84817" lon="6.44662">
        <ele>2458.71</ele>
        <time>2015-03-12T11:20:39Z</time>
      </trkpt>
      <trkpt lat="45.84817" lon="6.44665">
        <ele>2457.75</ele>
        <time>2015-03-12T11:20:54Z</time>
      </trkpt>
      <trkpt lat="45.8482" lon="6.44665">
        <ele>2456.31</ele>
        <time>2015-03-12T11:21:09Z</time>
      </trkpt>
      <trkpt lat="45.84826" lon="6.44668">
        <ele>2458.23</ele>
        <time>2015-03-12T11:21:24Z</time>
      </trkpt>
      <trkpt lat="45.84829" lon="6.44669">
        <ele>2456.79</ele>
        <time>2015-03-12T11:21:29Z</time>
      </trkpt>
      <trkpt lat="45.84834" lon="6.4467">
        <ele>2455.34</ele>
        <time>2015-03-12T11:21:39Z</time>
      </trkpt>
      <trkpt lat="45.84836" lon="6.44674">
        <ele>2457.27</ele>
        <time>2015-03-12T11:21:49Z</time>
      </trkpt>
      <trkpt lat="45.84837" lon="6.44676">
        <ele>2456.31</ele>
        <time>2015-03-12T11:22:03Z</time>
      </trkpt>
      <trkpt lat="45.84842" lon="6.44674">
        <ele>2454.38</ele>
        <time>2015-03-12T11:22:20Z</time>
      </trkpt>
      <trkpt lat="45.84846" lon="6.44676">
        <ele>2452.46</ele>
        <time>2015-03-12T11:22:35Z</time>
      </trkpt>
      <trkpt lat="45.84851" lon="6.4468">
        <ele>2451.02</ele>
        <time>2015-03-12T11:22:53Z</time>
      </trkpt>
      <trkpt lat="45.8486" lon="6.44683">
        <ele>2451.02</ele>
        <time>2015-03-12T11:23:09Z</time>
      </trkpt>
      <trkpt lat="45.84864" lon="6.44685">
        <ele>2451.98</ele>
        <time>2015-03-12T11:23:17Z</time>
      </trkpt>
      <trkpt lat="45.84866" lon="6.44686">
        <ele>2454.38</ele>
        <time>2015-03-12T11:23:22Z</time>
      </trkpt>
      <trkpt lat="45.84868" lon="6.44687">
        <ele>2457.75</ele>
        <time>2015-03-12T11:23:27Z</time>
      </trkpt>
      <trkpt lat="45.84874" lon="6.44686">
        <ele>2460.15</ele>
        <time>2015-03-12T11:23:43Z</time>
      </trkpt>
      <trkpt lat="45.84875" lon="6.44686">
        <ele>2458.23</ele>
        <time>2015-03-12T11:23:48Z</time>
      </trkpt>
      <trkpt lat="45.84877" lon="6.44688">
        <ele>2462.07</ele>
        <time>2015-03-12T11:23:53Z</time>
      </trkpt>
      <trkpt lat="45.84877" lon="6.44688">
        <ele>2462.07</ele>
        <time>2015-03-12T11:23:54Z</time>
      </trkpt>
      <trkpt lat="45.8488" lon="6.44688">
        <ele>2465.44</ele>
        <time>2015-03-12T11:24:00Z</time>
      </trkpt>
      <trkpt lat="45.8488" lon="6.44688">
        <ele>2464.96</ele>
        <time>2015-03-12T11:24:01Z</time>
      </trkpt>
      <trkpt lat="45.84882" lon="6.44687">
        <ele>2461.59</ele>
        <time>2015-03-12T11:24:06Z</time>
      </trkpt>
      <trkpt lat="45.84882" lon="6.44688">
        <ele>2461.59</ele>
        <time>2015-03-12T11:24:07Z</time>
      </trkpt>
      <trkpt lat="45.84882" lon="6.4469">
        <ele>2464</ele>
        <time>2015-03-12T11:24:11Z</time>
      </trkpt>
      <trkpt lat="45.84882" lon="6.4469">
        <ele>2467.36</ele>
        <time>2015-03-12T11:24:13Z</time>
      </trkpt>
      <trkpt lat="45.84883" lon="6.4469">
        <ele>2463.04</ele>
        <time>2015-03-12T11:24:15Z</time>
      </trkpt>
      <trkpt lat="45.84885" lon="6.44691">
        <ele>2464</ele>
        <time>2015-03-12T11:24:20Z</time>
      </trkpt>
      <trkpt lat="45.84887" lon="6.44692">
        <ele>2465.92</ele>
        <time>2015-03-12T11:24:25Z</time>
      </trkpt>
      <trkpt lat="45.84888" lon="6.44692">
        <ele>2464.48</ele>
        <time>2015-03-12T11:24:27Z</time>
      </trkpt>
      <trkpt lat="45.84893" lon="6.44693">
        <ele>2465.44</ele>
        <time>2015-03-12T11:24:35Z</time>
      </trkpt>
      <trkpt lat="45.84895" lon="6.44693">
        <ele>2462.07</ele>
        <time>2015-03-12T11:24:44Z</time>
      </trkpt>
      <trkpt lat="45.84895" lon="6.44693">
        <ele>2465.44</ele>
        <time>2015-03-12T11:24:46Z</time>
      </trkpt>
      <trkpt lat="45.84896" lon="6.44694">
        <ele>2462.07</ele>
        <time>2015-03-12T11:24:55Z</time>
      </trkpt>
      <trkpt lat="45.84896" lon="6.44693">
        <ele>2460.15</ele>
        <time>2015-03-12T11:25:12Z</time>
      </trkpt>
      <trkpt lat="45.84896" lon="6.44694">
        <ele>2456.31</ele>
        <time>2015-03-12T11:25:27Z</time>
      </trkpt>
      <trkpt lat="45.84897" lon="6.44694">
        <ele>2452.94</ele>
        <time>2015-03-12T11:25:30Z</time>
      </trkpt>
      <trkpt lat="45.84897" lon="6.44694">
        <ele>2452.94</ele>
        <time>2015-03-12T11:25:31Z</time>
      </trkpt>
      <trkpt lat="45.84897" lon="6.44692">
        <ele>2456.79</ele>
        <time>2015-03-12T11:25:37Z</time>
      </trkpt>
      <trkpt lat="45.84897" lon="6.44692">
        <ele>2457.27</ele>
        <time>2015-03-12T11:25:39Z</time>
      </trkpt>
      <trkpt lat="45.84897" lon="6.44692">
        <ele>2460.63</ele>
        <time>2015-03-12T11:25:41Z</time>
      </trkpt>
      <trkpt lat="45.84897" lon="6.44692">
        <ele>2465.44</ele>
        <time>2015-03-12T11:25:43Z</time>
      </trkpt>
      <trkpt lat="45.84897" lon="6.44692">
        <ele>2462.07</ele>
        <time>2015-03-12T11:25:45Z</time>
      </trkpt>
      <trkpt lat="45.84897" lon="6.44694">
        <ele>2458.71</ele>
        <time>2015-03-12T11:25:51Z</time>
      </trkpt>
      <trkpt lat="45.84897" lon="6.44694">
        <ele>2458.23</ele>
        <time>2015-03-12T11:25:53Z</time>
      </trkpt>
      <trkpt lat="45.84896" lon="6.44697">
        <ele>2457.75</ele>
        <time>2015-03-12T11:26:11Z</time>
      </trkpt>
      <trkpt lat="45.84897" lon="6.44696">
        <ele>2458.71</ele>
        <time>2015-03-12T11:26:27Z</time>
      </trkpt>
      <trkpt lat="45.84898" lon="6.44696">
        <ele>2454.38</ele>
        <time>2015-03-12T11:26:36Z</time>
      </trkpt>
      <trkpt lat="45.84898" lon="6.44696">
        <ele>2461.59</ele>
        <time>2015-03-12T11:26:37Z</time>
      </trkpt>
      <trkpt lat="45.84898" lon="6.44696">
        <ele>2458.23</ele>
        <time>2015-03-12T11:26:38Z</time>
      </trkpt>
      <trkpt lat="45.84898" lon="6.44696">
        <ele>2460.15</ele>
        <time>2015-03-12T11:26:44Z</time>
      </trkpt>
      <trkpt lat="45.84898" lon="6.44695">
        <ele>2461.11</ele>
        <time>2015-03-12T11:26:48Z</time>
      </trkpt>
      <trkpt lat="45.84899" lon="6.44695">
        <ele>2460.15</ele>
        <time>2015-03-12T11:26:51Z</time>
      </trkpt>
      <trkpt lat="45.84899" lon="6.44697">
        <ele>2457.27</ele>
        <time>2015-03-12T11:26:58Z</time>
      </trkpt>
      <trkpt lat="45.84899" lon="6.44697">
        <ele>2460.63</ele>
        <time>2015-03-12T11:27:10Z</time>
      </trkpt>
      <trkpt lat="45.849" lon="6.44697">
        <ele>2459.67</ele>
        <time>2015-03-12T11:27:15Z</time>
      </trkpt>
      <trkpt lat="45.84901" lon="6.44696">
        <ele>2464.96</ele>
        <time>2015-03-12T11:27:31Z</time>
      </trkpt>
      <trkpt lat="45.84901" lon="6.44696">
        <ele>2464.96</ele>
        <time>2015-03-12T11:27:32Z</time>
      </trkpt>
      <trkpt lat="45.84901" lon="6.44696">
        <ele>2460.63</ele>
        <time>2015-03-12T11:27:35Z</time>
      </trkpt>
      <trkpt lat="45.849" lon="6.44696">
        <ele>2460.63</ele>
        <time>2015-03-12T11:27:36Z</time>
      </trkpt>
      <trkpt lat="45.84901" lon="6.44697">
        <ele>2462.07</ele>
        <time>2015-03-12T11:27:43Z</time>
      </trkpt>
      <trkpt lat="45.84903" lon="6.44697">
        <ele>2460.63</ele>
        <time>2015-03-12T11:27:49Z</time>
      </trkpt>
      <trkpt lat="45.84904" lon="6.44696">
        <ele>2464</ele>
        <time>2015-03-12T11:28:03Z</time>
      </trkpt>
      <trkpt lat="45.84904" lon="6.44695">
        <ele>2466.88</ele>
        <time>2015-03-12T11:28:05Z</time>
      </trkpt>
      <trkpt lat="45.84905" lon="6.44695">
        <ele>2462.55</ele>
        <time>2015-03-12T11:28:08Z</time>
      </trkpt>
      <trkpt lat="45.84905" lon="6.44694">
        <ele>2459.19</ele>
        <time>2015-03-12T11:28:11Z</time>
      </trkpt>
      <trkpt lat="45.84906" lon="6.44694">
        <ele>2462.55</ele>
        <time>2015-03-12T11:28:13Z</time>
      </trkpt>
      <trkpt lat="45.84906" lon="6.44694">
        <ele>2462.07</ele>
        <time>2015-03-12T11:28:14Z</time>
      </trkpt>
      <trkpt lat="45.84907" lon="6.44694">
        <ele>2459.19</ele>
        <time>2015-03-12T11:28:19Z</time>
      </trkpt>
      <trkpt lat="45.84907" lon="6.44694">
        <ele>2458.23</ele>
        <time>2015-03-12T11:28:21Z</time>
      </trkpt>
      <trkpt lat="45.84908" lon="6.44693">
        <ele>2458.71</ele>
        <time>2015-03-12T11:28:25Z</time>
      </trkpt>
      <trkpt lat="45.84909" lon="6.44692">
        <ele>2456.31</ele>
        <time>2015-03-12T11:28:27Z</time>
      </trkpt>
      <trkpt lat="45.84909" lon="6.44694">
        <ele>2456.31</ele>
        <time>2015-03-12T11:28:31Z</time>
      </trkpt>
      <trkpt lat="45.84909" lon="6.44696">
        <ele>2456.31</ele>
        <time>2015-03-12T11:28:38Z</time>
      </trkpt>
      <trkpt lat="45.84908" lon="6.44695">
        <ele>2457.75</ele>
        <time>2015-03-12T11:28:44Z</time>
      </trkpt>
      <trkpt lat="45.8491" lon="6.44696">
        <ele>2455.82</ele>
        <time>2015-03-12T11:28:48Z</time>
      </trkpt>
      <trkpt lat="45.8491" lon="6.44696">
        <ele>2451.5</ele>
        <time>2015-03-12T11:28:52Z</time>
      </trkpt>
      <trkpt lat="45.84911" lon="6.44696">
        <ele>2451.5</ele>
        <time>2015-03-12T11:28:53Z</time>
      </trkpt>
      <trkpt lat="45.84911" lon="6.44695">
        <ele>2454.86</ele>
        <time>2015-03-12T11:28:55Z</time>
      </trkpt>
      <trkpt lat="45.84913" lon="6.44695">
        <ele>2456.79</ele>
        <time>2015-03-12T11:29:03Z</time>
      </trkpt>
      <trkpt lat="45.84913" lon="6.44696">
        <ele>2453.42</ele>
        <time>2015-03-12T11:29:04Z</time>
      </trkpt>
      <trkpt lat="45.84913" lon="6.44696">
        <ele>2452.94</ele>
        <time>2015-03-12T11:29:06Z</time>
      </trkpt>
      <trkpt lat="45.84914" lon="6.44695">
        <ele>2450.54</ele>
        <time>2015-03-12T11:29:09Z</time>
      </trkpt>
      <trkpt lat="45.84914" lon="6.44695">
        <ele>2453.9</ele>
        <time>2015-03-12T11:29:13Z</time>
      </trkpt>
      <trkpt lat="45.84915" lon="6.44694">
        <ele>2453.9</ele>
        <time>2015-03-12T11:29:23Z</time>
      </trkpt>
      <trkpt lat="45.84916" lon="6.44694">
        <ele>2451.02</ele>
        <time>2015-03-12T11:29:25Z</time>
      </trkpt>
      <trkpt lat="45.84916" lon="6.44693">
        <ele>2451.02</ele>
        <time>2015-03-12T11:29:26Z</time>
      </trkpt>
      <trkpt lat="45.84922" lon="6.44693">
        <ele>2450.54</ele>
        <time>2015-03-12T11:29:35Z</time>
      </trkpt>
      <trkpt lat="45.84925" lon="6.44693">
        <ele>2448.62</ele>
        <time>2015-03-12T11:29:40Z</time>
      </trkpt>
      <trkpt lat="45.84926" lon="6.44694">
        <ele>2447.17</ele>
        <time>2015-03-12T11:29:44Z</time>
      </trkpt>
      <trkpt lat="45.84927" lon="6.44697">
        <ele>2448.62</ele>
        <time>2015-03-12T11:29:48Z</time>
      </trkpt>
      <trkpt lat="45.84928" lon="6.447">
        <ele>2451.98</ele>
        <time>2015-03-12T11:30:04Z</time>
      </trkpt>
      <trkpt lat="45.8493" lon="6.44701">
        <ele>2451.02</ele>
        <time>2015-03-12T11:30:11Z</time>
      </trkpt>
      <trkpt lat="45.84931" lon="6.44701">
        <ele>2449.58</ele>
        <time>2015-03-12T11:30:13Z</time>
      </trkpt>
      <trkpt lat="45.84932" lon="6.44702">
        <ele>2451.02</ele>
        <time>2015-03-12T11:30:18Z</time>
      </trkpt>
      <trkpt lat="45.84933" lon="6.44703">
        <ele>2454.86</ele>
        <time>2015-03-12T11:30:24Z</time>
      </trkpt>
      <trkpt lat="45.84933" lon="6.44703">
        <ele>2454.86</ele>
        <time>2015-03-12T11:30:25Z</time>
      </trkpt>
      <trkpt lat="45.84934" lon="6.44704">
        <ele>2457.27</ele>
        <time>2015-03-12T11:30:29Z</time>
      </trkpt>
      <trkpt lat="45.84935" lon="6.44704">
        <ele>2453.9</ele>
        <time>2015-03-12T11:30:31Z</time>
      </trkpt>
      <trkpt lat="45.84935" lon="6.44704">
        <ele>2453.9</ele>
        <time>2015-03-12T11:30:32Z</time>
      </trkpt>
      <trkpt lat="45.8494" lon="6.44705">
        <ele>2455.82</ele>
        <time>2015-03-12T11:30:44Z</time>
      </trkpt>
      <trkpt lat="45.84941" lon="6.44705">
        <ele>2454.38</ele>
        <time>2015-03-12T11:30:47Z</time>
      </trkpt>
      <trkpt lat="45.84943" lon="6.44705">
        <ele>2455.82</ele>
        <time>2015-03-12T11:30:50Z</time>
      </trkpt>
      <trkpt lat="45.84942" lon="6.44709">
        <ele>2458.23</ele>
        <time>2015-03-12T11:30:56Z</time>
      </trkpt>
      <trkpt lat="45.84941" lon="6.44712">
        <ele>2461.59</ele>
        <time>2015-03-12T11:31:11Z</time>
      </trkpt>
      <trkpt lat="45.84947" lon="6.4471">
        <ele>2463.04</ele>
        <time>2015-03-12T11:31:25Z</time>
      </trkpt>
      <trkpt lat="45.84948" lon="6.44711">
        <ele>2464.48</ele>
        <time>2015-03-12T11:31:28Z</time>
      </trkpt>
      <trkpt lat="45.84953" lon="6.44713">
        <ele>2467.84</ele>
        <time>2015-03-12T11:31:41Z</time>
      </trkpt>
      <trkpt lat="45.84954" lon="6.44713">
        <ele>2466.88</ele>
        <time>2015-03-12T11:31:45Z</time>
      </trkpt>
      <trkpt lat="45.84954" lon="6.44715">
        <ele>2467.36</ele>
        <time>2015-03-12T11:31:49Z</time>
      </trkpt>
      <trkpt lat="45.84951" lon="6.44718">
        <ele>2470.73</ele>
        <time>2015-03-12T11:31:55Z</time>
      </trkpt>
      <trkpt lat="45.84951" lon="6.44718">
        <ele>2470.24</ele>
        <time>2015-03-12T11:31:56Z</time>
      </trkpt>
      <trkpt lat="45.84954" lon="6.44718">
        <ele>2470.73</ele>
        <time>2015-03-12T11:32:07Z</time>
      </trkpt>
      <trkpt lat="45.84956" lon="6.44717">
        <ele>2472.65</ele>
        <time>2015-03-12T11:32:11Z</time>
      </trkpt>
      <trkpt lat="45.84959" lon="6.44717">
        <ele>2471.69</ele>
        <time>2015-03-12T11:32:19Z</time>
      </trkpt>
      <trkpt lat="45.8496" lon="6.44717">
        <ele>2470.24</ele>
        <time>2015-03-12T11:32:23Z</time>
      </trkpt>
      <trkpt lat="45.84957" lon="6.44725">
        <ele>2472.65</ele>
        <time>2015-03-12T11:32:40Z</time>
      </trkpt>
      <trkpt lat="45.84959" lon="6.44724">
        <ele>2475.05</ele>
        <time>2015-03-12T11:32:44Z</time>
      </trkpt>
      <trkpt lat="45.8496" lon="6.44724">
        <ele>2473.61</ele>
        <time>2015-03-12T11:32:47Z</time>
      </trkpt>
      <trkpt lat="45.84963" lon="6.44722">
        <ele>2474.09</ele>
        <time>2015-03-12T11:32:55Z</time>
      </trkpt>
      <trkpt lat="45.84961" lon="6.44729">
        <ele>2474.57</ele>
        <time>2015-03-12T11:33:11Z</time>
      </trkpt>
      <trkpt lat="45.8496" lon="6.44733">
        <ele>2474.09</ele>
        <time>2015-03-12T11:33:25Z</time>
      </trkpt>
      <trkpt lat="45.84963" lon="6.44734">
        <ele>2478.42</ele>
        <time>2015-03-12T11:33:45Z</time>
      </trkpt>
      <trkpt lat="45.84964" lon="6.44734">
        <ele>2481.78</ele>
        <time>2015-03-12T11:33:47Z</time>
      </trkpt>
      <trkpt lat="45.84965" lon="6.44733">
        <ele>2479.86</ele>
        <time>2015-03-12T11:33:52Z</time>
      </trkpt>
      <trkpt lat="45.84971" lon="6.44734">
        <ele>2481.3</ele>
        <time>2015-03-12T11:34:12Z</time>
      </trkpt>
      <trkpt lat="45.84972" lon="6.44735">
        <ele>2481.3</ele>
        <time>2015-03-12T11:34:16Z</time>
      </trkpt>
      <trkpt lat="45.84973" lon="6.44736">
        <ele>2483.22</ele>
        <time>2015-03-12T11:34:24Z</time>
      </trkpt>
      <trkpt lat="45.84974" lon="6.44735">
        <ele>2481.78</ele>
        <time>2015-03-12T11:34:35Z</time>
      </trkpt>
      <trkpt lat="45.84974" lon="6.44737">
        <ele>2481.3</ele>
        <time>2015-03-12T11:34:52Z</time>
      </trkpt>
      <trkpt lat="45.84974" lon="6.44737">
        <ele>2480.34</ele>
        <time>2015-03-12T11:34:54Z</time>
      </trkpt>
      <trkpt lat="45.84974" lon="6.44736">
        <ele>2480.34</ele>
        <time>2015-03-12T11:35:16Z</time>
      </trkpt>
      <trkpt lat="45.84973" lon="6.44736">
        <ele>2484.18</ele>
        <time>2015-03-12T11:35:18Z</time>
      </trkpt>
      <trkpt lat="45.84973" lon="6.44736">
        <ele>2484.18</ele>
        <time>2015-03-12T11:35:19Z</time>
      </trkpt>
      <trkpt lat="45.84973" lon="6.44736">
        <ele>2481.3</ele>
        <time>2015-03-12T11:35:21Z</time>
      </trkpt>
      <trkpt lat="45.84973" lon="6.44736">
        <ele>2481.3</ele>
        <time>2015-03-12T11:35:22Z</time>
      </trkpt>
      <trkpt lat="45.84973" lon="6.44736">
        <ele>2484.66</ele>
        <time>2015-03-12T11:35:26Z</time>
      </trkpt>
      <trkpt lat="45.84973" lon="6.44736">
        <ele>2484.18</ele>
        <time>2015-03-12T11:35:40Z</time>
      </trkpt>
      <trkpt lat="45.84973" lon="6.44737">
        <ele>2485.63</ele>
        <time>2015-03-12T11:35:48Z</time>
      </trkpt>
      <trkpt lat="45.84974" lon="6.44737">
        <ele>2485.63</ele>
        <time>2015-03-12T11:36:07Z</time>
      </trkpt>
      <trkpt lat="45.84975" lon="6.44737">
        <ele>2482.74</ele>
        <time>2015-03-12T11:36:26Z</time>
      </trkpt>
      <trkpt lat="45.84975" lon="6.44736">
        <ele>2487.55</ele>
        <time>2015-03-12T11:36:28Z</time>
      </trkpt>
      <trkpt lat="45.84975" lon="6.44736">
        <ele>2484.18</ele>
        <time>2015-03-12T11:36:31Z</time>
      </trkpt>
      <trkpt lat="45.84975" lon="6.44736">
        <ele>2484.18</ele>
        <time>2015-03-12T11:36:36Z</time>
      </trkpt>
      <trkpt lat="45.84975" lon="6.44737">
        <ele>2482.74</ele>
        <time>2015-03-12T11:36:45Z</time>
      </trkpt>
      <trkpt lat="45.84974" lon="6.44737">
        <ele>2481.3</ele>
        <time>2015-03-12T11:36:54Z</time>
      </trkpt>
      <trkpt lat="45.84974" lon="6.44737">
        <ele>2482.74</ele>
        <time>2015-03-12T11:36:56Z</time>
      </trkpt>
      <trkpt lat="45.84974" lon="6.44738">
        <ele>2483.22</ele>
        <time>2015-03-12T11:37:08Z</time>
      </trkpt>
      <trkpt lat="45.84973" lon="6.44738">
        <ele>2483.7</ele>
        <time>2015-03-12T11:37:18Z</time>
      </trkpt>
      <trkpt lat="45.84972" lon="6.44739">
        <ele>2482.26</ele>
        <time>2015-03-12T11:37:24Z</time>
      </trkpt>
      <trkpt lat="45.84972" lon="6.44739">
        <ele>2481.78</ele>
        <time>2015-03-12T11:37:50Z</time>
      </trkpt>
      <trkpt lat="45.84972" lon="6.44738">
        <ele>2483.22</ele>
        <time>2015-03-12T11:38:05Z</time>
      </trkpt>
      <trkpt lat="45.84973" lon="6.44737">
        <ele>2481.3</ele>
        <time>2015-03-12T11:38:10Z</time>
      </trkpt>
      <trkpt lat="45.84975" lon="6.44737">
        <ele>2479.86</ele>
        <time>2015-03-12T11:38:44Z</time>
      </trkpt>
      <trkpt lat="45.84973" lon="6.44738">
        <ele>2482.26</ele>
        <time>2015-03-12T11:39:14Z</time>
      </trkpt>
      <trkpt lat="45.84973" lon="6.44738">
        <ele>2484.18</ele>
        <time>2015-03-12T11:39:17Z</time>
      </trkpt>
      <trkpt lat="45.84973" lon="6.44738">
        <ele>2482.74</ele>
        <time>2015-03-12T11:39:29Z</time>
      </trkpt>
      <trkpt lat="45.84973" lon="6.44738">
        <ele>2485.63</ele>
        <time>2015-03-12T11:39:34Z</time>
      </trkpt>
      <trkpt lat="45.84973" lon="6.44738">
        <ele>2483.22</ele>
        <time>2015-03-12T11:39:37Z</time>
      </trkpt>
      <trkpt lat="45.84973" lon="6.44738">
        <ele>2484.66</ele>
        <time>2015-03-12T11:39:47Z</time>
      </trkpt>
      <trkpt lat="45.84973" lon="6.44738">
        <ele>2483.22</ele>
        <time>2015-03-12T11:39:49Z</time>
      </trkpt>
      <trkpt lat="45.84974" lon="6.44737">
        <ele>2481.78</ele>
        <time>2015-03-12T11:40:16Z</time>
      </trkpt>
      <trkpt lat="45.84973" lon="6.44737">
        <ele>2483.7</ele>
        <time>2015-03-12T11:40:22Z</time>
      </trkpt>
      <trkpt lat="45.84972" lon="6.44737">
        <ele>2481.78</ele>
        <time>2015-03-12T11:40:43Z</time>
      </trkpt>
      <trkpt lat="45.84972" lon="6.44738">
        <ele>2481.78</ele>
        <time>2015-03-12T11:40:55Z</time>
      </trkpt>
      <trkpt lat="45.84972" lon="6.44738">
        <ele>2484.66</ele>
        <time>2015-03-12T11:41:01Z</time>
      </trkpt>
      <trkpt lat="45.84972" lon="6.44738">
        <ele>2481.3</ele>
        <time>2015-03-12T11:41:03Z</time>
      </trkpt>
      <trkpt lat="45.84973" lon="6.44739">
        <ele>2484.66</ele>
        <time>2015-03-12T11:41:05Z</time>
      </trkpt>
      <trkpt lat="45.84973" lon="6.44739">
        <ele>2484.66</ele>
        <time>2015-03-12T11:41:06Z</time>
      </trkpt>
      <trkpt lat="45.84972" lon="6.44739">
        <ele>2482.74</ele>
        <time>2015-03-12T11:41:08Z</time>
      </trkpt>
      <trkpt lat="45.84973" lon="6.44738">
        <ele>2486.11</ele>
        <time>2015-03-12T11:41:10Z</time>
      </trkpt>
      <trkpt lat="45.84972" lon="6.44737">
        <ele>2482.74</ele>
        <time>2015-03-12T11:41:14Z</time>
      </trkpt>
      <trkpt lat="45.84972" lon="6.44738">
        <ele>2483.22</ele>
        <time>2015-03-12T11:41:29Z</time>
      </trkpt>
      <trkpt lat="45.84972" lon="6.44738">
        <ele>2483.22</ele>
        <time>2015-03-12T11:41:33Z</time>
      </trkpt>
      <trkpt lat="45.84972" lon="6.44737">
        <ele>2482.74</ele>
        <time>2015-03-12T11:41:40Z</time>
      </trkpt>
      <trkpt lat="45.84972" lon="6.44737">
        <ele>2482.26</ele>
        <time>2015-03-12T11:41:55Z</time>
      </trkpt>
      <trkpt lat="45.84972" lon="6.44737">
        <ele>2482.74</ele>
        <time>2015-03-12T11:42:13Z</time>
      </trkpt>
      <trkpt lat="45.84971" lon="6.44738">
        <ele>2481.78</ele>
        <time>2015-03-12T11:42:30Z</time>
      </trkpt>
      <trkpt lat="45.84972" lon="6.44737">
        <ele>2486.11</ele>
        <time>2015-03-12T11:42:35Z</time>
      </trkpt>
      <trkpt lat="45.84972" lon="6.44737">
        <ele>2483.7</ele>
        <time>2015-03-12T11:42:36Z</time>
      </trkpt>
      <trkpt lat="45.84972" lon="6.44737">
        <ele>2482.26</ele>
        <time>2015-03-12T11:42:39Z</time>
      </trkpt>
      <trkpt lat="45.84973" lon="6.44737">
        <ele>2478.9</ele>
        <time>2015-03-12T11:43:00Z</time>
      </trkpt>
      <trkpt lat="45.84973" lon="6.44737">
        <ele>2484.66</ele>
        <time>2015-03-12T11:43:02Z</time>
      </trkpt>
      <trkpt lat="45.84973" lon="6.44738">
        <ele>2484.66</ele>
        <time>2015-03-12T11:43:03Z</time>
      </trkpt>
      <trkpt lat="45.84974" lon="6.44738">
        <ele>2480.82</ele>
        <time>2015-03-12T11:43:11Z</time>
      </trkpt>
      <trkpt lat="45.84974" lon="6.44738">
        <ele>2480.82</ele>
        <time>2015-03-12T11:43:12Z</time>
      </trkpt>
      <trkpt lat="45.84974" lon="6.44738">
        <ele>2483.7</ele>
        <time>2015-03-12T11:43:17Z</time>
      </trkpt>
      <trkpt lat="45.84974" lon="6.44738">
        <ele>2481.78</ele>
        <time>2015-03-12T11:43:21Z</time>
      </trkpt>
      <trkpt lat="45.84974" lon="6.44737">
        <ele>2482.26</ele>
        <time>2015-03-12T11:43:36Z</time>
      </trkpt>
      <trkpt lat="45.84975" lon="6.44737">
        <ele>2480.82</ele>
        <time>2015-03-12T11:43:41Z</time>
      </trkpt>
      <trkpt lat="45.84975" lon="6.44737">
        <ele>2482.26</ele>
        <time>2015-03-12T11:43:48Z</time>
      </trkpt>
      <trkpt lat="45.84975" lon="6.44737">
        <ele>2480.34</ele>
        <time>2015-03-12T11:43:51Z</time>
      </trkpt>
      <trkpt lat="45.84975" lon="6.44737">
        <ele>2481.3</ele>
        <time>2015-03-12T11:44:05Z</time>
      </trkpt>
      <trkpt lat="45.84975" lon="6.44737">
        <ele>2479.86</ele>
        <time>2015-03-12T11:44:15Z</time>
      </trkpt>
      <trkpt lat="45.84975" lon="6.44736">
        <ele>2481.3</ele>
        <time>2015-03-12T11:44:38Z</time>
      </trkpt>
      <trkpt lat="45.84975" lon="6.44737">
        <ele>2484.66</ele>
        <time>2015-03-12T11:44:45Z</time>
      </trkpt>
      <trkpt lat="45.84975" lon="6.44737">
        <ele>2484.66</ele>
        <time>2015-03-12T11:44:46Z</time>
      </trkpt>
      <trkpt lat="45.84975" lon="6.44737">
        <ele>2483.22</ele>
        <time>2015-03-12T11:44:49Z</time>
      </trkpt>
      <trkpt lat="45.84975" lon="6.44737">
        <ele>2484.18</ele>
        <time>2015-03-12T11:44:54Z</time>
      </trkpt>
      <trkpt lat="45.84975" lon="6.44738">
        <ele>2481.78</ele>
        <time>2015-03-12T11:45:20Z</time>
      </trkpt>
      <trkpt lat="45.84975" lon="6.44738">
        <ele>2482.74</ele>
        <time>2015-03-12T11:45:23Z</time>
      </trkpt>
      <trkpt lat="45.84975" lon="6.44738">
        <ele>2484.18</ele>
        <time>2015-03-12T11:45:30Z</time>
      </trkpt>
      <trkpt lat="45.84975" lon="6.44738">
        <ele>2486.11</ele>
        <time>2015-03-12T11:45:37Z</time>
      </trkpt>
      <trkpt lat="45.84975" lon="6.44738">
        <ele>2484.18</ele>
        <time>2015-03-12T11:45:39Z</time>
      </trkpt>
      <trkpt lat="45.84975" lon="6.44737">
        <ele>2482.74</ele>
        <time>2015-03-12T11:45:50Z</time>
      </trkpt>
      <trkpt lat="45.84975" lon="6.44737">
        <ele>2480.82</ele>
        <time>2015-03-12T11:45:55Z</time>
      </trkpt>
      <trkpt lat="45.84975" lon="6.44737">
        <ele>2480.34</ele>
        <time>2015-03-12T11:46:13Z</time>
      </trkpt>
      <trkpt lat="45.84974" lon="6.44737">
        <ele>2481.78</ele>
        <time>2015-03-12T11:46:28Z</time>
      </trkpt>
      <trkpt lat="45.84974" lon="6.44737">
        <ele>2480.34</ele>
        <time>2015-03-12T11:46:30Z</time>
      </trkpt>
      <trkpt lat="45.84974" lon="6.44736">
        <ele>2480.82</ele>
        <time>2015-03-12T11:46:36Z</time>
      </trkpt>
      <trkpt lat="45.84974" lon="6.44735">
        <ele>2481.78</ele>
        <time>2015-03-12T11:47:10Z</time>
      </trkpt>
      <trkpt lat="45.84974" lon="6.44735">
        <ele>2480.82</ele>
        <time>2015-03-12T11:47:29Z</time>
      </trkpt>
      <trkpt lat="45.84974" lon="6.44735">
        <ele>2482.26</ele>
        <time>2015-03-12T11:47:32Z</time>
      </trkpt>
      <trkpt lat="45.84974" lon="6.44735">
        <ele>2480.82</ele>
        <time>2015-03-12T11:47:34Z</time>
      </trkpt>
      <trkpt lat="45.84974" lon="6.44735">
        <ele>2483.22</ele>
        <time>2015-03-12T11:47:38Z</time>
      </trkpt>
      <trkpt lat="45.84973" lon="6.44736">
        <ele>2483.7</ele>
        <time>2015-03-12T11:47:43Z</time>
      </trkpt>
      <trkpt lat="45.84973" lon="6.44736">
        <ele>2482.26</ele>
        <time>2015-03-12T11:47:48Z</time>
      </trkpt>
      <trkpt lat="45.84973" lon="6.44736">
        <ele>2484.66</ele>
        <time>2015-03-12T11:47:51Z</time>
      </trkpt>
      <trkpt lat="45.84973" lon="6.44736">
        <ele>2483.22</ele>
        <time>2015-03-12T11:47:53Z</time>
      </trkpt>
      <trkpt lat="45.84973" lon="6.44737">
        <ele>2484.66</ele>
        <time>2015-03-12T11:48:10Z</time>
      </trkpt>
      <trkpt lat="45.84974" lon="6.44737">
        <ele>2486.59</ele>
        <time>2015-03-12T11:48:12Z</time>
      </trkpt>
      <trkpt lat="45.84974" lon="6.44737">
        <ele>2485.63</ele>
        <time>2015-03-12T11:48:14Z</time>
      </trkpt>
      <trkpt lat="45.84974" lon="6.44737">
        <ele>2484.18</ele>
        <time>2015-03-12T11:48:19Z</time>
      </trkpt>
      <trkpt lat="45.84974" lon="6.44737">
        <ele>2482.26</ele>
        <time>2015-03-12T11:48:22Z</time>
      </trkpt>
      <trkpt lat="45.84974" lon="6.44737">
        <ele>2485.15</ele>
        <time>2015-03-12T11:48:24Z</time>
      </trkpt>
      <trkpt lat="45.84974" lon="6.44736">
        <ele>2484.18</ele>
        <time>2015-03-12T11:48:36Z</time>
      </trkpt>
      <trkpt lat="45.84974" lon="6.44736">
        <ele>2485.15</ele>
        <time>2015-03-12T11:48:48Z</time>
      </trkpt>
      <trkpt lat="45.84974" lon="6.44736">
        <ele>2483.22</ele>
        <time>2015-03-12T11:49:00Z</time>
      </trkpt>
      <trkpt lat="45.84974" lon="6.44736">
        <ele>2486.11</ele>
        <time>2015-03-12T11:49:07Z</time>
      </trkpt>
      <trkpt lat="45.84974" lon="6.44736">
        <ele>2482.74</ele>
        <time>2015-03-12T11:49:27Z</time>
      </trkpt>
      <trkpt lat="45.84974" lon="6.44736">
        <ele>2481.3</ele>
        <time>2015-03-12T11:49:49Z</time>
      </trkpt>
      <trkpt lat="45.84973" lon="6.44737">
        <ele>2480.34</ele>
        <time>2015-03-12T11:50:20Z</time>
      </trkpt>
      <trkpt lat="45.84973" lon="6.44738">
        <ele>2477.94</ele>
        <time>2015-03-12T11:50:44Z</time>
      </trkpt>
      <trkpt lat="45.84972" lon="6.44738">
        <ele>2479.38</ele>
        <time>2015-03-12T11:50:49Z</time>
      </trkpt>
      <trkpt lat="45.84972" lon="6.44737">
        <ele>2481.78</ele>
        <time>2015-03-12T11:51:05Z</time>
      </trkpt>
      <trkpt lat="45.84974" lon="6.44736">
        <ele>2482.26</ele>
        <time>2015-03-12T11:51:21Z</time>
      </trkpt>
      <trkpt lat="45.84974" lon="6.44739">
        <ele>2482.26</ele>
        <time>2015-03-12T11:51:49Z</time>
      </trkpt>
      <trkpt lat="45.84974" lon="6.44738">
        <ele>2483.22</ele>
        <time>2015-03-12T11:52:04Z</time>
      </trkpt>
      <trkpt lat="45.84975" lon="6.44738">
        <ele>2482.26</ele>
        <time>2015-03-12T11:52:21Z</time>
      </trkpt>
      <trkpt lat="45.84975" lon="6.44737">
        <ele>2481.78</ele>
        <time>2015-03-12T11:52:52Z</time>
      </trkpt>
      <trkpt lat="45.84974" lon="6.44737">
        <ele>2480.82</ele>
        <time>2015-03-12T11:53:27Z</time>
      </trkpt>
      <trkpt lat="45.84974" lon="6.44738">
        <ele>2480.82</ele>
        <time>2015-03-12T11:53:50Z</time>
      </trkpt>
      <trkpt lat="45.84974" lon="6.44736">
        <ele>2479.38</ele>
        <time>2015-03-12T11:54:11Z</time>
      </trkpt>
      <trkpt lat="45.84973" lon="6.44737">
        <ele>2482.26</ele>
        <time>2015-03-12T11:54:33Z</time>
      </trkpt>
      <trkpt lat="45.84974" lon="6.44737">
        <ele>2480.82</ele>
        <time>2015-03-12T11:54:43Z</time>
      </trkpt>
      <trkpt lat="45.84974" lon="6.44737">
        <ele>2481.78</ele>
        <time>2015-03-12T11:54:47Z</time>
      </trkpt>
      <trkpt lat="45.84975" lon="6.44738">
        <ele>2483.7</ele>
        <time>2015-03-12T11:54:56Z</time>
      </trkpt>
      <trkpt lat="45.84975" lon="6.44737">
        <ele>2482.74</ele>
        <time>2015-03-12T11:54:58Z</time>
      </trkpt>
      <trkpt lat="45.84975" lon="6.44735">
        <ele>2480.34</ele>
        <time>2015-03-12T11:55:16Z</time>
      </trkpt>
      <trkpt lat="45.84975" lon="6.44735">
        <ele>2481.3</ele>
        <time>2015-03-12T11:55:20Z</time>
      </trkpt>
      <trkpt lat="45.84975" lon="6.44734">
        <ele>2483.7</ele>
        <time>2015-03-12T11:55:25Z</time>
      </trkpt>
      <trkpt lat="45.84975" lon="6.44734">
        <ele>2480.82</ele>
        <time>2015-03-12T11:55:26Z</time>
      </trkpt>
      <trkpt lat="45.84975" lon="6.44734">
        <ele>2480.82</ele>
        <time>2015-03-12T11:55:27Z</time>
      </trkpt>
      <trkpt lat="45.84975" lon="6.44735">
        <ele>2484.18</ele>
        <time>2015-03-12T11:55:30Z</time>
      </trkpt>
      <trkpt lat="45.84975" lon="6.44735">
        <ele>2484.18</ele>
        <time>2015-03-12T11:55:31Z</time>
      </trkpt>
      <trkpt lat="45.84975" lon="6.44735">
        <ele>2481.3</ele>
        <time>2015-03-12T11:55:35Z</time>
      </trkpt>
      <trkpt lat="45.84974" lon="6.44736">
        <ele>2484.66</ele>
        <time>2015-03-12T11:55:47Z</time>
      </trkpt>
      <trkpt lat="45.84973" lon="6.44736">
        <ele>2482.26</ele>
        <time>2015-03-12T11:55:51Z</time>
      </trkpt>
      <trkpt lat="45.84973" lon="6.44736">
        <ele>2480.82</ele>
        <time>2015-03-12T11:55:54Z</time>
      </trkpt>
      <trkpt lat="45.84973" lon="6.44736">
        <ele>2482.74</ele>
        <time>2015-03-12T11:55:56Z</time>
      </trkpt>
      <trkpt lat="45.84972" lon="6.44735">
        <ele>2481.78</ele>
        <time>2015-03-12T11:56:27Z</time>
      </trkpt>
      <trkpt lat="45.84972" lon="6.44735">
        <ele>2481.78</ele>
        <time>2015-03-12T11:56:36Z</time>
      </trkpt>
      <trkpt lat="45.84974" lon="6.44736">
        <ele>2482.26</ele>
        <time>2015-03-12T11:56:57Z</time>
      </trkpt>
      <trkpt lat="45.84973" lon="6.44737">
        <ele>2483.22</ele>
        <time>2015-03-12T11:57:14Z</time>
      </trkpt>
      <trkpt lat="45.84973" lon="6.44734">
        <ele>2479.86</ele>
        <time>2015-03-12T11:57:40Z</time>
      </trkpt>
      <trkpt lat="45.84973" lon="6.44735">
        <ele>2480.34</ele>
        <time>2015-03-12T11:57:53Z</time>
      </trkpt>
      <trkpt lat="45.84973" lon="6.44735">
        <ele>2478.42</ele>
        <time>2015-03-12T11:58:02Z</time>
      </trkpt>
      <trkpt lat="45.84972" lon="6.44735">
        <ele>2478.42</ele>
        <time>2015-03-12T11:58:39Z</time>
      </trkpt>
      <trkpt lat="45.84975" lon="6.44736">
        <ele>2480.82</ele>
        <time>2015-03-12T11:58:55Z</time>
      </trkpt>
      <trkpt lat="45.84975" lon="6.44734">
        <ele>2481.3</ele>
        <time>2015-03-12T11:59:11Z</time>
      </trkpt>
      <trkpt lat="45.84974" lon="6.44735">
        <ele>2481.78</ele>
        <time>2015-03-12T11:59:18Z</time>
      </trkpt>
      <trkpt lat="45.84974" lon="6.44736">
        <ele>2483.22</ele>
        <time>2015-03-12T11:59:43Z</time>
      </trkpt>
      <trkpt lat="45.84974" lon="6.44736">
        <ele>2480.34</ele>
        <time>2015-03-12T11:59:46Z</time>
      </trkpt>
      <trkpt lat="45.84974" lon="6.44736">
        <ele>2483.7</ele>
        <time>2015-03-12T11:59:49Z</time>
      </trkpt>
      <trkpt lat="45.84974" lon="6.44736">
        <ele>2483.7</ele>
        <time>2015-03-12T11:59:50Z</time>
      </trkpt>
      <trkpt lat="45.84974" lon="6.44736">
        <ele>2481.3</ele>
        <time>2015-03-12T11:59:52Z</time>
      </trkpt>
      <trkpt lat="45.84974" lon="6.44736">
        <ele>2483.22</ele>
        <time>2015-03-12T12:00:01Z</time>
      </trkpt>
      <trkpt lat="45.84973" lon="6.44736">
        <ele>2481.78</ele>
        <time>2015-03-12T12:00:10Z</time>
      </trkpt>
      <trkpt lat="45.84973" lon="6.44736">
        <ele>2483.7</ele>
        <time>2015-03-12T12:00:12Z</time>
      </trkpt>
      <trkpt lat="45.84974" lon="6.44736">
        <ele>2482.26</ele>
        <time>2015-03-12T12:00:26Z</time>
      </trkpt>
      <trkpt lat="45.84977" lon="6.44735">
        <ele>2480.82</ele>
        <time>2015-03-12T12:00:47Z</time>
      </trkpt>
      <trkpt lat="45.84979" lon="6.44734">
        <ele>2483.22</ele>
        <time>2015-03-12T12:00:55Z</time>
      </trkpt>
      <trkpt lat="45.84982" lon="6.44732">
        <ele>2485.15</ele>
        <time>2015-03-12T12:01:01Z</time>
      </trkpt>
      <trkpt lat="45.84983" lon="6.44732">
        <ele>2481.78</ele>
        <time>2015-03-12T12:01:04Z</time>
      </trkpt>
      <trkpt lat="45.84985" lon="6.4473">
        <ele>2482.74</ele>
        <time>2015-03-12T12:01:13Z</time>
      </trkpt>
      <trkpt lat="45.84986" lon="6.44729">
        <ele>2482.26</ele>
        <time>2015-03-12T12:01:29Z</time>
      </trkpt>
      <trkpt lat="45.84988" lon="6.44729">
        <ele>2479.38</ele>
        <time>2015-03-12T12:01:36Z</time>
      </trkpt>
      <trkpt lat="45.84988" lon="6.44731">
        <ele>2480.82</ele>
        <time>2015-03-12T12:01:41Z</time>
      </trkpt>
      <trkpt lat="45.8499" lon="6.44731">
        <ele>2479.38</ele>
        <time>2015-03-12T12:01:49Z</time>
      </trkpt>
      <trkpt lat="45.8499" lon="6.4473">
        <ele>2481.3</ele>
        <time>2015-03-12T12:01:58Z</time>
      </trkpt>
      <trkpt lat="45.84991" lon="6.44729">
        <ele>2477.45</ele>
        <time>2015-03-12T12:02:12Z</time>
      </trkpt>
      <trkpt lat="45.84992" lon="6.44729">
        <ele>2475.53</ele>
        <time>2015-03-12T12:02:15Z</time>
      </trkpt>
      <trkpt lat="45.84994" lon="6.44727">
        <ele>2474.09</ele>
        <time>2015-03-12T12:02:21Z</time>
      </trkpt>
      <trkpt lat="45.84995" lon="6.44727">
        <ele>2475.05</ele>
        <time>2015-03-12T12:02:23Z</time>
      </trkpt>
      <trkpt lat="45.84996" lon="6.44727">
        <ele>2472.17</ele>
        <time>2015-03-12T12:02:26Z</time>
      </trkpt>
      <trkpt lat="45.84998" lon="6.44727">
        <ele>2470.24</ele>
        <time>2015-03-12T12:02:34Z</time>
      </trkpt>
      <trkpt lat="45.85" lon="6.44728">
        <ele>2467.84</ele>
        <time>2015-03-12T12:02:41Z</time>
      </trkpt>
      <trkpt lat="45.85001" lon="6.44728">
        <ele>2467.84</ele>
        <time>2015-03-12T12:02:46Z</time>
      </trkpt>
      <trkpt lat="45.85005" lon="6.44728">
        <ele>2467.84</ele>
        <time>2015-03-12T12:03:03Z</time>
      </trkpt>
      <trkpt lat="45.8501" lon="6.44729">
        <ele>2465.92</ele>
        <time>2015-03-12T12:03:18Z</time>
      </trkpt>
      <trkpt lat="45.85013" lon="6.44729">
        <ele>2464</ele>
        <time>2015-03-12T12:03:27Z</time>
      </trkpt>
      <trkpt lat="45.85019" lon="6.44729">
        <ele>2461.11</ele>
        <time>2015-03-12T12:03:39Z</time>
      </trkpt>
      <trkpt lat="45.85019" lon="6.44725">
        <ele>2458.71</ele>
        <time>2015-03-12T12:03:58Z</time>
      </trkpt>
      <trkpt lat="45.85019" lon="6.44719">
        <ele>2455.34</ele>
        <time>2015-03-12T12:04:14Z</time>
      </trkpt>
      <trkpt lat="45.8502" lon="6.44713">
        <ele>2451.98</ele>
        <time>2015-03-12T12:04:28Z</time>
      </trkpt>
      <trkpt lat="45.8502" lon="6.44713">
        <ele>2451.98</ele>
        <time>2015-03-12T12:04:29Z</time>
      </trkpt>
      <trkpt lat="45.85021" lon="6.44712">
        <ele>2450.06</ele>
        <time>2015-03-12T12:04:32Z</time>
      </trkpt>
      <trkpt lat="45.85024" lon="6.4471">
        <ele>2447.17</ele>
        <time>2015-03-12T12:04:41Z</time>
      </trkpt>
      <trkpt lat="45.85028" lon="6.44707">
        <ele>2445.25</ele>
        <time>2015-03-12T12:04:55Z</time>
      </trkpt>
      <trkpt lat="45.85027" lon="6.44701">
        <ele>2441.89</ele>
        <time>2015-03-12T12:05:10Z</time>
      </trkpt>
      <trkpt lat="45.85027" lon="6.44699">
        <ele>2440.44</ele>
        <time>2015-03-12T12:05:14Z</time>
      </trkpt>
      <trkpt lat="45.85028" lon="6.44699">
        <ele>2439.48</ele>
        <time>2015-03-12T12:05:16Z</time>
      </trkpt>
      <trkpt lat="45.85031" lon="6.44696">
        <ele>2437.08</ele>
        <time>2015-03-12T12:05:31Z</time>
      </trkpt>
      <trkpt lat="45.8503" lon="6.44691">
        <ele>2434.2</ele>
        <time>2015-03-12T12:05:45Z</time>
      </trkpt>
      <trkpt lat="45.85032" lon="6.44685">
        <ele>2430.83</ele>
        <time>2015-03-12T12:06:03Z</time>
      </trkpt>
      <trkpt lat="45.85033" lon="6.44682">
        <ele>2427.95</ele>
        <time>2015-03-12T12:06:19Z</time>
      </trkpt>
      <trkpt lat="45.85035" lon="6.44681">
        <ele>2425.54</ele>
        <time>2015-03-12T12:06:37Z</time>
      </trkpt>
      <trkpt lat="45.85037" lon="6.4468">
        <ele>2423.62</ele>
        <time>2015-03-12T12:06:46Z</time>
      </trkpt>
      <trkpt lat="45.85038" lon="6.4468">
        <ele>2425.54</ele>
        <time>2015-03-12T12:06:48Z</time>
      </trkpt>
      <trkpt lat="45.85038" lon="6.44679">
        <ele>2424.1</ele>
        <time>2015-03-12T12:06:50Z</time>
      </trkpt>
      <trkpt lat="45.85041" lon="6.44677">
        <ele>2421.7</ele>
        <time>2015-03-12T12:06:58Z</time>
      </trkpt>
      <trkpt lat="45.85044" lon="6.44673">
        <ele>2421.22</ele>
        <time>2015-03-12T12:07:09Z</time>
      </trkpt>
      <trkpt lat="45.85045" lon="6.44672">
        <ele>2419.3</ele>
        <time>2015-03-12T12:07:15Z</time>
      </trkpt>
      <trkpt lat="45.85046" lon="6.44671">
        <ele>2417.85</ele>
        <time>2015-03-12T12:07:20Z</time>
      </trkpt>
      <trkpt lat="45.85046" lon="6.4467">
        <ele>2414.97</ele>
        <time>2015-03-12T12:07:24Z</time>
      </trkpt>
      <trkpt lat="45.85046" lon="6.4467">
        <ele>2414.97</ele>
        <time>2015-03-12T12:07:25Z</time>
      </trkpt>
      <trkpt lat="45.85047" lon="6.44669">
        <ele>2418.33</ele>
        <time>2015-03-12T12:07:30Z</time>
      </trkpt>
      <trkpt lat="45.85047" lon="6.44669">
        <ele>2418.33</ele>
        <time>2015-03-12T12:07:31Z</time>
      </trkpt>
      <trkpt lat="45.85046" lon="6.44668">
        <ele>2415.93</ele>
        <time>2015-03-12T12:07:33Z</time>
      </trkpt>
      <trkpt lat="45.8505" lon="6.44666">
        <ele>2413.05</ele>
        <time>2015-03-12T12:07:48Z</time>
      </trkpt>
      <trkpt lat="45.85052" lon="6.44662">
        <ele>2409.2</ele>
        <time>2015-03-12T12:07:58Z</time>
      </trkpt>
      <trkpt lat="45.85057" lon="6.44651">
        <ele>2406.8</ele>
        <time>2015-03-12T12:08:16Z</time>
      </trkpt>
      <trkpt lat="45.85058" lon="6.44645">
        <ele>2407.28</ele>
        <time>2015-03-12T12:08:27Z</time>
      </trkpt>
      <trkpt lat="45.85058" lon="6.4464">
        <ele>2404.39</ele>
        <time>2015-03-12T12:08:36Z</time>
      </trkpt>
      <trkpt lat="45.85056" lon="6.44639">
        <ele>2402.47</ele>
        <time>2015-03-12T12:08:54Z</time>
      </trkpt>
      <trkpt lat="45.85055" lon="6.44641">
        <ele>2401.99</ele>
        <time>2015-03-12T12:09:20Z</time>
      </trkpt>
      <trkpt lat="45.85054" lon="6.4464">
        <ele>2401.51</ele>
        <time>2015-03-12T12:09:47Z</time>
      </trkpt>
      <trkpt lat="45.85051" lon="6.44639">
        <ele>2401.51</ele>
        <time>2015-03-12T12:09:56Z</time>
      </trkpt>
      <trkpt lat="45.85052" lon="6.4464">
        <ele>2402.95</ele>
        <time>2015-03-12T12:10:06Z</time>
      </trkpt>
      <trkpt lat="45.85052" lon="6.44638">
        <ele>2402.95</ele>
        <time>2015-03-12T12:10:16Z</time>
      </trkpt>
      <trkpt lat="45.85052" lon="6.44639">
        <ele>2403.43</ele>
        <time>2015-03-12T12:10:34Z</time>
      </trkpt>
      <trkpt lat="45.85054" lon="6.44637">
        <ele>2404.39</ele>
        <time>2015-03-12T12:10:48Z</time>
      </trkpt>
      <trkpt lat="45.85054" lon="6.44636">
        <ele>2404.88</ele>
        <time>2015-03-12T12:11:13Z</time>
      </trkpt>
      <trkpt lat="45.85054" lon="6.44636">
        <ele>2403.91</ele>
        <time>2015-03-12T12:11:39Z</time>
      </trkpt>
      <trkpt lat="45.85054" lon="6.44636">
        <ele>2403.91</ele>
        <time>2015-03-12T12:12:02Z</time>
      </trkpt>
      <trkpt lat="45.85054" lon="6.44637">
        <ele>2402.95</ele>
        <time>2015-03-12T12:12:31Z</time>
      </trkpt>
      <trkpt lat="45.85055" lon="6.44635">
        <ele>2402.95</ele>
        <time>2015-03-12T12:13:06Z</time>
      </trkpt>
      <trkpt lat="45.85055" lon="6.44636">
        <ele>2404.39</ele>
        <time>2015-03-12T12:13:35Z</time>
      </trkpt>
      <trkpt lat="45.85055" lon="6.44637">
        <ele>2404.88</ele>
        <time>2015-03-12T12:14:08Z</time>
      </trkpt>
      <trkpt lat="45.85055" lon="6.44637">
        <ele>2403.43</ele>
        <time>2015-03-12T12:14:13Z</time>
      </trkpt>
      <trkpt lat="45.85053" lon="6.44637">
        <ele>2403.43</ele>
        <time>2015-03-12T12:14:37Z</time>
      </trkpt>
      <trkpt lat="45.85053" lon="6.44636">
        <ele>2405.36</ele>
        <time>2015-03-12T12:14:55Z</time>
      </trkpt>
      <trkpt lat="45.85054" lon="6.44636">
        <ele>2404.39</ele>
        <time>2015-03-12T12:15:06Z</time>
      </trkpt>
      <trkpt lat="45.85054" lon="6.44636">
        <ele>2403.91</ele>
        <time>2015-03-12T12:15:25Z</time>
      </trkpt>
      <trkpt lat="45.85054" lon="6.44635">
        <ele>2405.36</ele>
        <time>2015-03-12T12:15:46Z</time>
      </trkpt>
      <trkpt lat="45.85053" lon="6.44636">
        <ele>2405.36</ele>
        <time>2015-03-12T12:16:11Z</time>
      </trkpt>
      <trkpt lat="45.85054" lon="6.44636">
        <ele>2405.84</ele>
        <time>2015-03-12T12:16:32Z</time>
      </trkpt>
      <trkpt lat="45.85056" lon="6.44633">
        <ele>2404.39</ele>
        <time>2015-03-12T12:16:49Z</time>
      </trkpt>
      <trkpt lat="45.85055" lon="6.44636">
        <ele>2403.91</ele>
        <time>2015-03-12T12:17:15Z</time>
      </trkpt>
      <trkpt lat="45.85055" lon="6.44636">
        <ele>2403.91</ele>
        <time>2015-03-12T12:17:46Z</time>
      </trkpt>
      <trkpt lat="45.85053" lon="6.44636">
        <ele>2402.95</ele>
        <time>2015-03-12T12:18:12Z</time>
      </trkpt>
      <trkpt lat="45.85054" lon="6.44635">
        <ele>2402.95</ele>
        <time>2015-03-12T12:18:39Z</time>
      </trkpt>
      <trkpt lat="45.85054" lon="6.44637">
        <ele>2404.39</ele>
        <time>2015-03-12T12:19:04Z</time>
      </trkpt>
      <trkpt lat="45.85054" lon="6.44637">
        <ele>2405.36</ele>
        <time>2015-03-12T12:19:27Z</time>
      </trkpt>
      <trkpt lat="45.85054" lon="6.44636">
        <ele>2406.32</ele>
        <time>2015-03-12T12:19:49Z</time>
      </trkpt>
      <trkpt lat="45.85055" lon="6.44636">
        <ele>2405.84</ele>
        <time>2015-03-12T12:20:21Z</time>
      </trkpt>
      <trkpt lat="45.85055" lon="6.44635">
        <ele>2405.84</ele>
        <time>2015-03-12T12:20:22Z</time>
      </trkpt>
      <trkpt lat="45.85054" lon="6.44637">
        <ele>2405.84</ele>
        <time>2015-03-12T12:20:48Z</time>
      </trkpt>
      <trkpt lat="45.85052" lon="6.44638">
        <ele>2405.84</ele>
        <time>2015-03-12T12:21:19Z</time>
      </trkpt>
      <trkpt lat="45.85052" lon="6.44637">
        <ele>2406.32</ele>
        <time>2015-03-12T12:21:35Z</time>
      </trkpt>
      <trkpt lat="45.85052" lon="6.44636">
        <ele>2404.88</ele>
        <time>2015-03-12T12:21:37Z</time>
      </trkpt>
      <trkpt lat="45.85052" lon="6.44637">
        <ele>2405.36</ele>
        <time>2015-03-12T12:21:45Z</time>
      </trkpt>
      <trkpt lat="45.8505" lon="6.44636">
        <ele>2405.84</ele>
        <time>2015-03-12T12:22:08Z</time>
      </trkpt>
      <trkpt lat="45.85052" lon="6.44636">
        <ele>2404.88</ele>
        <time>2015-03-12T12:22:22Z</time>
      </trkpt>
      <trkpt lat="45.85052" lon="6.44637">
        <ele>2404.39</ele>
        <time>2015-03-12T12:22:46Z</time>
      </trkpt>
      <trkpt lat="45.85053" lon="6.44637">
        <ele>2404.39</ele>
        <time>2015-03-12T12:23:12Z</time>
      </trkpt>
      <trkpt lat="45.85053" lon="6.44637">
        <ele>2403.91</ele>
        <time>2015-03-12T12:23:36Z</time>
      </trkpt>
      <trkpt lat="45.85052" lon="6.44637">
        <ele>2405.84</ele>
        <time>2015-03-12T12:23:59Z</time>
      </trkpt>
      <trkpt lat="45.85052" lon="6.44636">
        <ele>2407.28</ele>
        <time>2015-03-12T12:24:07Z</time>
      </trkpt>
      <trkpt lat="45.8505" lon="6.44637">
        <ele>2404.88</ele>
        <time>2015-03-12T12:24:33Z</time>
      </trkpt>
      <trkpt lat="45.8505" lon="6.44637">
        <ele>2405.84</ele>
        <time>2015-03-12T12:24:44Z</time>
      </trkpt>
      <trkpt lat="45.8505" lon="6.44637">
        <ele>2406.32</ele>
        <time>2015-03-12T12:25:11Z</time>
      </trkpt>
      <trkpt lat="45.85047" lon="6.44634">
        <ele>2405.84</ele>
        <time>2015-03-12T12:25:33Z</time>
      </trkpt>
      <trkpt lat="45.85044" lon="6.44635">
        <ele>2407.28</ele>
        <time>2015-03-12T12:26:05Z</time>
      </trkpt>
      <trkpt lat="45.85044" lon="6.44636">
        <ele>2405.84</ele>
        <time>2015-03-12T12:26:08Z</time>
      </trkpt>
      <trkpt lat="45.85048" lon="6.44634">
        <ele>2407.28</ele>
        <time>2015-03-12T12:26:14Z</time>
      </trkpt>
      <trkpt lat="45.8505" lon="6.4463">
        <ele>2405.36</ele>
        <time>2015-03-12T12:26:19Z</time>
      </trkpt>
      <trkpt lat="45.85051" lon="6.44629">
        <ele>2407.28</ele>
        <time>2015-03-12T12:26:21Z</time>
      </trkpt>
      <trkpt lat="45.85052" lon="6.44631">
        <ele>2405.84</ele>
        <time>2015-03-12T12:26:38Z</time>
      </trkpt>
      <trkpt lat="45.85051" lon="6.44636">
        <ele>2405.84</ele>
        <time>2015-03-12T12:27:04Z</time>
      </trkpt>
      <trkpt lat="45.8505" lon="6.4464">
        <ele>2405.36</ele>
        <time>2015-03-12T12:27:44Z</time>
      </trkpt>
      <trkpt lat="45.85051" lon="6.44638">
        <ele>2405.84</ele>
        <time>2015-03-12T12:28:07Z</time>
      </trkpt>
      <trkpt lat="45.85052" lon="6.44635">
        <ele>2405.84</ele>
        <time>2015-03-12T12:28:35Z</time>
      </trkpt>
      <trkpt lat="45.85051" lon="6.44637">
        <ele>2407.28</ele>
        <time>2015-03-12T12:28:57Z</time>
      </trkpt>
      <trkpt lat="45.85053" lon="6.44638">
        <ele>2407.28</ele>
        <time>2015-03-12T12:29:19Z</time>
      </trkpt>
      <trkpt lat="45.85053" lon="6.44638">
        <ele>2406.8</ele>
        <time>2015-03-12T12:29:45Z</time>
      </trkpt>
      <trkpt lat="45.85053" lon="6.44638">
        <ele>2407.76</ele>
        <time>2015-03-12T12:29:50Z</time>
      </trkpt>
      <trkpt lat="45.85051" lon="6.44638">
        <ele>2406.32</ele>
        <time>2015-03-12T12:30:09Z</time>
      </trkpt>
      <trkpt lat="45.8505" lon="6.44641">
        <ele>2407.76</ele>
        <time>2015-03-12T12:30:31Z</time>
      </trkpt>
      <trkpt lat="45.85049" lon="6.44639">
        <ele>2405.84</ele>
        <time>2015-03-12T12:30:55Z</time>
      </trkpt>
      <trkpt lat="45.8505" lon="6.44634">
        <ele>2406.8</ele>
        <time>2015-03-12T12:31:20Z</time>
      </trkpt>
      <trkpt lat="45.85052" lon="6.44636">
        <ele>2406.8</ele>
        <time>2015-03-12T12:31:41Z</time>
      </trkpt>
      <trkpt lat="45.85052" lon="6.44634">
        <ele>2405.84</ele>
        <time>2015-03-12T12:32:04Z</time>
      </trkpt>
      <trkpt lat="45.85053" lon="6.44633">
        <ele>2405.84</ele>
        <time>2015-03-12T12:32:17Z</time>
      </trkpt>
      <trkpt lat="45.85053" lon="6.44632">
        <ele>2406.8</ele>
        <time>2015-03-12T12:32:25Z</time>
      </trkpt>
      <trkpt lat="45.85054" lon="6.44633">
        <ele>2406.8</ele>
        <time>2015-03-12T12:32:48Z</time>
      </trkpt>
      <trkpt lat="45.85054" lon="6.44637">
        <ele>2405.36</ele>
        <time>2015-03-12T12:33:05Z</time>
      </trkpt>
      <trkpt lat="45.85054" lon="6.44636">
        <ele>2410.16</ele>
        <time>2015-03-12T12:33:16Z</time>
      </trkpt>
      <trkpt lat="45.85054" lon="6.44636">
        <ele>2406.8</ele>
        <time>2015-03-12T12:33:17Z</time>
      </trkpt>
      <trkpt lat="45.85052" lon="6.44639">
        <ele>2406.8</ele>
        <time>2015-03-12T12:33:44Z</time>
      </trkpt>
      <trkpt lat="45.85054" lon="6.44637">
        <ele>2402.95</ele>
        <time>2015-03-12T12:33:57Z</time>
      </trkpt>
      <trkpt lat="45.85055" lon="6.44637">
        <ele>2406.8</ele>
        <time>2015-03-12T12:33:58Z</time>
      </trkpt>
      <trkpt lat="45.85052" lon="6.44641">
        <ele>2406.32</ele>
        <time>2015-03-12T12:34:16Z</time>
      </trkpt>
      <trkpt lat="45.85049" lon="6.44644">
        <ele>2405.84</ele>
        <time>2015-03-12T12:34:42Z</time>
      </trkpt>
      <trkpt lat="45.85053" lon="6.44642">
        <ele>2405.84</ele>
        <time>2015-03-12T12:35:09Z</time>
      </trkpt>
      <trkpt lat="45.85051" lon="6.44651">
        <ele>2405.84</ele>
        <time>2015-03-12T12:35:38Z</time>
      </trkpt>
      <trkpt lat="45.85048" lon="6.44655">
        <ele>2406.8</ele>
        <time>2015-03-12T12:35:58Z</time>
      </trkpt>
      <trkpt lat="45.85044" lon="6.44658">
        <ele>2405.36</ele>
        <time>2015-03-12T12:36:33Z</time>
      </trkpt>
      <trkpt lat="45.85045" lon="6.44655">
        <ele>2404.88</ele>
        <time>2015-03-12T12:37:07Z</time>
      </trkpt>
      <trkpt lat="45.85048" lon="6.44655">
        <ele>2404.88</ele>
        <time>2015-03-12T12:37:39Z</time>
      </trkpt>
      <trkpt lat="45.85044" lon="6.44655">
        <ele>2403.43</ele>
        <time>2015-03-12T12:38:10Z</time>
      </trkpt>
      <trkpt lat="45.85047" lon="6.44651">
        <ele>2403.43</ele>
        <time>2015-03-12T12:38:37Z</time>
      </trkpt>
      <trkpt lat="45.85047" lon="6.44656">
        <ele>2402.95</ele>
        <time>2015-03-12T12:39:03Z</time>
      </trkpt>
      <trkpt lat="45.85047" lon="6.44655">
        <ele>2402.95</ele>
        <time>2015-03-12T12:39:32Z</time>
      </trkpt>
      <trkpt lat="45.85046" lon="6.4466">
        <ele>2402.47</ele>
        <time>2015-03-12T12:40:05Z</time>
      </trkpt>
      <trkpt lat="45.85044" lon="6.44649">
        <ele>2403.91</ele>
        <time>2015-03-12T12:40:31Z</time>
      </trkpt>
      <trkpt lat="45.85044" lon="6.44648">
        <ele>2403.43</ele>
        <time>2015-03-12T12:40:58Z</time>
      </trkpt>
      <trkpt lat="45.85043" lon="6.44646">
        <ele>2403.43</ele>
        <time>2015-03-12T12:41:23Z</time>
      </trkpt>
      <trkpt lat="45.85044" lon="6.44646">
        <ele>2402.95</ele>
        <time>2015-03-12T12:41:51Z</time>
      </trkpt>
      <trkpt lat="45.85037" lon="6.44648">
        <ele>2400.07</ele>
        <time>2015-03-12T12:41:55Z</time>
      </trkpt>
      <trkpt lat="45.85037" lon="6.44642">
        <ele>2399.11</ele>
        <time>2015-03-12T12:41:57Z</time>
      </trkpt>
      <trkpt lat="45.85039" lon="6.4464">
        <ele>2399.11</ele>
        <time>2015-03-12T12:42:01Z</time>
      </trkpt>
      <trkpt lat="45.85042" lon="6.44629">
        <ele>2394.78</ele>
        <time>2015-03-12T12:42:04Z</time>
      </trkpt>
      <trkpt lat="45.85041" lon="6.44611">
        <ele>2389.01</ele>
        <time>2015-03-12T12:42:07Z</time>
      </trkpt>
      <trkpt lat="45.85036" lon="6.44607">
        <ele>2384.21</ele>
        <time>2015-03-12T12:42:08Z</time>
      </trkpt>
      <trkpt lat="45.85032" lon="6.446">
        <ele>2379.88</ele>
        <time>2015-03-12T12:42:09Z</time>
      </trkpt>
      <trkpt lat="45.85028" lon="6.44592">
        <ele>2375.55</ele>
        <time>2015-03-12T12:42:10Z</time>
      </trkpt>
      <trkpt lat="45.85016" lon="6.44576">
        <ele>2363.54</ele>
        <time>2015-03-12T12:42:12Z</time>
      </trkpt>
      <trkpt lat="45.85009" lon="6.4456">
        <ele>2352.96</ele>
        <time>2015-03-12T12:42:14Z</time>
      </trkpt>
      <trkpt lat="45.8501" lon="6.44549">
        <ele>2352.96</ele>
        <time>2015-03-12T12:42:15Z</time>
      </trkpt>
      <trkpt lat="45.85013" lon="6.4452">
        <ele>2354.89</ele>
        <time>2015-03-12T12:42:18Z</time>
      </trkpt>
      <trkpt lat="45.85012" lon="6.44513">
        <ele>2346.72</ele>
        <time>2015-03-12T12:42:19Z</time>
      </trkpt>
      <trkpt lat="45.85008" lon="6.44506">
        <ele>2341.43</ele>
        <time>2015-03-12T12:42:20Z</time>
      </trkpt>
      <trkpt lat="45.85006" lon="6.44497">
        <ele>2338.54</ele>
        <time>2015-03-12T12:42:21Z</time>
      </trkpt>
      <trkpt lat="45.85005" lon="6.44476">
        <ele>2333.74</ele>
        <time>2015-03-12T12:42:23Z</time>
      </trkpt>
      <trkpt lat="45.85008" lon="6.4445">
        <ele>2329.89</ele>
        <time>2015-03-12T12:42:26Z</time>
      </trkpt>
      <trkpt lat="45.85005" lon="6.44438">
        <ele>2324.61</ele>
        <time>2015-03-12T12:42:29Z</time>
      </trkpt>
      <trkpt lat="45.85005" lon="6.4446">
        <ele>2326.05</ele>
        <time>2015-03-12T12:42:46Z</time>
      </trkpt>
      <trkpt lat="45.85006" lon="6.44465">
        <ele>2325.57</ele>
        <time>2015-03-12T12:43:11Z</time>
      </trkpt>
      <trkpt lat="45.85008" lon="6.44466">
        <ele>2326.05</ele>
        <time>2015-03-12T12:43:40Z</time>
      </trkpt>
      <trkpt lat="45.85003" lon="6.44471">
        <ele>2326.05</ele>
        <time>2015-03-12T12:44:16Z</time>
      </trkpt>
      <trkpt lat="45.85003" lon="6.4447">
        <ele>2326.05</ele>
        <time>2015-03-12T12:44:20Z</time>
      </trkpt>
      <trkpt lat="45.85008" lon="6.44445">
        <ele>2321.24</ele>
        <time>2015-03-12T12:44:25Z</time>
      </trkpt>
      <trkpt lat="45.85009" lon="6.44438">
        <ele>2319.8</ele>
        <time>2015-03-12T12:44:26Z</time>
      </trkpt>
      <trkpt lat="45.85005" lon="6.44424">
        <ele>2314.51</ele>
        <time>2015-03-12T12:44:29Z</time>
      </trkpt>
      <trkpt lat="45.84998" lon="6.44402">
        <ele>2305.86</ele>
        <time>2015-03-12T12:44:32Z</time>
      </trkpt>
      <trkpt lat="45.84998" lon="6.44393">
        <ele>2304.42</ele>
        <time>2015-03-12T12:44:33Z</time>
      </trkpt>
      <trkpt lat="45.84995" lon="6.44378">
        <ele>2300.57</ele>
        <time>2015-03-12T12:44:35Z</time>
      </trkpt>
      <trkpt lat="45.84992" lon="6.44372">
        <ele>2295.77</ele>
        <time>2015-03-12T12:44:36Z</time>
      </trkpt>
      <trkpt lat="45.84989" lon="6.44365">
        <ele>2292.4</ele>
        <time>2015-03-12T12:44:37Z</time>
      </trkpt>
      <trkpt lat="45.84983" lon="6.44319">
        <ele>2283.75</ele>
        <time>2015-03-12T12:44:43Z</time>
      </trkpt>
      <trkpt lat="45.84984" lon="6.44308">
        <ele>2282.31</ele>
        <time>2015-03-12T12:44:45Z</time>
      </trkpt>
      <trkpt lat="45.84979" lon="6.44306">
        <ele>2278.94</ele>
        <time>2015-03-12T12:44:48Z</time>
      </trkpt>
      <trkpt lat="45.84975" lon="6.44307">
        <ele>2275.1</ele>
        <time>2015-03-12T12:44:49Z</time>
      </trkpt>
      <trkpt lat="45.84972" lon="6.443">
        <ele>2270.29</ele>
        <time>2015-03-12T12:44:51Z</time>
      </trkpt>
      <trkpt lat="45.84972" lon="6.44283">
        <ele>2267.41</ele>
        <time>2015-03-12T12:44:54Z</time>
      </trkpt>
      <trkpt lat="45.84974" lon="6.44251">
        <ele>2262.6</ele>
        <time>2015-03-12T12:45:00Z</time>
      </trkpt>
      <trkpt lat="45.84968" lon="6.44249">
        <ele>2254.91</ele>
        <time>2015-03-12T12:45:03Z</time>
      </trkpt>
      <trkpt lat="45.8496" lon="6.44227">
        <ele>2247.7</ele>
        <time>2015-03-12T12:45:07Z</time>
      </trkpt>
      <trkpt lat="45.8496" lon="6.44222">
        <ele>2247.22</ele>
        <time>2015-03-12T12:45:08Z</time>
      </trkpt>
      <trkpt lat="45.84961" lon="6.44191">
        <ele>2243.37</ele>
        <time>2015-03-12T12:45:15Z</time>
      </trkpt>
      <trkpt lat="45.84959" lon="6.44174">
        <ele>2239.53</ele>
        <time>2015-03-12T12:45:20Z</time>
      </trkpt>
      <trkpt lat="45.8496" lon="6.44177">
        <ele>2240.01</ele>
        <time>2015-03-12T12:45:34Z</time>
      </trkpt>
      <trkpt lat="45.84958" lon="6.4417">
        <ele>2237.13</ele>
        <time>2015-03-12T12:45:38Z</time>
      </trkpt>
      <trkpt lat="45.84956" lon="6.44163">
        <ele>2234.72</ele>
        <time>2015-03-12T12:45:41Z</time>
      </trkpt>
      <trkpt lat="45.84952" lon="6.44163">
        <ele>2230.4</ele>
        <time>2015-03-12T12:45:44Z</time>
      </trkpt>
      <trkpt lat="45.8495" lon="6.44168">
        <ele>2227.03</ele>
        <time>2015-03-12T12:45:46Z</time>
      </trkpt>
      <trkpt lat="45.84948" lon="6.44162">
        <ele>2222.71</ele>
        <time>2015-03-12T12:45:48Z</time>
      </trkpt>
      <trkpt lat="45.84949" lon="6.44144">
        <ele>2219.82</ele>
        <time>2015-03-12T12:45:52Z</time>
      </trkpt>
      <trkpt lat="45.8495" lon="6.44141">
        <ele>2219.82</ele>
        <time>2015-03-12T12:45:53Z</time>
      </trkpt>
      <trkpt lat="45.8495" lon="6.44134">
        <ele>2218.86</ele>
        <time>2015-03-12T12:45:57Z</time>
      </trkpt>
      <trkpt lat="45.84943" lon="6.44132">
        <ele>2215.01</ele>
        <time>2015-03-12T12:46:00Z</time>
      </trkpt>
      <trkpt lat="45.8494" lon="6.44132">
        <ele>2211.17</ele>
        <time>2015-03-12T12:46:02Z</time>
      </trkpt>
      <trkpt lat="45.8494" lon="6.44114">
        <ele>2206.84</ele>
        <time>2015-03-12T12:46:09Z</time>
      </trkpt>
      <trkpt lat="45.84936" lon="6.44113">
        <ele>2202.52</ele>
        <time>2015-03-12T12:46:11Z</time>
      </trkpt>
      <trkpt lat="45.84936" lon="6.44102">
        <ele>2199.15</ele>
        <time>2015-03-12T12:46:14Z</time>
      </trkpt>
      <trkpt lat="45.84936" lon="6.44082">
        <ele>2195.79</ele>
        <time>2015-03-12T12:46:18Z</time>
      </trkpt>
      <trkpt lat="45.84934" lon="6.44082">
        <ele>2193.39</ele>
        <time>2015-03-12T12:46:19Z</time>
      </trkpt>
      <trkpt lat="45.84925" lon="6.44079">
        <ele>2185.69</ele>
        <time>2015-03-12T12:46:22Z</time>
      </trkpt>
      <trkpt lat="45.84927" lon="6.44063">
        <ele>2184.73</ele>
        <time>2015-03-12T12:46:25Z</time>
      </trkpt>
      <trkpt lat="45.84933" lon="6.44043">
        <ele>2181.37</ele>
        <time>2015-03-12T12:46:30Z</time>
      </trkpt>
      <trkpt lat="45.84928" lon="6.44039">
        <ele>2176.56</ele>
        <time>2015-03-12T12:46:34Z</time>
      </trkpt>
      <trkpt lat="45.84936" lon="6.4402">
        <ele>2171.76</ele>
        <time>2015-03-12T12:46:46Z</time>
      </trkpt>
      <trkpt lat="45.84935" lon="6.44012">
        <ele>2165.99</ele>
        <time>2015-03-12T12:46:49Z</time>
      </trkpt>
      <trkpt lat="45.84935" lon="6.44003">
        <ele>2165.51</ele>
        <time>2015-03-12T12:46:51Z</time>
      </trkpt>
      <trkpt lat="45.84944" lon="6.43999">
        <ele>2165.03</ele>
        <time>2015-03-12T12:47:06Z</time>
      </trkpt>
      <trkpt lat="45.84945" lon="6.43998">
        <ele>2165.99</ele>
        <time>2015-03-12T12:47:12Z</time>
      </trkpt>
      <trkpt lat="45.84945" lon="6.44001">
        <ele>2165.99</ele>
        <time>2015-03-12T12:47:22Z</time>
      </trkpt>
      <trkpt lat="45.84947" lon="6.43998">
        <ele>2165.99</ele>
        <time>2015-03-12T12:47:47Z</time>
      </trkpt>
      <trkpt lat="45.84951" lon="6.44007">
        <ele>2165.99</ele>
        <time>2015-03-12T12:48:15Z</time>
      </trkpt>
      <trkpt lat="45.84952" lon="6.44005">
        <ele>2166.47</ele>
        <time>2015-03-12T12:48:55Z</time>
      </trkpt>
      <trkpt lat="45.84952" lon="6.44001">
        <ele>2166.47</ele>
        <time>2015-03-12T12:49:31Z</time>
      </trkpt>
      <trkpt lat="45.84952" lon="6.44007">
        <ele>2166.95</ele>
        <time>2015-03-12T12:50:01Z</time>
      </trkpt>
      <trkpt lat="45.84955" lon="6.43999">
        <ele>2166.95</ele>
        <time>2015-03-12T12:50:23Z</time>
      </trkpt>
      <trkpt lat="45.84952" lon="6.43998">
        <ele>2166.95</ele>
        <time>2015-03-12T12:50:54Z</time>
      </trkpt>
      <trkpt lat="45.84952" lon="6.43997">
        <ele>2169.35</ele>
        <time>2015-03-12T12:51:14Z</time>
      </trkpt>
      <trkpt lat="45.84954" lon="6.43996">
        <ele>2170.31</ele>
        <time>2015-03-12T12:51:31Z</time>
      </trkpt>
      <trkpt lat="45.84954" lon="6.43991">
        <ele>2172.24</ele>
        <time>2015-03-12T12:51:53Z</time>
      </trkpt>
      <trkpt lat="45.84956" lon="6.43987">
        <ele>2174.16</ele>
        <time>2015-03-12T12:52:13Z</time>
      </trkpt>
      <trkpt lat="45.84957" lon="6.4399">
        <ele>2175.6</ele>
        <time>2015-03-12T12:52:30Z</time>
      </trkpt>
      <trkpt lat="45.84963" lon="6.43996">
        <ele>2177.52</ele>
        <time>2015-03-12T12:52:51Z</time>
      </trkpt>
      <trkpt lat="45.84961" lon="6.43989">
        <ele>2178.48</ele>
        <time>2015-03-12T12:53:13Z</time>
      </trkpt>
      <trkpt lat="45.84961" lon="6.43987">
        <ele>2180.41</ele>
        <time>2015-03-12T12:53:30Z</time>
      </trkpt>
      <trkpt lat="45.84962" lon="6.43987">
        <ele>2182.33</ele>
        <time>2015-03-12T12:53:49Z</time>
      </trkpt>
      <trkpt lat="45.84965" lon="6.43985">
        <ele>2184.25</ele>
        <time>2015-03-12T12:54:05Z</time>
      </trkpt>
      <trkpt lat="45.84969" lon="6.4398">
        <ele>2185.69</ele>
        <time>2015-03-12T12:54:24Z</time>
      </trkpt>
      <trkpt lat="45.84971" lon="6.43992">
        <ele>2186.18</ele>
        <time>2015-03-12T12:54:45Z</time>
      </trkpt>
      <trkpt lat="45.84969" lon="6.43994">
        <ele>2186.18</ele>
        <time>2015-03-12T12:55:11Z</time>
      </trkpt>
      <trkpt lat="45.8497" lon="6.43985">
        <ele>2186.18</ele>
        <time>2015-03-12T12:55:35Z</time>
      </trkpt>
      <trkpt lat="45.84969" lon="6.43979">
        <ele>2186.18</ele>
        <time>2015-03-12T12:55:52Z</time>
      </trkpt>
      <trkpt lat="45.84969" lon="6.43977">
        <ele>2178.97</ele>
        <time>2015-03-12T12:55:55Z</time>
      </trkpt>
      <trkpt lat="45.84969" lon="6.43977">
        <ele>2182.81</ele>
        <time>2015-03-12T12:55:56Z</time>
      </trkpt>
      <trkpt lat="45.84967" lon="6.43974">
        <ele>2190.98</ele>
        <time>2015-03-12T12:55:58Z</time>
      </trkpt>
      <trkpt lat="45.84967" lon="6.43973">
        <ele>2186.66</ele>
        <time>2015-03-12T12:55:59Z</time>
      </trkpt>
      <trkpt lat="45.84967" lon="6.4397">
        <ele>2186.18</ele>
        <time>2015-03-12T12:56:13Z</time>
      </trkpt>
      <trkpt lat="45.84966" lon="6.43974">
        <ele>2190.02</ele>
        <time>2015-03-12T12:56:24Z</time>
      </trkpt>
      <trkpt lat="45.84966" lon="6.43975">
        <ele>2185.69</ele>
        <time>2015-03-12T12:56:25Z</time>
      </trkpt>
      <trkpt lat="45.8497" lon="6.43982">
        <ele>2185.69</ele>
        <time>2015-03-12T12:56:54Z</time>
      </trkpt>
      <trkpt lat="45.84968" lon="6.43986">
        <ele>2185.69</ele>
        <time>2015-03-12T12:57:29Z</time>
      </trkpt>
      <trkpt lat="45.84968" lon="6.43982">
        <ele>2185.69</ele>
        <time>2015-03-12T12:57:56Z</time>
      </trkpt>
      <trkpt lat="45.84966" lon="6.43981">
        <ele>2185.69</ele>
        <time>2015-03-12T12:58:23Z</time>
      </trkpt>
      <trkpt lat="45.84965" lon="6.43981">
        <ele>2186.18</ele>
        <time>2015-03-12T12:58:49Z</time>
      </trkpt>
      <trkpt lat="45.84963" lon="6.43983">
        <ele>2185.69</ele>
        <time>2015-03-12T12:59:02Z</time>
      </trkpt>
      <trkpt lat="45.84955" lon="6.43979">
        <ele>2181.85</ele>
        <time>2015-03-12T12:59:06Z</time>
      </trkpt>
      <trkpt lat="45.8495" lon="6.43974">
        <ele>2176.56</ele>
        <time>2015-03-12T12:59:08Z</time>
      </trkpt>
      <trkpt lat="45.84948" lon="6.43963">
        <ele>2173.2</ele>
        <time>2015-03-12T12:59:10Z</time>
      </trkpt>
      <trkpt lat="45.84944" lon="6.43949">
        <ele>2167.43</ele>
        <time>2015-03-12T12:59:12Z</time>
      </trkpt>
      <trkpt lat="45.84943" lon="6.4393">
        <ele>2161.18</ele>
        <time>2015-03-12T12:59:17Z</time>
      </trkpt>
      <trkpt lat="45.84945" lon="6.4393">
        <ele>2161.18</ele>
        <time>2015-03-12T12:59:22Z</time>
      </trkpt>
      <trkpt lat="45.84943" lon="6.43923">
        <ele>2156.37</ele>
        <time>2015-03-12T12:59:26Z</time>
      </trkpt>
      <trkpt lat="45.84943" lon="6.43919">
        <ele>2154.93</ele>
        <time>2015-03-12T12:59:31Z</time>
      </trkpt>
      <trkpt lat="45.84949" lon="6.43917">
        <ele>2151.57</ele>
        <time>2015-03-12T12:59:42Z</time>
      </trkpt>
      <trkpt lat="45.84951" lon="6.43918">
        <ele>2151.09</ele>
        <time>2015-03-12T12:59:45Z</time>
      </trkpt>
      <trkpt lat="45.84956" lon="6.43914">
        <ele>2147.24</ele>
        <time>2015-03-12T12:59:48Z</time>
      </trkpt>
      <trkpt lat="45.84958" lon="6.43909">
        <ele>2145.32</ele>
        <time>2015-03-12T12:59:50Z</time>
      </trkpt>
      <trkpt lat="45.84957" lon="6.43904">
        <ele>2141.95</ele>
        <time>2015-03-12T12:59:52Z</time>
      </trkpt>
      <trkpt lat="45.84959" lon="6.43898">
        <ele>2138.11</ele>
        <time>2015-03-12T12:59:54Z</time>
      </trkpt>
      <trkpt lat="45.84964" lon="6.43892">
        <ele>2133.3</ele>
        <time>2015-03-12T12:59:58Z</time>
      </trkpt>
      <trkpt lat="45.84964" lon="6.43884">
        <ele>2128.02</ele>
        <time>2015-03-12T13:00:01Z</time>
      </trkpt>
      <trkpt lat="45.84964" lon="6.43882">
        <ele>2127.05</ele>
        <time>2015-03-12T13:00:02Z</time>
      </trkpt>
      <trkpt lat="45.84964" lon="6.43878">
        <ele>2124.17</ele>
        <time>2015-03-12T13:00:08Z</time>
      </trkpt>
      <trkpt lat="45.84968" lon="6.43876">
        <ele>2120.81</ele>
        <time>2015-03-12T13:00:14Z</time>
      </trkpt>
      <trkpt lat="45.84972" lon="6.43877">
        <ele>2116.96</ele>
        <time>2015-03-12T13:00:19Z</time>
      </trkpt>
      <trkpt lat="45.84973" lon="6.43876">
        <ele>2116</ele>
        <time>2015-03-12T13:00:21Z</time>
      </trkpt>
      <trkpt lat="45.84974" lon="6.4387">
        <ele>2112.63</ele>
        <time>2015-03-12T13:00:25Z</time>
      </trkpt>
      <trkpt lat="45.84973" lon="6.43865">
        <ele>2109.27</ele>
        <time>2015-03-12T13:00:27Z</time>
      </trkpt>
      <trkpt lat="45.84972" lon="6.43862">
        <ele>2109.27</ele>
        <time>2015-03-12T13:00:28Z</time>
      </trkpt>
      <trkpt lat="45.84971" lon="6.43859">
        <ele>2105.91</ele>
        <time>2015-03-12T13:00:30Z</time>
      </trkpt>
      <trkpt lat="45.8497" lon="6.43857">
        <ele>2105.91</ele>
        <time>2015-03-12T13:00:31Z</time>
      </trkpt>
      <trkpt lat="45.84969" lon="6.43853">
        <ele>2103.5</ele>
        <time>2015-03-12T13:00:35Z</time>
      </trkpt>
      <trkpt lat="45.84965" lon="6.43855">
        <ele>2101.1</ele>
        <time>2015-03-12T13:00:42Z</time>
      </trkpt>
      <trkpt lat="45.84963" lon="6.43846">
        <ele>2096.77</ele>
        <time>2015-03-12T13:00:46Z</time>
      </trkpt>
      <trkpt lat="45.84968" lon="6.4384">
        <ele>2091.49</ele>
        <time>2015-03-12T13:00:49Z</time>
      </trkpt>
      <trkpt lat="45.84969" lon="6.43838">
        <ele>2090.04</ele>
        <time>2015-03-12T13:00:50Z</time>
      </trkpt>
      <trkpt lat="45.84977" lon="6.43836">
        <ele>2081.87</ele>
        <time>2015-03-12T13:00:55Z</time>
      </trkpt>
      <trkpt lat="45.84981" lon="6.43831">
        <ele>2078.03</ele>
        <time>2015-03-12T13:00:57Z</time>
      </trkpt>
      <trkpt lat="45.84991" lon="6.4382">
        <ele>2070.34</ele>
        <time>2015-03-12T13:01:00Z</time>
      </trkpt>
      <trkpt lat="45.84993" lon="6.43819">
        <ele>2070.34</ele>
        <time>2015-03-12T13:01:01Z</time>
      </trkpt>
      <trkpt lat="45.84999" lon="6.43818">
        <ele>2065.53</ele>
        <time>2015-03-12T13:01:04Z</time>
      </trkpt>
      <trkpt lat="45.85" lon="6.43815">
        <ele>2065.53</ele>
        <time>2015-03-12T13:01:05Z</time>
      </trkpt>
      <trkpt lat="45.85009" lon="6.43819">
        <ele>2065.05</ele>
        <time>2015-03-12T13:01:22Z</time>
      </trkpt>
      <trkpt lat="45.85003" lon="6.43818">
        <ele>2064.09</ele>
        <time>2015-03-12T13:01:49Z</time>
      </trkpt>
      <trkpt lat="45.85004" lon="6.43816">
        <ele>2064.09</ele>
        <time>2015-03-12T13:02:15Z</time>
      </trkpt>
      <trkpt lat="45.84998" lon="6.4381">
        <ele>2063.61</ele>
        <time>2015-03-12T13:02:46Z</time>
      </trkpt>
      <trkpt lat="45.85001" lon="6.43807">
        <ele>2063.61</ele>
        <time>2015-03-12T13:03:12Z</time>
      </trkpt>
      <trkpt lat="45.85001" lon="6.4381">
        <ele>2063.61</ele>
        <time>2015-03-12T13:03:37Z</time>
      </trkpt>
      <trkpt lat="45.84995" lon="6.43814">
        <ele>2063.13</ele>
        <time>2015-03-12T13:04:06Z</time>
      </trkpt>
      <trkpt lat="45.85003" lon="6.43813">
        <ele>2063.13</ele>
        <time>2015-03-12T13:04:33Z</time>
      </trkpt>
      <trkpt lat="45.85007" lon="6.43812">
        <ele>2059.76</ele>
        <time>2015-03-12T13:04:36Z</time>
      </trkpt>
      <trkpt lat="45.85008" lon="6.4381">
        <ele>2058.32</ele>
        <time>2015-03-12T13:04:38Z</time>
      </trkpt>
      <trkpt lat="45.85013" lon="6.43806">
        <ele>2054.96</ele>
        <time>2015-03-12T13:04:43Z</time>
      </trkpt>
      <trkpt lat="45.85019" lon="6.43808">
        <ele>2052.07</ele>
        <time>2015-03-12T13:04:59Z</time>
      </trkpt>
      <trkpt lat="45.85022" lon="6.43806">
        <ele>2048.71</ele>
        <time>2015-03-12T13:05:10Z</time>
      </trkpt>
      <trkpt lat="45.85023" lon="6.43802">
        <ele>2048.23</ele>
        <time>2015-03-12T13:05:32Z</time>
      </trkpt>
      <trkpt lat="45.85028" lon="6.43806">
        <ele>2047.75</ele>
        <time>2015-03-12T13:05:59Z</time>
      </trkpt>
      <trkpt lat="45.8503" lon="6.43808">
        <ele>2046.78</ele>
        <time>2015-03-12T13:06:02Z</time>
      </trkpt>
      <trkpt lat="45.85034" lon="6.43804">
        <ele>2043.42</ele>
        <time>2015-03-12T13:06:16Z</time>
      </trkpt>
      <trkpt lat="45.85036" lon="6.43803">
        <ele>2041.5</ele>
        <time>2015-03-12T13:06:20Z</time>
      </trkpt>
      <trkpt lat="45.85039" lon="6.43805">
        <ele>2039.57</ele>
        <time>2015-03-12T13:06:24Z</time>
      </trkpt>
      <trkpt lat="45.85043" lon="6.43807">
        <ele>2037.17</ele>
        <time>2015-03-12T13:06:27Z</time>
      </trkpt>
      <trkpt lat="45.85047" lon="6.4381">
        <ele>2034.29</ele>
        <time>2015-03-12T13:06:30Z</time>
      </trkpt>
      <trkpt lat="45.85049" lon="6.43811">
        <ele>2034.29</ele>
        <time>2015-03-12T13:06:31Z</time>
      </trkpt>
      <trkpt lat="45.8505" lon="6.43813">
        <ele>2032.36</ele>
        <time>2015-03-12T13:06:32Z</time>
      </trkpt>
      <trkpt lat="45.85057" lon="6.43817">
        <ele>2029.48</ele>
        <time>2015-03-12T13:06:37Z</time>
      </trkpt>
      <trkpt lat="45.8506" lon="6.43818">
        <ele>2026.12</ele>
        <time>2015-03-12T13:06:40Z</time>
      </trkpt>
      <trkpt lat="45.85065" lon="6.43819">
        <ele>2025.64</ele>
        <time>2015-03-12T13:06:45Z</time>
      </trkpt>
      <trkpt lat="45.85068" lon="6.43809">
        <ele>2023.71</ele>
        <time>2015-03-12T13:06:49Z</time>
      </trkpt>
      <trkpt lat="45.85067" lon="6.438">
        <ele>2023.23</ele>
        <time>2015-03-12T13:06:50Z</time>
      </trkpt>
      <trkpt lat="45.85069" lon="6.43794">
        <ele>2021.31</ele>
        <time>2015-03-12T13:06:53Z</time>
      </trkpt>
      <trkpt lat="45.85075" lon="6.43787">
        <ele>2016.98</ele>
        <time>2015-03-12T13:06:57Z</time>
      </trkpt>
      <trkpt lat="45.85076" lon="6.43786">
        <ele>2016.98</ele>
        <time>2015-03-12T13:06:58Z</time>
      </trkpt>
      <trkpt lat="45.85083" lon="6.43779">
        <ele>2012.66</ele>
        <time>2015-03-12T13:07:02Z</time>
      </trkpt>
      <trkpt lat="45.85088" lon="6.43777">
        <ele>2009.77</ele>
        <time>2015-03-12T13:07:04Z</time>
      </trkpt>
      <trkpt lat="45.85094" lon="6.43775">
        <ele>2005.93</ele>
        <time>2015-03-12T13:07:06Z</time>
      </trkpt>
      <trkpt lat="45.85096" lon="6.43774">
        <ele>2005.93</ele>
        <time>2015-03-12T13:07:07Z</time>
      </trkpt>
      <trkpt lat="45.85099" lon="6.43769">
        <ele>2004.97</ele>
        <time>2015-03-12T13:07:11Z</time>
      </trkpt>
      <trkpt lat="45.85105" lon="6.43765">
        <ele>2001.12</ele>
        <time>2015-03-12T13:07:15Z</time>
      </trkpt>
      <trkpt lat="45.85105" lon="6.43761">
        <ele>2000.16</ele>
        <time>2015-03-12T13:07:17Z</time>
      </trkpt>
      <trkpt lat="45.85111" lon="6.43759">
        <ele>1995.83</ele>
        <time>2015-03-12T13:07:21Z</time>
      </trkpt>
      <trkpt lat="45.85112" lon="6.43759">
        <ele>1995.83</ele>
        <time>2015-03-12T13:07:22Z</time>
      </trkpt>
      <trkpt lat="45.85117" lon="6.43759">
        <ele>1991.99</ele>
        <time>2015-03-12T13:07:25Z</time>
      </trkpt>
      <trkpt lat="45.85125" lon="6.43763">
        <ele>1987.18</ele>
        <time>2015-03-12T13:07:28Z</time>
      </trkpt>
      <trkpt lat="45.85131" lon="6.43762">
        <ele>1981.9</ele>
        <time>2015-03-12T13:07:30Z</time>
      </trkpt>
      <trkpt lat="45.85139" lon="6.43762">
        <ele>1977.57</ele>
        <time>2015-03-12T13:07:32Z</time>
      </trkpt>
      <trkpt lat="45.85151" lon="6.4376">
        <ele>1974.2</ele>
        <time>2015-03-12T13:07:36Z</time>
      </trkpt>
      <trkpt lat="45.85143" lon="6.43774">
        <ele>1974.69</ele>
        <time>2015-03-12T13:07:52Z</time>
      </trkpt>
      <trkpt lat="45.85122" lon="6.43737">
        <ele>1975.65</ele>
        <time>2015-03-12T13:08:14Z</time>
      </trkpt>
      <trkpt lat="45.85118" lon="6.43724">
        <ele>1974.69</ele>
        <time>2015-03-12T13:08:26Z</time>
      </trkpt>
      <trkpt lat="45.85126" lon="6.43717">
        <ele>1969.88</ele>
        <time>2015-03-12T13:08:29Z</time>
      </trkpt>
      <trkpt lat="45.85135" lon="6.43714">
        <ele>1965.55</ele>
        <time>2015-03-12T13:08:31Z</time>
      </trkpt>
      <trkpt lat="45.85145" lon="6.43713">
        <ele>1959.78</ele>
        <time>2015-03-12T13:08:33Z</time>
      </trkpt>
      <trkpt lat="45.85148" lon="6.43709">
        <ele>1956.9</ele>
        <time>2015-03-12T13:08:34Z</time>
      </trkpt>
      <trkpt lat="45.85157" lon="6.43701">
        <ele>1948.25</ele>
        <time>2015-03-12T13:08:37Z</time>
      </trkpt>
      <trkpt lat="45.8516" lon="6.43701">
        <ele>1945.85</ele>
        <time>2015-03-12T13:08:38Z</time>
      </trkpt>
      <trkpt lat="45.85163" lon="6.43689">
        <ele>1939.12</ele>
        <time>2015-03-12T13:08:40Z</time>
      </trkpt>
      <trkpt lat="45.85168" lon="6.43688">
        <ele>1935.27</ele>
        <time>2015-03-12T13:08:41Z</time>
      </trkpt>
      <trkpt lat="45.85173" lon="6.43686">
        <ele>1931.43</ele>
        <time>2015-03-12T13:08:42Z</time>
      </trkpt>
      <trkpt lat="45.85177" lon="6.43681">
        <ele>1927.1</ele>
        <time>2015-03-12T13:08:43Z</time>
      </trkpt>
      <trkpt lat="45.85181" lon="6.4368">
        <ele>1922.77</ele>
        <time>2015-03-12T13:08:44Z</time>
      </trkpt>
      <trkpt lat="45.85191" lon="6.43683">
        <ele>1917.49</ele>
        <time>2015-03-12T13:08:46Z</time>
      </trkpt>
      <trkpt lat="45.85195" lon="6.43681">
        <ele>1913.64</ele>
        <time>2015-03-12T13:08:47Z</time>
      </trkpt>
      <trkpt lat="45.85196" lon="6.43663">
        <ele>1902.59</ele>
        <time>2015-03-12T13:08:51Z</time>
      </trkpt>
      <trkpt lat="45.85198" lon="6.43657">
        <ele>1899.22</ele>
        <time>2015-03-12T13:08:52Z</time>
      </trkpt>
      <trkpt lat="45.85202" lon="6.43648">
        <ele>1893.93</ele>
        <time>2015-03-12T13:08:54Z</time>
      </trkpt>
      <trkpt lat="45.85202" lon="6.43639">
        <ele>1890.09</ele>
        <time>2015-03-12T13:08:56Z</time>
      </trkpt>
      <trkpt lat="45.85203" lon="6.43636">
        <ele>1888.17</ele>
        <time>2015-03-12T13:08:57Z</time>
      </trkpt>
      <trkpt lat="45.85205" lon="6.43636">
        <ele>1884.32</ele>
        <time>2015-03-12T13:08:59Z</time>
      </trkpt>
      <trkpt lat="45.85203" lon="6.4364">
        <ele>1880.96</ele>
        <time>2015-03-12T13:09:03Z</time>
      </trkpt>
      <trkpt lat="45.85204" lon="6.43646">
        <ele>1880.48</ele>
        <time>2015-03-12T13:09:05Z</time>
      </trkpt>
      <trkpt lat="45.85204" lon="6.43674">
        <ele>1879.51</ele>
        <time>2015-03-12T13:09:19Z</time>
      </trkpt>
      <trkpt lat="45.85206" lon="6.43681">
        <ele>1879.51</ele>
        <time>2015-03-12T13:09:37Z</time>
      </trkpt>
      <trkpt lat="45.85209" lon="6.43684">
        <ele>1879.51</ele>
        <time>2015-03-12T13:09:59Z</time>
      </trkpt>
      <trkpt lat="45.85207" lon="6.43683">
        <ele>1879.03</ele>
        <time>2015-03-12T13:10:31Z</time>
      </trkpt>
      <trkpt lat="45.85206" lon="6.43683">
        <ele>1879.03</ele>
        <time>2015-03-12T13:10:59Z</time>
      </trkpt>
      <trkpt lat="45.85207" lon="6.43685">
        <ele>1879.03</ele>
        <time>2015-03-12T13:11:25Z</time>
      </trkpt>
      <trkpt lat="45.85209" lon="6.43686">
        <ele>1879.03</ele>
        <time>2015-03-12T13:11:46Z</time>
      </trkpt>
      <trkpt lat="45.85209" lon="6.43691">
        <ele>1879.03</ele>
        <time>2015-03-12T13:12:12Z</time>
      </trkpt>
      <trkpt lat="45.85211" lon="6.43692">
        <ele>1879.03</ele>
        <time>2015-03-12T13:12:40Z</time>
      </trkpt>
      <trkpt lat="45.85211" lon="6.43688">
        <ele>1879.51</ele>
        <time>2015-03-12T13:13:12Z</time>
      </trkpt>
      <trkpt lat="45.85209" lon="6.43698">
        <ele>1879.51</ele>
        <time>2015-03-12T13:13:47Z</time>
      </trkpt>
      <trkpt lat="45.8521" lon="6.43701">
        <ele>1880</ele>
        <time>2015-03-12T13:14:15Z</time>
      </trkpt>
      <trkpt lat="45.85211" lon="6.43703">
        <ele>1880</ele>
        <time>2015-03-12T13:14:37Z</time>
      </trkpt>
      <trkpt lat="45.85213" lon="6.43712">
        <ele>1878.07</ele>
        <time>2015-03-12T13:14:41Z</time>
      </trkpt>
      <trkpt lat="45.85209" lon="6.43712">
        <ele>1876.63</ele>
        <time>2015-03-12T13:14:43Z</time>
      </trkpt>
      <trkpt lat="45.85218" lon="6.43703">
        <ele>1870.86</ele>
        <time>2015-03-12T13:14:46Z</time>
      </trkpt>
      <trkpt lat="45.85228" lon="6.43695">
        <ele>1865.58</ele>
        <time>2015-03-12T13:14:48Z</time>
      </trkpt>
      <trkpt lat="45.85246" lon="6.43685">
        <ele>1855.48</ele>
        <time>2015-03-12T13:14:51Z</time>
      </trkpt>
      <trkpt lat="45.85253" lon="6.43684">
        <ele>1851.16</ele>
        <time>2015-03-12T13:14:52Z</time>
      </trkpt>
      <trkpt lat="45.8526" lon="6.43684">
        <ele>1847.79</ele>
        <time>2015-03-12T13:14:53Z</time>
      </trkpt>
      <trkpt lat="45.85264" lon="6.43679">
        <ele>1843.47</ele>
        <time>2015-03-12T13:14:54Z</time>
      </trkpt>
      <trkpt lat="45.85265" lon="6.43672">
        <ele>1840.58</ele>
        <time>2015-03-12T13:14:55Z</time>
      </trkpt>
      <trkpt lat="45.85269" lon="6.4367">
        <ele>1836.74</ele>
        <time>2015-03-12T13:14:56Z</time>
      </trkpt>
      <trkpt lat="45.85275" lon="6.43668">
        <ele>1832.41</ele>
        <time>2015-03-12T13:14:58Z</time>
      </trkpt>
      <trkpt lat="45.85279" lon="6.43663">
        <ele>1828.08</ele>
        <time>2015-03-12T13:15:00Z</time>
      </trkpt>
      <trkpt lat="45.85284" lon="6.43665">
        <ele>1826.16</ele>
        <time>2015-03-12T13:15:02Z</time>
      </trkpt>
      <trkpt lat="45.85293" lon="6.43669">
        <ele>1821.84</ele>
        <time>2015-03-12T13:15:05Z</time>
      </trkpt>
      <trkpt lat="45.85298" lon="6.43663">
        <ele>1817.99</ele>
        <time>2015-03-12T13:15:07Z</time>
      </trkpt>
      <trkpt lat="45.853" lon="6.43651">
        <ele>1814.15</ele>
        <time>2015-03-12T13:15:09Z</time>
      </trkpt>
      <trkpt lat="45.8531" lon="6.43647">
        <ele>1808.38</ele>
        <time>2015-03-12T13:15:11Z</time>
      </trkpt>
      <trkpt lat="45.85318" lon="6.43652">
        <ele>1803.57</ele>
        <time>2015-03-12T13:15:13Z</time>
      </trkpt>
      <trkpt lat="45.85321" lon="6.43643">
        <ele>1797.8</ele>
        <time>2015-03-12T13:15:16Z</time>
      </trkpt>
      <trkpt lat="45.85323" lon="6.43633">
        <ele>1792.03</ele>
        <time>2015-03-12T13:15:19Z</time>
      </trkpt>
      <trkpt lat="45.85327" lon="6.43635">
        <ele>1790.59</ele>
        <time>2015-03-12T13:15:20Z</time>
      </trkpt>
      <trkpt lat="45.85334" lon="6.43633">
        <ele>1785.31</ele>
        <time>2015-03-12T13:15:23Z</time>
      </trkpt>
      <trkpt lat="45.8533" lon="6.43623">
        <ele>1781.94</ele>
        <time>2015-03-12T13:15:25Z</time>
      </trkpt>
      <trkpt lat="45.85329" lon="6.43618">
        <ele>1780.98</ele>
        <time>2015-03-12T13:15:26Z</time>
      </trkpt>
      <trkpt lat="45.85336" lon="6.43616">
        <ele>1776.17</ele>
        <time>2015-03-12T13:15:28Z</time>
      </trkpt>
      <trkpt lat="45.85342" lon="6.4362">
        <ele>1772.81</ele>
        <time>2015-03-12T13:15:30Z</time>
      </trkpt>
      <trkpt lat="45.85343" lon="6.43614">
        <ele>1768.96</ele>
        <time>2015-03-12T13:15:32Z</time>
      </trkpt>
      <trkpt lat="45.85347" lon="6.436">
        <ele>1762.71</ele>
        <time>2015-03-12T13:15:35Z</time>
      </trkpt>
      <trkpt lat="45.85351" lon="6.43599">
        <ele>1759.35</ele>
        <time>2015-03-12T13:15:36Z</time>
      </trkpt>
      <trkpt lat="45.85352" lon="6.43595">
        <ele>1755.99</ele>
        <time>2015-03-12T13:15:38Z</time>
      </trkpt>
      <trkpt lat="45.85344" lon="6.4359">
        <ele>1755.5</ele>
        <time>2015-03-12T13:15:51Z</time>
      </trkpt>
      <trkpt lat="45.8534" lon="6.4359">
        <ele>1755.5</ele>
        <time>2015-03-12T13:16:17Z</time>
      </trkpt>
      <trkpt lat="45.85342" lon="6.43587">
        <ele>1754.54</ele>
        <time>2015-03-12T13:16:38Z</time>
      </trkpt>
      <trkpt lat="45.8535" lon="6.43582">
        <ele>1750.7</ele>
        <time>2015-03-12T13:16:41Z</time>
      </trkpt>
      <trkpt lat="45.85361" lon="6.43583">
        <ele>1746.37</ele>
        <time>2015-03-12T13:16:43Z</time>
      </trkpt>
      <trkpt lat="45.85373" lon="6.43575">
        <ele>1740.6</ele>
        <time>2015-03-12T13:16:46Z</time>
      </trkpt>
      <trkpt lat="45.85375" lon="6.43566">
        <ele>1736.76</ele>
        <time>2015-03-12T13:16:47Z</time>
      </trkpt>
      <trkpt lat="45.85381" lon="6.4356">
        <ele>1732.43</ele>
        <time>2015-03-12T13:16:48Z</time>
      </trkpt>
      <trkpt lat="45.85388" lon="6.43558">
        <ele>1728.11</ele>
        <time>2015-03-12T13:16:49Z</time>
      </trkpt>
      <trkpt lat="45.85399" lon="6.43562">
        <ele>1724.26</ele>
        <time>2015-03-12T13:16:51Z</time>
      </trkpt>
      <trkpt lat="45.85405" lon="6.43553">
        <ele>1719.94</ele>
        <time>2015-03-12T13:16:53Z</time>
      </trkpt>
      <trkpt lat="45.85407" lon="6.43546">
        <ele>1717.05</ele>
        <time>2015-03-12T13:16:54Z</time>
      </trkpt>
      <trkpt lat="45.85414" lon="6.43534">
        <ele>1710.8</ele>
        <time>2015-03-12T13:16:56Z</time>
      </trkpt>
      <trkpt lat="45.85415" lon="6.43526">
        <ele>1706.96</ele>
        <time>2015-03-12T13:16:57Z</time>
      </trkpt>
      <trkpt lat="45.85413" lon="6.43518">
        <ele>1703.59</ele>
        <time>2015-03-12T13:16:58Z</time>
      </trkpt>
      <trkpt lat="45.85416" lon="6.43505">
        <ele>1698.79</ele>
        <time>2015-03-12T13:17:00Z</time>
      </trkpt>
      <trkpt lat="45.85426" lon="6.43502">
        <ele>1694.46</ele>
        <time>2015-03-12T13:17:02Z</time>
      </trkpt>
      <trkpt lat="45.85426" lon="6.43489">
        <ele>1688.69</ele>
        <time>2015-03-12T13:17:04Z</time>
      </trkpt>
      <trkpt lat="45.85435" lon="6.43473">
        <ele>1681.48</ele>
        <time>2015-03-12T13:17:08Z</time>
      </trkpt>
      <trkpt lat="45.8545" lon="6.4348">
        <ele>1677.64</ele>
        <time>2015-03-12T13:17:10Z</time>
      </trkpt>
      <trkpt lat="45.85477" lon="6.435">
        <ele>1673.31</ele>
        <time>2015-03-12T13:17:14Z</time>
      </trkpt>
      <trkpt lat="45.85489" lon="6.43513">
        <ele>1671.39</ele>
        <time>2015-03-12T13:17:16Z</time>
      </trkpt>
      <trkpt lat="45.85504" lon="6.43508">
        <ele>1668.02</ele>
        <time>2015-03-12T13:17:19Z</time>
      </trkpt>
      <trkpt lat="45.85512" lon="6.43488">
        <ele>1662.26</ele>
        <time>2015-03-12T13:17:21Z</time>
      </trkpt>
      <trkpt lat="45.85523" lon="6.43481">
        <ele>1660.81</ele>
        <time>2015-03-12T13:17:23Z</time>
      </trkpt>
      <trkpt lat="45.85533" lon="6.4348">
        <ele>1657.45</ele>
        <time>2015-03-12T13:17:25Z</time>
      </trkpt>
      <trkpt lat="45.85537" lon="6.43475">
        <ele>1657.45</ele>
        <time>2015-03-12T13:17:26Z</time>
      </trkpt>
      <trkpt lat="45.85548" lon="6.43458">
        <ele>1656.97</ele>
        <time>2015-03-12T13:17:34Z</time>
      </trkpt>
      <trkpt lat="45.85548" lon="6.43458">
        <ele>1656.97</ele>
        <time>2015-03-12T13:17:35Z</time>
      </trkpt>
      <trkpt lat="45.85552" lon="6.43478">
        <ele>1651.68</ele>
        <time>2015-03-12T13:17:39Z</time>
      </trkpt>
      <trkpt lat="45.8556" lon="6.43499">
        <ele>1648.32</ele>
        <time>2015-03-12T13:17:41Z</time>
      </trkpt>
      <trkpt lat="45.85564" lon="6.43507">
        <ele>1648.32</ele>
        <time>2015-03-12T13:17:42Z</time>
      </trkpt>
      <trkpt lat="45.85569" lon="6.43515">
        <ele>1651.68</ele>
        <time>2015-03-12T13:17:44Z</time>
      </trkpt>
      <trkpt lat="45.85576" lon="6.43523">
        <ele>1653.12</ele>
        <time>2015-03-12T13:17:58Z</time>
      </trkpt>
      <trkpt lat="45.85579" lon="6.43525">
        <ele>1653.6</ele>
        <time>2015-03-12T13:18:22Z</time>
      </trkpt>
      <trkpt lat="45.85575" lon="6.43525">
        <ele>1653.12</ele>
        <time>2015-03-12T13:18:47Z</time>
      </trkpt>
      <trkpt lat="45.85576" lon="6.43528">
        <ele>1653.12</ele>
        <time>2015-03-12T13:18:58Z</time>
      </trkpt>
      <trkpt lat="45.85577" lon="6.43528">
        <ele>1651.68</ele>
        <time>2015-03-12T13:19:02Z</time>
      </trkpt>
      <trkpt lat="45.85577" lon="6.43528">
        <ele>1654.09</ele>
        <time>2015-03-12T13:19:05Z</time>
      </trkpt>
      <trkpt lat="45.85578" lon="6.43526">
        <ele>1652.16</ele>
        <time>2015-03-12T13:19:12Z</time>
      </trkpt>
      <trkpt lat="45.85576" lon="6.43526">
        <ele>1653.12</ele>
        <time>2015-03-12T13:19:37Z</time>
      </trkpt>
      <trkpt lat="45.85576" lon="6.43527">
        <ele>1653.6</ele>
        <time>2015-03-12T13:19:48Z</time>
      </trkpt>
      <trkpt lat="45.85577" lon="6.43527">
        <ele>1653.6</ele>
        <time>2015-03-12T13:20:21Z</time>
      </trkpt>
      <trkpt lat="45.85577" lon="6.43527">
        <ele>1653.6</ele>
        <time>2015-03-12T13:20:48Z</time>
      </trkpt>
      <trkpt lat="45.85577" lon="6.43526">
        <ele>1653.6</ele>
        <time>2015-03-12T13:21:18Z</time>
      </trkpt>
      <trkpt lat="45.85577" lon="6.43528">
        <ele>1653.6</ele>
        <time>2015-03-12T13:21:43Z</time>
      </trkpt>
      <trkpt lat="45.85577" lon="6.43528">
        <ele>1653.6</ele>
        <time>2015-03-12T13:22:14Z</time>
      </trkpt>
      <trkpt lat="45.85578" lon="6.43527">
        <ele>1653.6</ele>
        <time>2015-03-12T13:22:44Z</time>
      </trkpt>
      <trkpt lat="45.85579" lon="6.43526">
        <ele>1653.6</ele>
        <time>2015-03-12T13:23:02Z</time>
      </trkpt>
      <trkpt lat="45.85578" lon="6.43525">
        <ele>1653.12</ele>
        <time>2015-03-12T13:23:23Z</time>
      </trkpt>
      <trkpt lat="45.85578" lon="6.43525">
        <ele>1653.12</ele>
        <time>2015-03-12T13:23:24Z</time>
      </trkpt>
      <trkpt lat="45.85578" lon="6.43525">
        <ele>1653.6</ele>
        <time>2015-03-12T13:23:35Z</time>
      </trkpt>
      <trkpt lat="45.85577" lon="6.43525">
        <ele>1654.09</ele>
        <time>2015-03-12T13:23:46Z</time>
      </trkpt>
      <trkpt lat="45.85576" lon="6.43523">
        <ele>1654.09</ele>
        <time>2015-03-12T13:24:14Z</time>
      </trkpt>
      <trkpt lat="45.85576" lon="6.43526">
        <ele>1654.09</ele>
        <time>2015-03-12T13:24:37Z</time>
      </trkpt>
      <trkpt lat="45.85586" lon="6.43535">
        <ele>1655.05</ele>
        <time>2015-03-12T13:24:51Z</time>
      </trkpt>
      <trkpt lat="45.85588" lon="6.4354">
        <ele>1654.57</ele>
        <time>2015-03-12T13:25:03Z</time>
      </trkpt>
      <trkpt lat="45.85589" lon="6.43541">
        <ele>1654.57</ele>
        <time>2015-03-12T13:25:42Z</time>
      </trkpt>
      <trkpt lat="45.85589" lon="6.43539">
        <ele>1654.57</ele>
        <time>2015-03-12T13:26:15Z</time>
      </trkpt>
      <trkpt lat="45.85589" lon="6.43538">
        <ele>1654.57</ele>
        <time>2015-03-12T13:26:40Z</time>
      </trkpt>
      <trkpt lat="45.85588" lon="6.43539">
        <ele>1654.57</ele>
        <time>2015-03-12T13:27:06Z</time>
      </trkpt>
      <trkpt lat="45.85589" lon="6.4354">
        <ele>1654.57</ele>
        <time>2015-03-12T13:27:45Z</time>
      </trkpt>
      <trkpt lat="45.85588" lon="6.4354">
        <ele>1654.09</ele>
        <time>2015-03-12T13:28:21Z</time>
      </trkpt>
      <trkpt lat="45.85588" lon="6.43539">
        <ele>1654.09</ele>
        <time>2015-03-12T13:28:52Z</time>
      </trkpt>
      <trkpt lat="45.85588" lon="6.4354">
        <ele>1654.09</ele>
        <time>2015-03-12T13:29:36Z</time>
      </trkpt>
      <trkpt lat="45.85588" lon="6.43541">
        <ele>1654.09</ele>
        <time>2015-03-12T13:30:19Z</time>
      </trkpt>
      <trkpt lat="45.85589" lon="6.4354">
        <ele>1653.6</ele>
        <time>2015-03-12T13:31:01Z</time>
      </trkpt>
      <trkpt lat="45.85589" lon="6.43538">
        <ele>1653.6</ele>
        <time>2015-03-12T13:31:47Z</time>
      </trkpt>
      <trkpt lat="45.8559" lon="6.43539">
        <ele>1653.6</ele>
        <time>2015-03-12T13:32:35Z</time>
      </trkpt>
      <trkpt lat="45.8559" lon="6.4354">
        <ele>1657.45</ele>
        <time>2015-03-12T13:32:51Z</time>
      </trkpt>
      <trkpt lat="45.85589" lon="6.43541">
        <ele>1655.05</ele>
        <time>2015-03-12T13:32:52Z</time>
      </trkpt>
      <trkpt lat="45.85589" lon="6.4354">
        <ele>1655.05</ele>
        <time>2015-03-12T13:33:02Z</time>
      </trkpt>
      <trkpt lat="45.85593" lon="6.43544">
        <ele>1656.49</ele>
        <time>2015-03-12T13:33:13Z</time>
      </trkpt>
      <trkpt lat="45.85597" lon="6.4355">
        <ele>1657.45</ele>
        <time>2015-03-12T13:33:20Z</time>
      </trkpt>
      <trkpt lat="45.85606" lon="6.43557">
        <ele>1658.89</ele>
        <time>2015-03-12T13:33:30Z</time>
      </trkpt>
      <trkpt lat="45.85618" lon="6.43562">
        <ele>1660.33</ele>
        <time>2015-03-12T13:33:43Z</time>
      </trkpt>
      <trkpt lat="45.85623" lon="6.43564">
        <ele>1661.3</ele>
        <time>2015-03-12T13:33:48Z</time>
      </trkpt>
      <trkpt lat="45.85634" lon="6.43571">
        <ele>1663.7</ele>
        <time>2015-03-12T13:34:02Z</time>
      </trkpt>
      <trkpt lat="45.85644" lon="6.43578">
        <ele>1666.1</ele>
        <time>2015-03-12T13:34:17Z</time>
      </trkpt>
      <trkpt lat="45.85647" lon="6.43588">
        <ele>1668.99</ele>
        <time>2015-03-12T13:34:29Z</time>
      </trkpt>
      <trkpt lat="45.85654" lon="6.43594">
        <ele>1671.39</ele>
        <time>2015-03-12T13:34:42Z</time>
      </trkpt>
      <trkpt lat="45.85661" lon="6.43603">
        <ele>1673.31</ele>
        <time>2015-03-12T13:34:55Z</time>
      </trkpt>
      <trkpt lat="45.85674" lon="6.43612">
        <ele>1675.23</ele>
        <time>2015-03-12T13:35:10Z</time>
      </trkpt>
      <trkpt lat="45.85675" lon="6.43613">
        <ele>1675.23</ele>
        <time>2015-03-12T13:35:11Z</time>
      </trkpt>
      <trkpt lat="45.85682" lon="6.43618">
        <ele>1673.79</ele>
        <time>2015-03-12T13:35:18Z</time>
      </trkpt>
      <trkpt lat="45.85684" lon="6.43619">
        <ele>1673.31</ele>
        <time>2015-03-12T13:35:20Z</time>
      </trkpt>
      <trkpt lat="45.85692" lon="6.43628">
        <ele>1671.87</ele>
        <time>2015-03-12T13:35:32Z</time>
      </trkpt>
      <trkpt lat="45.85698" lon="6.43631">
        <ele>1671.87</ele>
        <time>2015-03-12T13:35:43Z</time>
      </trkpt>
      <trkpt lat="45.857" lon="6.43634">
        <ele>1673.31</ele>
        <time>2015-03-12T13:35:47Z</time>
      </trkpt>
      <trkpt lat="45.85702" lon="6.43646">
        <ele>1676.68</ele>
        <time>2015-03-12T13:36:00Z</time>
      </trkpt>
      <trkpt lat="45.85702" lon="6.43648">
        <ele>1677.64</ele>
        <time>2015-03-12T13:36:02Z</time>
      </trkpt>
      <trkpt lat="45.85708" lon="6.43653">
        <ele>1680.52</ele>
        <time>2015-03-12T13:36:12Z</time>
      </trkpt>
      <trkpt lat="45.85708" lon="6.43654">
        <ele>1680.52</ele>
        <time>2015-03-12T13:36:13Z</time>
      </trkpt>
      <trkpt lat="45.85711" lon="6.43659">
        <ele>1682.93</ele>
        <time>2015-03-12T13:36:23Z</time>
      </trkpt>
      <trkpt lat="45.8571" lon="6.43666">
        <ele>1685.81</ele>
        <time>2015-03-12T13:36:35Z</time>
      </trkpt>
      <trkpt lat="45.8571" lon="6.43671">
        <ele>1688.21</ele>
        <time>2015-03-12T13:36:45Z</time>
      </trkpt>
      <trkpt lat="45.8571" lon="6.43672">
        <ele>1688.21</ele>
        <time>2015-03-12T13:36:57Z</time>
      </trkpt>
      <trkpt lat="45.85709" lon="6.43672">
        <ele>1688.69</ele>
        <time>2015-03-12T13:37:15Z</time>
      </trkpt>
      <trkpt lat="45.85707" lon="6.43676">
        <ele>1687.25</ele>
        <time>2015-03-12T13:37:37Z</time>
      </trkpt>
      <trkpt lat="45.85707" lon="6.43678">
        <ele>1688.69</ele>
        <time>2015-03-12T13:37:44Z</time>
      </trkpt>
      <trkpt lat="45.85711" lon="6.43674">
        <ele>1687.25</ele>
        <time>2015-03-12T13:38:04Z</time>
      </trkpt>
      <trkpt lat="45.8571" lon="6.43674">
        <ele>1688.69</ele>
        <time>2015-03-12T13:38:11Z</time>
      </trkpt>
      <trkpt lat="45.8571" lon="6.43674">
        <ele>1687.25</ele>
        <time>2015-03-12T13:38:24Z</time>
      </trkpt>
      <trkpt lat="45.85711" lon="6.43675">
        <ele>1687.25</ele>
        <time>2015-03-12T13:38:35Z</time>
      </trkpt>
      <trkpt lat="45.85712" lon="6.43674">
        <ele>1688.69</ele>
        <time>2015-03-12T13:38:40Z</time>
      </trkpt>
      <trkpt lat="45.85712" lon="6.43676">
        <ele>1687.25</ele>
        <time>2015-03-12T13:39:03Z</time>
      </trkpt>
      <trkpt lat="45.85711" lon="6.43676">
        <ele>1689.17</ele>
        <time>2015-03-12T13:39:15Z</time>
      </trkpt>
      <trkpt lat="45.85713" lon="6.4367">
        <ele>1687.73</ele>
        <time>2015-03-12T13:39:41Z</time>
      </trkpt>
      <trkpt lat="45.85714" lon="6.4367">
        <ele>1688.69</ele>
        <time>2015-03-12T13:39:49Z</time>
      </trkpt>
      <trkpt lat="45.85713" lon="6.4367">
        <ele>1687.25</ele>
        <time>2015-03-12T13:39:51Z</time>
      </trkpt>
      <trkpt lat="45.85712" lon="6.4367">
        <ele>1687.25</ele>
        <time>2015-03-12T13:40:05Z</time>
      </trkpt>
      <trkpt lat="45.85711" lon="6.43669">
        <ele>1688.21</ele>
        <time>2015-03-12T13:40:26Z</time>
      </trkpt>
      <trkpt lat="45.8571" lon="6.43668">
        <ele>1688.21</ele>
        <time>2015-03-12T13:40:45Z</time>
      </trkpt>
      <trkpt lat="45.85709" lon="6.43673">
        <ele>1688.21</ele>
        <time>2015-03-12T13:41:02Z</time>
      </trkpt>
      <trkpt lat="45.8571" lon="6.43677">
        <ele>1690.14</ele>
        <time>2015-03-12T13:41:05Z</time>
      </trkpt>
      <trkpt lat="45.85711" lon="6.43679">
        <ele>1690.62</ele>
        <time>2015-03-12T13:41:08Z</time>
      </trkpt>
      <trkpt lat="45.85712" lon="6.43682">
        <ele>1692.06</ele>
        <time>2015-03-12T13:41:19Z</time>
      </trkpt>
      <trkpt lat="45.85712" lon="6.43682">
        <ele>1693.02</ele>
        <time>2015-03-12T13:41:39Z</time>
      </trkpt>
      <trkpt lat="45.85712" lon="6.43684">
        <ele>1692.54</ele>
        <time>2015-03-12T13:41:55Z</time>
      </trkpt>
      <trkpt lat="45.85709" lon="6.43678">
        <ele>1693.02</ele>
        <time>2015-03-12T13:42:24Z</time>
      </trkpt>
      <trkpt lat="45.85708" lon="6.43676">
        <ele>1693.02</ele>
        <time>2015-03-12T13:42:42Z</time>
      </trkpt>
      <trkpt lat="45.85709" lon="6.43684">
        <ele>1694.94</ele>
        <time>2015-03-12T13:42:54Z</time>
      </trkpt>
      <trkpt lat="45.85708" lon="6.4369">
        <ele>1696.38</ele>
        <time>2015-03-12T13:43:02Z</time>
      </trkpt>
      <trkpt lat="45.85706" lon="6.43698">
        <ele>1698.31</ele>
        <time>2015-03-12T13:43:13Z</time>
      </trkpt>
      <trkpt lat="45.85709" lon="6.43713">
        <ele>1701.19</ele>
        <time>2015-03-12T13:43:27Z</time>
      </trkpt>
      <trkpt lat="45.85712" lon="6.43726">
        <ele>1703.11</ele>
        <time>2015-03-12T13:43:40Z</time>
      </trkpt>
      <trkpt lat="45.85711" lon="6.43733">
        <ele>1706</ele>
        <time>2015-03-12T13:43:51Z</time>
      </trkpt>
      <trkpt lat="45.85715" lon="6.43742">
        <ele>1707.92</ele>
        <time>2015-03-12T13:44:04Z</time>
      </trkpt>
      <trkpt lat="45.85717" lon="6.43747">
        <ele>1710.8</ele>
        <time>2015-03-12T13:44:16Z</time>
      </trkpt>
      <trkpt lat="45.85709" lon="6.43745">
        <ele>1713.21</ele>
        <time>2015-03-12T13:44:29Z</time>
      </trkpt>
      <trkpt lat="45.85709" lon="6.43752">
        <ele>1715.13</ele>
        <time>2015-03-12T13:44:40Z</time>
      </trkpt>
      <trkpt lat="45.85712" lon="6.43761">
        <ele>1717.53</ele>
        <time>2015-03-12T13:44:52Z</time>
      </trkpt>
      <trkpt lat="45.85715" lon="6.4377">
        <ele>1719.46</ele>
        <time>2015-03-12T13:45:03Z</time>
      </trkpt>
      <trkpt lat="45.85718" lon="6.43778">
        <ele>1721.86</ele>
        <time>2015-03-12T13:45:15Z</time>
      </trkpt>
      <trkpt lat="45.85721" lon="6.43785">
        <ele>1724.74</ele>
        <time>2015-03-12T13:45:27Z</time>
      </trkpt>
      <trkpt lat="45.85723" lon="6.4379">
        <ele>1726.67</ele>
        <time>2015-03-12T13:45:38Z</time>
      </trkpt>
      <trkpt lat="45.85729" lon="6.43796">
        <ele>1728.59</ele>
        <time>2015-03-12T13:45:50Z</time>
      </trkpt>
      <trkpt lat="45.85736" lon="6.43805">
        <ele>1730.99</ele>
        <time>2015-03-12T13:46:03Z</time>
      </trkpt>
      <trkpt lat="45.85743" lon="6.43804">
        <ele>1733.39</ele>
        <time>2015-03-12T13:46:16Z</time>
      </trkpt>
      <trkpt lat="45.8575" lon="6.43799">
        <ele>1736.28</ele>
        <time>2015-03-12T13:46:29Z</time>
      </trkpt>
      <trkpt lat="45.85757" lon="6.43793">
        <ele>1738.2</ele>
        <time>2015-03-12T13:46:43Z</time>
      </trkpt>
      <trkpt lat="45.85764" lon="6.43793">
        <ele>1741.08</ele>
        <time>2015-03-12T13:46:55Z</time>
      </trkpt>
      <trkpt lat="45.85768" lon="6.43803">
        <ele>1743.49</ele>
        <time>2015-03-12T13:47:10Z</time>
      </trkpt>
      <trkpt lat="45.85768" lon="6.43804">
        <ele>1743.97</ele>
        <time>2015-03-12T13:47:11Z</time>
      </trkpt>
      <trkpt lat="45.85771" lon="6.43811">
        <ele>1745.41</ele>
        <time>2015-03-12T13:47:22Z</time>
      </trkpt>
      <trkpt lat="45.85772" lon="6.43821">
        <ele>1747.81</ele>
        <time>2015-03-12T13:47:35Z</time>
      </trkpt>
      <trkpt lat="45.85772" lon="6.4383">
        <ele>1749.74</ele>
        <time>2015-03-12T13:47:46Z</time>
      </trkpt>
      <trkpt lat="45.85772" lon="6.43841">
        <ele>1751.18</ele>
        <time>2015-03-12T13:47:58Z</time>
      </trkpt>
      <trkpt lat="45.85771" lon="6.43851">
        <ele>1754.06</ele>
        <time>2015-03-12T13:48:09Z</time>
      </trkpt>
      <trkpt lat="45.85768" lon="6.43864">
        <ele>1755.99</ele>
        <time>2015-03-12T13:48:23Z</time>
      </trkpt>
      <trkpt lat="45.85766" lon="6.43876">
        <ele>1758.39</ele>
        <time>2015-03-12T13:48:36Z</time>
      </trkpt>
      <trkpt lat="45.85761" lon="6.43889">
        <ele>1760.79</ele>
        <time>2015-03-12T13:48:50Z</time>
      </trkpt>
      <trkpt lat="45.85755" lon="6.43894">
        <ele>1763.2</ele>
        <time>2015-03-12T13:49:02Z</time>
      </trkpt>
      <trkpt lat="45.85755" lon="6.43904">
        <ele>1765.6</ele>
        <time>2015-03-12T13:49:13Z</time>
      </trkpt>
      <trkpt lat="45.85758" lon="6.43912">
        <ele>1766.56</ele>
        <time>2015-03-12T13:49:21Z</time>
      </trkpt>
      <trkpt lat="45.85767" lon="6.43921">
        <ele>1768.96</ele>
        <time>2015-03-12T13:49:36Z</time>
      </trkpt>
      <trkpt lat="45.85766" lon="6.43926">
        <ele>1771.37</ele>
        <time>2015-03-12T13:49:47Z</time>
      </trkpt>
      <trkpt lat="45.85763" lon="6.43932">
        <ele>1773.77</ele>
        <time>2015-03-12T13:49:59Z</time>
      </trkpt>
      <trkpt lat="45.85767" lon="6.43939">
        <ele>1776.17</ele>
        <time>2015-03-12T13:50:11Z</time>
      </trkpt>
      <trkpt lat="45.85773" lon="6.43945">
        <ele>1778.1</ele>
        <time>2015-03-12T13:50:24Z</time>
      </trkpt>
      <trkpt lat="45.85778" lon="6.43945">
        <ele>1780.02</ele>
        <time>2015-03-12T13:50:34Z</time>
      </trkpt>
      <trkpt lat="45.85783" lon="6.43939">
        <ele>1781.46</ele>
        <time>2015-03-12T13:50:44Z</time>
      </trkpt>
      <trkpt lat="45.85789" lon="6.43932">
        <ele>1783.86</ele>
        <time>2015-03-12T13:50:57Z</time>
      </trkpt>
      <trkpt lat="45.85794" lon="6.43929">
        <ele>1784.82</ele>
        <time>2015-03-12T13:51:06Z</time>
      </trkpt>
      <trkpt lat="45.85799" lon="6.43924">
        <ele>1786.75</ele>
        <time>2015-03-12T13:51:18Z</time>
      </trkpt>
      <trkpt lat="45.858" lon="6.43926">
        <ele>1788.67</ele>
        <time>2015-03-12T13:51:27Z</time>
      </trkpt>
      <trkpt lat="45.858" lon="6.43937">
        <ele>1789.63</ele>
        <time>2015-03-12T13:51:41Z</time>
      </trkpt>
      <trkpt lat="45.85797" lon="6.43949">
        <ele>1791.07</ele>
        <time>2015-03-12T13:51:55Z</time>
      </trkpt>
      <trkpt lat="45.85797" lon="6.4395">
        <ele>1792.52</ele>
        <time>2015-03-12T13:51:59Z</time>
      </trkpt>
      <trkpt lat="45.85795" lon="6.43962">
        <ele>1793.96</ele>
        <time>2015-03-12T13:52:13Z</time>
      </trkpt>
      <trkpt lat="45.85794" lon="6.43974">
        <ele>1796.36</ele>
        <time>2015-03-12T13:52:28Z</time>
      </trkpt>
      <trkpt lat="45.8579" lon="6.43985">
        <ele>1799.24</ele>
        <time>2015-03-12T13:52:42Z</time>
      </trkpt>
      <trkpt lat="45.85788" lon="6.43994">
        <ele>1801.17</ele>
        <time>2015-03-12T13:52:53Z</time>
      </trkpt>
      <trkpt lat="45.85783" lon="6.43997">
        <ele>1803.09</ele>
        <time>2015-03-12T13:53:05Z</time>
      </trkpt>
      <trkpt lat="45.85777" lon="6.44">
        <ele>1805.97</ele>
        <time>2015-03-12T13:53:17Z</time>
      </trkpt>
      <trkpt lat="45.85778" lon="6.44005">
        <ele>1806.94</ele>
        <time>2015-03-12T13:53:27Z</time>
      </trkpt>
      <trkpt lat="45.85784" lon="6.44017">
        <ele>1809.34</ele>
        <time>2015-03-12T13:53:42Z</time>
      </trkpt>
      <trkpt lat="45.8579" lon="6.44023">
        <ele>1811.26</ele>
        <time>2015-03-12T13:53:56Z</time>
      </trkpt>
      <trkpt lat="45.85793" lon="6.44026">
        <ele>1813.18</ele>
        <time>2015-03-12T13:54:07Z</time>
      </trkpt>
      <trkpt lat="45.85783" lon="6.44027">
        <ele>1815.11</ele>
        <time>2015-03-12T13:54:22Z</time>
      </trkpt>
      <trkpt lat="45.85776" lon="6.44029">
        <ele>1817.99</ele>
        <time>2015-03-12T13:54:34Z</time>
      </trkpt>
      <trkpt lat="45.8577" lon="6.4403">
        <ele>1820.39</ele>
        <time>2015-03-12T13:54:47Z</time>
      </trkpt>
      <trkpt lat="45.85764" lon="6.44033">
        <ele>1822.8</ele>
        <time>2015-03-12T13:54:59Z</time>
      </trkpt>
      <trkpt lat="45.85757" lon="6.44033">
        <ele>1824.72</ele>
        <time>2015-03-12T13:55:11Z</time>
      </trkpt>
      <trkpt lat="45.85755" lon="6.44037">
        <ele>1826.64</ele>
        <time>2015-03-12T13:55:22Z</time>
      </trkpt>
      <trkpt lat="45.85754" lon="6.4405">
        <ele>1829.53</ele>
        <time>2015-03-12T13:55:36Z</time>
      </trkpt>
      <trkpt lat="45.85756" lon="6.4406">
        <ele>1831.45</ele>
        <time>2015-03-12T13:55:47Z</time>
      </trkpt>
      <trkpt lat="45.85759" lon="6.44071">
        <ele>1833.37</ele>
        <time>2015-03-12T13:56:00Z</time>
      </trkpt>
      <trkpt lat="45.85763" lon="6.44079">
        <ele>1836.26</ele>
        <time>2015-03-12T13:56:12Z</time>
      </trkpt>
      <trkpt lat="45.85759" lon="6.44085">
        <ele>1838.18</ele>
        <time>2015-03-12T13:56:24Z</time>
      </trkpt>
      <trkpt lat="45.85755" lon="6.44089">
        <ele>1840.1</ele>
        <time>2015-03-12T13:56:35Z</time>
      </trkpt>
      <trkpt lat="45.8575" lon="6.44096">
        <ele>1842.98</ele>
        <time>2015-03-12T13:56:48Z</time>
      </trkpt>
      <trkpt lat="45.8575" lon="6.44104">
        <ele>1844.91</ele>
        <time>2015-03-12T13:56:58Z</time>
      </trkpt>
      <trkpt lat="45.85758" lon="6.44116">
        <ele>1847.79</ele>
        <time>2015-03-12T13:57:11Z</time>
      </trkpt>
      <trkpt lat="45.85765" lon="6.44125">
        <ele>1849.23</ele>
        <time>2015-03-12T13:57:23Z</time>
      </trkpt>
      <trkpt lat="45.85774" lon="6.44131">
        <ele>1852.12</ele>
        <time>2015-03-12T13:57:38Z</time>
      </trkpt>
      <trkpt lat="45.85773" lon="6.44136">
        <ele>1854.52</ele>
        <time>2015-03-12T13:57:49Z</time>
      </trkpt>
      <trkpt lat="45.8577" lon="6.44145">
        <ele>1856.92</ele>
        <time>2015-03-12T13:58:02Z</time>
      </trkpt>
      <trkpt lat="45.85777" lon="6.44154">
        <ele>1858.85</ele>
        <time>2015-03-12T13:58:15Z</time>
      </trkpt>
      <trkpt lat="45.85783" lon="6.44162">
        <ele>1862.21</ele>
        <time>2015-03-12T13:58:28Z</time>
      </trkpt>
      <trkpt lat="45.8579" lon="6.44171">
        <ele>1864.13</ele>
        <time>2015-03-12T13:58:43Z</time>
      </trkpt>
      <trkpt lat="45.85795" lon="6.44181">
        <ele>1866.06</ele>
        <time>2015-03-12T13:58:56Z</time>
      </trkpt>
      <trkpt lat="45.85799" lon="6.4419">
        <ele>1867.5</ele>
        <time>2015-03-12T13:59:05Z</time>
      </trkpt>
      <trkpt lat="45.85803" lon="6.44196">
        <ele>1869.42</ele>
        <time>2015-03-12T13:59:17Z</time>
      </trkpt>
      <trkpt lat="45.85797" lon="6.44198">
        <ele>1871.82</ele>
        <time>2015-03-12T13:59:30Z</time>
      </trkpt>
      <trkpt lat="45.8579" lon="6.44203">
        <ele>1874.71</ele>
        <time>2015-03-12T13:59:43Z</time>
      </trkpt>
      <trkpt lat="45.85784" lon="6.44207">
        <ele>1876.15</ele>
        <time>2015-03-12T13:59:55Z</time>
      </trkpt>
      <trkpt lat="45.85783" lon="6.44208">
        <ele>1876.63</ele>
        <time>2015-03-12T13:59:57Z</time>
      </trkpt>
      <trkpt lat="45.85774" lon="6.44213">
        <ele>1879.03</ele>
        <time>2015-03-12T14:00:11Z</time>
      </trkpt>
      <trkpt lat="45.85773" lon="6.4422">
        <ele>1880.48</ele>
        <time>2015-03-12T14:00:21Z</time>
      </trkpt>
      <trkpt lat="45.85778" lon="6.44228">
        <ele>1882.88</ele>
        <time>2015-03-12T14:00:34Z</time>
      </trkpt>
      <trkpt lat="45.85784" lon="6.44232">
        <ele>1884.8</ele>
        <time>2015-03-12T14:00:46Z</time>
      </trkpt>
      <trkpt lat="45.85791" lon="6.4424">
        <ele>1886.72</ele>
        <time>2015-03-12T14:00:58Z</time>
      </trkpt>
      <trkpt lat="45.85798" lon="6.44244">
        <ele>1889.13</ele>
        <time>2015-03-12T14:01:10Z</time>
      </trkpt>
      <trkpt lat="45.85805" lon="6.44244">
        <ele>1890.57</ele>
        <time>2015-03-12T14:01:21Z</time>
      </trkpt>
      <trkpt lat="45.8581" lon="6.44246">
        <ele>1892.49</ele>
        <time>2015-03-12T14:01:33Z</time>
      </trkpt>
      <trkpt lat="45.85814" lon="6.44249">
        <ele>1894.42</ele>
        <time>2015-03-12T14:01:43Z</time>
      </trkpt>
      <trkpt lat="45.85814" lon="6.44252">
        <ele>1896.34</ele>
        <time>2015-03-12T14:01:56Z</time>
      </trkpt>
      <trkpt lat="45.85809" lon="6.4426">
        <ele>1898.26</ele>
        <time>2015-03-12T14:02:10Z</time>
      </trkpt>
      <trkpt lat="45.85807" lon="6.44263">
        <ele>1899.7</ele>
        <time>2015-03-12T14:02:16Z</time>
      </trkpt>
      <trkpt lat="45.85799" lon="6.44274">
        <ele>1901.63</ele>
        <time>2015-03-12T14:02:31Z</time>
      </trkpt>
      <trkpt lat="45.85803" lon="6.44279">
        <ele>1903.55</ele>
        <time>2015-03-12T14:02:44Z</time>
      </trkpt>
      <trkpt lat="45.85807" lon="6.44282">
        <ele>1905.47</ele>
        <time>2015-03-12T14:02:54Z</time>
      </trkpt>
      <trkpt lat="45.85813" lon="6.44281">
        <ele>1907.39</ele>
        <time>2015-03-12T14:03:06Z</time>
      </trkpt>
      <trkpt lat="45.85811" lon="6.44288">
        <ele>1908.83</ele>
        <time>2015-03-12T14:03:18Z</time>
      </trkpt>
      <trkpt lat="45.85804" lon="6.44296">
        <ele>1910.76</ele>
        <time>2015-03-12T14:03:32Z</time>
      </trkpt>
      <trkpt lat="45.85798" lon="6.44301">
        <ele>1913.16</ele>
        <time>2015-03-12T14:03:45Z</time>
      </trkpt>
      <trkpt lat="45.85803" lon="6.4431">
        <ele>1914.6</ele>
        <time>2015-03-12T14:03:58Z</time>
      </trkpt>
      <trkpt lat="45.85804" lon="6.44316">
        <ele>1917.49</ele>
        <time>2015-03-12T14:04:13Z</time>
      </trkpt>
      <trkpt lat="45.85803" lon="6.44321">
        <ele>1920.37</ele>
        <time>2015-03-12T14:04:25Z</time>
      </trkpt>
      <trkpt lat="45.85808" lon="6.44327">
        <ele>1922.29</ele>
        <time>2015-03-12T14:04:36Z</time>
      </trkpt>
      <trkpt lat="45.85814" lon="6.4433">
        <ele>1924.22</ele>
        <time>2015-03-12T14:04:50Z</time>
      </trkpt>
      <trkpt lat="45.85816" lon="6.44333">
        <ele>1926.62</ele>
        <time>2015-03-12T14:05:04Z</time>
      </trkpt>
      <trkpt lat="45.85813" lon="6.44343">
        <ele>1928.06</ele>
        <time>2015-03-12T14:05:17Z</time>
      </trkpt>
      <trkpt lat="45.8581" lon="6.44353">
        <ele>1930.46</ele>
        <time>2015-03-12T14:05:30Z</time>
      </trkpt>
      <trkpt lat="45.85806" lon="6.44362">
        <ele>1932.39</ele>
        <time>2015-03-12T14:05:41Z</time>
      </trkpt>
      <trkpt lat="45.85806" lon="6.44371">
        <ele>1934.79</ele>
        <time>2015-03-12T14:05:52Z</time>
      </trkpt>
      <trkpt lat="45.85809" lon="6.44377">
        <ele>1936.23</ele>
        <time>2015-03-12T14:06:04Z</time>
      </trkpt>
      <trkpt lat="45.85814" lon="6.44386">
        <ele>1938.16</ele>
        <time>2015-03-12T14:06:16Z</time>
      </trkpt>
      <trkpt lat="45.85815" lon="6.44395">
        <ele>1941.04</ele>
        <time>2015-03-12T14:06:28Z</time>
      </trkpt>
      <trkpt lat="45.85814" lon="6.44398">
        <ele>1942.48</ele>
        <time>2015-03-12T14:06:38Z</time>
      </trkpt>
      <trkpt lat="45.85814" lon="6.44404">
        <ele>1944.4</ele>
        <time>2015-03-12T14:06:49Z</time>
      </trkpt>
      <trkpt lat="45.85817" lon="6.44411">
        <ele>1946.33</ele>
        <time>2015-03-12T14:07:01Z</time>
      </trkpt>
      <trkpt lat="45.8582" lon="6.4442">
        <ele>1947.77</ele>
        <time>2015-03-12T14:07:13Z</time>
      </trkpt>
      <trkpt lat="45.85826" lon="6.44422">
        <ele>1950.17</ele>
        <time>2015-03-12T14:07:24Z</time>
      </trkpt>
      <trkpt lat="45.85826" lon="6.4443">
        <ele>1952.57</ele>
        <time>2015-03-12T14:07:39Z</time>
      </trkpt>
      <trkpt lat="45.85821" lon="6.44436">
        <ele>1955.46</ele>
        <time>2015-03-12T14:07:52Z</time>
      </trkpt>
      <trkpt lat="45.85819" lon="6.44439">
        <ele>1955.94</ele>
        <time>2015-03-12T14:08:04Z</time>
      </trkpt>
      <trkpt lat="45.85823" lon="6.44448">
        <ele>1957.86</ele>
        <time>2015-03-12T14:08:17Z</time>
      </trkpt>
      <trkpt lat="45.85829" lon="6.44455">
        <ele>1959.78</ele>
        <time>2015-03-12T14:08:31Z</time>
      </trkpt>
      <trkpt lat="45.85834" lon="6.4446">
        <ele>1962.19</ele>
        <time>2015-03-12T14:08:43Z</time>
      </trkpt>
      <trkpt lat="45.85839" lon="6.44466">
        <ele>1964.11</ele>
        <time>2015-03-12T14:08:57Z</time>
      </trkpt>
      <trkpt lat="45.8584" lon="6.44473">
        <ele>1966.51</ele>
        <time>2015-03-12T14:09:08Z</time>
      </trkpt>
      <trkpt lat="45.85841" lon="6.4448">
        <ele>1968.92</ele>
        <time>2015-03-12T14:09:21Z</time>
      </trkpt>
      <trkpt lat="45.8584" lon="6.44489">
        <ele>1971.32</ele>
        <time>2015-03-12T14:09:34Z</time>
      </trkpt>
      <trkpt lat="45.85842" lon="6.445">
        <ele>1973.72</ele>
        <time>2015-03-12T14:09:48Z</time>
      </trkpt>
      <trkpt lat="45.85845" lon="6.44511">
        <ele>1976.13</ele>
        <time>2015-03-12T14:10:03Z</time>
      </trkpt>
      <trkpt lat="45.85848" lon="6.4452">
        <ele>1979.01</ele>
        <time>2015-03-12T14:10:17Z</time>
      </trkpt>
      <trkpt lat="45.85852" lon="6.4453">
        <ele>1981.41</ele>
        <time>2015-03-12T14:10:32Z</time>
      </trkpt>
      <trkpt lat="45.85855" lon="6.44538">
        <ele>1983.34</ele>
        <time>2015-03-12T14:10:44Z</time>
      </trkpt>
      <trkpt lat="45.85857" lon="6.44544">
        <ele>1986.22</ele>
        <time>2015-03-12T14:10:57Z</time>
      </trkpt>
      <trkpt lat="45.8586" lon="6.4455">
        <ele>1988.14</ele>
        <time>2015-03-12T14:11:07Z</time>
      </trkpt>
      <trkpt lat="45.85865" lon="6.44559">
        <ele>1990.55</ele>
        <time>2015-03-12T14:11:20Z</time>
      </trkpt>
      <trkpt lat="45.8587" lon="6.44565">
        <ele>1993.43</ele>
        <time>2015-03-12T14:11:33Z</time>
      </trkpt>
      <trkpt lat="45.85875" lon="6.44569">
        <ele>1995.35</ele>
        <time>2015-03-12T14:11:46Z</time>
      </trkpt>
      <trkpt lat="45.85881" lon="6.4457">
        <ele>1997.28</ele>
        <time>2015-03-12T14:11:58Z</time>
      </trkpt>
      <trkpt lat="45.85884" lon="6.44572">
        <ele>1998.24</ele>
        <time>2015-03-12T14:12:08Z</time>
      </trkpt>
      <trkpt lat="45.85881" lon="6.4458">
        <ele>1999.68</ele>
        <time>2015-03-12T14:12:23Z</time>
      </trkpt>
      <trkpt lat="45.85876" lon="6.44588">
        <ele>2002.08</ele>
        <time>2015-03-12T14:12:37Z</time>
      </trkpt>
      <trkpt lat="45.85873" lon="6.44593">
        <ele>2004.49</ele>
        <time>2015-03-12T14:12:50Z</time>
      </trkpt>
      <trkpt lat="45.85877" lon="6.44597">
        <ele>2005.45</ele>
        <time>2015-03-12T14:13:02Z</time>
      </trkpt>
      <trkpt lat="45.85883" lon="6.44599">
        <ele>2007.37</ele>
        <time>2015-03-12T14:13:15Z</time>
      </trkpt>
      <trkpt lat="45.85884" lon="6.44601">
        <ele>2008.81</ele>
        <time>2015-03-12T14:13:28Z</time>
      </trkpt>
      <trkpt lat="45.8588" lon="6.44607">
        <ele>2010.73</ele>
        <time>2015-03-12T14:13:42Z</time>
      </trkpt>
      <trkpt lat="45.85874" lon="6.44612">
        <ele>2013.62</ele>
        <time>2015-03-12T14:13:58Z</time>
      </trkpt>
      <trkpt lat="45.85869" lon="6.44612">
        <ele>2015.06</ele>
        <time>2015-03-12T14:14:09Z</time>
      </trkpt>
      <trkpt lat="45.85869" lon="6.44616">
        <ele>2016.5</ele>
        <time>2015-03-12T14:14:19Z</time>
      </trkpt>
      <trkpt lat="45.85867" lon="6.44619">
        <ele>2018.91</ele>
        <time>2015-03-12T14:14:31Z</time>
      </trkpt>
      <trkpt lat="45.85863" lon="6.44622">
        <ele>2020.35</ele>
        <time>2015-03-12T14:14:42Z</time>
      </trkpt>
      <trkpt lat="45.85858" lon="6.44628">
        <ele>2023.71</ele>
        <time>2015-03-12T14:14:56Z</time>
      </trkpt>
      <trkpt lat="45.85855" lon="6.44635">
        <ele>2025.64</ele>
        <time>2015-03-12T14:15:09Z</time>
      </trkpt>
      <trkpt lat="45.85852" lon="6.44644">
        <ele>2028.04</ele>
        <time>2015-03-12T14:15:23Z</time>
      </trkpt>
      <trkpt lat="45.8585" lon="6.44652">
        <ele>2029.96</ele>
        <time>2015-03-12T14:15:35Z</time>
      </trkpt>
      <trkpt lat="45.85846" lon="6.44663">
        <ele>2032.36</ele>
        <time>2015-03-12T14:15:48Z</time>
      </trkpt>
      <trkpt lat="45.85844" lon="6.44673">
        <ele>2034.29</ele>
        <time>2015-03-12T14:16:02Z</time>
      </trkpt>
      <trkpt lat="45.85842" lon="6.44687">
        <ele>2036.69</ele>
        <time>2015-03-12T14:16:15Z</time>
      </trkpt>
      <trkpt lat="45.85844" lon="6.44696">
        <ele>2039.09</ele>
        <time>2015-03-12T14:16:28Z</time>
      </trkpt>
      <trkpt lat="45.85846" lon="6.44705">
        <ele>2041.98</ele>
        <time>2015-03-12T14:16:42Z</time>
      </trkpt>
      <trkpt lat="45.85851" lon="6.44713">
        <ele>2044.38</ele>
        <time>2015-03-12T14:16:55Z</time>
      </trkpt>
      <trkpt lat="45.85853" lon="6.44719">
        <ele>2046.78</ele>
        <time>2015-03-12T14:17:07Z</time>
      </trkpt>
      <trkpt lat="45.85856" lon="6.44724">
        <ele>2048.71</ele>
        <time>2015-03-12T14:17:18Z</time>
      </trkpt>
      <trkpt lat="45.85859" lon="6.44729">
        <ele>2050.63</ele>
        <time>2015-03-12T14:17:29Z</time>
      </trkpt>
      <trkpt lat="45.85864" lon="6.44732">
        <ele>2053.03</ele>
        <time>2015-03-12T14:17:40Z</time>
      </trkpt>
      <trkpt lat="45.85872" lon="6.44738">
        <ele>2055.44</ele>
        <time>2015-03-12T14:17:55Z</time>
      </trkpt>
      <trkpt lat="45.85877" lon="6.44741">
        <ele>2056.88</ele>
        <time>2015-03-12T14:18:06Z</time>
      </trkpt>
      <trkpt lat="45.85879" lon="6.44743">
        <ele>2058.8</ele>
        <time>2015-03-12T14:18:13Z</time>
      </trkpt>
      <trkpt lat="45.85879" lon="6.44748">
        <ele>2059.28</ele>
        <time>2015-03-12T14:18:25Z</time>
      </trkpt>
      <trkpt lat="45.85877" lon="6.44754">
        <ele>2061.2</ele>
        <time>2015-03-12T14:18:36Z</time>
      </trkpt>
      <trkpt lat="45.85874" lon="6.44761">
        <ele>2063.61</ele>
        <time>2015-03-12T14:18:47Z</time>
      </trkpt>
      <trkpt lat="45.85871" lon="6.44766">
        <ele>2065.05</ele>
        <time>2015-03-12T14:18:58Z</time>
      </trkpt>
      <trkpt lat="45.85868" lon="6.44774">
        <ele>2066.97</ele>
        <time>2015-03-12T14:19:10Z</time>
      </trkpt>
      <trkpt lat="45.85873" lon="6.44784">
        <ele>2068.41</ele>
        <time>2015-03-12T14:19:24Z</time>
      </trkpt>
      <trkpt lat="45.85874" lon="6.44786">
        <ele>2069.86</ele>
        <time>2015-03-12T14:19:39Z</time>
      </trkpt>
      <trkpt lat="45.85875" lon="6.4479">
        <ele>2071.3</ele>
        <time>2015-03-12T14:19:54Z</time>
      </trkpt>
      <trkpt lat="45.8587" lon="6.44797">
        <ele>2072.74</ele>
        <time>2015-03-12T14:20:08Z</time>
      </trkpt>
      <trkpt lat="45.8587" lon="6.44804">
        <ele>2075.14</ele>
        <time>2015-03-12T14:20:20Z</time>
      </trkpt>
      <trkpt lat="45.85876" lon="6.44814">
        <ele>2077.55</ele>
        <time>2015-03-12T14:20:36Z</time>
      </trkpt>
      <trkpt lat="45.85879" lon="6.4482">
        <ele>2079.47</ele>
        <time>2015-03-12T14:20:49Z</time>
      </trkpt>
      <trkpt lat="45.85876" lon="6.44827">
        <ele>2081.87</ele>
        <time>2015-03-12T14:21:03Z</time>
      </trkpt>
      <trkpt lat="45.85872" lon="6.44832">
        <ele>2083.31</ele>
        <time>2015-03-12T14:21:16Z</time>
      </trkpt>
      <trkpt lat="45.85876" lon="6.44842">
        <ele>2086.2</ele>
        <time>2015-03-12T14:21:28Z</time>
      </trkpt>
      <trkpt lat="45.8588" lon="6.44849">
        <ele>2088.12</ele>
        <time>2015-03-12T14:21:41Z</time>
      </trkpt>
      <trkpt lat="45.85883" lon="6.44853">
        <ele>2090.04</ele>
        <time>2015-03-12T14:21:54Z</time>
      </trkpt>
      <trkpt lat="45.8588" lon="6.44859">
        <ele>2092.45</ele>
        <time>2015-03-12T14:22:06Z</time>
      </trkpt>
      <trkpt lat="45.85879" lon="6.44866">
        <ele>2094.85</ele>
        <time>2015-03-12T14:22:20Z</time>
      </trkpt>
      <trkpt lat="45.85884" lon="6.44875">
        <ele>2096.77</ele>
        <time>2015-03-12T14:22:34Z</time>
      </trkpt>
      <trkpt lat="45.85887" lon="6.44879">
        <ele>2099.18</ele>
        <time>2015-03-12T14:22:46Z</time>
      </trkpt>
      <trkpt lat="45.85894" lon="6.44882">
        <ele>2101.1</ele>
        <time>2015-03-12T14:22:58Z</time>
      </trkpt>
      <trkpt lat="45.85896" lon="6.44885">
        <ele>2102.54</ele>
        <time>2015-03-12T14:23:09Z</time>
      </trkpt>
      <trkpt lat="45.85898" lon="6.4489">
        <ele>2104.46</ele>
        <time>2015-03-12T14:23:20Z</time>
      </trkpt>
      <trkpt lat="45.85898" lon="6.44897">
        <ele>2105.91</ele>
        <time>2015-03-12T14:23:30Z</time>
      </trkpt>
      <trkpt lat="45.85898" lon="6.44901">
        <ele>2107.35</ele>
        <time>2015-03-12T14:23:42Z</time>
      </trkpt>
      <trkpt lat="45.85898" lon="6.44899">
        <ele>2107.35</ele>
        <time>2015-03-12T14:23:52Z</time>
      </trkpt>
      <trkpt lat="45.85899" lon="6.44904">
        <ele>2108.79</ele>
        <time>2015-03-12T14:24:15Z</time>
      </trkpt>
      <trkpt lat="45.85899" lon="6.44905">
        <ele>2108.79</ele>
        <time>2015-03-12T14:24:16Z</time>
      </trkpt>
      <trkpt lat="45.85897" lon="6.4491">
        <ele>2111.19</ele>
        <time>2015-03-12T14:24:29Z</time>
      </trkpt>
      <trkpt lat="45.85894" lon="6.44917">
        <ele>2113.6</ele>
        <time>2015-03-12T14:24:42Z</time>
      </trkpt>
      <trkpt lat="45.85899" lon="6.44924">
        <ele>2114.56</ele>
        <time>2015-03-12T14:24:54Z</time>
      </trkpt>
      <trkpt lat="45.85903" lon="6.44927">
        <ele>2116.96</ele>
        <time>2015-03-12T14:25:07Z</time>
      </trkpt>
      <trkpt lat="45.85908" lon="6.44928">
        <ele>2118.88</ele>
        <time>2015-03-12T14:25:20Z</time>
      </trkpt>
      <trkpt lat="45.85906" lon="6.44934">
        <ele>2120.81</ele>
        <time>2015-03-12T14:25:32Z</time>
      </trkpt>
      <trkpt lat="45.85899" lon="6.44939">
        <ele>2123.69</ele>
        <time>2015-03-12T14:25:47Z</time>
      </trkpt>
      <trkpt lat="45.85902" lon="6.44944">
        <ele>2124.65</ele>
        <time>2015-03-12T14:25:57Z</time>
      </trkpt>
      <trkpt lat="45.85905" lon="6.44948">
        <ele>2127.05</ele>
        <time>2015-03-12T14:26:09Z</time>
      </trkpt>
      <trkpt lat="45.85902" lon="6.44951">
        <ele>2128.98</ele>
        <time>2015-03-12T14:26:23Z</time>
      </trkpt>
      <trkpt lat="45.85899" lon="6.44956">
        <ele>2131.38</ele>
        <time>2015-03-12T14:26:37Z</time>
      </trkpt>
      <trkpt lat="45.85897" lon="6.4496">
        <ele>2132.34</ele>
        <time>2015-03-12T14:26:41Z</time>
      </trkpt>
      <trkpt lat="45.85901" lon="6.4497">
        <ele>2134.26</ele>
        <time>2015-03-12T14:26:54Z</time>
      </trkpt>
      <trkpt lat="45.85907" lon="6.44975">
        <ele>2136.67</ele>
        <time>2015-03-12T14:27:10Z</time>
      </trkpt>
      <trkpt lat="45.85908" lon="6.4498">
        <ele>2138.59</ele>
        <time>2015-03-12T14:27:21Z</time>
      </trkpt>
      <trkpt lat="45.85907" lon="6.44983">
        <ele>2140.99</ele>
        <time>2015-03-12T14:27:34Z</time>
      </trkpt>
      <trkpt lat="45.85905" lon="6.44988">
        <ele>2142.44</ele>
        <time>2015-03-12T14:27:45Z</time>
      </trkpt>
      <trkpt lat="45.85902" lon="6.44994">
        <ele>2144.36</ele>
        <time>2015-03-12T14:27:56Z</time>
      </trkpt>
      <trkpt lat="45.85897" lon="6.45002">
        <ele>2146.76</ele>
        <time>2015-03-12T14:28:10Z</time>
      </trkpt>
      <trkpt lat="45.85902" lon="6.4501">
        <ele>2149.65</ele>
        <time>2015-03-12T14:28:22Z</time>
      </trkpt>
      <trkpt lat="45.85907" lon="6.45016">
        <ele>2151.09</ele>
        <time>2015-03-12T14:28:33Z</time>
      </trkpt>
      <trkpt lat="45.85911" lon="6.45018">
        <ele>2153.01</ele>
        <time>2015-03-12T14:28:45Z</time>
      </trkpt>
      <trkpt lat="45.85907" lon="6.45023">
        <ele>2154.93</ele>
        <time>2015-03-12T14:28:57Z</time>
      </trkpt>
      <trkpt lat="45.85903" lon="6.45027">
        <ele>2157.34</ele>
        <time>2015-03-12T14:29:09Z</time>
      </trkpt>
      <trkpt lat="45.85903" lon="6.45032">
        <ele>2159.26</ele>
        <time>2015-03-12T14:29:22Z</time>
      </trkpt>
      <trkpt lat="45.85908" lon="6.45036">
        <ele>2161.18</ele>
        <time>2015-03-12T14:29:34Z</time>
      </trkpt>
      <trkpt lat="45.85915" lon="6.45041">
        <ele>2164.55</ele>
        <time>2015-03-12T14:29:49Z</time>
      </trkpt>
      <trkpt lat="45.8592" lon="6.45043">
        <ele>2167.43</ele>
        <time>2015-03-12T14:30:03Z</time>
      </trkpt>
      <trkpt lat="45.85924" lon="6.45043">
        <ele>2168.87</ele>
        <time>2015-03-12T14:30:14Z</time>
      </trkpt>
      <trkpt lat="45.85924" lon="6.45044">
        <ele>2170.79</ele>
        <time>2015-03-12T14:30:26Z</time>
      </trkpt>
      <trkpt lat="45.8592" lon="6.45051">
        <ele>2173.2</ele>
        <time>2015-03-12T14:30:41Z</time>
      </trkpt>
      <trkpt lat="45.85915" lon="6.45057">
        <ele>2176.08</ele>
        <time>2015-03-12T14:30:55Z</time>
      </trkpt>
      <trkpt lat="45.85912" lon="6.45071">
        <ele>2178.48</ele>
        <time>2015-03-12T14:31:09Z</time>
      </trkpt>
      <trkpt lat="45.85907" lon="6.45078">
        <ele>2181.37</ele>
        <time>2015-03-12T14:31:22Z</time>
      </trkpt>
      <trkpt lat="45.85903" lon="6.45081">
        <ele>2183.29</ele>
        <time>2015-03-12T14:31:33Z</time>
      </trkpt>
      <trkpt lat="45.85905" lon="6.45086">
        <ele>2184.73</ele>
        <time>2015-03-12T14:31:42Z</time>
      </trkpt>
      <trkpt lat="45.8591" lon="6.45091">
        <ele>2187.62</ele>
        <time>2015-03-12T14:31:55Z</time>
      </trkpt>
      <trkpt lat="45.85918" lon="6.45093">
        <ele>2190.02</ele>
        <time>2015-03-12T14:32:08Z</time>
      </trkpt>
      <trkpt lat="45.85922" lon="6.45094">
        <ele>2191.46</ele>
        <time>2015-03-12T14:32:19Z</time>
      </trkpt>
      <trkpt lat="45.85917" lon="6.45096">
        <ele>2193.39</ele>
        <time>2015-03-12T14:32:31Z</time>
      </trkpt>
      <trkpt lat="45.85911" lon="6.45101">
        <ele>2194.83</ele>
        <time>2015-03-12T14:32:43Z</time>
      </trkpt>
      <trkpt lat="45.85903" lon="6.45108">
        <ele>2196.75</ele>
        <time>2015-03-12T14:32:57Z</time>
      </trkpt>
      <trkpt lat="45.85905" lon="6.45112">
        <ele>2197.71</ele>
        <time>2015-03-12T14:33:08Z</time>
      </trkpt>
      <trkpt lat="45.85913" lon="6.45115">
        <ele>2200.11</ele>
        <time>2015-03-12T14:33:21Z</time>
      </trkpt>
      <trkpt lat="45.85921" lon="6.45117">
        <ele>2203</ele>
        <time>2015-03-12T14:33:34Z</time>
      </trkpt>
      <trkpt lat="45.8593" lon="6.45118">
        <ele>2204.92</ele>
        <time>2015-03-12T14:33:47Z</time>
      </trkpt>
      <trkpt lat="45.85937" lon="6.45118">
        <ele>2206.84</ele>
        <time>2015-03-12T14:34:00Z</time>
      </trkpt>
      <trkpt lat="45.85945" lon="6.45119">
        <ele>2209.73</ele>
        <time>2015-03-12T14:34:13Z</time>
      </trkpt>
      <trkpt lat="45.8595" lon="6.45122">
        <ele>2211.17</ele>
        <time>2015-03-12T14:34:25Z</time>
      </trkpt>
      <trkpt lat="45.85946" lon="6.45125">
        <ele>2213.57</ele>
        <time>2015-03-12T14:34:36Z</time>
      </trkpt>
      <trkpt lat="45.85945" lon="6.45128">
        <ele>2215.01</ele>
        <time>2015-03-12T14:34:47Z</time>
      </trkpt>
      <trkpt lat="45.85952" lon="6.45132">
        <ele>2216.94</ele>
        <time>2015-03-12T14:35:00Z</time>
      </trkpt>
      <trkpt lat="45.85946" lon="6.45138">
        <ele>2219.34</ele>
        <time>2015-03-12T14:35:14Z</time>
      </trkpt>
      <trkpt lat="45.85941" lon="6.45143">
        <ele>2221.74</ele>
        <time>2015-03-12T14:35:27Z</time>
      </trkpt>
      <trkpt lat="45.85942" lon="6.45144">
        <ele>2222.71</ele>
        <time>2015-03-12T14:35:37Z</time>
      </trkpt>
      <trkpt lat="45.85944" lon="6.45146">
        <ele>2224.63</ele>
        <time>2015-03-12T14:35:49Z</time>
      </trkpt>
      <trkpt lat="45.85939" lon="6.45149">
        <ele>2226.55</ele>
        <time>2015-03-12T14:36:01Z</time>
      </trkpt>
      <trkpt lat="45.8594" lon="6.45153">
        <ele>2228.47</ele>
        <time>2015-03-12T14:36:12Z</time>
      </trkpt>
      <trkpt lat="45.85945" lon="6.45155">
        <ele>2230.88</ele>
        <time>2015-03-12T14:36:23Z</time>
      </trkpt>
      <trkpt lat="45.85942" lon="6.4516">
        <ele>2233.28</ele>
        <time>2015-03-12T14:36:34Z</time>
      </trkpt>
      <trkpt lat="45.85938" lon="6.45165">
        <ele>2235.2</ele>
        <time>2015-03-12T14:36:46Z</time>
      </trkpt>
      <trkpt lat="45.85942" lon="6.45169">
        <ele>2236.16</ele>
        <time>2015-03-12T14:36:56Z</time>
      </trkpt>
      <trkpt lat="45.85946" lon="6.45172">
        <ele>2239.53</ele>
        <time>2015-03-12T14:37:10Z</time>
      </trkpt>
      <trkpt lat="45.85944" lon="6.45176">
        <ele>2241.45</ele>
        <time>2015-03-12T14:37:23Z</time>
      </trkpt>
      <trkpt lat="45.85944" lon="6.45177">
        <ele>2241.45</ele>
        <time>2015-03-12T14:37:24Z</time>
      </trkpt>
      <trkpt lat="45.85946" lon="6.45178">
        <ele>2242.41</ele>
        <time>2015-03-12T14:37:36Z</time>
      </trkpt>
      <trkpt lat="45.85943" lon="6.45184">
        <ele>2244.82</ele>
        <time>2015-03-12T14:37:47Z</time>
      </trkpt>
      <trkpt lat="45.85939" lon="6.4519">
        <ele>2246.74</ele>
        <time>2015-03-12T14:38:00Z</time>
      </trkpt>
      <trkpt lat="45.85943" lon="6.45192">
        <ele>2248.18</ele>
        <time>2015-03-12T14:38:11Z</time>
      </trkpt>
      <trkpt lat="45.85945" lon="6.45194">
        <ele>2249.62</ele>
        <time>2015-03-12T14:38:22Z</time>
      </trkpt>
      <trkpt lat="45.85943" lon="6.45197">
        <ele>2251.06</ele>
        <time>2015-03-12T14:38:32Z</time>
      </trkpt>
      <trkpt lat="45.85947" lon="6.45198">
        <ele>2251.06</ele>
        <time>2015-03-12T14:38:45Z</time>
      </trkpt>
      <trkpt lat="45.85947" lon="6.45197">
        <ele>2251.06</ele>
        <time>2015-03-12T14:38:51Z</time>
      </trkpt>
      <trkpt lat="45.85951" lon="6.45197">
        <ele>2251.06</ele>
        <time>2015-03-12T14:39:04Z</time>
      </trkpt>
      <trkpt lat="45.85951" lon="6.45198">
        <ele>2249.62</ele>
        <time>2015-03-12T14:39:12Z</time>
      </trkpt>
      <trkpt lat="45.85949" lon="6.45199">
        <ele>2249.62</ele>
        <time>2015-03-12T14:39:54Z</time>
      </trkpt>
      <trkpt lat="45.85948" lon="6.45201">
        <ele>2249.62</ele>
        <time>2015-03-12T14:40:28Z</time>
      </trkpt>
      <trkpt lat="45.85946" lon="6.45205">
        <ele>2249.62</ele>
        <time>2015-03-12T14:41:03Z</time>
      </trkpt>
      <trkpt lat="45.85947" lon="6.45203">
        <ele>2249.62</ele>
        <time>2015-03-12T14:41:36Z</time>
      </trkpt>
      <trkpt lat="45.85947" lon="6.452">
        <ele>2250.1</ele>
        <time>2015-03-12T14:42:09Z</time>
      </trkpt>
      <trkpt lat="45.85948" lon="6.452">
        <ele>2250.1</ele>
        <time>2015-03-12T14:42:49Z</time>
      </trkpt>
      <trkpt lat="45.8595" lon="6.45196">
        <ele>2250.1</ele>
        <time>2015-03-12T14:43:34Z</time>
      </trkpt>
      <trkpt lat="45.85954" lon="6.45193">
        <ele>2251.06</ele>
        <time>2015-03-12T14:44:21Z</time>
      </trkpt>
      <trkpt lat="45.85954" lon="6.45191">
        <ele>2251.06</ele>
        <time>2015-03-12T14:44:59Z</time>
      </trkpt>
      <trkpt lat="45.85954" lon="6.45193">
        <ele>2251.06</ele>
        <time>2015-03-12T14:45:28Z</time>
      </trkpt>
      <trkpt lat="45.85954" lon="6.45196">
        <ele>2250.58</ele>
        <time>2015-03-12T14:45:55Z</time>
      </trkpt>
      <trkpt lat="45.85953" lon="6.45197">
        <ele>2250.58</ele>
        <time>2015-03-12T14:46:40Z</time>
      </trkpt>
      <trkpt lat="45.85952" lon="6.452">
        <ele>2250.58</ele>
        <time>2015-03-12T14:47:11Z</time>
      </trkpt>
      <trkpt lat="45.85953" lon="6.45197">
        <ele>2250.58</ele>
        <time>2015-03-12T14:47:48Z</time>
      </trkpt>
      <trkpt lat="45.85954" lon="6.45196">
        <ele>2251.06</ele>
        <time>2015-03-12T14:48:16Z</time>
      </trkpt>
      <trkpt lat="45.85953" lon="6.45197">
        <ele>2251.54</ele>
        <time>2015-03-12T14:48:21Z</time>
      </trkpt>
      <trkpt lat="45.85952" lon="6.452">
        <ele>2251.54</ele>
        <time>2015-03-12T14:48:28Z</time>
      </trkpt>
      <trkpt lat="45.85953" lon="6.452">
        <ele>2251.54</ele>
        <time>2015-03-12T14:48:44Z</time>
      </trkpt>
      <trkpt lat="45.85949" lon="6.45195">
        <ele>2252.03</ele>
        <time>2015-03-12T14:49:05Z</time>
      </trkpt>
      <trkpt lat="45.85948" lon="6.45197">
        <ele>2252.03</ele>
        <time>2015-03-12T14:49:26Z</time>
      </trkpt>
      <trkpt lat="45.85948" lon="6.45197">
        <ele>2252.51</ele>
        <time>2015-03-12T14:49:52Z</time>
      </trkpt>
      <trkpt lat="45.85947" lon="6.45197">
        <ele>2252.51</ele>
        <time>2015-03-12T14:50:08Z</time>
      </trkpt>
      <trkpt lat="45.85948" lon="6.45199">
        <ele>2252.03</ele>
        <time>2015-03-12T14:50:30Z</time>
      </trkpt>
      <trkpt lat="45.85949" lon="6.452">
        <ele>2252.03</ele>
        <time>2015-03-12T14:50:51Z</time>
      </trkpt>
      <trkpt lat="45.85949" lon="6.45203">
        <ele>2251.06</ele>
        <time>2015-03-12T14:51:26Z</time>
      </trkpt>
      <trkpt lat="45.85953" lon="6.45204">
        <ele>2250.58</ele>
        <time>2015-03-12T14:51:44Z</time>
      </trkpt>
      <trkpt lat="45.85952" lon="6.452">
        <ele>2250.58</ele>
        <time>2015-03-12T14:52:11Z</time>
      </trkpt>
      <trkpt lat="45.85952" lon="6.45199">
        <ele>2250.58</ele>
        <time>2015-03-12T14:52:38Z</time>
      </trkpt>
      <trkpt lat="45.85953" lon="6.452">
        <ele>2250.58</ele>
        <time>2015-03-12T14:53:01Z</time>
      </trkpt>
      <trkpt lat="45.85952" lon="6.45198">
        <ele>2250.58</ele>
        <time>2015-03-12T14:53:15Z</time>
      </trkpt>
      <trkpt lat="45.85953" lon="6.45197">
        <ele>2250.58</ele>
        <time>2015-03-12T14:53:31Z</time>
      </trkpt>
      <trkpt lat="45.85949" lon="6.45201">
        <ele>2250.58</ele>
        <time>2015-03-12T14:53:47Z</time>
      </trkpt>
      <trkpt lat="45.85949" lon="6.45201">
        <ele>2250.1</ele>
        <time>2015-03-12T14:54:16Z</time>
      </trkpt>
      <trkpt lat="45.85952" lon="6.45198">
        <ele>2250.1</ele>
        <time>2015-03-12T14:54:35Z</time>
      </trkpt>
      <trkpt lat="45.85951" lon="6.452">
        <ele>2250.1</ele>
        <time>2015-03-12T14:55:01Z</time>
      </trkpt>
      <trkpt lat="45.85953" lon="6.45198">
        <ele>2250.1</ele>
        <time>2015-03-12T14:55:17Z</time>
      </trkpt>
      <trkpt lat="45.8595" lon="6.45199">
        <ele>2250.1</ele>
        <time>2015-03-12T14:55:35Z</time>
      </trkpt>
      <trkpt lat="45.8595" lon="6.45201">
        <ele>2250.1</ele>
        <time>2015-03-12T14:55:51Z</time>
      </trkpt>
      <trkpt lat="45.8595" lon="6.45201">
        <ele>2250.1</ele>
        <time>2015-03-12T14:56:14Z</time>
      </trkpt>
      <trkpt lat="45.85952" lon="6.452">
        <ele>2250.1</ele>
        <time>2015-03-12T14:56:32Z</time>
      </trkpt>
      <trkpt lat="45.85949" lon="6.45201">
        <ele>2250.58</ele>
        <time>2015-03-12T14:56:53Z</time>
      </trkpt>
      <trkpt lat="45.85949" lon="6.45201">
        <ele>2250.58</ele>
        <time>2015-03-12T14:56:54Z</time>
      </trkpt>
      <trkpt lat="45.85949" lon="6.452">
        <ele>2249.14</ele>
        <time>2015-03-12T14:57:01Z</time>
      </trkpt>
      <trkpt lat="45.8595" lon="6.452">
        <ele>2251.06</ele>
        <time>2015-03-12T14:57:07Z</time>
      </trkpt>
      <trkpt lat="45.8595" lon="6.452">
        <ele>2253.95</ele>
        <time>2015-03-12T14:57:09Z</time>
      </trkpt>
      <trkpt lat="45.8595" lon="6.452">
        <ele>2250.1</ele>
        <time>2015-03-12T14:57:10Z</time>
      </trkpt>
      <trkpt lat="45.85952" lon="6.45199">
        <ele>2249.62</ele>
        <time>2015-03-12T14:57:25Z</time>
      </trkpt>
      <trkpt lat="45.85952" lon="6.45197">
        <ele>2249.62</ele>
        <time>2015-03-12T14:57:40Z</time>
      </trkpt>
      <trkpt lat="45.85952" lon="6.45197">
        <ele>2250.58</ele>
        <time>2015-03-12T14:57:49Z</time>
      </trkpt>
      <trkpt lat="45.85954" lon="6.45196">
        <ele>2249.62</ele>
        <time>2015-03-12T14:58:04Z</time>
      </trkpt>
      <trkpt lat="45.85952" lon="6.45196">
        <ele>2249.14</ele>
        <time>2015-03-12T14:58:31Z</time>
      </trkpt>
      <trkpt lat="45.85952" lon="6.45199">
        <ele>2249.14</ele>
        <time>2015-03-12T14:58:58Z</time>
      </trkpt>
      <trkpt lat="45.85952" lon="6.45201">
        <ele>2249.14</ele>
        <time>2015-03-12T14:59:19Z</time>
      </trkpt>
      <trkpt lat="45.85951" lon="6.452">
        <ele>2249.14</ele>
        <time>2015-03-12T14:59:37Z</time>
      </trkpt>
      <trkpt lat="45.8595" lon="6.45202">
        <ele>2249.14</ele>
        <time>2015-03-12T14:59:58Z</time>
      </trkpt>
      <trkpt lat="45.85949" lon="6.452">
        <ele>2249.14</ele>
        <time>2015-03-12T15:00:20Z</time>
      </trkpt>
      <trkpt lat="45.85949" lon="6.452">
        <ele>2249.14</ele>
        <time>2015-03-12T15:00:49Z</time>
      </trkpt>
      <trkpt lat="45.85948" lon="6.45198">
        <ele>2249.14</ele>
        <time>2015-03-12T15:01:01Z</time>
      </trkpt>
      <trkpt lat="45.85951" lon="6.45197">
        <ele>2249.62</ele>
        <time>2015-03-12T15:01:15Z</time>
      </trkpt>
      <trkpt lat="45.85951" lon="6.452">
        <ele>2245.78</ele>
        <time>2015-03-12T15:01:33Z</time>
      </trkpt>
      <trkpt lat="45.85952" lon="6.452">
        <ele>2252.51</ele>
        <time>2015-03-12T15:01:34Z</time>
      </trkpt>
      <trkpt lat="45.85952" lon="6.452">
        <ele>2249.14</ele>
        <time>2015-03-12T15:01:35Z</time>
      </trkpt>
      <trkpt lat="45.85952" lon="6.45199">
        <ele>2249.14</ele>
        <time>2015-03-12T15:01:53Z</time>
      </trkpt>
      <trkpt lat="45.85951" lon="6.45204">
        <ele>2248.66</ele>
        <time>2015-03-12T15:02:19Z</time>
      </trkpt>
      <trkpt lat="45.85951" lon="6.45204">
        <ele>2248.66</ele>
        <time>2015-03-12T15:02:37Z</time>
      </trkpt>
      <trkpt lat="45.85952" lon="6.45203">
        <ele>2250.58</ele>
        <time>2015-03-12T15:02:44Z</time>
      </trkpt>
      <trkpt lat="45.85952" lon="6.45203">
        <ele>2249.62</ele>
        <time>2015-03-12T15:02:48Z</time>
      </trkpt>
      <trkpt lat="45.8595" lon="6.45203">
        <ele>2249.14</ele>
        <time>2015-03-12T15:03:08Z</time>
      </trkpt>
      <trkpt lat="45.85948" lon="6.45208">
        <ele>2249.14</ele>
        <time>2015-03-12T15:03:24Z</time>
      </trkpt>
      <trkpt lat="45.85948" lon="6.45208">
        <ele>2249.14</ele>
        <time>2015-03-12T15:03:55Z</time>
      </trkpt>
      <trkpt lat="45.85949" lon="6.4521">
        <ele>2249.14</ele>
        <time>2015-03-12T15:04:25Z</time>
      </trkpt>
      <trkpt lat="45.8595" lon="6.45211">
        <ele>2249.14</ele>
        <time>2015-03-12T15:04:30Z</time>
      </trkpt>
      <trkpt lat="45.85954" lon="6.45224">
        <ele>2245.78</ele>
        <time>2015-03-12T15:04:33Z</time>
      </trkpt>
      <trkpt lat="45.85957" lon="6.45229">
        <ele>2244.33</ele>
        <time>2015-03-12T15:04:36Z</time>
      </trkpt>
      <trkpt lat="45.85959" lon="6.45227">
        <ele>2241.45</ele>
        <time>2015-03-12T15:04:45Z</time>
      </trkpt>
      <trkpt lat="45.85962" lon="6.45215">
        <ele>2241.45</ele>
        <time>2015-03-12T15:05:04Z</time>
      </trkpt>
      <trkpt lat="45.8596" lon="6.45209">
        <ele>2237.61</ele>
        <time>2015-03-12T15:05:25Z</time>
      </trkpt>
      <trkpt lat="45.85965" lon="6.45209">
        <ele>2233.28</ele>
        <time>2015-03-12T15:05:28Z</time>
      </trkpt>
      <trkpt lat="45.85969" lon="6.45221">
        <ele>2230.4</ele>
        <time>2015-03-12T15:05:33Z</time>
      </trkpt>
      <trkpt lat="45.85974" lon="6.45215">
        <ele>2225.11</ele>
        <time>2015-03-12T15:05:37Z</time>
      </trkpt>
      <trkpt lat="45.85976" lon="6.45212">
        <ele>2224.15</ele>
        <time>2015-03-12T15:05:39Z</time>
      </trkpt>
      <trkpt lat="45.85978" lon="6.45213">
        <ele>2221.74</ele>
        <time>2015-03-12T15:05:40Z</time>
      </trkpt>
      <trkpt lat="45.85984" lon="6.45224">
        <ele>2217.42</ele>
        <time>2015-03-12T15:05:44Z</time>
      </trkpt>
      <trkpt lat="45.85986" lon="6.45227">
        <ele>2216.94</ele>
        <time>2015-03-12T15:05:45Z</time>
      </trkpt>
      <trkpt lat="45.85991" lon="6.45236">
        <ele>2212.13</ele>
        <time>2015-03-12T15:05:48Z</time>
      </trkpt>
      <trkpt lat="45.85996" lon="6.45233">
        <ele>2206.36</ele>
        <time>2015-03-12T15:05:51Z</time>
      </trkpt>
      <trkpt lat="45.85997" lon="6.45232">
        <ele>2205.88</ele>
        <time>2015-03-12T15:05:52Z</time>
      </trkpt>
      <trkpt lat="45.86002" lon="6.45229">
        <ele>2201.56</ele>
        <time>2015-03-12T15:05:57Z</time>
      </trkpt>
      <trkpt lat="45.86008" lon="6.4523">
        <ele>2196.27</ele>
        <time>2015-03-12T15:06:00Z</time>
      </trkpt>
      <trkpt lat="45.86014" lon="6.45237">
        <ele>2192.42</ele>
        <time>2015-03-12T15:06:04Z</time>
      </trkpt>
      <trkpt lat="45.86016" lon="6.45245">
        <ele>2190.02</ele>
        <time>2015-03-12T15:06:06Z</time>
      </trkpt>
      <trkpt lat="45.86019" lon="6.45257">
        <ele>2186.66</ele>
        <time>2015-03-12T15:06:08Z</time>
      </trkpt>
      <trkpt lat="45.86021" lon="6.45267">
        <ele>2184.25</ele>
        <time>2015-03-12T15:06:11Z</time>
      </trkpt>
      <trkpt lat="45.86029" lon="6.45256">
        <ele>2179.93</ele>
        <time>2015-03-12T15:06:14Z</time>
      </trkpt>
      <trkpt lat="45.86034" lon="6.45259">
        <ele>2177.04</ele>
        <time>2015-03-12T15:06:18Z</time>
      </trkpt>
      <trkpt lat="45.86036" lon="6.45262">
        <ele>2174.16</ele>
        <time>2015-03-12T15:06:20Z</time>
      </trkpt>
      <trkpt lat="45.86043" lon="6.45253">
        <ele>2168.87</ele>
        <time>2015-03-12T15:06:25Z</time>
      </trkpt>
      <trkpt lat="45.86047" lon="6.45262">
        <ele>2164.06</ele>
        <time>2015-03-12T15:06:28Z</time>
      </trkpt>
      <trkpt lat="45.86048" lon="6.45263">
        <ele>2164.06</ele>
        <time>2015-03-12T15:06:29Z</time>
      </trkpt>
      <trkpt lat="45.86051" lon="6.45266">
        <ele>2162.62</ele>
        <time>2015-03-12T15:06:31Z</time>
      </trkpt>
      <trkpt lat="45.86059" lon="6.45263">
        <ele>2157.82</ele>
        <time>2015-03-12T15:06:34Z</time>
      </trkpt>
      <trkpt lat="45.86065" lon="6.45258">
        <ele>2155.89</ele>
        <time>2015-03-12T15:06:37Z</time>
      </trkpt>
      <trkpt lat="45.8607" lon="6.45261">
        <ele>2150.61</ele>
        <time>2015-03-12T15:06:39Z</time>
      </trkpt>
      <trkpt lat="45.8607" lon="6.45268">
        <ele>2149.16</ele>
        <time>2015-03-12T15:06:40Z</time>
      </trkpt>
      <trkpt lat="45.8607" lon="6.45275">
        <ele>2148.2</ele>
        <time>2015-03-12T15:06:41Z</time>
      </trkpt>
      <trkpt lat="45.86072" lon="6.45278">
        <ele>2145.32</ele>
        <time>2015-03-12T15:06:42Z</time>
      </trkpt>
      <trkpt lat="45.86077" lon="6.45276">
        <ele>2141.95</ele>
        <time>2015-03-12T15:06:43Z</time>
      </trkpt>
      <trkpt lat="45.86085" lon="6.45268">
        <ele>2138.59</ele>
        <time>2015-03-12T15:06:45Z</time>
      </trkpt>
      <trkpt lat="45.86093" lon="6.45275">
        <ele>2133.78</ele>
        <time>2015-03-12T15:06:46Z</time>
      </trkpt>
      <trkpt lat="45.86095" lon="6.45283">
        <ele>2130.42</ele>
        <time>2015-03-12T15:06:47Z</time>
      </trkpt>
      <trkpt lat="45.86094" lon="6.45294">
        <ele>2128.5</ele>
        <time>2015-03-12T15:06:49Z</time>
      </trkpt>
      <trkpt lat="45.86095" lon="6.45308">
        <ele>2125.61</ele>
        <time>2015-03-12T15:06:51Z</time>
      </trkpt>
      <trkpt lat="45.861" lon="6.45333">
        <ele>2120.81</ele>
        <time>2015-03-12T15:06:54Z</time>
      </trkpt>
      <trkpt lat="45.86106" lon="6.45346">
        <ele>2120.32</ele>
        <time>2015-03-12T15:06:56Z</time>
      </trkpt>
      <trkpt lat="45.86113" lon="6.45341">
        <ele>2116.48</ele>
        <time>2015-03-12T15:06:58Z</time>
      </trkpt>
      <trkpt lat="45.86117" lon="6.45316">
        <ele>2113.6</ele>
        <time>2015-03-12T15:07:01Z</time>
      </trkpt>
      <trkpt lat="45.8612" lon="6.45304">
        <ele>2112.15</ele>
        <time>2015-03-12T15:07:03Z</time>
      </trkpt>
      <trkpt lat="45.86121" lon="6.45299">
        <ele>2111.19</ele>
        <time>2015-03-12T15:07:04Z</time>
      </trkpt>
      <trkpt lat="45.86133" lon="6.45303">
        <ele>2104.94</ele>
        <time>2015-03-12T15:07:06Z</time>
      </trkpt>
      <trkpt lat="45.86138" lon="6.45308">
        <ele>2102.54</ele>
        <time>2015-03-12T15:07:07Z</time>
      </trkpt>
      <trkpt lat="45.86157" lon="6.45314">
        <ele>2094.37</ele>
        <time>2015-03-12T15:07:12Z</time>
      </trkpt>
      <trkpt lat="45.86157" lon="6.45308">
        <ele>2092.45</ele>
        <time>2015-03-12T15:07:13Z</time>
      </trkpt>
      <trkpt lat="45.86164" lon="6.4528">
        <ele>2088.12</ele>
        <time>2015-03-12T15:07:18Z</time>
      </trkpt>
      <trkpt lat="45.86176" lon="6.45283">
        <ele>2081.39</ele>
        <time>2015-03-12T15:07:21Z</time>
      </trkpt>
      <trkpt lat="45.86177" lon="6.45293">
        <ele>2077.07</ele>
        <time>2015-03-12T15:07:22Z</time>
      </trkpt>
      <trkpt lat="45.86185" lon="6.453">
        <ele>2072.26</ele>
        <time>2015-03-12T15:07:30Z</time>
      </trkpt>
      <trkpt lat="45.86185" lon="6.45288">
        <ele>2069.86</ele>
        <time>2015-03-12T15:07:33Z</time>
      </trkpt>
      <trkpt lat="45.86193" lon="6.45283">
        <ele>2064.09</ele>
        <time>2015-03-12T15:07:36Z</time>
      </trkpt>
      <trkpt lat="45.86196" lon="6.45286">
        <ele>2060.72</ele>
        <time>2015-03-12T15:07:37Z</time>
      </trkpt>
      <trkpt lat="45.86203" lon="6.45283">
        <ele>2057.36</ele>
        <time>2015-03-12T15:07:39Z</time>
      </trkpt>
      <trkpt lat="45.86204" lon="6.45275">
        <ele>2053.99</ele>
        <time>2015-03-12T15:07:41Z</time>
      </trkpt>
      <trkpt lat="45.86198" lon="6.45271">
        <ele>2053.99</ele>
        <time>2015-03-12T15:07:52Z</time>
      </trkpt>
      <trkpt lat="45.86197" lon="6.45268">
        <ele>2054.47</ele>
        <time>2015-03-12T15:07:59Z</time>
      </trkpt>
      <trkpt lat="45.86204" lon="6.45269">
        <ele>2050.63</ele>
        <time>2015-03-12T15:08:02Z</time>
      </trkpt>
      <trkpt lat="45.86211" lon="6.45266">
        <ele>2047.26</ele>
        <time>2015-03-12T15:08:04Z</time>
      </trkpt>
      <trkpt lat="45.86224" lon="6.45262">
        <ele>2038.13</ele>
        <time>2015-03-12T15:08:08Z</time>
      </trkpt>
      <trkpt lat="45.86229" lon="6.45257">
        <ele>2034.77</ele>
        <time>2015-03-12T15:08:10Z</time>
      </trkpt>
      <trkpt lat="45.86235" lon="6.45258">
        <ele>2029.96</ele>
        <time>2015-03-12T15:08:12Z</time>
      </trkpt>
      <trkpt lat="45.86241" lon="6.45256">
        <ele>2025.64</ele>
        <time>2015-03-12T15:08:14Z</time>
      </trkpt>
      <trkpt lat="45.86246" lon="6.45256">
        <ele>2021.79</ele>
        <time>2015-03-12T15:08:16Z</time>
      </trkpt>
      <trkpt lat="45.86251" lon="6.45258">
        <ele>2017.46</ele>
        <time>2015-03-12T15:08:19Z</time>
      </trkpt>
      <trkpt lat="45.86254" lon="6.45263">
        <ele>2013.62</ele>
        <time>2015-03-12T15:08:22Z</time>
      </trkpt>
      <trkpt lat="45.86257" lon="6.45263">
        <ele>2010.25</ele>
        <time>2015-03-12T15:08:24Z</time>
      </trkpt>
      <trkpt lat="45.86262" lon="6.45256">
        <ele>2007.85</ele>
        <time>2015-03-12T15:08:26Z</time>
      </trkpt>
      <trkpt lat="45.86276" lon="6.4524">
        <ele>2002.56</ele>
        <time>2015-03-12T15:08:30Z</time>
      </trkpt>
      <trkpt lat="45.86281" lon="6.45247">
        <ele>1998.72</ele>
        <time>2015-03-12T15:08:32Z</time>
      </trkpt>
      <trkpt lat="45.86275" lon="6.45258">
        <ele>1997.28</ele>
        <time>2015-03-12T15:08:34Z</time>
      </trkpt>
      <trkpt lat="45.86268" lon="6.45276">
        <ele>1995.35</ele>
        <time>2015-03-12T15:08:39Z</time>
      </trkpt>
      <trkpt lat="45.86275" lon="6.45272">
        <ele>1991.03</ele>
        <time>2015-03-12T15:08:43Z</time>
      </trkpt>
      <trkpt lat="45.8628" lon="6.45263">
        <ele>1990.07</ele>
        <time>2015-03-12T15:08:45Z</time>
      </trkpt>
      <trkpt lat="45.86284" lon="6.45259">
        <ele>1989.1</ele>
        <time>2015-03-12T15:08:46Z</time>
      </trkpt>
      <trkpt lat="45.86297" lon="6.45262">
        <ele>1983.82</ele>
        <time>2015-03-12T15:08:51Z</time>
      </trkpt>
      <trkpt lat="45.86304" lon="6.45265">
        <ele>1979.49</ele>
        <time>2015-03-12T15:08:53Z</time>
      </trkpt>
      <trkpt lat="45.86307" lon="6.4527">
        <ele>1976.61</ele>
        <time>2015-03-12T15:08:55Z</time>
      </trkpt>
      <trkpt lat="45.86309" lon="6.4528">
        <ele>1973.24</ele>
        <time>2015-03-12T15:08:57Z</time>
      </trkpt>
      <trkpt lat="45.86315" lon="6.45282">
        <ele>1969.88</ele>
        <time>2015-03-12T15:08:59Z</time>
      </trkpt>
      <trkpt lat="45.86314" lon="6.4529">
        <ele>1966.51</ele>
        <time>2015-03-12T15:09:01Z</time>
      </trkpt>
      <trkpt lat="45.86305" lon="6.4531">
        <ele>1963.15</ele>
        <time>2015-03-12T15:09:05Z</time>
      </trkpt>
      <trkpt lat="45.86301" lon="6.45314">
        <ele>1963.15</ele>
        <time>2015-03-12T15:09:06Z</time>
      </trkpt>
      <trkpt lat="45.86291" lon="6.4533">
        <ele>1961.71</ele>
        <time>2015-03-12T15:09:11Z</time>
      </trkpt>
      <trkpt lat="45.86299" lon="6.45331">
        <ele>1956.9</ele>
        <time>2015-03-12T15:09:15Z</time>
      </trkpt>
      <trkpt lat="45.86298" lon="6.45335">
        <ele>1954.98</ele>
        <time>2015-03-12T15:09:17Z</time>
      </trkpt>
      <trkpt lat="45.86302" lon="6.4534">
        <ele>1951.13</ele>
        <time>2015-03-12T15:09:21Z</time>
      </trkpt>
      <trkpt lat="45.86306" lon="6.45348">
        <ele>1946.81</ele>
        <time>2015-03-12T15:09:24Z</time>
      </trkpt>
      <trkpt lat="45.86313" lon="6.45345">
        <ele>1943.44</ele>
        <time>2015-03-12T15:09:26Z</time>
      </trkpt>
      <trkpt lat="45.86314" lon="6.45357">
        <ele>1939.12</ele>
        <time>2015-03-12T15:09:29Z</time>
      </trkpt>
      <trkpt lat="45.86321" lon="6.45362">
        <ele>1932.87</ele>
        <time>2015-03-12T15:09:31Z</time>
      </trkpt>
      <trkpt lat="45.86325" lon="6.45363">
        <ele>1932.87</ele>
        <time>2015-03-12T15:09:32Z</time>
      </trkpt>
      <trkpt lat="45.86327" lon="6.45371">
        <ele>1929.02</ele>
        <time>2015-03-12T15:09:34Z</time>
      </trkpt>
      <trkpt lat="45.86324" lon="6.45378">
        <ele>1928.06</ele>
        <time>2015-03-12T15:09:36Z</time>
      </trkpt>
      <trkpt lat="45.86326" lon="6.45382">
        <ele>1923.74</ele>
        <time>2015-03-12T15:09:39Z</time>
      </trkpt>
      <trkpt lat="45.86328" lon="6.4538">
        <ele>1922.77</ele>
        <time>2015-03-12T15:09:40Z</time>
      </trkpt>
      <trkpt lat="45.86331" lon="6.45377">
        <ele>1922.77</ele>
        <time>2015-03-12T15:09:42Z</time>
      </trkpt>
      <trkpt lat="45.86336" lon="6.45379">
        <ele>1918.93</ele>
        <time>2015-03-12T15:09:46Z</time>
      </trkpt>
      <trkpt lat="45.8633" lon="6.454">
        <ele>1915.08</ele>
        <time>2015-03-12T15:09:50Z</time>
      </trkpt>
      <trkpt lat="45.86329" lon="6.45405">
        <ele>1915.08</ele>
        <time>2015-03-12T15:09:51Z</time>
      </trkpt>
      <trkpt lat="45.86326" lon="6.45426">
        <ele>1914.6</ele>
        <time>2015-03-12T15:09:59Z</time>
      </trkpt>
      <trkpt lat="45.8633" lon="6.45437">
        <ele>1912.2</ele>
        <time>2015-03-12T15:10:03Z</time>
      </trkpt>
      <trkpt lat="45.8633" lon="6.4544">
        <ele>1911.72</ele>
        <time>2015-03-12T15:10:04Z</time>
      </trkpt>
      <trkpt lat="45.86336" lon="6.45464">
        <ele>1907.87</ele>
        <time>2015-03-12T15:10:10Z</time>
      </trkpt>
      <trkpt lat="45.86339" lon="6.45479">
        <ele>1905.47</ele>
        <time>2015-03-12T15:10:14Z</time>
      </trkpt>
      <trkpt lat="45.86341" lon="6.45491">
        <ele>1904.51</ele>
        <time>2015-03-12T15:10:25Z</time>
      </trkpt>
      <trkpt lat="45.8634" lon="6.45491">
        <ele>1904.51</ele>
        <time>2015-03-12T15:11:02Z</time>
      </trkpt>
      <trkpt lat="45.86341" lon="6.45492">
        <ele>1904.03</ele>
        <time>2015-03-12T15:11:06Z</time>
      </trkpt>
      <trkpt lat="45.86345" lon="6.455">
        <ele>1901.63</ele>
        <time>2015-03-12T15:11:11Z</time>
      </trkpt>
      <trkpt lat="45.86346" lon="6.45502">
        <ele>1901.14</ele>
        <time>2015-03-12T15:11:12Z</time>
      </trkpt>
      <trkpt lat="45.86354" lon="6.45502">
        <ele>1896.34</ele>
        <time>2015-03-12T15:11:15Z</time>
      </trkpt>
      <trkpt lat="45.8636" lon="6.45503">
        <ele>1893.45</ele>
        <time>2015-03-12T15:11:17Z</time>
      </trkpt>
      <trkpt lat="45.86366" lon="6.45506">
        <ele>1889.61</ele>
        <time>2015-03-12T15:11:19Z</time>
      </trkpt>
      <trkpt lat="45.86374" lon="6.45509">
        <ele>1884.8</ele>
        <time>2015-03-12T15:11:21Z</time>
      </trkpt>
      <trkpt lat="45.86386" lon="6.4551">
        <ele>1876.15</ele>
        <time>2015-03-12T15:11:24Z</time>
      </trkpt>
      <trkpt lat="45.86395" lon="6.45507">
        <ele>1871.82</ele>
        <time>2015-03-12T15:11:26Z</time>
      </trkpt>
      <trkpt lat="45.86399" lon="6.45505">
        <ele>1868.94</ele>
        <time>2015-03-12T15:11:27Z</time>
      </trkpt>
      <trkpt lat="45.86411" lon="6.45497">
        <ele>1861.73</ele>
        <time>2015-03-12T15:11:30Z</time>
      </trkpt>
      <trkpt lat="45.86418" lon="6.45498">
        <ele>1856.44</ele>
        <time>2015-03-12T15:11:32Z</time>
      </trkpt>
      <trkpt lat="45.86421" lon="6.45503">
        <ele>1853.56</ele>
        <time>2015-03-12T15:11:33Z</time>
      </trkpt>
      <trkpt lat="45.86424" lon="6.45515">
        <ele>1849.71</ele>
        <time>2015-03-12T15:11:35Z</time>
      </trkpt>
      <trkpt lat="45.86425" lon="6.45527">
        <ele>1846.35</ele>
        <time>2015-03-12T15:11:37Z</time>
      </trkpt>
      <trkpt lat="45.86425" lon="6.45545">
        <ele>1843.95</ele>
        <time>2015-03-12T15:11:40Z</time>
      </trkpt>
      <trkpt lat="45.86422" lon="6.45551">
        <ele>1842.98</ele>
        <time>2015-03-12T15:11:49Z</time>
      </trkpt>
      <trkpt lat="45.8642" lon="6.45555">
        <ele>1842.02</ele>
        <time>2015-03-12T15:12:21Z</time>
      </trkpt>
      <trkpt lat="45.86421" lon="6.45556">
        <ele>1841.54</ele>
        <time>2015-03-12T15:12:25Z</time>
      </trkpt>
      <trkpt lat="45.86424" lon="6.45554">
        <ele>1839.62</ele>
        <time>2015-03-12T15:12:28Z</time>
      </trkpt>
      <trkpt lat="45.86431" lon="6.45562">
        <ele>1835.77</ele>
        <time>2015-03-12T15:12:32Z</time>
      </trkpt>
      <trkpt lat="45.86438" lon="6.45561">
        <ele>1830.97</ele>
        <time>2015-03-12T15:12:34Z</time>
      </trkpt>
      <trkpt lat="45.86445" lon="6.45554">
        <ele>1827.12</ele>
        <time>2015-03-12T15:12:36Z</time>
      </trkpt>
      <trkpt lat="45.86455" lon="6.4556">
        <ele>1820.39</ele>
        <time>2015-03-12T15:12:40Z</time>
      </trkpt>
      <trkpt lat="45.86457" lon="6.4557">
        <ele>1817.99</ele>
        <time>2015-03-12T15:12:42Z</time>
      </trkpt>
      <trkpt lat="45.86458" lon="6.45584">
        <ele>1814.63</ele>
        <time>2015-03-12T15:12:45Z</time>
      </trkpt>
      <trkpt lat="45.86457" lon="6.45588">
        <ele>1814.15</ele>
        <time>2015-03-12T15:12:49Z</time>
      </trkpt>
      <trkpt lat="45.86446" lon="6.45598">
        <ele>1809.82</ele>
        <time>2015-03-12T15:12:53Z</time>
      </trkpt>
      <trkpt lat="45.86439" lon="6.45622">
        <ele>1807.42</ele>
        <time>2015-03-12T15:12:56Z</time>
      </trkpt>
      <trkpt lat="45.86439" lon="6.4564">
        <ele>1805.01</ele>
        <time>2015-03-12T15:12:58Z</time>
      </trkpt>
      <trkpt lat="45.86441" lon="6.45667">
        <ele>1802.13</ele>
        <time>2015-03-12T15:13:01Z</time>
      </trkpt>
      <trkpt lat="45.86442" lon="6.45686">
        <ele>1802.13</ele>
        <time>2015-03-12T15:13:05Z</time>
      </trkpt>
      <trkpt lat="45.86441" lon="6.45714">
        <ele>1796.84</ele>
        <time>2015-03-12T15:13:09Z</time>
      </trkpt>
      <trkpt lat="45.86442" lon="6.45723">
        <ele>1795.4</ele>
        <time>2015-03-12T15:13:10Z</time>
      </trkpt>
      <trkpt lat="45.86451" lon="6.45745">
        <ele>1796.36</ele>
        <time>2015-03-12T15:13:15Z</time>
      </trkpt>
      <trkpt lat="45.86458" lon="6.45777">
        <ele>1793.48</ele>
        <time>2015-03-12T15:13:28Z</time>
      </trkpt>
      <trkpt lat="45.86462" lon="6.45786">
        <ele>1792.52</ele>
        <time>2015-03-12T15:13:30Z</time>
      </trkpt>
      <trkpt lat="45.86466" lon="6.45789">
        <ele>1793.48</ele>
        <time>2015-03-12T15:13:34Z</time>
      </trkpt>
      <trkpt lat="45.86469" lon="6.45792">
        <ele>1793.48</ele>
        <time>2015-03-12T15:13:49Z</time>
      </trkpt>
      <trkpt lat="45.86469" lon="6.45806">
        <ele>1790.59</ele>
        <time>2015-03-12T15:14:09Z</time>
      </trkpt>
      <trkpt lat="45.86467" lon="6.45815">
        <ele>1788.67</ele>
        <time>2015-03-12T15:14:11Z</time>
      </trkpt>
      <trkpt lat="45.86467" lon="6.45839">
        <ele>1784.82</ele>
        <time>2015-03-12T15:14:15Z</time>
      </trkpt>
      <trkpt lat="45.86469" lon="6.45856">
        <ele>1780.02</ele>
        <time>2015-03-12T15:14:17Z</time>
      </trkpt>
      <trkpt lat="45.86469" lon="6.45863">
        <ele>1780.02</ele>
        <time>2015-03-12T15:14:18Z</time>
      </trkpt>
      <trkpt lat="45.8647" lon="6.45879">
        <ele>1779.06</ele>
        <time>2015-03-12T15:14:21Z</time>
      </trkpt>
      <trkpt lat="45.86471" lon="6.45896">
        <ele>1778.58</ele>
        <time>2015-03-12T15:14:27Z</time>
      </trkpt>
      <trkpt lat="45.86474" lon="6.45909">
        <ele>1773.77</ele>
        <time>2015-03-12T15:14:31Z</time>
      </trkpt>
      <trkpt lat="45.86476" lon="6.45923">
        <ele>1769.92</ele>
        <time>2015-03-12T15:14:33Z</time>
      </trkpt>
      <trkpt lat="45.86479" lon="6.45949">
        <ele>1765.6</ele>
        <time>2015-03-12T15:14:38Z</time>
      </trkpt>
      <trkpt lat="45.86479" lon="6.45973">
        <ele>1763.68</ele>
        <time>2015-03-12T15:14:49Z</time>
      </trkpt>
      <trkpt lat="45.86479" lon="6.45979">
        <ele>1761.75</ele>
        <time>2015-03-12T15:14:57Z</time>
      </trkpt>
      <trkpt lat="45.86479" lon="6.4599">
        <ele>1757.91</ele>
        <time>2015-03-12T15:15:00Z</time>
      </trkpt>
      <trkpt lat="45.86476" lon="6.46002">
        <ele>1755.02</ele>
        <time>2015-03-12T15:15:02Z</time>
      </trkpt>
      <trkpt lat="45.86467" lon="6.46029">
        <ele>1751.18</ele>
        <time>2015-03-12T15:15:10Z</time>
      </trkpt>
      <trkpt lat="45.86469" lon="6.46033">
        <ele>1749.74</ele>
        <time>2015-03-12T15:15:23Z</time>
      </trkpt>
      <trkpt lat="45.86476" lon="6.46033">
        <ele>1746.37</ele>
        <time>2015-03-12T15:15:27Z</time>
      </trkpt>
      <trkpt lat="45.86479" lon="6.46031">
        <ele>1745.41</ele>
        <time>2015-03-12T15:15:28Z</time>
      </trkpt>
      <trkpt lat="45.86494" lon="6.46018">
        <ele>1740.12</ele>
        <time>2015-03-12T15:15:32Z</time>
      </trkpt>
      <trkpt lat="45.86506" lon="6.46008">
        <ele>1736.76</ele>
        <time>2015-03-12T15:15:35Z</time>
      </trkpt>
      <trkpt lat="45.86511" lon="6.46025">
        <ele>1731.95</ele>
        <time>2015-03-12T15:15:39Z</time>
      </trkpt>
      <trkpt lat="45.8651" lon="6.46034">
        <ele>1730.51</ele>
        <time>2015-03-12T15:15:41Z</time>
      </trkpt>
      <trkpt lat="45.86507" lon="6.4605">
        <ele>1728.11</ele>
        <time>2015-03-12T15:15:46Z</time>
      </trkpt>
      <trkpt lat="45.86506" lon="6.46052">
        <ele>1727.15</ele>
        <time>2015-03-12T15:15:47Z</time>
      </trkpt>
      <trkpt lat="45.86511" lon="6.46058">
        <ele>1722.82</ele>
        <time>2015-03-12T15:15:51Z</time>
      </trkpt>
      <trkpt lat="45.86513" lon="6.46057">
        <ele>1721.38</ele>
        <time>2015-03-12T15:15:52Z</time>
      </trkpt>
      <trkpt lat="45.86518" lon="6.46055">
        <ele>1720.9</ele>
        <time>2015-03-12T15:15:54Z</time>
      </trkpt>
      <trkpt lat="45.8652" lon="6.46054">
        <ele>1719.94</ele>
        <time>2015-03-12T15:15:55Z</time>
      </trkpt>
      <trkpt lat="45.86521" lon="6.46063">
        <ele>1716.57</ele>
        <time>2015-03-12T15:15:59Z</time>
      </trkpt>
      <trkpt lat="45.86511" lon="6.46075">
        <ele>1713.21</ele>
        <time>2015-03-12T15:16:06Z</time>
      </trkpt>
      <trkpt lat="45.8651" lon="6.46077">
        <ele>1712.73</ele>
        <time>2015-03-12T15:16:11Z</time>
      </trkpt>
      <trkpt lat="45.86514" lon="6.46079">
        <ele>1710.8</ele>
        <time>2015-03-12T15:16:14Z</time>
      </trkpt>
      <trkpt lat="45.86521" lon="6.46078">
        <ele>1707.92</ele>
        <time>2015-03-12T15:16:17Z</time>
      </trkpt>
      <trkpt lat="45.86523" lon="6.46077">
        <ele>1707.92</ele>
        <time>2015-03-12T15:16:18Z</time>
      </trkpt>
      <trkpt lat="45.86526" lon="6.46076">
        <ele>1707.92</ele>
        <time>2015-03-12T15:16:22Z</time>
      </trkpt>
      <trkpt lat="45.86534" lon="6.46072">
        <ele>1705.52</ele>
        <time>2015-03-12T15:16:26Z</time>
      </trkpt>
      <trkpt lat="45.86542" lon="6.46071">
        <ele>1704.55</ele>
        <time>2015-03-12T15:16:36Z</time>
      </trkpt>
      <trkpt lat="45.86549" lon="6.46068">
        <ele>1700.71</ele>
        <time>2015-03-12T15:16:40Z</time>
      </trkpt>
      <trkpt lat="45.86559" lon="6.4606">
        <ele>1697.34</ele>
        <time>2015-03-12T15:16:45Z</time>
      </trkpt>
      <trkpt lat="45.86564" lon="6.46065">
        <ele>1693.98</ele>
        <time>2015-03-12T15:16:48Z</time>
      </trkpt>
      <trkpt lat="45.86569" lon="6.46073">
        <ele>1687.73</ele>
        <time>2015-03-12T15:16:52Z</time>
      </trkpt>
      <trkpt lat="45.86576" lon="6.46078">
        <ele>1683.41</ele>
        <time>2015-03-12T15:16:55Z</time>
      </trkpt>
      <trkpt lat="45.86575" lon="6.46086">
        <ele>1680.04</ele>
        <time>2015-03-12T15:16:57Z</time>
      </trkpt>
      <trkpt lat="45.86577" lon="6.461">
        <ele>1675.72</ele>
        <time>2015-03-12T15:17:00Z</time>
      </trkpt>
      <trkpt lat="45.86581" lon="6.46106">
        <ele>1672.35</ele>
        <time>2015-03-12T15:17:02Z</time>
      </trkpt>
      <trkpt lat="45.86585" lon="6.46113">
        <ele>1668.51</ele>
        <time>2015-03-12T15:17:05Z</time>
      </trkpt>
      <trkpt lat="45.86584" lon="6.46116">
        <ele>1668.02</ele>
        <time>2015-03-12T15:17:07Z</time>
      </trkpt>
      <trkpt lat="45.86582" lon="6.46118">
        <ele>1668.02</ele>
        <time>2015-03-12T15:17:20Z</time>
      </trkpt>
      <trkpt lat="45.86586" lon="6.4612">
        <ele>1666.58</ele>
        <time>2015-03-12T15:17:38Z</time>
      </trkpt>
      <trkpt lat="45.86586" lon="6.46121">
        <ele>1666.1</ele>
        <time>2015-03-12T15:17:39Z</time>
      </trkpt>
      <trkpt lat="45.86592" lon="6.46121">
        <ele>1662.26</ele>
        <time>2015-03-12T15:17:42Z</time>
      </trkpt>
      <trkpt lat="45.86594" lon="6.4612">
        <ele>1661.78</ele>
        <time>2015-03-12T15:17:43Z</time>
      </trkpt>
      <trkpt lat="45.86603" lon="6.46117">
        <ele>1658.89</ele>
        <time>2015-03-12T15:17:47Z</time>
      </trkpt>
      <trkpt lat="45.86605" lon="6.46116">
        <ele>1658.89</ele>
        <time>2015-03-12T15:17:48Z</time>
      </trkpt>
      <trkpt lat="45.86611" lon="6.46122">
        <ele>1655.05</ele>
        <time>2015-03-12T15:17:52Z</time>
      </trkpt>
      <trkpt lat="45.86616" lon="6.46127">
        <ele>1651.2</ele>
        <time>2015-03-12T15:17:55Z</time>
      </trkpt>
      <trkpt lat="45.86617" lon="6.46135">
        <ele>1646.88</ele>
        <time>2015-03-12T15:17:57Z</time>
      </trkpt>
      <trkpt lat="45.86619" lon="6.46142">
        <ele>1643.99</ele>
        <time>2015-03-12T15:17:59Z</time>
      </trkpt>
      <trkpt lat="45.86624" lon="6.46143">
        <ele>1640.15</ele>
        <time>2015-03-12T15:18:01Z</time>
      </trkpt>
      <trkpt lat="45.86625" lon="6.46143">
        <ele>1640.15</ele>
        <time>2015-03-12T15:18:02Z</time>
      </trkpt>
      <trkpt lat="45.86626" lon="6.46144">
        <ele>1639.19</ele>
        <time>2015-03-12T15:18:03Z</time>
      </trkpt>
      <trkpt lat="45.86626" lon="6.46153">
        <ele>1634.86</ele>
        <time>2015-03-12T15:18:06Z</time>
      </trkpt>
      <trkpt lat="45.86636" lon="6.46163">
        <ele>1630.05</ele>
        <time>2015-03-12T15:18:10Z</time>
      </trkpt>
      <trkpt lat="45.86638" lon="6.46162">
        <ele>1629.57</ele>
        <time>2015-03-12T15:18:11Z</time>
      </trkpt>
      <trkpt lat="45.86641" lon="6.4616">
        <ele>1628.61</ele>
        <time>2015-03-12T15:18:13Z</time>
      </trkpt>
      <trkpt lat="45.86641" lon="6.46177">
        <ele>1625.73</ele>
        <time>2015-03-12T15:18:23Z</time>
      </trkpt>
      <trkpt lat="45.86642" lon="6.46178">
        <ele>1625.73</ele>
        <time>2015-03-12T15:18:27Z</time>
      </trkpt>
      <trkpt lat="45.86642" lon="6.46186">
        <ele>1622.36</ele>
        <time>2015-03-12T15:18:30Z</time>
      </trkpt>
      <trkpt lat="45.8664" lon="6.46195">
        <ele>1621.4</ele>
        <time>2015-03-12T15:18:42Z</time>
      </trkpt>
      <trkpt lat="45.86644" lon="6.46203">
        <ele>1616.59</ele>
        <time>2015-03-12T15:18:44Z</time>
      </trkpt>
      <trkpt lat="45.86644" lon="6.46206">
        <ele>1616.59</ele>
        <time>2015-03-12T15:18:45Z</time>
      </trkpt>
      <trkpt lat="45.86639" lon="6.46211">
        <ele>1616.59</ele>
        <time>2015-03-12T15:18:57Z</time>
      </trkpt>
      <trkpt lat="45.86639" lon="6.46209">
        <ele>1616.59</ele>
        <time>2015-03-12T15:19:00Z</time>
      </trkpt>
      <trkpt lat="45.8665" lon="6.46209">
        <ele>1612.75</ele>
        <time>2015-03-12T15:19:06Z</time>
      </trkpt>
      <trkpt lat="45.86651" lon="6.46211">
        <ele>1612.27</ele>
        <time>2015-03-12T15:19:08Z</time>
      </trkpt>
      <trkpt lat="45.86657" lon="6.46214">
        <ele>1608.42</ele>
        <time>2015-03-12T15:19:12Z</time>
      </trkpt>
      <trkpt lat="45.8666" lon="6.46223">
        <ele>1604.58</ele>
        <time>2015-03-12T15:19:18Z</time>
      </trkpt>
      <trkpt lat="45.86659" lon="6.46225">
        <ele>1603.62</ele>
        <time>2015-03-12T15:19:20Z</time>
      </trkpt>
      <trkpt lat="45.86659" lon="6.46228">
        <ele>1601.69</ele>
        <time>2015-03-12T15:19:23Z</time>
      </trkpt>
      <trkpt lat="45.86655" lon="6.46234">
        <ele>1598.81</ele>
        <time>2015-03-12T15:19:29Z</time>
      </trkpt>
      <trkpt lat="45.86651" lon="6.46236">
        <ele>1598.33</ele>
        <time>2015-03-12T15:19:32Z</time>
      </trkpt>
      <trkpt lat="45.86646" lon="6.46242">
        <ele>1594.48</ele>
        <time>2015-03-12T15:19:35Z</time>
      </trkpt>
      <trkpt lat="45.86642" lon="6.46244">
        <ele>1591.12</ele>
        <time>2015-03-12T15:19:36Z</time>
      </trkpt>
      <trkpt lat="45.86635" lon="6.46248">
        <ele>1589.2</ele>
        <time>2015-03-12T15:19:38Z</time>
      </trkpt>
      <trkpt lat="45.86624" lon="6.46252">
        <ele>1589.2</ele>
        <time>2015-03-12T15:19:47Z</time>
      </trkpt>
      <trkpt lat="45.86616" lon="6.46258">
        <ele>1587.75</ele>
        <time>2015-03-12T15:19:51Z</time>
      </trkpt>
      <trkpt lat="45.86601" lon="6.46268">
        <ele>1585.83</ele>
        <time>2015-03-12T15:19:56Z</time>
      </trkpt>
      <trkpt lat="45.86596" lon="6.46266">
        <ele>1587.27</ele>
        <time>2015-03-12T15:20:05Z</time>
      </trkpt>
      <trkpt lat="45.86587" lon="6.46276">
        <ele>1583.43</ele>
        <time>2015-03-12T15:20:08Z</time>
      </trkpt>
      <trkpt lat="45.86559" lon="6.463">
        <ele>1580.06</ele>
        <time>2015-03-12T15:20:14Z</time>
      </trkpt>
      <trkpt lat="45.86544" lon="6.46313">
        <ele>1578.14</ele>
        <time>2015-03-12T15:20:17Z</time>
      </trkpt>
      <trkpt lat="45.86525" lon="6.46327">
        <ele>1578.14</ele>
        <time>2015-03-12T15:20:22Z</time>
      </trkpt>
      <trkpt lat="45.8651" lon="6.46344">
        <ele>1578.62</ele>
        <time>2015-03-12T15:20:29Z</time>
      </trkpt>
      <trkpt lat="45.86507" lon="6.46348">
        <ele>1579.1</ele>
        <time>2015-03-12T15:20:49Z</time>
      </trkpt>
      <trkpt lat="45.86506" lon="6.46352">
        <ele>1579.58</ele>
        <time>2015-03-12T15:21:20Z</time>
      </trkpt>
      <trkpt lat="45.86507" lon="6.4635">
        <ele>1578.14</ele>
        <time>2015-03-12T15:21:46Z</time>
      </trkpt>
      <trkpt lat="45.86507" lon="6.4635">
        <ele>1579.58</ele>
        <time>2015-03-12T15:21:48Z</time>
      </trkpt>
      <trkpt lat="45.86508" lon="6.46348">
        <ele>1579.58</ele>
        <time>2015-03-12T15:22:12Z</time>
      </trkpt>
      <trkpt lat="45.86509" lon="6.46348">
        <ele>1579.58</ele>
        <time>2015-03-12T15:22:36Z</time>
      </trkpt>
      <trkpt lat="45.86508" lon="6.46348">
        <ele>1578.62</ele>
        <time>2015-03-12T15:23:02Z</time>
      </trkpt>
      <trkpt lat="45.8651" lon="6.46349">
        <ele>1578.62</ele>
        <time>2015-03-12T15:23:28Z</time>
      </trkpt>
      <trkpt lat="45.86508" lon="6.4635">
        <ele>1578.62</ele>
        <time>2015-03-12T15:23:52Z</time>
      </trkpt>
      <trkpt lat="45.86509" lon="6.46347">
        <ele>1578.62</ele>
        <time>2015-03-12T15:24:14Z</time>
      </trkpt>
      <trkpt lat="45.86509" lon="6.46346">
        <ele>1575.26</ele>
        <time>2015-03-12T15:24:30Z</time>
      </trkpt>
      <trkpt lat="45.86509" lon="6.46346">
        <ele>1582.47</ele>
        <time>2015-03-12T15:24:31Z</time>
      </trkpt>
      <trkpt lat="45.86509" lon="6.46346">
        <ele>1578.62</ele>
        <time>2015-03-12T15:24:32Z</time>
      </trkpt>
      <trkpt lat="45.86508" lon="6.46343">
        <ele>1578.62</ele>
        <time>2015-03-12T15:24:54Z</time>
      </trkpt>
      <trkpt lat="45.86509" lon="6.46345">
        <ele>1578.62</ele>
        <time>2015-03-12T15:25:23Z</time>
      </trkpt>
      <trkpt lat="45.86508" lon="6.46345">
        <ele>1578.62</ele>
        <time>2015-03-12T15:25:48Z</time>
      </trkpt>
      <trkpt lat="45.86507" lon="6.46345">
        <ele>1578.14</ele>
        <time>2015-03-12T15:26:16Z</time>
      </trkpt>
      <trkpt lat="45.86508" lon="6.46346">
        <ele>1578.14</ele>
        <time>2015-03-12T15:26:43Z</time>
      </trkpt>
      <trkpt lat="45.86508" lon="6.46345">
        <ele>1578.14</ele>
        <time>2015-03-12T15:27:01Z</time>
      </trkpt>
      <trkpt lat="45.86508" lon="6.46347">
        <ele>1576.7</ele>
        <time>2015-03-12T15:27:22Z</time>
      </trkpt>
      <trkpt lat="45.86509" lon="6.46348">
        <ele>1578.14</ele>
        <time>2015-03-12T15:27:42Z</time>
      </trkpt>
      <trkpt lat="45.86512" lon="6.46354">
        <ele>1578.14</ele>
        <time>2015-03-12T15:28:05Z</time>
      </trkpt>
      <trkpt lat="45.86512" lon="6.4635">
        <ele>1578.14</ele>
        <time>2015-03-12T15:28:36Z</time>
      </trkpt>
      <trkpt lat="45.8651" lon="6.46354">
        <ele>1578.14</ele>
        <time>2015-03-12T15:28:56Z</time>
      </trkpt>
      <trkpt lat="45.8651" lon="6.46352">
        <ele>1572.85</ele>
        <time>2015-03-12T15:29:17Z</time>
      </trkpt>
      <trkpt lat="45.86511" lon="6.46352">
        <ele>1584.87</ele>
        <time>2015-03-12T15:29:18Z</time>
      </trkpt>
      <trkpt lat="45.86511" lon="6.46351">
        <ele>1579.58</ele>
        <time>2015-03-12T15:29:19Z</time>
      </trkpt>
      <trkpt lat="45.86511" lon="6.46351">
        <ele>1579.1</ele>
        <time>2015-03-12T15:29:21Z</time>
      </trkpt>
      <trkpt lat="45.86511" lon="6.46351">
        <ele>1579.1</ele>
        <time>2015-03-12T15:29:49Z</time>
      </trkpt>
      <trkpt lat="45.8651" lon="6.46354">
        <ele>1579.1</ele>
        <time>2015-03-12T15:30:16Z</time>
      </trkpt>
      <trkpt lat="45.8651" lon="6.46354">
        <ele>1579.58</ele>
        <time>2015-03-12T15:30:47Z</time>
      </trkpt>
      <trkpt lat="45.86511" lon="6.46355">
        <ele>1579.58</ele>
        <time>2015-03-12T15:31:19Z</time>
      </trkpt>
      <trkpt lat="45.86506" lon="6.46353">
        <ele>1579.58</ele>
        <time>2015-03-12T15:31:36Z</time>
      </trkpt>
      <trkpt lat="45.86502" lon="6.46351">
        <ele>1581.51</ele>
        <time>2015-03-12T15:31:41Z</time>
      </trkpt>
      <trkpt lat="45.86486" lon="6.46352">
        <ele>1582.95</ele>
        <time>2015-03-12T15:31:59Z</time>
      </trkpt>
      <trkpt lat="45.86471" lon="6.46356">
        <ele>1583.91</ele>
        <time>2015-03-12T15:32:16Z</time>
      </trkpt>
      <trkpt lat="45.86457" lon="6.46361">
        <ele>1586.31</ele>
        <time>2015-03-12T15:32:35Z</time>
      </trkpt>
      <trkpt lat="45.86451" lon="6.46362">
        <ele>1587.27</ele>
        <time>2015-03-12T15:32:42Z</time>
      </trkpt>
      <trkpt lat="45.8644" lon="6.46358">
        <ele>1589.2</ele>
        <time>2015-03-12T15:32:56Z</time>
      </trkpt>
      <trkpt lat="45.86426" lon="6.4635">
        <ele>1591.6</ele>
        <time>2015-03-12T15:33:13Z</time>
      </trkpt>
      <trkpt lat="45.86412" lon="6.46344">
        <ele>1594</ele>
        <time>2015-03-12T15:33:33Z</time>
      </trkpt>
      <trkpt lat="45.864" lon="6.46339">
        <ele>1597.37</ele>
        <time>2015-03-12T15:33:50Z</time>
      </trkpt>
      <trkpt lat="45.8639" lon="6.4633">
        <ele>1599.77</ele>
        <time>2015-03-12T15:34:06Z</time>
      </trkpt>
      <trkpt lat="45.86378" lon="6.46325">
        <ele>1603.14</ele>
        <time>2015-03-12T15:34:24Z</time>
      </trkpt>
      <trkpt lat="45.86365" lon="6.46327">
        <ele>1606.5</ele>
        <time>2015-03-12T15:34:42Z</time>
      </trkpt>
      <trkpt lat="45.86351" lon="6.46329">
        <ele>1610.35</ele>
        <time>2015-03-12T15:35:02Z</time>
      </trkpt>
      <trkpt lat="45.86345" lon="6.46337">
        <ele>1612.75</ele>
        <time>2015-03-12T15:35:20Z</time>
      </trkpt>
      <trkpt lat="45.86355" lon="6.46348">
        <ele>1615.15</ele>
        <time>2015-03-12T15:35:35Z</time>
      </trkpt>
      <trkpt lat="45.86364" lon="6.46357">
        <ele>1616.59</ele>
        <time>2015-03-12T15:35:48Z</time>
      </trkpt>
      <trkpt lat="45.86363" lon="6.46384">
        <ele>1617.56</ele>
        <time>2015-03-12T15:36:04Z</time>
      </trkpt>
      <trkpt lat="45.86358" lon="6.46413">
        <ele>1616.11</ele>
        <time>2015-03-12T15:36:20Z</time>
      </trkpt>
      <trkpt lat="45.86358" lon="6.46414">
        <ele>1616.11</ele>
        <time>2015-03-12T15:36:21Z</time>
      </trkpt>
      <trkpt lat="45.86354" lon="6.46418">
        <ele>1616.11</ele>
        <time>2015-03-12T15:36:25Z</time>
      </trkpt>
      <trkpt lat="45.86346" lon="6.46428">
        <ele>1616.11</ele>
        <time>2015-03-12T15:36:33Z</time>
      </trkpt>
      <trkpt lat="45.86352" lon="6.46456">
        <ele>1616.11</ele>
        <time>2015-03-12T15:36:49Z</time>
      </trkpt>
      <trkpt lat="45.86357" lon="6.46467">
        <ele>1619</ele>
        <time>2015-03-12T15:37:00Z</time>
      </trkpt>
      <trkpt lat="45.8636" lon="6.46488">
        <ele>1621.88</ele>
        <time>2015-03-12T15:37:17Z</time>
      </trkpt>
      <trkpt lat="45.86361" lon="6.465">
        <ele>1622.84</ele>
        <time>2015-03-12T15:37:27Z</time>
      </trkpt>
      <trkpt lat="45.86356" lon="6.46522">
        <ele>1624.28</ele>
        <time>2015-03-12T15:37:43Z</time>
      </trkpt>
      <trkpt lat="45.86354" lon="6.46542">
        <ele>1625.73</ele>
        <time>2015-03-12T15:37:59Z</time>
      </trkpt>
      <trkpt lat="45.86356" lon="6.46559">
        <ele>1629.09</ele>
        <time>2015-03-12T15:38:15Z</time>
      </trkpt>
      <trkpt lat="45.86356" lon="6.46575">
        <ele>1632.46</ele>
        <time>2015-03-12T15:38:30Z</time>
      </trkpt>
      <trkpt lat="45.86352" lon="6.46591">
        <ele>1633.9</ele>
        <time>2015-03-12T15:38:44Z</time>
      </trkpt>
      <trkpt lat="45.86348" lon="6.4661">
        <ele>1635.82</ele>
        <time>2015-03-12T15:39:01Z</time>
      </trkpt>
      <trkpt lat="45.86349" lon="6.46628">
        <ele>1637.74</ele>
        <time>2015-03-12T15:39:16Z</time>
      </trkpt>
      <trkpt lat="45.86351" lon="6.46647">
        <ele>1640.15</ele>
        <time>2015-03-12T15:39:31Z</time>
      </trkpt>
      <trkpt lat="45.86355" lon="6.46665">
        <ele>1642.55</ele>
        <time>2015-03-12T15:39:47Z</time>
      </trkpt>
      <trkpt lat="45.86359" lon="6.46677">
        <ele>1644.47</ele>
        <time>2015-03-12T15:39:58Z</time>
      </trkpt>
      <trkpt lat="45.86361" lon="6.46685">
        <ele>1644.95</ele>
        <time>2015-03-12T15:40:05Z</time>
      </trkpt>
      <trkpt lat="45.86359" lon="6.46709">
        <ele>1643.03</ele>
        <time>2015-03-12T15:40:20Z</time>
      </trkpt>
      <trkpt lat="45.86355" lon="6.46729">
        <ele>1642.55</ele>
        <time>2015-03-12T15:40:35Z</time>
      </trkpt>
      <trkpt lat="45.86351" lon="6.46752">
        <ele>1642.55</ele>
        <time>2015-03-12T15:40:48Z</time>
      </trkpt>
      <trkpt lat="45.86353" lon="6.46763">
        <ele>1643.99</ele>
        <time>2015-03-12T15:40:55Z</time>
      </trkpt>
      <trkpt lat="45.8636" lon="6.46783">
        <ele>1645.91</ele>
        <time>2015-03-12T15:41:13Z</time>
      </trkpt>
      <trkpt lat="45.86368" lon="6.46798">
        <ele>1647.36</ele>
        <time>2015-03-12T15:41:28Z</time>
      </trkpt>
      <trkpt lat="45.86375" lon="6.46811">
        <ele>1650.72</ele>
        <time>2015-03-12T15:41:42Z</time>
      </trkpt>
      <trkpt lat="45.86383" lon="6.4683">
        <ele>1652.64</ele>
        <time>2015-03-12T15:41:59Z</time>
      </trkpt>
      <trkpt lat="45.86383" lon="6.46833">
        <ele>1652.64</ele>
        <time>2015-03-12T15:42:01Z</time>
      </trkpt>
      <trkpt lat="45.86382" lon="6.46838">
        <ele>1652.64</ele>
        <time>2015-03-12T15:42:06Z</time>
      </trkpt>
      <trkpt lat="45.86368" lon="6.46855">
        <ele>1653.12</ele>
        <time>2015-03-12T15:42:22Z</time>
      </trkpt>
      <trkpt lat="45.86358" lon="6.46871">
        <ele>1653.12</ele>
        <time>2015-03-12T15:42:36Z</time>
      </trkpt>
      <trkpt lat="45.86345" lon="6.4689">
        <ele>1653.12</ele>
        <time>2015-03-12T15:42:53Z</time>
      </trkpt>
      <trkpt lat="45.86334" lon="6.46906">
        <ele>1653.12</ele>
        <time>2015-03-12T15:43:08Z</time>
      </trkpt>
      <trkpt lat="45.86322" lon="6.46923">
        <ele>1651.68</ele>
        <time>2015-03-12T15:43:23Z</time>
      </trkpt>
      <trkpt lat="45.86318" lon="6.46926">
        <ele>1651.68</ele>
        <time>2015-03-12T15:43:42Z</time>
      </trkpt>
      <trkpt lat="45.86318" lon="6.46927">
        <ele>1651.2</ele>
        <time>2015-03-12T15:44:06Z</time>
      </trkpt>
      <trkpt lat="45.86318" lon="6.46927">
        <ele>1652.16</ele>
        <time>2015-03-12T15:44:11Z</time>
      </trkpt>
      <trkpt lat="45.86318" lon="6.46927">
        <ele>1653.12</ele>
        <time>2015-03-12T15:44:31Z</time>
      </trkpt>
      <trkpt lat="45.86318" lon="6.46929">
        <ele>1651.68</ele>
        <time>2015-03-12T15:44:43Z</time>
      </trkpt>
      <trkpt lat="45.86318" lon="6.46928">
        <ele>1651.68</ele>
        <time>2015-03-12T15:45:06Z</time>
      </trkpt>
      <trkpt lat="45.86318" lon="6.46929">
        <ele>1651.2</ele>
        <time>2015-03-12T15:45:28Z</time>
      </trkpt>
      <trkpt lat="45.86319" lon="6.46928">
        <ele>1650.72</ele>
        <time>2015-03-12T15:45:52Z</time>
      </trkpt>
      <trkpt lat="45.86318" lon="6.46929">
        <ele>1652.16</ele>
        <time>2015-03-12T15:46:06Z</time>
      </trkpt>
      <trkpt lat="45.86318" lon="6.46928">
        <ele>1650.24</ele>
        <time>2015-03-12T15:46:11Z</time>
      </trkpt>
      <trkpt lat="45.86318" lon="6.46928">
        <ele>1652.64</ele>
        <time>2015-03-12T15:46:13Z</time>
      </trkpt>
      <trkpt lat="45.86318" lon="6.46927">
        <ele>1651.2</ele>
        <time>2015-03-12T15:46:15Z</time>
      </trkpt>
      <trkpt lat="45.86319" lon="6.46928">
        <ele>1648.8</ele>
        <time>2015-03-12T15:46:19Z</time>
      </trkpt>
      <trkpt lat="45.86319" lon="6.46928">
        <ele>1654.57</ele>
        <time>2015-03-12T15:46:20Z</time>
      </trkpt>
      <trkpt lat="45.86319" lon="6.46928">
        <ele>1648.8</ele>
        <time>2015-03-12T15:46:21Z</time>
      </trkpt>
      <trkpt lat="45.86319" lon="6.46927">
        <ele>1653.12</ele>
        <time>2015-03-12T15:46:22Z</time>
      </trkpt>
      <trkpt lat="45.86319" lon="6.46927">
        <ele>1651.2</ele>
        <time>2015-03-12T15:46:25Z</time>
      </trkpt>
      <trkpt lat="45.86319" lon="6.46927">
        <ele>1649.76</ele>
        <time>2015-03-12T15:46:29Z</time>
      </trkpt>
      <trkpt lat="45.86319" lon="6.46929">
        <ele>1648.32</ele>
        <time>2015-03-12T15:46:31Z</time>
      </trkpt>
      <trkpt lat="45.86319" lon="6.4693">
        <ele>1654.57</ele>
        <time>2015-03-12T15:46:33Z</time>
      </trkpt>
      <trkpt lat="45.86319" lon="6.46928">
        <ele>1651.2</ele>
        <time>2015-03-12T15:46:35Z</time>
      </trkpt>
      <trkpt lat="45.86319" lon="6.46928">
        <ele>1651.2</ele>
        <time>2015-03-12T15:46:36Z</time>
      </trkpt>
      <trkpt lat="45.86319" lon="6.46929">
        <ele>1651.2</ele>
        <time>2015-03-12T15:47:05Z</time>
      </trkpt>
      <trkpt lat="45.86317" lon="6.4693">
        <ele>1651.2</ele>
        <time>2015-03-12T15:47:37Z</time>
      </trkpt>
      <trkpt lat="45.86317" lon="6.4693">
        <ele>1651.2</ele>
        <time>2015-03-12T15:48:05Z</time>
      </trkpt>
      <trkpt lat="45.86318" lon="6.46931">
        <ele>1651.2</ele>
        <time>2015-03-12T15:48:35Z</time>
      </trkpt>
      <trkpt lat="45.86316" lon="6.4693">
        <ele>1651.2</ele>
        <time>2015-03-12T15:49:00Z</time>
      </trkpt>
      <trkpt lat="45.86318" lon="6.46929">
        <ele>1649.76</ele>
        <time>2015-03-12T15:49:27Z</time>
      </trkpt>
      <trkpt lat="45.86319" lon="6.46927">
        <ele>1649.76</ele>
        <time>2015-03-12T15:50:12Z</time>
      </trkpt>
      <trkpt lat="45.86318" lon="6.46928">
        <ele>1651.2</ele>
        <time>2015-03-12T15:50:20Z</time>
      </trkpt>
      <trkpt lat="45.86317" lon="6.46931">
        <ele>1651.2</ele>
        <time>2015-03-12T15:50:45Z</time>
      </trkpt>
      <trkpt lat="45.86317" lon="6.46928">
        <ele>1651.2</ele>
        <time>2015-03-12T15:51:12Z</time>
      </trkpt>
      <trkpt lat="45.86319" lon="6.46927">
        <ele>1651.2</ele>
        <time>2015-03-12T15:51:40Z</time>
      </trkpt>
      <trkpt lat="45.86315" lon="6.4693">
        <ele>1651.2</ele>
        <time>2015-03-12T15:52:03Z</time>
      </trkpt>
      <trkpt lat="45.86316" lon="6.46929">
        <ele>1651.2</ele>
        <time>2015-03-12T15:52:26Z</time>
      </trkpt>
      <trkpt lat="45.86317" lon="6.4693">
        <ele>1649.76</ele>
        <time>2015-03-12T15:52:44Z</time>
      </trkpt>
      <trkpt lat="45.86313" lon="6.4693">
        <ele>1649.28</ele>
        <time>2015-03-12T15:53:08Z</time>
      </trkpt>
      <trkpt lat="45.8631" lon="6.4693">
        <ele>1649.28</ele>
        <time>2015-03-12T15:53:29Z</time>
      </trkpt>
      <trkpt lat="45.86301" lon="6.46932">
        <ele>1645.91</ele>
        <time>2015-03-12T15:53:32Z</time>
      </trkpt>
      <trkpt lat="45.86294" lon="6.46935">
        <ele>1643.51</ele>
        <time>2015-03-12T15:53:34Z</time>
      </trkpt>
      <trkpt lat="45.86284" lon="6.46944">
        <ele>1639.67</ele>
        <time>2015-03-12T15:53:38Z</time>
      </trkpt>
      <trkpt lat="45.86278" lon="6.4695">
        <ele>1637.74</ele>
        <time>2015-03-12T15:53:40Z</time>
      </trkpt>
      <trkpt lat="45.86276" lon="6.46957">
        <ele>1636.3</ele>
        <time>2015-03-12T15:53:44Z</time>
      </trkpt>
      <trkpt lat="45.86276" lon="6.4696">
        <ele>1634.86</ele>
        <time>2015-03-12T15:53:48Z</time>
      </trkpt>
      <trkpt lat="45.86269" lon="6.46965">
        <ele>1631.01</ele>
        <time>2015-03-12T15:53:52Z</time>
      </trkpt>
      <trkpt lat="45.86268" lon="6.46965">
        <ele>1631.01</ele>
        <time>2015-03-12T15:53:53Z</time>
      </trkpt>
      <trkpt lat="45.86269" lon="6.46965">
        <ele>1630.53</ele>
        <time>2015-03-12T15:53:57Z</time>
      </trkpt>
      <trkpt lat="45.86277" lon="6.46972">
        <ele>1627.65</ele>
        <time>2015-03-12T15:54:01Z</time>
      </trkpt>
      <trkpt lat="45.86282" lon="6.46973">
        <ele>1626.21</ele>
        <time>2015-03-12T15:54:04Z</time>
      </trkpt>
      <trkpt lat="45.86283" lon="6.46973">
        <ele>1626.21</ele>
        <time>2015-03-12T15:54:05Z</time>
      </trkpt>
      <trkpt lat="45.86287" lon="6.46981">
        <ele>1621.4</ele>
        <time>2015-03-12T15:54:09Z</time>
      </trkpt>
      <trkpt lat="45.8629" lon="6.46987">
        <ele>1618.04</ele>
        <time>2015-03-12T15:54:11Z</time>
      </trkpt>
      <trkpt lat="45.86297" lon="6.46991">
        <ele>1614.67</ele>
        <time>2015-03-12T15:54:14Z</time>
      </trkpt>
      <trkpt lat="45.86303" lon="6.46994">
        <ele>1612.27</ele>
        <time>2015-03-12T15:54:16Z</time>
      </trkpt>
      <trkpt lat="45.86303" lon="6.47007">
        <ele>1607.46</ele>
        <time>2015-03-12T15:54:19Z</time>
      </trkpt>
      <trkpt lat="45.86299" lon="6.47011">
        <ele>1606.02</ele>
        <time>2015-03-12T15:54:20Z</time>
      </trkpt>
      <trkpt lat="45.86287" lon="6.47021">
        <ele>1601.69</ele>
        <time>2015-03-12T15:54:25Z</time>
      </trkpt>
      <trkpt lat="45.86271" lon="6.47029">
        <ele>1596.41</ele>
        <time>2015-03-12T15:54:30Z</time>
      </trkpt>
      <trkpt lat="45.86266" lon="6.4703">
        <ele>1594.96</ele>
        <time>2015-03-12T15:54:31Z</time>
      </trkpt>
      <trkpt lat="45.86237" lon="6.47028">
        <ele>1592.56</ele>
        <time>2015-03-12T15:54:39Z</time>
      </trkpt>
      <trkpt lat="45.86228" lon="6.47034">
        <ele>1590.64</ele>
        <time>2015-03-12T15:54:42Z</time>
      </trkpt>
      <trkpt lat="45.86223" lon="6.47045">
        <ele>1586.79</ele>
        <time>2015-03-12T15:54:48Z</time>
      </trkpt>
      <trkpt lat="45.86221" lon="6.47047">
        <ele>1585.83</ele>
        <time>2015-03-12T15:54:49Z</time>
      </trkpt>
      <trkpt lat="45.86212" lon="6.47061">
        <ele>1581.99</ele>
        <time>2015-03-12T15:54:52Z</time>
      </trkpt>
      <trkpt lat="45.86201" lon="6.47071">
        <ele>1580.06</ele>
        <time>2015-03-12T15:54:56Z</time>
      </trkpt>
      <trkpt lat="45.86186" lon="6.47074">
        <ele>1576.22</ele>
        <time>2015-03-12T15:54:59Z</time>
      </trkpt>
      <trkpt lat="45.86175" lon="6.47074">
        <ele>1575.26</ele>
        <time>2015-03-12T15:55:01Z</time>
      </trkpt>
      <trkpt lat="45.86159" lon="6.47089">
        <ele>1569.97</ele>
        <time>2015-03-12T15:55:07Z</time>
      </trkpt>
      <trkpt lat="45.86166" lon="6.47095">
        <ele>1568.53</ele>
        <time>2015-03-12T15:55:09Z</time>
      </trkpt>
      <trkpt lat="45.86174" lon="6.471">
        <ele>1567.57</ele>
        <time>2015-03-12T15:55:11Z</time>
      </trkpt>
      <trkpt lat="45.8619" lon="6.47106">
        <ele>1567.57</ele>
        <time>2015-03-12T15:55:19Z</time>
      </trkpt>
      <trkpt lat="45.8619" lon="6.47108">
        <ele>1567.57</ele>
        <time>2015-03-12T15:55:36Z</time>
      </trkpt>
      <trkpt lat="45.86189" lon="6.47109">
        <ele>1568.05</ele>
        <time>2015-03-12T15:56:10Z</time>
      </trkpt>
      <trkpt lat="45.86188" lon="6.47108">
        <ele>1568.05</ele>
        <time>2015-03-12T15:56:45Z</time>
      </trkpt>
      <trkpt lat="45.86187" lon="6.4711">
        <ele>1568.05</ele>
        <time>2015-03-12T15:57:05Z</time>
      </trkpt>
      <trkpt lat="45.86187" lon="6.4711">
        <ele>1568.05</ele>
        <time>2015-03-12T15:57:22Z</time>
      </trkpt>
      <trkpt lat="45.86187" lon="6.47111">
        <ele>1568.05</ele>
        <time>2015-03-12T15:57:29Z</time>
      </trkpt>
      <trkpt lat="45.86179" lon="6.47119">
        <ele>1563.24</ele>
        <time>2015-03-12T15:57:33Z</time>
      </trkpt>
      <trkpt lat="45.86174" lon="6.47126">
        <ele>1559.88</ele>
        <time>2015-03-12T15:57:34Z</time>
      </trkpt>
      <trkpt lat="45.8616" lon="6.47135">
        <ele>1556.03</ele>
        <time>2015-03-12T15:57:36Z</time>
      </trkpt>
      <trkpt lat="45.86135" lon="6.47143">
        <ele>1551.22</ele>
        <time>2015-03-12T15:57:39Z</time>
      </trkpt>
      <trkpt lat="45.86119" lon="6.47157">
        <ele>1546.42</ele>
        <time>2015-03-12T15:57:42Z</time>
      </trkpt>
      <trkpt lat="45.86117" lon="6.47175">
        <ele>1542.09</ele>
        <time>2015-03-12T15:57:44Z</time>
      </trkpt>
      <trkpt lat="45.86126" lon="6.47195">
        <ele>1536.8</ele>
        <time>2015-03-12T15:57:46Z</time>
      </trkpt>
      <trkpt lat="45.8613" lon="6.47206">
        <ele>1535.84</ele>
        <time>2015-03-12T15:57:47Z</time>
      </trkpt>
      <trkpt lat="45.86143" lon="6.47265">
        <ele>1524.31</ele>
        <time>2015-03-12T15:57:51Z</time>
      </trkpt>
      <trkpt lat="45.86159" lon="6.47286">
        <ele>1520.94</ele>
        <time>2015-03-12T15:57:53Z</time>
      </trkpt>
      <trkpt lat="45.86186" lon="6.47333">
        <ele>1514.69</ele>
        <time>2015-03-12T15:57:58Z</time>
      </trkpt>
      <trkpt lat="45.86186" lon="6.47354">
        <ele>1508.93</ele>
        <time>2015-03-12T15:58:00Z</time>
      </trkpt>
      <trkpt lat="45.86189" lon="6.47365">
        <ele>1505.08</ele>
        <time>2015-03-12T15:58:01Z</time>
      </trkpt>
      <trkpt lat="45.86194" lon="6.47377">
        <ele>1503.64</ele>
        <time>2015-03-12T15:58:02Z</time>
      </trkpt>
      <trkpt lat="45.86212" lon="6.47414">
        <ele>1497.87</ele>
        <time>2015-03-12T15:58:05Z</time>
      </trkpt>
      <trkpt lat="45.86223" lon="6.47454">
        <ele>1495.47</ele>
        <time>2015-03-12T15:58:08Z</time>
      </trkpt>
      <trkpt lat="45.86202" lon="6.47468">
        <ele>1495.47</ele>
        <time>2015-03-12T15:58:13Z</time>
      </trkpt>
      <trkpt lat="45.86185" lon="6.47451">
        <ele>1494.51</ele>
        <time>2015-03-12T15:58:24Z</time>
      </trkpt>
      <trkpt lat="45.86181" lon="6.47449">
        <ele>1494.51</ele>
        <time>2015-03-12T15:58:48Z</time>
      </trkpt>
      <trkpt lat="45.86176" lon="6.47447">
        <ele>1494.03</ele>
        <time>2015-03-12T15:59:00Z</time>
      </trkpt>
      <trkpt lat="45.86164" lon="6.4744">
        <ele>1488.26</ele>
        <time>2015-03-12T15:59:03Z</time>
      </trkpt>
      <trkpt lat="45.8616" lon="6.47434">
        <ele>1487.3</ele>
        <time>2015-03-12T15:59:04Z</time>
      </trkpt>
      <trkpt lat="45.86141" lon="6.4743">
        <ele>1485.37</ele>
        <time>2015-03-12T15:59:09Z</time>
      </trkpt>
      <trkpt lat="45.86131" lon="6.47441">
        <ele>1483.45</ele>
        <time>2015-03-12T15:59:12Z</time>
      </trkpt>
      <trkpt lat="45.86117" lon="6.47457">
        <ele>1480.57</ele>
        <time>2015-03-12T15:59:16Z</time>
      </trkpt>
      <trkpt lat="45.86113" lon="6.47467">
        <ele>1478.16</ele>
        <time>2015-03-12T15:59:21Z</time>
      </trkpt>
      <trkpt lat="45.86101" lon="6.47477">
        <ele>1473.84</ele>
        <time>2015-03-12T15:59:24Z</time>
      </trkpt>
      <trkpt lat="45.8609" lon="6.47495">
        <ele>1465.67</ele>
        <time>2015-03-12T15:59:27Z</time>
      </trkpt>
      <trkpt lat="45.86087" lon="6.4751">
        <ele>1462.3</ele>
        <time>2015-03-12T15:59:29Z</time>
      </trkpt>
      <trkpt lat="45.86086" lon="6.47527">
        <ele>1457.02</ele>
        <time>2015-03-12T15:59:32Z</time>
      </trkpt>
      <trkpt lat="45.86095" lon="6.47542">
        <ele>1451.25</ele>
        <time>2015-03-12T15:59:34Z</time>
      </trkpt>
      <trkpt lat="45.86106" lon="6.47561">
        <ele>1448.84</ele>
        <time>2015-03-12T15:59:36Z</time>
      </trkpt>
      <trkpt lat="45.86118" lon="6.47592">
        <ele>1446.44</ele>
        <time>2015-03-12T15:59:39Z</time>
      </trkpt>
      <trkpt lat="45.86104" lon="6.47631">
        <ele>1445</ele>
        <time>2015-03-12T15:59:44Z</time>
      </trkpt>
      <trkpt lat="45.86097" lon="6.47652">
        <ele>1443.08</ele>
        <time>2015-03-12T15:59:48Z</time>
      </trkpt>
      <trkpt lat="45.86105" lon="6.47666">
        <ele>1439.23</ele>
        <time>2015-03-12T15:59:53Z</time>
      </trkpt>
      <trkpt lat="45.8611" lon="6.47678">
        <ele>1435.39</ele>
        <time>2015-03-12T15:59:57Z</time>
      </trkpt>
      <trkpt lat="45.86114" lon="6.47683">
        <ele>1433.46</ele>
        <time>2015-03-12T15:59:59Z</time>
      </trkpt>
      <trkpt lat="45.86115" lon="6.47693">
        <ele>1429.62</ele>
        <time>2015-03-12T16:00:01Z</time>
      </trkpt>
      <trkpt lat="45.86108" lon="6.47713">
        <ele>1425.77</ele>
        <time>2015-03-12T16:00:07Z</time>
      </trkpt>
      <trkpt lat="45.861" lon="6.47735">
        <ele>1419.52</ele>
        <time>2015-03-12T16:00:10Z</time>
      </trkpt>
      <trkpt lat="45.861" lon="6.47742">
        <ele>1417.12</ele>
        <time>2015-03-12T16:00:11Z</time>
      </trkpt>
      <trkpt lat="45.86104" lon="6.47768">
        <ele>1414.72</ele>
        <time>2015-03-12T16:00:16Z</time>
      </trkpt>
      <trkpt lat="45.86123" lon="6.47774">
        <ele>1415.2</ele>
        <time>2015-03-12T16:00:32Z</time>
      </trkpt>
      <trkpt lat="45.86127" lon="6.47771">
        <ele>1415.2</ele>
        <time>2015-03-12T16:01:10Z</time>
      </trkpt>
      <trkpt lat="45.86126" lon="6.47778">
        <ele>1414.72</ele>
        <time>2015-03-12T16:01:49Z</time>
      </trkpt>
      <trkpt lat="45.86126" lon="6.47778">
        <ele>1414.72</ele>
        <time>2015-03-12T16:01:50Z</time>
      </trkpt>
      <trkpt lat="45.86125" lon="6.47789">
        <ele>1412.31</ele>
        <time>2015-03-12T16:01:53Z</time>
      </trkpt>
      <trkpt lat="45.86111" lon="6.47812">
        <ele>1407.03</ele>
        <time>2015-03-12T16:01:57Z</time>
      </trkpt>
      <trkpt lat="45.86099" lon="6.47831">
        <ele>1401.74</ele>
        <time>2015-03-12T16:02:00Z</time>
      </trkpt>
      <trkpt lat="45.86098" lon="6.47839">
        <ele>1398.37</ele>
        <time>2015-03-12T16:02:01Z</time>
      </trkpt>
      <trkpt lat="45.86099" lon="6.47854">
        <ele>1394.05</ele>
        <time>2015-03-12T16:02:03Z</time>
      </trkpt>
      <trkpt lat="45.86098" lon="6.47864">
        <ele>1390.68</ele>
        <time>2015-03-12T16:02:04Z</time>
      </trkpt>
      <trkpt lat="45.86095" lon="6.47876">
        <ele>1386.84</ele>
        <time>2015-03-12T16:02:05Z</time>
      </trkpt>
      <trkpt lat="45.86087" lon="6.47899">
        <ele>1383.96</ele>
        <time>2015-03-12T16:02:07Z</time>
      </trkpt>
      <trkpt lat="45.86085" lon="6.47927">
        <ele>1376.75</ele>
        <time>2015-03-12T16:02:10Z</time>
      </trkpt>
      <trkpt lat="45.86101" lon="6.47949">
        <ele>1372.42</ele>
        <time>2015-03-12T16:02:13Z</time>
      </trkpt>
      <trkpt lat="45.86105" lon="6.4796">
        <ele>1368.57</ele>
        <time>2015-03-12T16:02:14Z</time>
      </trkpt>
      <trkpt lat="45.8612" lon="6.47997">
        <ele>1360.4</ele>
        <time>2015-03-12T16:02:17Z</time>
      </trkpt>
      <trkpt lat="45.86127" lon="6.48017">
        <ele>1356.08</ele>
        <time>2015-03-12T16:02:19Z</time>
      </trkpt>
      <trkpt lat="45.86127" lon="6.4804">
        <ele>1347.91</ele>
        <time>2015-03-12T16:02:22Z</time>
      </trkpt>
      <trkpt lat="45.86136" lon="6.48051">
        <ele>1345.02</ele>
        <time>2015-03-12T16:02:25Z</time>
      </trkpt>
      <trkpt lat="45.86152" lon="6.48055">
        <ele>1343.58</ele>
        <time>2015-03-12T16:02:28Z</time>
      </trkpt>
      <trkpt lat="45.86176" lon="6.48076">
        <ele>1335.89</ele>
        <time>2015-03-12T16:02:32Z</time>
      </trkpt>
      <trkpt lat="45.8619" lon="6.48094">
        <ele>1330.12</ele>
        <time>2015-03-12T16:02:34Z</time>
      </trkpt>
      <trkpt lat="45.86201" lon="6.48113">
        <ele>1327.72</ele>
        <time>2015-03-12T16:02:36Z</time>
      </trkpt>
      <trkpt lat="45.86205" lon="6.48115">
        <ele>1330.6</ele>
        <time>2015-03-12T16:02:39Z</time>
      </trkpt>
      <trkpt lat="45.862" lon="6.48084">
        <ele>1330.6</ele>
        <time>2015-03-12T16:03:11Z</time>
      </trkpt>
      <trkpt lat="45.86199" lon="6.4808">
        <ele>1330.6</ele>
        <time>2015-03-12T16:03:43Z</time>
      </trkpt>
      <trkpt lat="45.86195" lon="6.48075">
        <ele>1330.6</ele>
        <time>2015-03-12T16:04:08Z</time>
      </trkpt>
      <trkpt lat="45.86196" lon="6.48081">
        <ele>1331.08</ele>
        <time>2015-03-12T16:04:38Z</time>
      </trkpt>
      <trkpt lat="45.86199" lon="6.48088">
        <ele>1331.08</ele>
        <time>2015-03-12T16:05:09Z</time>
      </trkpt>
      <trkpt lat="45.86202" lon="6.48092">
        <ele>1331.08</ele>
        <time>2015-03-12T16:05:13Z</time>
      </trkpt>
      <trkpt lat="45.8621" lon="6.48105">
        <ele>1323.87</ele>
        <time>2015-03-12T16:05:15Z</time>
      </trkpt>
      <trkpt lat="45.8622" lon="6.48122">
        <ele>1318.1</ele>
        <time>2015-03-12T16:05:17Z</time>
      </trkpt>
      <trkpt lat="45.86226" lon="6.48128">
        <ele>1313.78</ele>
        <time>2015-03-12T16:05:18Z</time>
      </trkpt>
      <trkpt lat="45.86233" lon="6.48131">
        <ele>1310.41</ele>
        <time>2015-03-12T16:05:19Z</time>
      </trkpt>
      <trkpt lat="45.86241" lon="6.48133">
        <ele>1306.57</ele>
        <time>2015-03-12T16:05:20Z</time>
      </trkpt>
      <trkpt lat="45.86251" lon="6.48133">
        <ele>1303.69</ele>
        <time>2015-03-12T16:05:21Z</time>
      </trkpt>
      <trkpt lat="45.86271" lon="6.48132">
        <ele>1300.8</ele>
        <time>2015-03-12T16:05:23Z</time>
      </trkpt>
      <trkpt lat="45.86296" lon="6.4813">
        <ele>1301.76</ele>
        <time>2015-03-12T16:05:26Z</time>
      </trkpt>
      <trkpt lat="45.86309" lon="6.48123">
        <ele>1298.88</ele>
        <time>2015-03-12T16:05:29Z</time>
      </trkpt>
      <trkpt lat="45.86313" lon="6.48116">
        <ele>1299.84</ele>
        <time>2015-03-12T16:05:31Z</time>
      </trkpt>
      <trkpt lat="45.86327" lon="6.48119">
        <ele>1294.55</ele>
        <time>2015-03-12T16:05:36Z</time>
      </trkpt>
      <trkpt lat="45.8634" lon="6.48119">
        <ele>1291.67</ele>
        <time>2015-03-12T16:05:38Z</time>
      </trkpt>
      <trkpt lat="45.86346" lon="6.48121">
        <ele>1291.67</ele>
        <time>2015-03-12T16:05:39Z</time>
      </trkpt>
      <trkpt lat="45.86369" lon="6.48145">
        <ele>1287.82</ele>
        <time>2015-03-12T16:05:44Z</time>
      </trkpt>
      <trkpt lat="45.86369" lon="6.48153">
        <ele>1284.46</ele>
        <time>2015-03-12T16:05:45Z</time>
      </trkpt>
      <trkpt lat="45.86363" lon="6.48169">
        <ele>1281.57</ele>
        <time>2015-03-12T16:05:47Z</time>
      </trkpt>
      <trkpt lat="45.86349" lon="6.48183">
        <ele>1279.65</ele>
        <time>2015-03-12T16:05:49Z</time>
      </trkpt>
      <trkpt lat="45.86348" lon="6.48203">
        <ele>1275.33</ele>
        <time>2015-03-12T16:05:52Z</time>
      </trkpt>
      <trkpt lat="45.8635" lon="6.48209">
        <ele>1271.48</ele>
        <time>2015-03-12T16:05:53Z</time>
      </trkpt>
      <trkpt lat="45.86345" lon="6.4822">
        <ele>1270.04</ele>
        <time>2015-03-12T16:05:55Z</time>
      </trkpt>
      <trkpt lat="45.86343" lon="6.4824">
        <ele>1266.67</ele>
        <time>2015-03-12T16:05:59Z</time>
      </trkpt>
      <trkpt lat="45.8635" lon="6.48241">
        <ele>1265.23</ele>
        <time>2015-03-12T16:06:01Z</time>
      </trkpt>
      <trkpt lat="45.86372" lon="6.48262">
        <ele>1259.94</ele>
        <time>2015-03-12T16:06:08Z</time>
      </trkpt>
      <trkpt lat="45.8637" lon="6.4828">
        <ele>1255.62</ele>
        <time>2015-03-12T16:06:10Z</time>
      </trkpt>
      <trkpt lat="45.86364" lon="6.48304">
        <ele>1251.29</ele>
        <time>2015-03-12T16:06:13Z</time>
      </trkpt>
      <trkpt lat="45.8636" lon="6.48317">
        <ele>1246.97</ele>
        <time>2015-03-12T16:06:15Z</time>
      </trkpt>
      <trkpt lat="45.86364" lon="6.48333">
        <ele>1243.6</ele>
        <time>2015-03-12T16:06:19Z</time>
      </trkpt>
      <trkpt lat="45.86362" lon="6.48343">
        <ele>1241.68</ele>
        <time>2015-03-12T16:06:21Z</time>
      </trkpt>
      <trkpt lat="45.86357" lon="6.4835">
        <ele>1240.72</ele>
        <time>2015-03-12T16:06:23Z</time>
      </trkpt>
      <trkpt lat="45.86361" lon="6.48367">
        <ele>1235.43</ele>
        <time>2015-03-12T16:06:27Z</time>
      </trkpt>
      <trkpt lat="45.86374" lon="6.48378">
        <ele>1229.66</ele>
        <time>2015-03-12T16:06:29Z</time>
      </trkpt>
      <trkpt lat="45.86382" lon="6.48388">
        <ele>1225.82</ele>
        <time>2015-03-12T16:06:30Z</time>
      </trkpt>
      <trkpt lat="45.86389" lon="6.48401">
        <ele>1222.45</ele>
        <time>2015-03-12T16:06:31Z</time>
      </trkpt>
      <trkpt lat="45.86397" lon="6.48436">
        <ele>1218.61</ele>
        <time>2015-03-12T16:06:34Z</time>
      </trkpt>
      <trkpt lat="45.86395" lon="6.48449">
        <ele>1215.72</ele>
        <time>2015-03-12T16:06:35Z</time>
      </trkpt>
      <trkpt lat="45.86391" lon="6.48493">
        <ele>1207.07</ele>
        <time>2015-03-12T16:06:39Z</time>
      </trkpt>
      <trkpt lat="45.86394" lon="6.48498">
        <ele>1203.23</ele>
        <time>2015-03-12T16:06:40Z</time>
      </trkpt>
      <trkpt lat="45.86397" lon="6.48504">
        <ele>1202.75</ele>
        <time>2015-03-12T16:06:41Z</time>
      </trkpt>
      <trkpt lat="45.86399" lon="6.48516">
        <ele>1200.34</ele>
        <time>2015-03-12T16:06:43Z</time>
      </trkpt>
      <trkpt lat="45.86409" lon="6.48532">
        <ele>1198.9</ele>
        <time>2015-03-12T16:06:51Z</time>
      </trkpt>
      <trkpt lat="45.86411" lon="6.48515">
        <ele>1198.9</ele>
        <time>2015-03-12T16:07:00Z</time>
      </trkpt>
      <trkpt lat="45.86411" lon="6.48522">
        <ele>1197.94</ele>
        <time>2015-03-12T16:07:04Z</time>
      </trkpt>
      <trkpt lat="45.86403" lon="6.48538">
        <ele>1196.98</ele>
        <time>2015-03-12T16:07:16Z</time>
      </trkpt>
      <trkpt lat="45.86397" lon="6.48532">
        <ele>1196.02</ele>
        <time>2015-03-12T16:07:51Z</time>
      </trkpt>
      <trkpt lat="45.86398" lon="6.48531">
        <ele>1195.54</ele>
        <time>2015-03-12T16:08:29Z</time>
      </trkpt>
      <trkpt lat="45.86401" lon="6.48534">
        <ele>1195.06</ele>
        <time>2015-03-12T16:08:58Z</time>
      </trkpt>
      <trkpt lat="45.86407" lon="6.48532">
        <ele>1194.58</ele>
        <time>2015-03-12T16:09:18Z</time>
      </trkpt>
      <trkpt lat="45.86407" lon="6.48533">
        <ele>1193.61</ele>
        <time>2015-03-12T16:09:19Z</time>
      </trkpt>
      <trkpt lat="45.86409" lon="6.48538">
        <ele>1192.17</ele>
        <time>2015-03-12T16:09:21Z</time>
      </trkpt>
      <trkpt lat="45.86412" lon="6.48544">
        <ele>1189.77</ele>
        <time>2015-03-12T16:09:25Z</time>
      </trkpt>
      <trkpt lat="45.86417" lon="6.48551">
        <ele>1185.92</ele>
        <time>2015-03-12T16:09:28Z</time>
      </trkpt>
      <trkpt lat="45.86419" lon="6.48553">
        <ele>1185.92</ele>
        <time>2015-03-12T16:09:29Z</time>
      </trkpt>
      <trkpt lat="45.8642" lon="6.48554">
        <ele>1184.96</ele>
        <time>2015-03-12T16:09:30Z</time>
      </trkpt>
      <trkpt lat="45.86422" lon="6.48562">
        <ele>1181.12</ele>
        <time>2015-03-12T16:09:35Z</time>
      </trkpt>
      <trkpt lat="45.86426" lon="6.48564">
        <ele>1176.79</ele>
        <time>2015-03-12T16:09:38Z</time>
      </trkpt>
      <trkpt lat="45.86427" lon="6.48565">
        <ele>1176.79</ele>
        <time>2015-03-12T16:09:39Z</time>
      </trkpt>
      <trkpt lat="45.8643" lon="6.48569">
        <ele>1173.91</ele>
        <time>2015-03-12T16:09:42Z</time>
      </trkpt>
      <trkpt lat="45.86432" lon="6.48579">
        <ele>1170.06</ele>
        <time>2015-03-12T16:09:50Z</time>
      </trkpt>
      <trkpt lat="45.86426" lon="6.48586">
        <ele>1166.22</ele>
        <time>2015-03-12T16:09:55Z</time>
      </trkpt>
      <trkpt lat="45.86425" lon="6.48587">
        <ele>1166.22</ele>
        <time>2015-03-12T16:09:56Z</time>
      </trkpt>
      <trkpt lat="45.86423" lon="6.48595">
        <ele>1161.89</ele>
        <time>2015-03-12T16:10:01Z</time>
      </trkpt>
      <trkpt lat="45.86424" lon="6.48597">
        <ele>1156.6</ele>
        <time>2015-03-12T16:10:02Z</time>
      </trkpt>
      <trkpt lat="45.86427" lon="6.48601">
        <ele>1151.32</ele>
        <time>2015-03-12T16:10:05Z</time>
      </trkpt>
      <trkpt lat="45.86435" lon="6.48609">
        <ele>1154.68</ele>
        <time>2015-03-12T16:10:09Z</time>
      </trkpt>
      <trkpt lat="45.86433" lon="6.48652">
        <ele>1156.6</ele>
        <time>2015-03-12T16:10:20Z</time>
      </trkpt>
      <trkpt lat="45.86431" lon="6.48694">
        <ele>1156.6</ele>
        <time>2015-03-12T16:10:34Z</time>
      </trkpt>
      <trkpt lat="45.86432" lon="6.487">
        <ele>1156.6</ele>
        <time>2015-03-12T16:10:37Z</time>
      </trkpt>
      <trkpt lat="45.86435" lon="6.48731">
        <ele>1157.56</ele>
        <time>2015-03-12T16:10:49Z</time>
      </trkpt>
      <trkpt lat="45.8644" lon="6.48744">
        <ele>1157.56</ele>
        <time>2015-03-12T16:10:56Z</time>
      </trkpt>
      <trkpt lat="45.86441" lon="6.4875">
        <ele>1158.05</ele>
        <time>2015-03-12T16:10:59Z</time>
      </trkpt>
      <trkpt lat="45.8645" lon="6.48769">
        <ele>1159.01</ele>
        <time>2015-03-12T16:11:12Z</time>
      </trkpt>
      <trkpt lat="45.86451" lon="6.48771">
        <ele>1159.01</ele>
        <time>2015-03-12T16:11:13Z</time>
      </trkpt>
      <trkpt lat="45.86463" lon="6.48788">
        <ele>1159.49</ele>
        <time>2015-03-12T16:11:25Z</time>
      </trkpt>
      <trkpt lat="45.86468" lon="6.48793">
        <ele>1159.97</ele>
        <time>2015-03-12T16:11:31Z</time>
      </trkpt>
      <trkpt lat="45.86475" lon="6.48808">
        <ele>1155.16</ele>
        <time>2015-03-12T16:11:46Z</time>
      </trkpt>
      <trkpt lat="45.86475" lon="6.48807">
        <ele>1159.97</ele>
        <time>2015-03-12T16:11:47Z</time>
      </trkpt>
      <trkpt lat="45.86475" lon="6.48807">
        <ele>1162.37</ele>
        <time>2015-03-12T16:11:49Z</time>
      </trkpt>
      <trkpt lat="45.86474" lon="6.48807">
        <ele>1157.56</ele>
        <time>2015-03-12T16:11:51Z</time>
      </trkpt>
      <trkpt lat="45.86474" lon="6.48807">
        <ele>1159.01</ele>
        <time>2015-03-12T16:11:52Z</time>
      </trkpt>
      <trkpt lat="45.86474" lon="6.48809">
        <ele>1161.41</ele>
        <time>2015-03-12T16:11:54Z</time>
      </trkpt>
      <trkpt lat="45.86473" lon="6.4881">
        <ele>1160.45</ele>
        <time>2015-03-12T16:11:57Z</time>
      </trkpt>
      <trkpt lat="45.86478" lon="6.48815">
        <ele>1159.49</ele>
        <time>2015-03-12T16:12:07Z</time>
      </trkpt>
      <trkpt lat="45.86484" lon="6.48822">
        <ele>1159.49</ele>
        <time>2015-03-12T16:12:16Z</time>
      </trkpt>
      <trkpt lat="45.86489" lon="6.48827">
        <ele>1160.45</ele>
        <time>2015-03-12T16:12:30Z</time>
      </trkpt>
      <trkpt lat="45.86485" lon="6.48826">
        <ele>1160.93</ele>
        <time>2015-03-12T16:12:44Z</time>
      </trkpt>
      <trkpt lat="45.86483" lon="6.4883">
        <ele>1159.97</ele>
        <time>2015-03-12T16:13:00Z</time>
      </trkpt>
      <trkpt lat="45.86484" lon="6.4883">
        <ele>1163.33</ele>
        <time>2015-03-12T16:13:01Z</time>
      </trkpt>
      <trkpt lat="45.86484" lon="6.48828">
        <ele>1161.41</ele>
        <time>2015-03-12T16:13:02Z</time>
      </trkpt>
      <trkpt lat="45.86486" lon="6.48827">
        <ele>1160.45</ele>
        <time>2015-03-12T16:13:04Z</time>
      </trkpt>
      <trkpt lat="45.86481" lon="6.48826">
        <ele>1160.45</ele>
        <time>2015-03-12T16:13:21Z</time>
      </trkpt>
      <trkpt lat="45.86483" lon="6.48822">
        <ele>1160.45</ele>
        <time>2015-03-12T16:13:44Z</time>
      </trkpt>
      <trkpt lat="45.86485" lon="6.48826">
        <ele>1159.97</ele>
        <time>2015-03-12T16:14:01Z</time>
      </trkpt>
      <trkpt lat="45.8648" lon="6.48826">
        <ele>1159.97</ele>
        <time>2015-03-12T16:14:31Z</time>
      </trkpt>
      <trkpt lat="45.86485" lon="6.48827">
        <ele>1159.97</ele>
        <time>2015-03-12T16:14:48Z</time>
      </trkpt>
      <trkpt lat="45.86485" lon="6.48829">
        <ele>1159.97</ele>
        <time>2015-03-12T16:15:04Z</time>
      </trkpt>
      <trkpt lat="45.86482" lon="6.48829">
        <ele>1159.97</ele>
        <time>2015-03-12T16:15:29Z</time>
      </trkpt>
      <trkpt lat="45.86486" lon="6.48832">
        <ele>1159.97</ele>
        <time>2015-03-12T16:15:45Z</time>
      </trkpt>
      <trkpt lat="45.86495" lon="6.48834">
        <ele>1161.41</ele>
        <time>2015-03-12T16:15:58Z</time>
      </trkpt>
      <trkpt lat="45.86506" lon="6.48846">
        <ele>1163.33</ele>
        <time>2015-03-12T16:16:14Z</time>
      </trkpt>
      <trkpt lat="45.86517" lon="6.48855">
        <ele>1164.29</ele>
        <time>2015-03-12T16:16:29Z</time>
      </trkpt>
      <trkpt lat="45.86526" lon="6.48861">
        <ele>1166.7</ele>
        <time>2015-03-12T16:16:48Z</time>
      </trkpt>
      <trkpt lat="45.86535" lon="6.48867">
        <ele>1170.06</ele>
        <time>2015-03-12T16:17:07Z</time>
      </trkpt>
      <trkpt lat="45.86538" lon="6.48876">
        <ele>1171.5</ele>
        <time>2015-03-12T16:17:18Z</time>
      </trkpt>
      <trkpt lat="45.86542" lon="6.48874">
        <ele>1173.43</ele>
        <time>2015-03-12T16:17:27Z</time>
      </trkpt>
      <trkpt lat="45.8655" lon="6.48884">
        <ele>1175.35</ele>
        <time>2015-03-12T16:17:43Z</time>
      </trkpt>
      <trkpt lat="45.86555" lon="6.48892">
        <ele>1176.79</ele>
        <time>2015-03-12T16:17:58Z</time>
      </trkpt>
      <trkpt lat="45.8656" lon="6.48902">
        <ele>1178.23</ele>
        <time>2015-03-12T16:18:12Z</time>
      </trkpt>
      <trkpt lat="45.86559" lon="6.48919">
        <ele>1179.67</ele>
        <time>2015-03-12T16:18:27Z</time>
      </trkpt>
      <trkpt lat="45.86568" lon="6.48935">
        <ele>1179.67</ele>
        <time>2015-03-12T16:18:40Z</time>
      </trkpt>
      <trkpt lat="45.86577" lon="6.48952">
        <ele>1181.12</ele>
        <time>2015-03-12T16:18:55Z</time>
      </trkpt>
      <trkpt lat="45.86579" lon="6.48955">
        <ele>1181.12</ele>
        <time>2015-03-12T16:18:58Z</time>
      </trkpt>
      <trkpt lat="45.86596" lon="6.48968">
        <ele>1182.08</ele>
        <time>2015-03-12T16:19:13Z</time>
      </trkpt>
      <trkpt lat="45.86602" lon="6.48975">
        <ele>1182.08</ele>
        <time>2015-03-12T16:19:20Z</time>
      </trkpt>
      <trkpt lat="45.8661" lon="6.48992">
        <ele>1183.04</ele>
        <time>2015-03-12T16:19:34Z</time>
      </trkpt>
      <trkpt lat="45.86617" lon="6.49004">
        <ele>1183.04</ele>
        <time>2015-03-12T16:19:44Z</time>
      </trkpt>
      <trkpt lat="45.86618" lon="6.49007">
        <ele>1183.04</ele>
        <time>2015-03-12T16:19:59Z</time>
      </trkpt>
      <trkpt lat="45.86622" lon="6.49016">
        <ele>1183.04</ele>
        <time>2015-03-12T16:20:15Z</time>
      </trkpt>
      <trkpt lat="45.86632" lon="6.49019">
        <ele>1185.92</ele>
        <time>2015-03-12T16:20:31Z</time>
      </trkpt>
      <trkpt lat="45.86649" lon="6.49022">
        <ele>1186.88</ele>
        <time>2015-03-12T16:20:47Z</time>
      </trkpt>
      <trkpt lat="45.86653" lon="6.49025">
        <ele>1187.37</ele>
        <time>2015-03-12T16:21:02Z</time>
      </trkpt>
      <trkpt lat="45.86654" lon="6.49033">
        <ele>1187.37</ele>
        <time>2015-03-12T16:21:16Z</time>
      </trkpt>
      <trkpt lat="45.86653" lon="6.49027">
        <ele>1187.37</ele>
        <time>2015-03-12T16:21:28Z</time>
      </trkpt>
      <trkpt lat="45.86652" lon="6.49027">
        <ele>1187.85</ele>
        <time>2015-03-12T16:21:49Z</time>
      </trkpt>
    </trkseg>
  </trk>
</gpx>